# Wetter Temperatur Luftdruck Luftfeuchtigkeit Sichtweite Windgeschwindigkeit Windrichtung Zeit
1 Clouds 4 1007 93 10000 4.6 230 21:57 28.01.2020
2 Clouds 4 1007 93 10000 4.6 230 21:38 28.01.2020
3 Snow 4 1007 60 10000 6.2 250 21:19 28.01.2020
4 Snow 4 1007 60 10000 6.2 250 21:19 28.01.2020
5 Snow 4 1007 60 10000 5.1 240 20:46 28.01.2020
6 Clouds 3 1009 80 10000 4.1 250 20:26 28.01.2020
7 Clouds 3 1009 80 10000 6.2 250 19:55 28.01.2020
8 Clouds 3 1009 80 10000 5.7 250 19:37 28.01.2020
9 Clouds 3 1009 80 10000 5.7 250 19:19 28.01.2020
10 Rain 3 1009 86 10000 6.2 250 18:42 28.01.2020
11 Rain 3 1008 86 10000 5.7 250 18:23 28.01.2020
12 Rain 3 1006 84 10000 7.2 260 17:59 28.01.2020
13 Rain 3 1006 84 10000 7.2 260 17:40 28.01.2020
14 Rain 4 1006 75 10000 5.1 250 17:22 28.01.2020
15 Clouds 4 1005 82 10000 6.2 250 16:59 28.01.2020
16 Clouds 4 1005 82 10000 6.2 250 16:41 28.01.2020
17 Snow 5 1005 80 10000 5.7 220 16:22 28.01.2020
18 Rain 5 1006 86 9000 6.7 280 15:57 28.01.2020
19 Rain 5 1006 86 9000 6.7 280 15:38 28.01.2020
20 Clouds 6 1005 70 10000 5.1 270 15:18 28.01.2020
21 Snow 6 1004 49 10000 7.2 250 14:44 28.01.2020
22 Clouds 7 1004 49 10000 11.3 240 14:20 28.01.2020
23 Snow 7 1004 45 10000 10.3 240 13:43 28.01.2020
24 Snow 7 1004 42 10000 12.3 250 13:24 28.01.2020
25 Snow 7 1004 45 10000 10.3 240 12:56 28.01.2020
26 Snow 7 1004 45 10000 10.3 240 12:38 28.01.2020
27 Snow 7 1003 49 10000 9.8 230 12:20 28.01.2020
28 Snow 7 1003 80 10000 8.7 230 11:41 28.01.2020
29 Snow 7 1003 80 10000 8.7 230 11:41 28.01.2020
30 Clouds 6 1002 49 10000 10.3 240 11:22 28.01.2020
31 Clouds 6 1002 96 10000 7.7 250 10:55 28.01.2020
32 Clouds 6 1002 96 10000 7.7 250 10:37 28.01.2020
33 Rain 6 1001 52 10000 11.3 250 10:18 28.01.2020
34 Rain 5 1004 86 10000 7.2 250 09:42 28.01.2020
35 Rain 6 1000 66 10000 8.7 220 09:20 28.01.2020
36 Rain 7 1000 75 10000 7.7 210 08:46 28.01.2020
37 Rain 7 1000 66 10000 6.7 240 08:26 28.01.2020
38 Rain 7 1000 75 10000 5.1 230 07:57 28.01.2020
39 Rain 7 1000 87 10000 4.6 190 07:36 28.01.2020
40 Rain 7 1001 87 10000 4.6 200 06:49 28.01.2020
41 Rain 7 1001 87 10000 4.6 200 06:25 28.01.2020
42 Rain 7 1001 81 10000 5.1 210 05:42 28.01.2020
43 Clouds 7 1002 75 10000 3.1 170 05:24 28.01.2020
44 Rain 7 1003 81 10000 4.1 200 03:51 28.01.2020
45 Rain 7 1004 81 10000 4.1 200 02:58 28.01.2020
46 Rain 7 1004 87 10000 2.6 190 02:25 28.01.2020
47 Rain 7 1004 93 10000 4.6 180 01:57 28.01.2020
48 Rain 7 1004 87 10000 5.7 200 01:23 28.01.2020
49 Rain 7 1004 81 10000 6.7 190 00:45 28.01.2020
50 Rain 7 1004 81 10000 6.2 190 00:24 28.01.2020
51 Clouds 7 1005 81 10000 4.1 200 23:48 27.01.2020
52 Clouds 7 1005 81 10000 4.1 190 23:28 27.01.2020
53 Clouds 6 1006 87 10000 1.5 0 22:54 27.01.2020
54 Rain 6 1006 87 10000 1 0 22:36 27.01.2020
55 Rain 6 1006 87 10000 1 0 22:18 27.01.2020
56 Rain 6 1007 87 10000 1.5 160 21:54 27.01.2020
57 Rain 7 1007 75 10000 3.6 170 21:36 27.01.2020
58 Rain 6 1007 75 10000 3.6 170 21:18 27.01.2020
59 Rain 6 1008 75 10000 3.6 170 20:42 27.01.2020
60 Rain 7 1008 81 10000 2.1 180 20:21 27.01.2020
61 Rain 7 1008 81 10000 4.1 180 19:59 27.01.2020
62 Rain 7 1008 81 10000 4.1 180 19:40 27.01.2020
63 Rain 7 1009 81 10000 4.6 170 19:22 27.01.2020
64 Rain 7 1009 70 10000 3.6 170 18:56 27.01.2020
65 Rain 7 1009 70 10000 3.6 170 18:37 27.01.2020
66 Clouds 8 1009 66 10000 3.6 190 18:19 27.01.2020
67 Clouds 8 1010 66 10000 4.1 210 17:39 27.01.2020
68 Clouds 8 1010 66 10000 4.1 210 17:39 27.01.2020
69 Clouds 8 1010 57 10000 6.7 200 17:20 27.01.2020
70 Clouds 8 1010 57 10000 6.7 200 16:59 27.01.2020
71 Clouds 8 1010 57 10000 6.7 200 16:40 27.01.2020
72 Clouds 8 1010 61 10000 2.6 220 16:22 27.01.2020
73 Clouds 8 1011 57 10000 1.5 220 15:55 27.01.2020
74 Clouds 9 1011 57 10000 1.5 220 15:36 27.01.2020
75 Clouds 9 1011 53 10000 3.1 260 15:18 27.01.2020
76 Clouds 9 1011 57 10000 2.6 240 14:42 27.01.2020
77 Clouds 9 1011 57 10000 2.1 240 14:22 27.01.2020
78 Clouds 9 1012 57 10000 3.1 210 13:57 27.01.2020
79 Clouds 10 1012 57 10000 3.1 210 13:37 27.01.2020
80 Clouds 10 1012 66 10000 4.1 190 13:18 27.01.2020
81 Clouds 10 1013 66 10000 2.6 120 12:44 27.01.2020
82 Clouds 10 1013 66 10000 3.1 130 12:23 27.01.2020
83 Clouds 10 1013 66 10000 3.1 130 12:23 27.01.2020
84 Clouds 9 1014 70 10000 2.6 180 11:58 27.01.2020
85 Clouds 9 1014 70 10000 2.6 180 11:40 27.01.2020
86 Clouds 8 1014 75 10000 5.1 180 11:20 27.01.2020
87 Clouds 7 1015 75 10000 5.1 190 10:43 27.01.2020
88 Clouds 6 1015 81 10000 4.1 180 10:24 27.01.2020
89 Clouds 6 1015 81 10000 2.6 180 09:56 27.01.2020
90 Clouds 6 1015 81 10000 2.6 180 09:38 27.01.2020
91 Clouds 5 1015 81 10000 3.6 160 09:18 27.01.2020
92 Clouds 5 1016 81 10000 3.6 170 08:42 27.01.2020
93 Clouds 4 1016 87 10000 4.6 170 08:20 27.01.2020
94 Clouds 4 1016 93 10000 4.6 190 07:54 27.01.2020
95 Clouds 4 1016 93 10000 4.6 190 07:54 27.01.2020
96 Clouds 4 1016 87 10000 5.1 180 07:33 27.01.2020
97 Clouds 5 1017 93 10000 4.1 170 06:52 27.01.2020
98 Clouds 5 1017 93 10000 4.6 180 06:24 27.01.2020
99 Clouds 5 1017 87 10000 5.1 170 05:23 27.01.2020
100 Clouds 5 1017 87 10000 3.6 180 03:47 27.01.2020
101 Clouds 5 1017 93 10000 5.1 180 02:38 27.01.2020
102 Clouds 5 1018 93 10000 4.6 180 01:29 27.01.2020
103 Clouds 5 1018 93 10000 2.6 210 00:57 27.01.2020
104 Clouds 5 1018 100 9000 3.1 200 00:36 27.01.2020
105 Clouds 5 1018 100 9000 3.1 200 00:18 27.01.2020
106 Clouds 5 1018 100 9000 3.1 200 00:18 27.01.2020
107 Clouds 4 1018 93 7000 1.5 210 23:41 26.01.2020
108 Clouds 4 1018 93 7000 1 0 23:19 26.01.2020
109 Clouds 4 1018 100 7000 1.24 189 22:55 26.01.2020
110 Clouds 4 1018 93 8000 1.24 189 22:36 26.01.2020
111 Clouds 4 1018 93 8000 1.24 189 22:18 26.01.2020
112 Clouds 4 1018 93 8000 1.24 189 22:18 26.01.2020
113 Clouds 4 1018 93 7000 0.5 0 21:55 26.01.2020
114 Clouds 4 1018 93 10000 1 0 21:37 26.01.2020
115 Clouds 4 1018 93 10000 1 0 21:19 26.01.2020
116 Clouds 4 1018 93 9000 1.24 189 20:55 26.01.2020
117 Rain 4 1018 93 10000 1.24 189 20:36 26.01.2020
118 Rain 4 1018 93 10000 1.3 213 20:18 26.01.2020
119 Clouds 4 1018 93 10000 1.3 213 19:56 26.01.2020
120 Clouds 4 1018 93 10000 1 0 19:37 26.01.2020
121 Clouds 4 1018 93 10000 1 0 19:37 26.01.2020
122 Clouds 4 1018 93 10000 1 0 19:18 26.01.2020
123 Rain 5 1018 86 10000 1.3 213 18:41 26.01.2020
124 Rain 5 1018 86 10000 0.5 0 18:22 26.01.2020
125 Rain 5 1018 86 10000 1 340 17:58 26.01.2020
126 Clouds 5 1018 81 10000 1 340 17:39 26.01.2020
127 Clouds 6 1018 81 10000 1 340 17:20 26.01.2020
128 Rain 7 1018 75 10000 1 350 16:58 26.01.2020
129 Rain 7 1018 75 10000 1 350 16:40 26.01.2020
130 Rain 7 1018 75 10000 1 0 16:21 26.01.2020
131 Rain 8 1018 70 10000 1 0 15:58 26.01.2020
132 Rain 8 1018 70 10000 1 0 15:40 26.01.2020
133 Rain 8 1016 74 0 0.45 292 15:19 26.01.2020
134 Rain 8 1017 70 0 0.89 167 14:41 26.01.2020
135 Clouds 8 1017 77 0 1.87 266 14:23 26.01.2020
136 Clouds 8 1017 73 0 1.87 266 13:57 26.01.2020
137 Clouds 8 1017 78 0 1.87 266 13:38 26.01.2020
138 Clouds 7 1017 79 0 2.35 257 13:18 26.01.2020
139 Clouds 7 1018 76 0 0.45 144 12:43 26.01.2020
140 Clouds 6 1018 76 0 1.79 154 12:24 26.01.2020
141 Clouds 6 1018 81 0 2.35 257 11:58 26.01.2020
142 Clouds 5 1018 83 0 2.35 257 11:40 26.01.2020
143 Clouds 3 1020 81 10000 3.6 170 11:19 26.01.2020
144 Fog 2 1020 100 300 1 350 10:59 26.01.2020
145 Fog 2 1020 100 300 1 350 10:39 26.01.2020
146 Fog 1 1020 100 300 1 350 10:21 26.01.2020
147 Fog 1 1020 100 400 1 0 09:59 26.01.2020
148 Fog 1 1020 100 400 1 0 09:41 26.01.2020
149 Clouds 0 1020 81 8000 4.1 170 09:22 26.01.2020
150 Fog 0 1020 100 350 1.21 188 08:45 26.01.2020
151 Fog 0 1020 100 300 1.61 169 08:24 26.01.2020
152 Fog 0 1020 100 250 0.5 300 07:59 26.01.2020
153 Fog 0 1020 100 250 0.5 300 07:41 26.01.2020
154 Rain 0 1020 100 300 1.5 340 07:22 26.01.2020
155 Fog 0 1019 100 400 1.61 169 06:32 26.01.2020
156 Fog 0 1019 100 200 0.5 320 05:37 26.01.2020
157 Mist 0 1020 100 2500 1 30 04:58 26.01.2020
158 Mist 0 1020 92 5000 1 250 02:59 26.01.2020
159 Mist 0 1020 100 5000 1 260 01:59 26.01.2020
160 Mist 0 1020 100 5000 1 260 01:39 26.01.2020
161 Mist 0 1020 100 2600 0.5 0 01:19 26.01.2020
162 Mist 0 1021 87 4500 1.5 110 00:39 26.01.2020
163 Mist 0 1021 87 5000 1 0 00:20 26.01.2020
164 Clouds 0 1019 92 0 1.48 162 23:38 25.01.2020
165 Clouds 1 1019 92 0 1.28 142 23:20 25.01.2020
166 Clouds 1 1020 90 0 1.28 142 22:43 25.01.2020
167 Clouds 1 1019 91 0 1.28 142 22:20 25.01.2020
168 Clouds 1 1020 89 0 1.28 142 21:59 25.01.2020
169 Clouds 1 1020 89 0 1.28 142 21:41 25.01.2020
170 Clouds 1 1019 89 0 1.28 142 21:22 25.01.2020
171 Clouds 2 1019 90 0 1.28 142 20:54 25.01.2020
172 Clouds 2 1022 90 0 1.28 142 20:36 25.01.2020
173 Clouds 2 1019 89 0 0.78 119 20:18 25.01.2020
174 Clouds 2 1020 87 0 0.94 127 19:41 25.01.2020
175 Clouds 3 1019 85 0 0.94 127 19:19 25.01.2020
176 Clouds 3 1019 92 0 0.94 127 18:56 25.01.2020
177 Clouds 4 1019 79 0 0.94 127 18:38 25.01.2020
178 Clouds 4 1019 79 0 0.94 127 18:20 25.01.2020
179 Clouds 4 1019 79 0 0.94 127 18:20 25.01.2020
180 Clouds 4 1019 79 0 0.94 127 17:40 25.01.2020
181 Clear 5 1019 77 0 0.77 310 17:19 25.01.2020
182 Clear 6 1019 75 0 0.87 314 16:57 25.01.2020
183 Clear 6 1019 73 0 0.77 310 16:38 25.01.2020
184 Clear 7 1019 73 0 0.77 310 16:19 25.01.2020
185 Clear 7 1019 72 0 0.77 310 15:46 25.01.2020
186 Clear 8 1020 67 0 0.77 310 15:25 25.01.2020
187 Clear 7 1019 71 0 0.77 310 14:57 25.01.2020
188 Clear 8 1019 72 0 0.77 310 14:39 25.01.2020
189 Clouds 8 1020 74 0 0.9 294 14:18 25.01.2020
190 Clouds 7 1020 76 0 0.9 294 13:42 25.01.2020
191 Clouds 7 1020 78 0 1.02 287 13:23 25.01.2020
192 Clouds 6 1023 86 9000 1 0 12:45 25.01.2020
193 Clouds 6 1023 86 9000 1 0 12:26 25.01.2020
194 Clouds 5 1023 86 9000 1 0 11:45 25.01.2020
195 Clouds 4 1023 86 8000 0.71 106 11:22 25.01.2020
196 Clouds 3 1023 79 8000 1 0 10:59 25.01.2020
197 Clouds 2 1023 79 8000 1 0 10:40 25.01.2020
198 Clouds 2 1023 79 7000 0.5 0 10:20 25.01.2020
199 Clouds 1 1023 79 6000 0.71 106 09:54 25.01.2020
200 Mist 1 1023 79 5000 0.5 0 09:36 25.01.2020
201 Mist 1 1023 79 5000 0.5 0 09:18 25.01.2020
202 Mist 0 1023 100 5000 0.71 106 08:42 25.01.2020
203 Mist 0 1022 100 5000 1.5 340 07:50 25.01.2020
204 Mist 0 1022 100 4800 1.5 340 06:54 25.01.2020
205 Mist 0 1022 100 5000 1.5 330 06:29 25.01.2020
206 Mist 0 1022 92 5000 2.1 20 05:48 25.01.2020
207 Clouds 0 1021 92 6000 0.77 123 05:23 25.01.2020
208 Clouds 0 1022 86 8000 2.6 190 03:54 25.01.2020
209 Clouds 0 1022 86 7000 2.6 190 03:23 25.01.2020
210 Clouds 0 1022 100 6000 1.13 157 02:23 25.01.2020
211 Clouds 0 1023 86 7000 1.5 200 01:53 25.01.2020
212 Clouds 0 1023 92 6000 0.5 0 00:52 25.01.2020
213 Clouds 0 1023 100 7000 0.5 170 00:26 25.01.2020
214 Clouds 0 1023 100 7000 0.5 170 00:26 25.01.2020
215 Clouds 0 1023 92 6000 1 0 23:59 24.01.2020
216 Clouds 0 1023 92 6000 1 0 23:41 24.01.2020
217 Clouds 0 1023 100 6000 0.92 152 23:23 24.01.2020
218 Clouds 0 1023 100 6000 0.5 200 22:46 24.01.2020
219 Clouds 0 1023 100 6000 0.5 200 22:46 24.01.2020
220 Clouds 0 1023 92 6000 0.5 0 22:25 24.01.2020
221 Clouds 0 1023 92 7000 1 260 21:57 24.01.2020
222 Clouds 0 1023 92 7000 1 260 21:38 24.01.2020
223 Clouds 1 1023 100 6000 1.5 220 21:18 24.01.2020
224 Clouds 1 1023 92 7000 0.47 135 20:43 24.01.2020
225 Clouds 1 1023 87 8000 1 280 20:21 24.01.2020
226 Clouds 1 1023 92 8000 1 250 19:58 24.01.2020
227 Clouds 1 1023 92 8000 1 250 19:39 24.01.2020
228 Clouds 2 1023 86 9000 1 260 19:21 24.01.2020
229 Clouds 2 1023 87 9000 1.5 330 18:44 24.01.2020
230 Clouds 3 1023 80 10000 1.5 340 18:25 24.01.2020
231 Clouds 3 1022 80 10000 1.5 350 17:59 24.01.2020
232 Clouds 3 1022 80 10000 1.5 350 17:41 24.01.2020
233 Clear 4 1022 74 10000 1.5 350 17:20 24.01.2020
234 Clear 5 1022 85 10000 0.5 0 16:40 24.01.2020
235 Clear 6 1022 85 10000 1 0 16:21 24.01.2020
236 Clear 6 1022 85 10000 0.5 0 15:56 24.01.2020
237 Clear 6 1022 85 10000 0.5 0 15:38 24.01.2020
238 Clear 6 1022 65 10000 0.5 0 15:19 24.01.2020
239 Clear 6 1023 65 10000 0.5 0 14:41 24.01.2020
240 Clear 6 1023 65 10000 0.5 0 14:41 24.01.2020
241 Clear 6 1023 69 10000 1 0 14:23 24.01.2020
242 Clear 6 1023 69 10000 1 0 14:23 24.01.2020
243 Clear 5 1024 69 10000 1 0 13:57 24.01.2020
244 Clear 5 1024 69 10000 1.24 269 13:39 24.01.2020
245 Clear 5 1024 69 10000 1.28 273 13:19 24.01.2020
246 Clear 5 1025 74 10000 0.5 0 12:41 24.01.2020
247 Clear 4 1025 80 9000 1 0 12:18 24.01.2020
248 Clear 4 1025 69 9000 0.5 0 11:43 24.01.2020
249 Clear 2 1025 78 9000 1.24 201 11:19 24.01.2020
250 Clear 0 1025 86 7000 1 0 10:43 24.01.2020
251 Clear 0 1025 86 8000 1.24 201 10:23 24.01.2020
252 Clear -1 1025 92 7000 1.24 201 09:57 24.01.2020
253 Clear -1 1025 92 7000 1.24 201 09:57 24.01.2020
254 Clear -1 1025 92 8000 1.24 201 09:39 24.01.2020
255 Clear -1 1025 92 8000 1.24 201 09:21 24.01.2020
256 Clear -2 1026 92 8000 1.24 201 08:41 24.01.2020
257 Clear -3 1025 92 6000 1.67 184 08:20 24.01.2020
258 Clear -3 1025 92 8000 0.5 220 07:53 24.01.2020
259 Clear -3 1025 92 8000 1 0 07:34 24.01.2020
260 Clear -3 1025 85 8000 1.5 210 06:48 24.01.2020
261 Clear -3 1025 85 8000 1 210 06:29 24.01.2020
262 Clear -3 1025 92 8000 1 0 05:59 24.01.2020
263 Clear -3 1025 92 9000 0.5 260 04:58 24.01.2020
264 Clouds -3 1026 86 10000 1.79 190 02:53 24.01.2020
265 Clouds -3 1026 86 8000 1.79 190 02:26 24.01.2020
266 Clouds -3 1026 86 8000 1.79 190 02:26 24.01.2020
267 Clouds -3 1027 92 10000 1.5 230 01:49 24.01.2020
268 Clouds -3 1027 86 10000 1.5 300 01:31 24.01.2020
269 Clouds -3 1027 86 9000 2.1 230 00:26 24.01.2020
270 Clouds -3 1027 86 9000 2.6 200 23:51 23.01.2020
271 Clouds -3 1028 86 9000 3.1 190 23:31 23.01.2020
272 Clouds -3 1028 92 9000 2.6 200 22:59 23.01.2020
273 Clouds -2 1028 92 9000 2.6 200 22:39 23.01.2020
274 Clouds -2 1028 92 9000 3.1 210 22:19 23.01.2020
275 Clouds -2 1028 86 8000 2.6 220 21:58 23.01.2020
276 Clouds -2 1028 86 8000 2.6 220 21:39 23.01.2020
277 Clouds -2 1028 86 7000 3.1 220 21:21 23.01.2020
278 Clouds -2 1028 86 8000 3.1 210 20:59 23.01.2020
279 Clouds -2 1028 86 8000 3.1 210 20:39 23.01.2020
280 Clouds -2 1028 86 8000 3.1 220 20:20 23.01.2020
281 Clouds -2 1028 86 8000 3.1 220 19:56 23.01.2020
282 Clouds -2 1028 86 8000 3.1 220 19:38 23.01.2020
283 Clouds -2 1028 86 8000 2.1 210 19:20 23.01.2020
284 Clouds -2 1027 86 9000 1.5 240 18:56 23.01.2020
285 Clouds -2 1027 86 9000 1 0 18:37 23.01.2020
286 Clouds -1 1027 86 9000 1 0 18:19 23.01.2020
287 Clouds -1 1027 86 9000 1.36 134 17:43 23.01.2020
288 Clouds -1 1027 86 9000 1.5 0 17:20 23.01.2020
289 Clouds -1 1027 80 9000 1.5 0 16:58 23.01.2020
290 Clouds -1 1027 80 9000 1 0 16:38 23.01.2020
291 Clouds -1 1027 80 9000 1 0 16:19 23.01.2020
292 Clouds -1 1028 80 9000 2.6 50 15:57 23.01.2020
293 Clouds 0 1028 80 9000 2.6 50 15:38 23.01.2020
294 Clouds 0 1028 86 7000 2.6 20 15:18 23.01.2020
295 Clouds 0 1028 86 7000 2.6 20 15:18 23.01.2020
296 Clouds 0 1028 86 7000 2.6 20 14:56 23.01.2020
297 Clouds 0 1028 86 7000 2.6 20 14:56 23.01.2020
298 Clouds 0 1028 86 7000 2.6 20 14:38 23.01.2020
299 Clouds 0 1029 86 7000 3.1 360 14:20 23.01.2020
300 Clouds 0 1029 92 6000 3.1 10 13:45 23.01.2020
301 Clouds 0 1030 86 6000 2.6 330 13:21 23.01.2020
302 Clouds 0 1030 86 6000 3.1 20 12:56 23.01.2020
303 Clouds 0 1030 86 6000 3.1 20 12:38 23.01.2020
304 Mist 0 1031 92 5000 1.5 0 12:20 23.01.2020
305 Mist 0 1031 86 5000 1.5 40 11:43 23.01.2020
306 Mist -1 1032 92 4800 1.5 0 11:25 23.01.2020
307 Mist -2 1032 86 4900 2.6 340 10:59 23.01.2020
308 Mist -2 1032 86 4900 2.6 340 10:41 23.01.2020
309 Clouds -2 1032 86 6000 1.5 30 10:19 23.01.2020
310 Mist -2 1032 86 5000 2.1 10 09:41 23.01.2020
311 Clouds -2 1032 86 6000 3.1 350 09:22 23.01.2020
312 Mist -3 1032 86 5000 2.6 30 08:57 23.01.2020
313 Clouds -3 1032 92 6000 2.1 10 08:38 23.01.2020
314 Clouds -3 1032 92 6000 2.1 10 08:19 23.01.2020
315 Clouds -3 1031 92 6000 2.6 350 07:42 23.01.2020
316 Clouds -3 1032 86 7000 2.1 350 07:21 23.01.2020
317 Clouds -3 1032 86 7000 2.1 350 07:21 23.01.2020
318 Clouds -2 1032 92 6000 1.5 10 06:44 23.01.2020
319 Clouds -2 1032 92 6000 1.5 340 06:19 23.01.2020
320 Mist -3 1033 92 5000 2.6 340 04:25 23.01.2020
321 Mist -3 1033 92 5000 2.6 350 03:47 23.01.2020
322 Mist -2 1034 92 5000 2.1 10 01:56 23.01.2020
323 Mist -2 1035 92 5000 2.1 10 00:47 23.01.2020
324 Clouds -2 1035 92 6000 2.1 20 00:26 23.01.2020
325 Clouds -2 1035 92 6000 2.1 10 23:47 22.01.2020
326 Clouds -2 1035 92 6000 2.1 40 23:28 22.01.2020
327 Mist -2 1035 92 5000 1.5 0 22:55 22.01.2020
328 Mist -2 1035 92 5000 2.1 10 22:37 22.01.2020
329 Mist -2 1035 92 5000 2.1 10 22:19 22.01.2020
330 Mist -2 1035 100 5000 2.1 290 21:39 22.01.2020
331 Mist -2 1035 100 4900 2.6 10 21:21 22.01.2020
332 Mist -2 1035 100 4900 2.1 10 20:56 22.01.2020
333 Mist -2 1035 100 3500 2.1 20 20:36 22.01.2020
334 Mist -2 1035 100 3500 2.1 20 20:18 22.01.2020
335 Mist -2 1035 100 2900 1.5 0 19:55 22.01.2020
336 Mist -2 1034 100 2600 2.1 20 19:37 22.01.2020
337 Mist -2 1034 100 2600 2.1 20 19:18 22.01.2020
338 Mist -1 1034 100 2200 1.5 0 18:55 22.01.2020
339 Mist -2 1034 100 2300 2.1 320 18:37 22.01.2020
340 Mist -1 1034 100 2300 2.1 320 18:18 22.01.2020
341 Mist -1 1034 100 1400 1.5 350 17:40 22.01.2020
342 Mist -1 1034 100 2400 2.1 350 17:21 22.01.2020
343 Mist -1 1034 100 2700 3.6 360 16:58 22.01.2020
344 Mist -1 1034 100 1900 2.6 350 16:39 22.01.2020
345 Mist 0 1034 100 1900 2.6 350 16:21 22.01.2020
346 Mist -1 1034 100 2400 3.1 360 15:56 22.01.2020
347 Mist -1 1034 100 2100 1.5 0 15:38 22.01.2020
348 Mist -1 1034 100 2100 1.5 0 15:19 22.01.2020
349 Mist 0 1034 100 2900 2.1 20 14:40 22.01.2020
350 Mist 0 1034 100 2900 2.1 20 14:40 22.01.2020
351 Mist -1 1034 100 2900 1.5 0 14:21 22.01.2020
352 Mist 0 1034 100 2700 1 0 13:59 22.01.2020
353 Mist -1 1035 100 2600 1 0 13:38 22.01.2020
354 Mist 0 1035 100 2600 1 0 13:19 22.01.2020
355 Mist 0 1035 100 2800 1.5 0 12:57 22.01.2020
356 Mist 1 1035 100 2900 1 0 12:39 22.01.2020
357 Mist 0 1035 100 2900 1 0 12:20 22.01.2020
358 Mist 0 1036 100 3600 1.5 10 11:58 22.01.2020
359 Mist -1 1036 100 3600 1.5 10 11:40 22.01.2020
360 Mist -2 1035 100 3200 1 0 11:19 22.01.2020
361 Mist -2 1036 100 3300 1.5 30 10:59 22.01.2020
362 Mist -2 1036 100 3300 1.5 30 10:41 22.01.2020
363 Mist -2 1035 100 2800 1.5 30 10:18 22.01.2020
364 Mist -3 1035 100 1800 2.6 340 09:42 22.01.2020
365 Mist -3 1036 100 1900 2.6 20 09:24 22.01.2020
366 Mist -3 1036 92 1800 3.1 360 08:57 22.01.2020
367 Mist -3 1035 92 2200 3.1 20 08:38 22.01.2020
368 Mist -3 1035 92 2200 3.1 20 08:20 22.01.2020
369 Fog -4 1035 100 650 2.6 40 07:46 22.01.2020
370 Fog -4 1035 100 700 1 0 07:27 22.01.2020
371 Fog -4 1034 100 550 1.5 0 06:38 22.01.2020
372 Fog -4 1034 100 650 1.5 0 06:20 22.01.2020
373 Clouds -4 1035 92 6000 1.07 163 05:21 22.01.2020
374 Clear -3 1035 92 8000 1 260 03:30 22.01.2020
375 Clear -3 1036 92 9000 1 250 02:50 22.01.2020
376 Clear -3 1036 92 8000 0.52 135 01:42 22.01.2020
377 Clear -3 1037 92 10000 0.5 0 00:44 22.01.2020
378 Clear -3 1037 86 10000 0.5 116 00:26 22.01.2020
379 Clear -2 1037 86 10000 2.6 270 23:38 21.01.2020
380 Clear -2 1037 86 10000 2.6 270 23:20 21.01.2020
381 Clear -2 1037 92 10000 1 0 22:55 21.01.2020
382 Clear -2 1037 86 10000 2.1 280 22:36 21.01.2020
383 Clear -2 1037 86 10000 2.1 280 22:18 21.01.2020
384 Clear -2 1037 86 10000 1.5 0 21:55 21.01.2020
385 Clear -2 1038 86 10000 2.1 290 21:37 21.01.2020
386 Clear -2 1038 86 10000 2.1 290 21:18 21.01.2020
387 Clear -2 1038 56 10000 3.1 270 20:54 21.01.2020
388 Clear -1 1038 56 10000 3.1 270 20:36 21.01.2020
389 Clear -1 1038 65 10000 2.6 280 20:18 21.01.2020
390 Clear -1 1038 65 10000 1.5 290 19:55 21.01.2020
391 Clear -1 1038 65 10000 2.1 300 19:36 21.01.2020
392 Clear -1 1038 65 10000 2.1 300 19:18 21.01.2020
393 Clear 0 1038 65 10000 2.1 310 18:54 21.01.2020
394 Clear 0 1038 65 10000 1 310 18:36 21.01.2020
395 Clear 0 1038 65 10000 1 310 18:18 21.01.2020
396 Clear 1 1038 74 10000 1.5 10 17:42 21.01.2020
397 Clear 2 1038 69 10000 2.1 30 17:19 21.01.2020
398 Clear 2 1038 69 10000 2.1 30 17:19 21.01.2020
399 Clear 3 1038 64 10000 1.5 50 16:56 21.01.2020
400 Clear 3 1038 69 10000 2.1 60 16:36 21.01.2020
401 Clear 3 1038 69 10000 2.1 60 16:18 21.01.2020
402 Clear 4 1038 65 10000 2.1 20 15:40 21.01.2020
403 Clear 4 1038 65 10000 2.1 330 15:20 21.01.2020
404 Clear 4 1039 69 0 1.5 0 14:57 21.01.2020
405 Clear 4 1039 69 0 2.1 10 14:37 21.01.2020
406 Clear 4 1039 69 0 2.1 10 14:18 21.01.2020
407 Clear 4 1039 74 10000 1.5 0 13:39 21.01.2020
408 Clear 3 1040 74 0 1.5 20 13:18 21.01.2020
409 Clear 3 1040 80 10000 1.5 0 12:43 21.01.2020
410 Clear 3 1041 74 10000 1.5 50 12:25 21.01.2020
411 Clear 2 1041 86 10000 1.5 0 11:57 21.01.2020
412 Clear 2 1041 42 10000 2.6 20 11:38 21.01.2020
413 Clear 1 1041 43 10000 2.6 20 11:20 21.01.2020
414 Clear 0 1041 43 10000 2.1 10 10:44 21.01.2020
415 Clear -1 1041 86 10000 1.5 360 10:23 21.01.2020
416 Clear -1 1041 92 10000 1 10 09:59 21.01.2020
417 Clear -2 1041 92 10000 1 10 09:40 21.01.2020
418 Clear -2 1041 92 0 0.5 310 09:22 21.01.2020
419 Clear -2 1041 92 0 0.5 310 09:22 21.01.2020
420 Clear -3 1041 86 10000 0.5 220 08:48 21.01.2020
421 Clear -3 1041 86 10000 1 0 08:28 21.01.2020
422 Clear -3 1041 85 10000 1 0 07:57 21.01.2020
423 Clear -3 1041 85 10000 1 0 07:38 21.01.2020
424 Clear -3 1041 85 10000 1 0 07:20 21.01.2020
425 Clear -3 1041 86 10000 1 0 06:45 21.01.2020
426 Clear -3 1041 86 10000 1 200 06:25 21.01.2020
427 Clear -3 1041 86 10000 1 0 05:41 21.01.2020
428 Clear -3 1041 92 10000 1 0 04:39 21.01.2020
429 Clear -2 1041 73 10000 2.1 330 02:56 21.01.2020
430 Clouds -2 1041 87 10000 3.1 350 01:51 21.01.2020
431 Clouds -1 1041 87 10000 3.6 360 00:57 21.01.2020
432 Clouds -1 1041 87 10000 4.1 360 00:35 21.01.2020
433 Clouds -1 1042 80 10000 4.1 360 23:58 20.01.2020
434 Clouds -1 1042 80 10000 4.1 360 23:38 20.01.2020
435 Clouds 1 1042 86 10000 4.1 10 23:19 20.01.2020
436 Clouds 1 1041 86 10000 4.1 360 22:56 20.01.2020
437 Clouds 1 1041 86 10000 4.1 360 22:37 20.01.2020
438 Clouds 1 1041 80 10000 4.1 10 22:19 20.01.2020
439 Clouds 1 1041 80 10000 4.1 10 21:57 20.01.2020
440 Clouds 1 1042 80 10000 5.1 10 21:37 20.01.2020
441 Clouds 1 1042 80 10000 5.1 10 21:19 20.01.2020
442 Clouds 1 1042 80 10000 4.6 10 20:55 20.01.2020
443 Clouds 1 1042 74 10000 4.6 360 20:37 20.01.2020
444 Clear 2 1042 74 10000 4.6 360 20:18 20.01.2020
445 Clear 2 1042 74 10000 5.1 10 19:56 20.01.2020
446 Clear 2 1042 74 10000 4.6 10 19:37 20.01.2020
447 Clear 2 1042 74 10000 4.6 10 19:18 20.01.2020
448 Clear 2 1042 74 10000 5.1 360 18:43 20.01.2020
449 Clear 2 1042 69 10000 3.6 20 18:22 20.01.2020
450 Clear 3 1042 69 10000 4.6 10 17:41 20.01.2020
451 Clouds 4 1042 70 10000 3.6 10 17:20 20.01.2020
452 Clouds 4 1041 70 10000 5.1 360 16:59 20.01.2020
453 Clouds 4 1041 70 10000 5.1 360 16:39 20.01.2020
454 Clouds 5 1042 60 10000 6.7 10 16:19 20.01.2020
455 Clouds 5 1042 60 10000 6.7 10 16:19 20.01.2020
456 Clouds 5 1042 60 10000 6.7 10 16:19 20.01.2020
457 Clouds 5 1042 60 10000 6.7 10 16:19 20.01.2020
458 Clouds 5 1042 60 10000 6.7 20 15:57 20.01.2020
459 Clouds 6 1042 60 10000 6.7 20 15:39 20.01.2020
460 Clouds 6 1042 60 10000 6.2 10 15:20 20.01.2020
461 Clouds 5 1042 60 10000 6.7 20 14:41 20.01.2020
462 Clouds 6 1042 62 10000 6.2 10 14:23 20.01.2020
463 Clouds 6 1043 60 10000 6.2 20 13:58 20.01.2020
464 Clouds 5 1043 60 10000 6.2 20 13:40 20.01.2020
465 Clouds 5 1043 60 10000 5.7 20 13:22 20.01.2020
466 Clouds 5 1043 70 10000 5.7 360 12:47 20.01.2020
467 Clouds 5 1043 75 10000 5.1 360 12:28 20.01.2020
468 Rain 5 1044 75 10000 4.6 20 11:58 20.01.2020
469 Rain 4 1044 75 10000 4.6 20 11:39 20.01.2020
470 Clouds 3 1044 80 10000 4.6 10 11:21 20.01.2020
471 Rain 2 1044 86 10000 4.1 10 10:55 20.01.2020
472 Rain 2 1044 86 10000 4.1 10 10:37 20.01.2020
473 Clouds 1 1044 86 10000 2.1 10 10:18 20.01.2020
474 Clouds 0 1044 93 10000 1.5 360 09:40 20.01.2020
475 Clouds 0 1044 77 10000 1.5 10 09:20 20.01.2020
476 Clouds -1 1044 77 10000 1.5 0 08:46 20.01.2020
477 Clouds 0 1044 77 10000 2.6 30 08:28 20.01.2020
478 Clouds -1 1044 86 10000 3.1 10 07:45 20.01.2020
479 Clouds -1 1044 86 10000 4.1 360 07:26 20.01.2020
480 Clouds -1 1043 86 10000 3.6 10 06:59 20.01.2020
481 Clouds -1 1043 86 10000 4.1 360 06:28 20.01.2020
482 Clouds -1 1043 86 10000 3.6 10 05:43 20.01.2020
483 Clouds -1 1043 86 10000 3.6 10 05:43 20.01.2020
484 Clouds -1 1041 100 7000 1 0 05:23 20.01.2020
485 Clouds -1 1043 93 10000 3.1 20 04:48 20.01.2020
486 Clouds 0 1043 86 10000 4.1 20 02:59 20.01.2020
487 Clouds 0 1043 86 10000 4.1 20 02:59 20.01.2020
488 Clouds 0 1042 86 10000 4.6 20 01:57 20.01.2020
489 Rain 0 1042 86 10000 4.1 10 01:37 20.01.2020
490 Rain 0 1043 86 10000 3.1 20 00:45 20.01.2020
491 Clouds 0 1042 86 10000 3.6 20 00:25 20.01.2020
492 Clouds 0 1042 86 10000 5.1 20 23:54 19.01.2020
493 Clouds 1 1042 86 10000 4.6 20 23:36 19.01.2020
494 Clouds 1 1042 86 10000 4.6 20 23:18 19.01.2020
495 Clouds 1 1042 80 10000 5.1 10 22:54 19.01.2020
496 Clouds 1 1041 80 10000 4.6 20 22:36 19.01.2020
497 Clouds 1 1041 80 10000 4.6 20 22:18 19.01.2020
498 Clouds 1 1041 80 10000 4.6 20 21:54 19.01.2020
499 Rain 1 1041 80 10000 3.6 30 21:36 19.01.2020
500 Rain 1 1041 80 10000 3.6 30 21:18 19.01.2020
501 Rain 1 1040 80 10000 3.6 20 20:54 19.01.2020
502 Rain 1 1040 80 10000 4.1 10 20:36 19.01.2020
503 Rain 1 1040 80 10000 4.1 10 20:18 19.01.2020
504 Rain 2 1040 80 10000 3.6 10 19:54 19.01.2020
505 Clouds 2 1040 80 10000 3.6 10 19:36 19.01.2020
506 Clouds 2 1039 86 10000 3.1 10 19:18 19.01.2020
507 Clouds 2 1039 86 10000 3.1 10 18:54 19.01.2020
508 Clouds 2 1039 86 10000 3.1 360 18:36 19.01.2020
509 Clouds 2 1039 86 10000 3.1 360 18:18 19.01.2020
510 Drizzle 2 1038 80 10000 4.1 20 17:55 19.01.2020
511 Drizzle 2 1038 80 10000 4.1 20 17:37 19.01.2020
512 Snow 2 1038 80 10000 4.6 20 17:18 19.01.2020
513 Snow 3 1037 80 10000 4.1 10 16:54 19.01.2020
514 Snow 3 1037 80 10000 4.1 10 16:54 19.01.2020
515 Snow 3 1037 85 10000 3.6 20 16:36 19.01.2020
516 Snow 3 1037 85 10000 3.6 20 16:18 19.01.2020
517 Snow 3 1037 85 10000 4.6 10 15:41 19.01.2020
518 Clouds 3 1036 85 10000 4.1 20 15:22 19.01.2020
519 Clouds 3 1036 85 10000 3.6 30 14:59 19.01.2020
520 Clouds 4 1036 85 10000 3.6 30 14:40 19.01.2020
521 Clouds 3 1036 84 10000 5.1 10 14:20 19.01.2020
522 Clouds 4 1036 84 10000 5.1 20 13:59 19.01.2020
523 Clouds 4 1036 84 10000 5.1 20 13:40 19.01.2020
524 Clouds 3 1036 84 10000 4.1 30 13:21 19.01.2020
525 Clouds 3 1036 80 10000 4.1 30 12:59 19.01.2020
526 Clouds 3 1036 80 10000 4.1 30 12:59 19.01.2020
527 Clouds 3 1036 80 10000 4.1 30 12:40 19.01.2020
528 Clouds 2 1036 80 10000 3.1 30 12:21 19.01.2020
529 Clouds 2 1036 80 10000 3.1 30 11:57 19.01.2020
530 Clouds 2 1036 80 10000 1.5 0 11:38 19.01.2020
531 Clouds 2 1036 87 10000 1.5 0 11:18 19.01.2020
532 Clouds 1 1035 87 10000 1.5 330 10:41 19.01.2020
533 Clouds 1 1035 87 10000 1 0 10:21 19.01.2020
534 Clouds 0 1034 87 10000 0.5 0 09:57 19.01.2020
535 Clouds 0 1034 87 10000 0.5 0 09:38 19.01.2020
536 Rain 0 1034 86 10000 1 0 09:20 19.01.2020
537 Rain -1 1034 86 10000 1.3 15 08:56 19.01.2020
538 Clouds -1 1033 87 10000 1 0 08:38 19.01.2020
539 Clouds -1 1033 91 10000 1 0 08:19 19.01.2020
540 Clouds -1 1033 92 10000 0.5 0 07:30 19.01.2020
541 Clouds -1 1032 86 10000 1 30 06:56 19.01.2020
542 Clouds -1 1032 86 10000 0.5 0 06:23 19.01.2020
543 Clouds -1 1032 86 10000 1.5 0 04:39 19.01.2020
544 Clouds 0 1031 86 10000 1 0 02:36 19.01.2020
545 Clouds 1 1030 95 10000 2.1 270 01:58 19.01.2020
546 Clouds 1 1030 80 10000 3.6 280 01:24 19.01.2020
547 Clouds 1 1030 80 10000 1 0 00:45 19.01.2020
548 Clouds 1 1030 80 10000 0.98 14 00:26 19.01.2020
549 Clouds 1 1029 80 10000 1.5 0 23:55 18.01.2020
550 Clouds 1 1029 80 10000 1.5 0 23:36 18.01.2020
551 Clouds 2 1029 80 10000 1.5 0 23:18 18.01.2020
552 Clouds 2 1029 80 10000 1.5 280 22:54 18.01.2020
553 Clouds 2 1029 80 10000 1.5 280 22:54 18.01.2020
554 Clouds 2 1029 80 10000 1.5 330 22:36 18.01.2020
555 Clouds 2 1029 80 10000 1.5 330 22:18 18.01.2020
556 Clouds 2 1029 80 10000 0.31 67 21:56 18.01.2020
557 Clouds 2 1029 80 10000 0.31 67 21:36 18.01.2020
558 Clouds 2 1029 92 10000 1 0 21:18 18.01.2020
559 Clouds 3 1029 92 10000 1.5 60 20:41 18.01.2020
560 Clouds 3 1028 94 10000 3.1 250 20:20 18.01.2020
561 Clouds 3 1029 94 10000 2.1 320 19:55 18.01.2020
562 Clouds 3 1029 94 10000 2.1 320 19:36 18.01.2020
563 Clouds 3 1029 94 10000 2.1 320 19:36 18.01.2020
564 Snow 4 1029 60 10000 2.6 330 19:18 18.01.2020
565 Clouds 4 1028 94 10000 1 0 18:41 18.01.2020
566 Clouds 4 1028 75 10000 3.1 340 18:21 18.01.2020
567 Clouds 4 1028 75 10000 4.1 350 17:54 18.01.2020
568 Clouds 4 1027 94 10000 2.6 200 17:36 18.01.2020
569 Clouds 5 1027 86 10000 2.6 200 17:18 18.01.2020
570 Clouds 5 1027 86 10000 2.6 220 16:41 18.01.2020
571 Clouds 5 1027 56 10000 2.6 280 16:23 18.01.2020
572 Clouds 6 1027 49 10000 3.1 270 15:59 18.01.2020
573 Clouds 6 1027 52 10000 4.1 270 15:40 18.01.2020
574 Clouds 6 1027 52 10000 4.1 270 15:22 18.01.2020
575 Clouds 6 1027 52 10000 3.6 250 14:54 18.01.2020
576 Clouds 6 1027 52 10000 3.6 250 14:36 18.01.2020
577 Clouds 6 1027 52 10000 3.6 250 14:18 18.01.2020
578 Clouds 6 1027 61 10000 4.1 190 13:43 18.01.2020
579 Clouds 6 1027 65 10000 5.1 210 13:24 18.01.2020
580 Clouds 6 1027 70 10000 5.1 190 12:56 18.01.2020
581 Clouds 7 1028 65 10000 5.7 190 12:38 18.01.2020
582 Clouds 6 1028 65 10000 5.7 190 12:19 18.01.2020
583 Clouds 6 1028 75 10000 5.1 200 11:44 18.01.2020
584 Clouds 5 1028 75 10000 5.1 190 11:21 18.01.2020
585 Clouds 5 1028 70 10000 5.1 190 10:56 18.01.2020
586 Clouds 5 1028 70 10000 5.1 190 10:38 18.01.2020
587 Clouds 4 1028 80 10000 4.1 190 10:18 18.01.2020
588 Clouds 4 1028 86 10000 4.1 190 09:42 18.01.2020
589 Clouds 4 1028 86 10000 2.25 230 09:24 18.01.2020
590 Clouds 3 1027 86 10000 2.1 190 08:55 18.01.2020
591 Clouds 3 1027 93 10000 2.1 170 08:37 18.01.2020
592 Clouds 3 1027 93 10000 2.1 170 08:18 18.01.2020
593 Clouds 4 1027 93 10000 1.5 190 07:43 18.01.2020
594 Clouds 4 1027 86 10000 1.5 240 07:25 18.01.2020
595 Clouds 4 1027 93 10000 2.6 230 06:46 18.01.2020
596 Snow 4 1027 86 10000 1 0 05:58 18.01.2020
597 Rain 5 1026 70 10000 1 0 04:35 18.01.2020
598 Rain 5 1026 86 10000 2.1 200 02:53 18.01.2020
599 Clouds 5 1025 70 10000 2.1 240 01:51 18.01.2020
600 Clouds 5 1025 70 10000 1.5 240 01:29 18.01.2020
601 Clouds 5 1025 87 10000 4.1 260 00:36 18.01.2020
602 Clouds 6 1025 87 10000 4.1 260 00:18 18.01.2020
603 Clouds 6 1024 70 10000 1 0 23:41 17.01.2020
604 Rain 6 1024 75 10000 1 0 23:19 17.01.2020
605 Rain 6 1023 70 10000 1.5 200 22:44 17.01.2020
606 Rain 6 1023 75 10000 1.5 0 22:21 17.01.2020
607 Rain 6 1023 75 10000 3.6 220 21:59 17.01.2020
608 Rain 6 1023 75 10000 3.6 220 21:41 17.01.2020
609 Rain 6 1022 75 10000 0.5 0 21:22 17.01.2020
610 Rain 6 1022 81 10000 0.5 0 20:57 17.01.2020
611 Rain 6 1022 81 10000 0.5 0 20:38 17.01.2020
612 Rain 6 1022 93 10000 1.5 210 20:20 17.01.2020
613 Rain 7 1021 87 10000 1.5 150 19:55 17.01.2020
614 Rain 7 1021 87 10000 1.5 150 19:55 17.01.2020
615 Rain 7 1021 87 10000 1.5 190 19:37 17.01.2020
616 Rain 7 1021 87 10000 1.5 190 19:18 17.01.2020
617 Clouds 7 1021 87 10000 1.5 190 18:47 17.01.2020
618 Clouds 7 1021 87 10000 2.1 220 18:29 17.01.2020
619 Rain 7 1020 87 10000 3.6 190 17:58 17.01.2020
620 Rain 7 1020 87 10000 3.6 190 17:39 17.01.2020
621 Rain 7 1020 87 10000 4.1 190 17:20 17.01.2020
622 Rain 7 1019 87 10000 4.1 180 16:43 17.01.2020
623 Rain 7 1019 76 10000 2.6 170 16:21 17.01.2020
624 Rain 7 1019 66 10000 2.6 130 15:58 17.01.2020
625 Rain 7 1019 66 10000 2.6 130 15:39 17.01.2020
626 Rain 7 1019 66 10000 1 0 15:20 17.01.2020
627 Rain 8 1019 70 10000 4.1 200 14:43 17.01.2020
628 Rain 8 1019 66 10000 5.1 180 14:24 17.01.2020
629 Clouds 8 1019 61 10000 5.1 180 13:43 17.01.2020
630 Clouds 9 1019 66 10000 4.6 180 13:23 17.01.2020
631 Clouds 9 1020 66 10000 3.1 180 12:47 17.01.2020
632 Clouds 8 1020 66 10000 3.6 170 12:23 17.01.2020
633 Clouds 8 1020 70 10000 3.1 180 11:43 17.01.2020
634 Clouds 6 1020 70 10000 1.5 0 11:20 17.01.2020
635 Clouds 6 1020 70 10000 1.5 0 11:20 17.01.2020
636 Clouds 6 1020 75 10000 2.6 160 10:58 17.01.2020
637 Clouds 5 1020 75 10000 2.6 160 10:40 17.01.2020
638 Clouds 4 1020 75 10000 1.5 0 10:21 17.01.2020
639 Clouds 4 1021 75 10000 1.5 200 09:56 17.01.2020
640 Clouds 3 1021 75 10000 1.5 200 09:37 17.01.2020
641 Clouds 3 1021 75 10000 4.1 180 09:18 17.01.2020
642 Clouds 3 1021 75 10000 4.6 180 08:42 17.01.2020
643 Clear 2 1021 80 10000 3.1 190 08:23 17.01.2020
644 Clear 2 1020 80 10000 3.6 200 07:51 17.01.2020
645 Clear 2 1021 86 10000 5.1 190 07:31 17.01.2020
646 Clear 2 1021 80 10000 4.1 190 06:56 17.01.2020
647 Clear 2 1021 92 10000 1.5 0 06:37 17.01.2020
648 Clear 2 1022 92 10000 2.63 159 05:27 17.01.2020
649 Clear 2 1023 83 10000 0.5 100 03:38 17.01.2020
650 Clear 2 1021 86 0 1.69 177 02:44 17.01.2020
651 Clear 2 1021 84 0 1.91 164 01:46 17.01.2020
652 Clear 3 1023 86 0 0.45 248 01:27 17.01.2020
653 Clear 3 1021 87 0 1.7 165 00:44 17.01.2020
654 Clear 4 1023 80 10000 2.6 190 00:20 17.01.2020
655 Clear 4 1023 80 10000 2.6 190 23:42 16.01.2020
656 Clear 4 1023 80 10000 2.6 190 23:24 16.01.2020
657 Clear 4 1024 93 10000 2.1 230 22:55 16.01.2020
658 Clear 5 1024 86 10000 1.5 220 22:36 16.01.2020
659 Clear 4 1024 86 10000 1.5 220 22:18 16.01.2020
660 Clear 5 1024 86 10000 2.1 210 21:54 16.01.2020
661 Clear 4 1025 86 10000 1.5 220 21:36 16.01.2020
662 Clear 5 1025 86 10000 1.5 220 21:18 16.01.2020
663 Clear 5 1025 87 10000 1 0 20:40 16.01.2020
664 Clear 6 1025 87 10000 2.1 260 20:21 16.01.2020
665 Clear 6 1025 81 10000 1 250 19:58 16.01.2020
666 Clear 6 1025 81 10000 1 250 19:40 16.01.2020
667 Clear 6 1025 87 10000 1.5 0 19:22 16.01.2020
668 Clear 7 1025 81 10000 2.6 260 18:57 16.01.2020
669 Clear 7 1025 81 10000 2.6 260 18:38 16.01.2020
670 Clear 7 1025 81 10000 0.5 0 18:19 16.01.2020
671 Clear 7 1025 76 10000 2.6 280 17:58 16.01.2020
672 Clear 8 1025 76 10000 2.6 280 17:39 16.01.2020
673 Clouds 10 1025 66 10000 0.63 100 17:20 16.01.2020
674 Clouds 11 1025 58 10000 1 80 16:42 16.01.2020
675 Clear 11 1025 54 10000 0.5 0 16:24 16.01.2020
676 Clear 12 1025 54 10000 1 0 15:58 16.01.2020
677 Clear 12 1025 54 10000 1 0 15:39 16.01.2020
678 Clear 13 1025 54 10000 0.5 0 15:20 16.01.2020
679 Clear 13 1026 54 10000 1 0 14:45 16.01.2020
680 Clear 13 1026 54 10000 0.63 100 14:24 16.01.2020
681 Clouds 13 1026 58 10000 1 0 13:56 16.01.2020
682 Clouds 13 1027 54 10000 1 0 13:37 16.01.2020
683 Clouds 12 1027 54 10000 1 0 13:19 16.01.2020
684 Clouds 12 1027 58 10000 1 0 12:42 16.01.2020
685 Clouds 12 1027 62 10000 0.5 0 12:22 16.01.2020
686 Clouds 11 1028 66 10000 0.3 347 11:43 16.01.2020
687 Clouds 9 1028 71 10000 1 0 11:25 16.01.2020
688 Clouds 9 1028 76 10000 1 0 10:59 16.01.2020
689 Clouds 8 1028 76 10000 1.28 130 10:38 16.01.2020
690 Clouds 8 1028 76 10000 1.28 130 10:20 16.01.2020
691 Clouds 7 1028 81 10000 1.5 230 09:56 16.01.2020
692 Clouds 7 1028 81 10000 1 0 09:37 16.01.2020
693 Clouds 7 1028 81 10000 1 0 09:19 16.01.2020
694 Clouds 6 1028 75 10000 1 160 08:49 16.01.2020
695 Clouds 6 1028 81 10000 0.5 0 08:29 16.01.2020
696 Clouds 6 1028 81 10000 0.5 0 07:58 16.01.2020
697 Clouds 6 1028 81 10000 1.39 151 07:38 16.01.2020
698 Clouds 6 1028 81 10000 1.39 151 07:19 16.01.2020
699 Clouds 6 1027 81 10000 1 0 06:42 16.01.2020
700 Clouds 6 1027 81 10000 3.1 190 05:59 16.01.2020
701 Clouds 6 1027 81 10000 3.1 190 05:40 16.01.2020
702 Clouds 7 1027 66 10000 2.6 160 04:37 16.01.2020
703 Clouds 7 1027 66 10000 2.6 160 04:37 16.01.2020
704 Clouds 6 1027 66 10000 2.6 220 03:28 16.01.2020
705 Clouds 7 1026 66 10000 3.1 180 02:43 16.01.2020
706 Clouds 6 1027 80 10000 1.5 0 00:54 16.01.2020
707 Clouds 6 1026 80 10000 2.6 160 00:24 16.01.2020
708 Clouds 6 1026 75 10000 1.5 160 23:50 15.01.2020
709 Clouds 6 1026 80 10000 2.1 180 23:23 15.01.2020
710 Clouds 6 1026 86 10000 2.1 210 22:59 15.01.2020
711 Clouds 6 1026 86 10000 2.1 210 22:41 15.01.2020
712 Clouds 7 1023 58 10000 5.7 190 22:20 15.01.2020
713 Clouds 7 1023 58 10000 5.7 190 22:20 15.01.2020
714 Clouds 5 1025 86 10000 1 0 21:59 15.01.2020
715 Clouds 6 1025 86 10000 1 0 21:40 15.01.2020
716 Clouds 6 1023 62 10000 3.1 230 21:22 15.01.2020
717 Clouds 7 1023 58 10000 4.6 210 20:58 15.01.2020
718 Clouds 6 1023 58 10000 4.6 210 20:40 15.01.2020
719 Clouds 6 1022 62 10000 4.1 200 20:22 15.01.2020
720 Clouds 7 1022 58 10000 3.1 210 19:56 15.01.2020
721 Clouds 7 1022 58 10000 3.1 210 19:38 15.01.2020
722 Clouds 7 1022 54 10000 1.5 0 19:20 15.01.2020
723 Clouds 7 1022 61 10000 1.5 0 18:57 15.01.2020
724 Clouds 7 1022 61 10000 1.5 0 18:38 15.01.2020
725 Clouds 8 1021 57 10000 1 0 18:20 15.01.2020
726 Clouds 8 1021 57 10000 1 0 18:20 15.01.2020
727 Clouds 9 1021 54 10000 3.6 210 17:58 15.01.2020
728 Clouds 9 1021 54 10000 3.6 210 17:40 15.01.2020
729 Clouds 10 1020 54 10000 3.6 220 17:21 15.01.2020
730 Clouds 11 1020 54 10000 3.1 230 16:56 15.01.2020
731 Clouds 11 1020 54 10000 3.1 230 16:38 15.01.2020
732 Clouds 11 1019 50 10000 2.1 190 16:20 15.01.2020
733 Clouds 12 1019 47 10000 4.1 150 15:43 15.01.2020
734 Clouds 12 1019 47 10000 4.6 180 15:21 15.01.2020
735 Clouds 12 1019 47 10000 4.6 240 14:56 15.01.2020
736 Clouds 12 1018 47 10000 6.2 240 14:37 15.01.2020
737 Clear 12 1018 47 10000 6.2 240 14:18 15.01.2020
738 Clear 11 1018 50 10000 1 0 13:44 15.01.2020
739 Clear 11 1019 47 10000 4.1 140 13:23 15.01.2020
740 Clear 11 1019 47 10000 4.6 190 12:55 15.01.2020
741 Clear 11 1019 47 10000 4.6 190 12:37 15.01.2020
742 Clear 11 1019 54 10000 5.1 180 12:37 15.01.2020
743 Clear 10 1019 54 10000 5.1 180 12:18 15.01.2020
744 Clear 9 1019 57 10000 3.6 150 11:54 15.01.2020
745 Clear 10 1019 57 10000 3.6 150 11:36 15.01.2020
746 Clear 6 1019 57 10000 5.1 160 11:18 15.01.2020
747 Clear 6 1019 61 10000 5.7 180 10:41 15.01.2020
748 Clear 5 1019 65 10000 3.1 190 10:21 15.01.2020
749 Clear 4 1019 75 10000 3.1 200 09:41 15.01.2020
750 Clear 3 1019 75 10000 3.1 180 09:22 15.01.2020
751 Clear 4 1018 68 10000 2.1 140 08:45 15.01.2020
752 Clear 3 1018 68 10000 4.6 190 08:27 15.01.2020
753 Clouds 2 1018 70 10000 3.1 170 07:59 15.01.2020
754 Clouds 2 1018 70 10000 3.1 170 07:40 15.01.2020
755 Clouds 2 1018 70 10000 2.6 230 07:21 15.01.2020
756 Clouds 2 1018 70 10000 4.6 190 06:43 15.01.2020
757 Clouds 3 1018 65 10000 5.7 190 05:52 15.01.2020
758 Clouds 3 1018 70 10000 4.6 190 03:44 15.01.2020
759 Clouds 3 1017 75 10000 2.6 180 02:28 15.01.2020
760 Clouds 3 1017 70 10000 1 0 01:22 15.01.2020
761 Clouds 4 1017 65 10000 3.1 190 00:44 15.01.2020
762 Clouds 4 1017 70 10000 1.5 0 00:25 15.01.2020
763 Clouds 4 1017 70 10000 1.5 0 23:47 14.01.2020
764 Clouds 4 1017 65 10000 1 0 23:29 14.01.2020
765 Clouds 4 1017 75 10000 1.5 190 22:59 14.01.2020
766 Clouds 4 1017 75 10000 1.5 190 22:40 14.01.2020
767 Clouds 5 1017 65 10000 2.1 160 22:19 14.01.2020
768 Clouds 6 1017 57 10000 2.6 160 21:58 14.01.2020
769 Clouds 6 1017 57 10000 2.1 160 21:39 14.01.2020
770 Clouds 6 1017 57 10000 2.1 160 21:20 14.01.2020
771 Clouds 5 1017 57 10000 3.6 160 20:56 14.01.2020
772 Clouds 6 1017 61 10000 2.6 160 20:38 14.01.2020
773 Clouds 6 1017 61 10000 2.6 160 20:19 14.01.2020
774 Clouds 6 1017 61 10000 2.6 160 19:55 14.01.2020
775 Clouds 6 1017 61 10000 2.6 160 19:37 14.01.2020
776 Clouds 6 1017 70 10000 3.1 190 19:18 14.01.2020
777 Clouds 7 1016 57 10000 2.6 200 18:41 14.01.2020
778 Clouds 8 1016 57 10000 2.6 200 18:20 14.01.2020
779 Clouds 8 1016 57 10000 2.6 200 17:59 14.01.2020
780 Clouds 7 1016 57 10000 3.6 200 17:37 14.01.2020
781 Clouds 8 1016 57 10000 3.6 200 17:18 14.01.2020
782 Clouds 9 1016 54 10000 2.6 180 16:54 14.01.2020
783 Clouds 9 1016 50 10000 3.6 150 16:36 14.01.2020
784 Clouds 9 1016 50 10000 3.6 150 16:18 14.01.2020
785 Clouds 10 1016 50 10000 4.1 150 15:42 14.01.2020
786 Clouds 10 1016 50 10000 4.6 160 15:19 14.01.2020
787 Clouds 10 1015 50 10000 4.6 170 14:47 14.01.2020
788 Clouds 11 1015 53 10000 5.1 180 14:23 14.01.2020
789 Clouds 11 1016 53 10000 6.2 180 13:59 14.01.2020
790 Clouds 11 1016 53 10000 6.2 180 13:59 14.01.2020
791 Clouds 10 1016 53 10000 6.2 180 13:40 14.01.2020
792 Clouds 10 1016 53 10000 5.7 170 13:19 14.01.2020
793 Clouds 10 1016 50 10000 4.6 160 12:42 14.01.2020
794 Clouds 9 1016 53 10000 7.2 170 12:23 14.01.2020
795 Clouds 9 1017 46 10000 6.2 170 11:57 14.01.2020
796 Clouds 8 1017 46 10000 6.2 170 11:39 14.01.2020
797 Clouds 7 1016 56 10000 6.7 180 11:20 14.01.2020
798 Clouds 5 1016 56 10000 6.7 180 10:56 14.01.2020
799 Clouds 5 1016 56 10000 6.7 180 10:37 14.01.2020
800 Clouds 4 1016 56 10000 6.7 180 10:19 14.01.2020
801 Clouds 3 1016 56 10000 5.7 190 09:42 14.01.2020
802 Clouds 3 1016 56 10000 3.6 210 09:23 14.01.2020
803 Clouds 3 1016 56 10000 4.1 180 08:58 14.01.2020
804 Clouds 3 1016 56 10000 4.1 180 08:39 14.01.2020
805 Clouds 1 1016 59 10000 3.1 200 08:20 14.01.2020
806 Clouds 1 1016 58 10000 3.1 160 07:46 14.01.2020
807 Clouds 1 1015 58 10000 5.7 170 07:18 14.01.2020
808 Clouds 1 1015 58 10000 5.1 170 06:42 14.01.2020
809 Clouds 1 1015 58 10000 3.6 180 05:57 14.01.2020
810 Clouds 1 1015 59 10000 4.6 180 04:50 14.01.2020
811 Clouds 2 1015 75 10000 7.2 170 03:46 14.01.2020
812 Clouds 2 1016 86 10000 4.1 180 02:33 14.01.2020
813 Clouds 1 1016 93 10000 5.7 160 01:19 14.01.2020
814 Clouds 1 1017 93 10000 3.6 170 00:47 14.01.2020
815 Clouds 2 1017 93 10000 3.6 170 00:21 14.01.2020
816 Clouds 2 1017 93 10000 3.6 190 23:44 13.01.2020
817 Clouds 2 1017 93 10000 2.6 210 23:19 13.01.2020
818 Clouds 2 1017 93 10000 1 0 22:57 13.01.2020
819 Clouds 3 1017 93 10000 1 0 22:39 13.01.2020
820 Clouds 3 1017 86 10000 3.1 210 22:19 13.01.2020
821 Clouds 3 1017 87 10000 4.1 210 21:55 13.01.2020
822 Clouds 3 1017 86 10000 3.6 240 21:37 13.01.2020
823 Clouds 3 1017 86 10000 3.6 240 21:18 13.01.2020
824 Clouds 3 1018 86 10000 2.6 260 20:56 13.01.2020
825 Clouds 3 1018 93 10000 2.1 230 20:38 13.01.2020
826 Clouds 3 1018 93 10000 2.1 230 20:19 13.01.2020
827 Clouds 4 1018 93 10000 2.6 190 19:41 13.01.2020
828 Clouds 4 1019 93 10000 2.1 220 19:21 13.01.2020
829 Clouds 4 1019 86 10000 1 200 18:59 13.01.2020
830 Clouds 4 1019 86 10000 1 200 18:40 13.01.2020
831 Clouds 5 1019 86 10000 1 0 18:20 13.01.2020
832 Clouds 5 1019 86 10000 1 0 18:20 13.01.2020
833 Clouds 5 1019 87 10000 0.5 0 17:59 13.01.2020
834 Clouds 5 1019 87 10000 0.5 0 17:40 13.01.2020
835 Clouds 6 1019 81 10000 1 330 17:21 13.01.2020
836 Clouds 6 1019 75 10000 1 0 16:56 13.01.2020
837 Clouds 7 1018 93 0 1.13 215 16:37 13.01.2020
838 Clouds 7 1018 78 0 1.13 215 16:18 13.01.2020
839 Clouds 7 1018 94 0 1.13 215 15:42 13.01.2020
840 Clouds 8 1021 72 0 0.89 202 15:22 13.01.2020
841 Clouds 8 1022 71 0 0.89 202 14:57 13.01.2020
842 Clouds 7 1019 72 0 0.89 104 14:37 13.01.2020
843 Clouds 7 1019 76 0 1.63 220 14:18 13.01.2020
844 Clouds 7 1020 74 0 1.63 220 13:41 13.01.2020
845 Clouds 7 1019 78 0 0.45 247 13:22 13.01.2020
846 Clouds 7 1022 87 10000 3.6 200 12:58 13.01.2020
847 Clouds 7 1022 87 10000 3.6 200 12:40 13.01.2020
848 Clouds 7 1022 87 10000 3.6 200 12:40 13.01.2020
849 Clouds 6 1022 87 10000 3.6 200 12:21 13.01.2020
850 Clouds 6 1022 87 10000 3.6 200 11:56 13.01.2020
851 Clouds 6 1023 93 10000 3.1 210 11:37 13.01.2020
852 Clouds 5 1023 93 10000 3.1 210 11:18 13.01.2020
853 Clouds 5 1023 86 10000 3.1 200 10:55 13.01.2020
854 Clouds 5 1023 86 10000 3.1 200 10:36 13.01.2020
855 Clouds 4 1023 100 10000 2.6 180 10:18 13.01.2020
856 Rain 4 1023 100 10000 1 0 09:42 13.01.2020
857 Rain 3 1023 100 10000 2.6 180 09:23 13.01.2020
858 Clouds 3 1024 93 10000 2.6 180 08:44 13.01.2020
859 Clouds 3 1024 93 10000 2.1 170 08:22 13.01.2020
860 Clouds 3 1024 93 10000 2.1 180 07:59 13.01.2020
861 Clouds 3 1024 93 10000 2.1 180 07:41 13.01.2020
862 Clouds 3 1024 93 10000 1.5 180 07:19 13.01.2020
863 Clouds 3 1024 93 10000 2.1 160 06:37 13.01.2020
864 Clouds 3 1024 93 10000 2.1 160 06:37 13.01.2020
865 Clouds 3 1025 93 10000 1.5 200 05:37 13.01.2020
866 Clouds 3 1025 93 10000 1.5 180 04:56 13.01.2020
867 Clouds 2 1026 93 10000 1.5 230 03:38 13.01.2020
868 Clouds 2 1027 93 10000 1 0 02:49 13.01.2020
869 Clouds 2 1027 86 10000 0.5 160 02:30 13.01.2020
870 Clouds 2 1027 86 10000 0.5 160 02:30 13.01.2020
871 Clouds 2 1027 86 10000 1.08 193 01:33 13.01.2020
872 Clouds 3 1027 93 10000 1 10 00:46 13.01.2020
873 Clouds 3 1028 86 10000 0.5 0 00:26 13.01.2020
874 Clouds 3 1028 93 10000 0.92 204 23:58 12.01.2020
875 Clouds 3 1028 93 10000 0.92 204 23:40 12.01.2020
876 Clouds 3 1028 86 10000 0.5 0 23:21 12.01.2020
877 Clouds 3 1028 86 10000 0.5 0 23:21 12.01.2020
878 Clouds 3 1028 86 10000 1.5 0 22:56 12.01.2020
879 Clouds 3 1028 80 10000 1.5 180 22:37 12.01.2020
880 Clouds 3 1028 80 10000 1.5 180 22:19 12.01.2020
881 Clouds 3 1028 80 10000 1.75 177 21:54 12.01.2020
882 Clouds 3 1028 80 10000 1.5 170 21:36 12.01.2020
883 Clouds 2 1028 80 10000 1.5 170 21:18 12.01.2020
884 Clouds 2 1028 80 10000 1.5 170 20:54 12.01.2020
885 Clouds 3 1028 80 10000 1.5 180 20:36 12.01.2020
886 Clouds 2 1028 80 10000 1.5 180 20:18 12.01.2020
887 Clouds 2 1028 80 10000 1.5 200 19:54 12.01.2020
888 Clouds 2 1028 86 10000 2.1 180 19:36 12.01.2020
889 Clouds 3 1028 86 10000 2.1 180 19:18 12.01.2020
890 Clouds 3 1028 76 10000 1 250 18:54 12.01.2020
891 Clouds 3 1028 76 10000 1 0 18:36 12.01.2020
892 Clouds 3 1028 76 10000 1 0 18:18 12.01.2020
893 Clouds 3 1028 76 10000 1 290 17:42 12.01.2020
894 Clouds 3 1028 80 10000 1.5 350 17:20 12.01.2020
895 Clouds 4 1028 80 10000 1.5 330 16:57 12.01.2020
896 Clouds 4 1028 75 10000 1.5 10 16:38 12.01.2020
897 Clouds 4 1028 75 10000 1.5 10 16:20 12.01.2020
898 Clouds 5 1028 75 10000 1.5 0 15:55 12.01.2020
899 Clouds 5 1028 75 10000 1.5 0 15:55 12.01.2020
900 Clouds 5 1028 75 10000 1 0 15:36 12.01.2020
901 Clouds 4 1028 75 10000 1 0 15:18 12.01.2020
902 Clouds 5 1028 70 10000 1 0 14:42 12.01.2020
903 Clouds 5 1028 75 10000 1 0 14:22 12.01.2020
904 Clouds 4 1028 75 10000 1 0 13:56 12.01.2020
905 Clouds 4 1028 80 10000 1 0 13:38 12.01.2020
906 Clouds 4 1028 80 10000 1 0 13:20 12.01.2020
907 Clouds 4 1029 66 10000 1 0 12:55 12.01.2020
908 Clouds 4 1029 86 10000 1.5 0 12:37 12.01.2020
909 Clouds 4 1029 86 10000 1.5 0 12:18 12.01.2020
910 Clouds 3 1029 66 10000 2.21 237 11:41 12.01.2020
911 Clouds 2 1029 66 10000 2.21 237 11:22 12.01.2020
912 Clouds 2 1029 78 10000 1 0 10:56 12.01.2020
913 Clouds 1 1029 78 10000 1 0 10:37 12.01.2020
914 Clouds 1 1029 100 10000 0.5 0 10:19 12.01.2020
915 Clouds 1 1029 100 10000 1.5 340 09:42 12.01.2020
916 Clouds 1 1029 92 10000 1 0 09:23 12.01.2020
917 Clouds 0 1029 92 10000 0.5 0 08:48 12.01.2020
918 Clouds 0 1028 92 10000 1 350 08:24 12.01.2020
919 Clouds 0 1028 100 10000 1 0 07:49 12.01.2020
920 Clouds 0 1028 92 10000 1 0 07:30 12.01.2020
921 Clouds 0 1028 92 10000 1.5 220 06:59 12.01.2020
922 Clouds 0 1028 92 10000 1.5 220 06:59 12.01.2020
923 Clouds -1 1028 100 10000 1.5 190 06:38 12.01.2020
924 Clouds -1 1028 92 10000 2.1 190 05:55 12.01.2020
925 Clouds -1 1029 92 10000 1.5 190 04:56 12.01.2020
926 Clouds -1 1029 92 10000 2.1 200 03:43 12.01.2020
927 Clouds -1 1030 92 10000 2.6 200 02:52 12.01.2020
928 Clouds -1 1030 86 10000 2.1 220 02:27 12.01.2020
929 Clouds -1 1030 92 10000 2.6 220 01:35 12.01.2020
930 Clear 0 1030 83 10000 1.5 240 00:57 12.01.2020
931 Clear 0 1030 83 10000 1.5 240 00:37 12.01.2020
932 Clear 0 1030 83 10000 1.5 250 00:18 12.01.2020
933 Clear 0 1031 86 10000 1 0 23:41 11.01.2020
934 Clouds 0 1031 86 10000 1.5 230 23:19 11.01.2020
935 Clouds 1 1031 86 10000 1.5 260 22:56 11.01.2020
936 Clouds 1 1031 86 10000 2.1 270 22:38 11.01.2020
937 Clouds 1 1031 86 10000 2.1 270 22:20 11.01.2020
938 Clouds 1 1031 86 10000 2.6 260 21:54 11.01.2020
939 Clouds 1 1031 86 10000 2.6 260 21:36 11.01.2020
940 Clouds 1 1031 86 10000 2.6 260 21:18 11.01.2020
941 Clouds 1 1031 86 10000 2.6 260 20:39 11.01.2020
942 Clouds 2 1032 92 10000 3.6 270 20:20 11.01.2020
943 Clouds 2 1031 92 10000 3.1 280 19:58 11.01.2020
944 Clouds 2 1031 92 10000 3.1 280 19:38 11.01.2020
945 Clouds 3 1032 92 10000 2.1 270 19:20 11.01.2020
946 Clouds 3 1032 92 10000 0.5 0 18:57 11.01.2020
947 Clouds 3 1032 92 10000 0.5 0 18:37 11.01.2020
948 Clouds 3 1032 92 10000 1.5 330 18:19 11.01.2020
949 Clouds 3 1032 92 10000 1.5 330 18:19 11.01.2020
950 Clouds 4 1032 92 10000 1 0 17:57 11.01.2020
951 Clouds 4 1032 92 10000 1 280 17:39 11.01.2020
952 Clouds 6 1032 89 10000 1 280 17:19 11.01.2020
953 Clouds 6 1032 89 10000 1.5 230 16:44 11.01.2020
954 Clouds 7 1032 65 10000 1 0 16:26 11.01.2020
955 Clouds 7 1032 61 10000 1 0 15:58 11.01.2020
956 Clouds 7 1032 61 10000 1 0 15:40 11.01.2020
957 Clouds 7 1032 61 10000 2.1 350 15:20 11.01.2020
958 Clouds 8 1032 61 10000 1 0 14:56 11.01.2020
959 Clouds 8 1033 61 10000 0.5 0 14:38 11.01.2020
960 Clouds 8 1033 61 10000 0.5 0 14:19 11.01.2020
961 Clouds 7 1033 61 10000 1.5 0 13:39 11.01.2020
962 Clouds 8 1033 70 10000 2.1 10 13:20 11.01.2020
963 Clouds 7 1033 81 10000 2.6 360 12:58 11.01.2020
964 Clouds 7 1033 81 10000 2.6 360 12:39 11.01.2020
965 Clouds 7 1034 81 10000 2.6 340 12:21 11.01.2020
966 Clouds 7 1034 81 10000 2.1 340 11:47 11.01.2020
967 Clouds 6 1034 81 10000 2.1 340 11:26 11.01.2020
968 Clouds 6 1034 87 10000 1 340 10:50 11.01.2020
969 Clouds 5 1034 87 10000 1 0 10:30 11.01.2020
970 Clouds 4 1034 93 10000 1.17 119 09:57 11.01.2020
971 Clouds 4 1034 93 10000 1.17 119 09:37 11.01.2020
972 Clouds 4 1034 93 10000 1.17 119 09:37 11.01.2020
973 Clouds 4 1034 93 10000 1 0 09:19 11.01.2020
974 Clouds 4 1034 93 10000 1.17 119 08:42 11.01.2020
975 Clouds 4 1034 86 10000 0.95 106 08:21 11.01.2020
976 Rain 4 1034 86 10000 0.5 0 07:44 11.01.2020
977 Rain 4 1033 86 10000 1 180 07:25 11.01.2020
978 Clouds 4 1033 86 10000 1.5 220 06:50 11.01.2020
979 Clouds 4 1033 81 10000 0.5 0 05:48 11.01.2020
980 Clouds 4 1033 86 10000 2.6 230 04:47 11.01.2020
981 Clouds 4 1032 86 10000 2.1 210 04:28 11.01.2020
982 Clouds 5 1032 81 10000 2.6 240 02:49 11.01.2020
983 Clouds 5 1032 81 10000 2.1 270 02:27 11.01.2020
984 Clouds 5 1032 81 10000 2.1 290 01:43 11.01.2020
985 Clouds 6 1032 75 10000 2.6 300 01:19 11.01.2020
986 Clouds 6 1032 75 10000 2.6 300 00:40 11.01.2020
987 Clouds 6 1031 75 10000 2.1 300 00:18 11.01.2020
988 Clouds 6 1031 75 10000 2.1 310 23:40 10.01.2020
989 Clouds 6 1031 75 10000 2.1 310 23:40 10.01.2020
990 Clouds 6 1031 75 10000 2.1 310 23:22 10.01.2020
991 Clouds 6 1031 75 10000 1.5 340 22:59 10.01.2020
992 Clouds 6 1031 75 10000 1.5 340 22:40 10.01.2020
993 Clouds 7 1030 75 10000 1 0 22:20 10.01.2020
994 Clouds 7 1030 70 10000 1.5 0 21:57 10.01.2020
995 Clouds 6 1030 70 10000 2.1 310 21:37 10.01.2020
996 Clouds 7 1030 70 10000 2.1 310 21:19 10.01.2020
997 Rain 7 1029 70 10000 3.1 300 20:43 10.01.2020
998 Rain 7 1029 75 10000 2.1 350 20:24 10.01.2020
999 Rain 7 1028 75 10000 1.5 0 19:59 10.01.2020
1000 Rain 7 1027 75 10000 2.1 300 19:38 10.01.2020
1001 Rain 7 1027 75 10000 2.1 300 19:19 10.01.2020
1002 Clouds 8 1027 70 10000 4.6 270 18:43 10.01.2020
1003 Clouds 8 1026 81 10000 2.6 280 18:19 10.01.2020
1004 Clouds 8 1025 71 10000 1 0 17:58 10.01.2020
1005 Rain 8 1025 76 10000 2.6 250 17:39 10.01.2020
1006 Rain 8 1025 76 10000 2.6 250 17:20 10.01.2020
1007 Rain 9 1024 76 10000 4.1 190 16:59 10.01.2020
1008 Rain 9 1024 76 10000 4.1 190 16:39 10.01.2020
1009 Rain 10 1024 71 10000 4.6 200 16:20 10.01.2020
1010 Clouds 9 1023 62 10000 4.6 190 15:56 10.01.2020
1011 Clouds 9 1022 62 10000 4.6 210 15:37 10.01.2020
1012 Clouds 10 1022 62 10000 4.6 210 15:18 10.01.2020
1013 Clouds 9 1022 62 10000 5.7 210 14:56 10.01.2020
1014 Clouds 10 1021 62 10000 6.7 210 14:38 10.01.2020
1015 Clouds 11 1021 62 10000 6.7 210 14:19 10.01.2020
1016 Clouds 10 1021 66 10000 6.7 210 13:45 10.01.2020
1017 Clouds 11 1021 62 10000 5.7 230 13:26 10.01.2020
1018 Clouds 10 1021 62 10000 7.2 220 12:59 10.01.2020
1019 Clouds 11 1021 62 10000 7.2 220 12:40 10.01.2020
1020 Clouds 10 1021 62 10000 6.7 220 12:21 10.01.2020
1021 Clouds 10 1021 62 10000 5.1 240 11:57 10.01.2020
1022 Clouds 10 1021 58 10000 5.7 220 11:39 10.01.2020
1023 Clouds 9 1021 58 10000 5.7 220 11:19 10.01.2020
1024 Clouds 9 1020 62 10000 3.6 210 10:58 10.01.2020
1025 Clouds 9 1020 62 10000 3.6 210 10:38 10.01.2020
1026 Clouds 8 1020 66 10000 3.1 160 10:18 10.01.2020
1027 Clouds 7 1019 71 10000 3.6 170 09:45 10.01.2020
1028 Clouds 7 1019 71 10000 3.6 180 09:26 10.01.2020
1029 Clouds 7 1019 76 10000 4.1 180 08:57 10.01.2020
1030 Clouds 7 1019 76 10000 4.1 180 08:37 10.01.2020
1031 Clouds 7 1018 76 10000 3.6 190 08:18 10.01.2020
1032 Clouds 7 1018 76 10000 3.6 190 07:41 10.01.2020
1033 Clouds 7 1018 76 10000 5.1 190 07:21 10.01.2020
1034 Clouds 7 1018 76 10000 5.7 180 06:42 10.01.2020
1035 Clouds 7 1018 76 10000 6.2 170 06:24 10.01.2020
1036 Clouds 7 1018 76 10000 6.7 180 05:25 10.01.2020
1037 Rain 7 1018 66 10000 3.1 220 03:32 10.01.2020
1038 Rain 7 1019 87 10000 1.5 100 02:54 10.01.2020
1039 Rain 7 1019 87 10000 1.5 110 02:33 10.01.2020
1040 Rain 7 1017 61 10000 7.2 230 01:34 10.01.2020
1041 Rain 7 1017 61 10000 7.7 260 00:56 10.01.2020
1042 Rain 7 1017 53 10000 6.2 250 00:38 10.01.2020
1043 Rain 8 1017 46 10000 4.1 250 23:57 09.01.2020
1044 Rain 7 1017 70 10000 3.1 200 23:38 09.01.2020
1045 Rain 7 1017 70 10000 3.1 200 23:38 09.01.2020
1046 Rain 7 1017 70 10000 3.1 200 23:19 09.01.2020
1047 Clouds 7 1016 57 10000 4.6 210 22:57 09.01.2020
1048 Clouds 7 1016 57 10000 4.6 210 22:37 09.01.2020
1049 Clouds 7 1016 61 10000 3.6 220 22:18 09.01.2020
1050 Clouds 8 1016 57 10000 2.1 240 21:56 09.01.2020
1051 Clouds 8 1016 66 10000 1.5 0 21:37 09.01.2020
1052 Clouds 8 1016 66 10000 1.5 0 21:37 09.01.2020
1053 Clouds 8 1016 66 10000 1.5 0 21:37 09.01.2020
1054 Clouds 8 1016 66 10000 1.5 0 21:37 09.01.2020
1055 Clouds 8 1016 66 10000 1.5 0 21:18 09.01.2020
1056 Clouds 7 1016 62 10000 3.6 170 20:56 09.01.2020
1057 Clouds 7 1016 62 10000 1.5 0 20:38 09.01.2020
1058 Clouds 8 1016 62 10000 1.5 0 20:19 09.01.2020
1059 Clouds 8 1016 54 10000 3.1 220 19:55 09.01.2020
1060 Clouds 8 1016 54 10000 2.6 190 19:36 09.01.2020
1061 Clouds 8 1017 58 10000 2.1 160 19:18 09.01.2020
1062 Clouds 8 1017 58 10000 3.6 170 18:54 09.01.2020
1063 Clouds 8 1016 50 10000 3.6 180 18:36 09.01.2020
1064 Clouds 8 1017 50 10000 4.6 180 18:18 09.01.2020
1065 Clouds 8 1017 58 10000 2.1 160 18:18 09.01.2020
1066 Clouds 8 1017 50 10000 4.1 180 17:40 09.01.2020
1067 Clouds 9 1017 50 10000 1.5 190 17:18 09.01.2020
1068 Clouds 10 1018 50 10000 2.1 200 16:47 09.01.2020
1069 Clouds 10 1018 50 10000 2.1 200 16:23 09.01.2020
1070 Clouds 11 1018 50 10000 4.1 190 15:56 09.01.2020
1071 Clouds 11 1018 47 10000 5.1 190 15:38 09.01.2020
1072 Clouds 11 1018 44 10000 3.1 130 15:18 09.01.2020
1073 Clouds 12 1018 47 10000 5.7 200 14:41 09.01.2020
1074 Clouds 12 1019 47 10000 6.2 200 14:21 09.01.2020
1075 Clouds 13 1019 47 10000 6.2 200 13:57 09.01.2020
1076 Clouds 12 1019 51 10000 5.1 200 13:39 09.01.2020
1077 Clouds 12 1020 58 10000 3.6 200 13:20 09.01.2020
1078 Clouds 12 1020 58 10000 3.6 200 12:58 09.01.2020
1079 Clouds 12 1020 62 10000 5.1 200 12:38 09.01.2020
1080 Clouds 11 1021 62 10000 6.7 190 12:19 09.01.2020
1081 Clouds 11 1021 71 10000 4.6 180 11:55 09.01.2020
1082 Clouds 11 1021 66 10000 4.6 190 11:37 09.01.2020
1083 Clouds 9 1021 76 10000 2.6 170 11:19 09.01.2020
1084 Clouds 8 1022 76 10000 4.1 200 10:42 09.01.2020
1085 Clouds 8 1022 87 10000 2.6 220 10:22 09.01.2020
1086 Clouds 7 1022 87 10000 2.6 220 09:55 09.01.2020
1087 Clouds 7 1022 87 10000 3.1 220 09:37 09.01.2020
1088 Clouds 7 1022 81 10000 4.1 230 09:18 09.01.2020
1089 Clouds 7 1022 93 10000 1 340 08:54 09.01.2020
1090 Clouds 7 1022 87 10000 5.1 200 08:36 09.01.2020
1091 Clouds 6 1022 87 10000 4.1 210 08:18 09.01.2020
1092 Clouds 6 1023 100 10000 1.5 0 07:41 09.01.2020
1093 Clouds 6 1023 100 10000 1.5 0 07:23 09.01.2020
1094 Clouds 7 1024 100 10000 1.81 198 06:38 09.01.2020
1095 Clouds 7 1024 100 10000 1.81 198 06:18 09.01.2020
1096 Clouds 6 1024 100 10000 1.5 160 05:43 09.01.2020
1097 Clouds 6 1025 100 10000 1 0 04:42 09.01.2020
1098 Clouds 6 1026 100 10000 1.63 196 03:28 09.01.2020
1099 Clouds 6 1027 81 10000 2.6 210 02:48 09.01.2020
1100 Clouds 6 1027 81 10000 2.6 210 02:23 09.01.2020
1101 Clouds 6 1027 81 10000 2.6 170 01:35 09.01.2020
1102 Clouds 6 1027 93 10000 1 130 00:40 09.01.2020
1103 Clouds 6 1027 93 10000 1 130 00:20 09.01.2020
1104 Clouds 6 1027 93 10000 1.73 188 23:42 08.01.2020
1105 Clouds 6 1027 93 10000 1.5 193 23:24 08.01.2020
1106 Clouds 6 1027 93 10000 1.5 193 22:58 08.01.2020
1107 Clouds 6 1027 93 10000 1 220 22:38 08.01.2020
1108 Clouds 6 1027 93 10000 1 220 22:20 08.01.2020
1109 Clouds 7 1028 93 10000 1 250 21:56 08.01.2020
1110 Clouds 7 1028 93 10000 1.5 193 21:38 08.01.2020
1111 Clouds 7 1028 93 10000 0.5 320 21:19 08.01.2020
1112 Clouds 7 1028 93 10000 0.5 320 20:57 08.01.2020
1113 Clouds 7 1028 93 10000 1.5 193 20:38 08.01.2020
1114 Clouds 7 1028 81 10000 2.6 210 20:20 08.01.2020
1115 Clouds 6 1028 81 10000 2.6 210 19:56 08.01.2020
1116 Clouds 6 1028 76 10000 2.1 230 19:36 08.01.2020
1117 Clouds 6 1028 76 10000 2.1 210 19:18 08.01.2020
1118 Clouds 6 1028 87 10000 1.75 192 18:55 08.01.2020
1119 Clouds 6 1028 76 10000 2.1 180 18:36 08.01.2020
1120 Clouds 6 1028 87 10000 1.75 192 18:18 08.01.2020
1121 Clouds 7 1028 76 10000 2.1 180 17:45 08.01.2020
1122 Clouds 7 1028 76 10000 2.1 180 17:24 08.01.2020
1123 Clouds 8 1028 81 10000 2.1 230 16:57 08.01.2020
1124 Clouds 8 1028 76 10000 3.1 230 16:39 08.01.2020
1125 Clouds 8 1028 71 10000 3.6 210 16:19 08.01.2020
1126 Clouds 8 1028 71 10000 3.6 210 16:19 08.01.2020
1127 Clouds 8 1028 71 10000 3.6 210 15:58 08.01.2020
1128 Clouds 8 1028 76 10000 3.1 230 15:39 08.01.2020
1129 Clouds 8 1028 87 10000 0.5 0 15:19 08.01.2020
1130 Clouds 8 1028 76 10000 2.6 190 14:55 08.01.2020
1131 Clouds 7 1028 76 10000 2.6 210 14:37 08.01.2020
1132 Clouds 7 1028 76 10000 3.1 210 14:19 08.01.2020
1133 Clouds 7 1029 75 10000 3.1 230 13:39 08.01.2020
1134 Clouds 6 1029 87 10000 1 0 13:18 08.01.2020
1135 Clouds 7 1029 70 10000 4.1 210 12:41 08.01.2020
1136 Clouds 6 1029 86 10000 1.5 0 12:19 08.01.2020
1137 Clouds 6 1029 86 10000 1.5 0 12:19 08.01.2020
1138 Clouds 6 1030 86 10000 2.1 210 11:55 08.01.2020
1139 Clouds 6 1030 81 10000 3.6 230 11:37 08.01.2020
1140 Clouds 4 1030 86 10000 4.1 240 11:18 08.01.2020
1141 Clouds 3 1030 93 10000 3.1 190 10:54 08.01.2020
1142 Clouds 3 1030 80 10000 3.6 200 10:36 08.01.2020
1143 Clouds 3 1030 86 10000 3.6 200 10:18 08.01.2020
1144 Clouds 2 1030 86 10000 3.1 210 09:41 08.01.2020
1145 Clouds 1 1030 93 10000 3.1 210 09:19 08.01.2020
1146 Clouds 1 1030 93 10000 3.1 210 08:56 08.01.2020
1147 Clouds 0 1030 72 10000 2.6 160 08:37 08.01.2020
1148 Clouds 1 1030 100 10000 1.5 210 08:18 08.01.2020
1149 Mist 0 1029 52 2300 3.1 200 07:48 08.01.2020
1150 Mist 0 1029 52 2300 3.1 200 07:29 08.01.2020
1151 Mist 0 1029 52 2100 2.6 200 06:45 08.01.2020
1152 Mist 0 1029 52 2500 2.6 190 06:19 08.01.2020
1153 Mist -1 1029 100 5000 3.1 180 05:41 08.01.2020
1154 Mist -1 1029 100 5000 3.1 180 05:41 08.01.2020
1155 Clear -1 1029 100 10000 3.1 180 04:56 08.01.2020
1156 Clear 0 1030 92 10000 1 0 04:24 08.01.2020
1157 Clear 0 1029 59 10000 2.6 170 02:45 08.01.2020
1158 Clouds 1 1029 71 10000 2.6 170 02:22 08.01.2020
1159 Mist 1 1030 71 5000 2.1 210 01:46 08.01.2020
1160 Clouds 1 1029 71 10000 3.1 250 01:19 08.01.2020
1161 Clouds 1 1029 68 10000 2.1 220 00:28 08.01.2020
1162 Clouds 1 1030 68 10000 2.6 240 23:57 07.01.2020
1163 Clouds 1 1030 68 10000 2.6 240 23:39 07.01.2020
1164 Clouds 1 1030 100 10000 1.5 200 23:20 07.01.2020
1165 Clouds 1 1030 85 10000 2.6 240 23:20 07.01.2020
1166 Clouds 1 1030 85 10000 2.6 190 22:40 07.01.2020
1167 Clouds 2 1030 86 10000 2.1 230 22:20 07.01.2020
1168 Clouds 2 1030 86 10000 2.1 230 21:57 07.01.2020
1169 Clouds 2 1031 80 10000 2.6 210 21:38 07.01.2020
1170 Clouds 2 1031 85 10000 2.1 260 21:20 07.01.2020
1171 Clouds 3 1031 85 10000 2.1 260 20:55 07.01.2020
1172 Clouds 3 1031 86 10000 2.1 260 20:37 07.01.2020
1173 Clouds 3 1031 86 10000 2.1 260 20:19 07.01.2020
1174 Clouds 3 1031 80 10000 2.6 130 19:38 07.01.2020
1175 Clouds 4 1031 80 10000 3.1 280 19:20 07.01.2020
1176 Clouds 4 1031 75 10000 1.5 0 18:58 07.01.2020
1177 Clouds 4 1031 86 10000 2.1 110 18:40 07.01.2020
1178 Clouds 4 1031 86 10000 2.1 100 18:19 07.01.2020
1179 Clouds 4 1031 86 10000 2.1 100 17:59 07.01.2020
1180 Clouds 4 1031 80 10000 1.5 110 17:39 07.01.2020
1181 Clouds 5 1031 75 10000 1.02 287 17:21 07.01.2020
1182 Clouds 6 1031 75 10000 0.5 0 16:57 07.01.2020
1183 Clouds 6 1031 70 10000 1.02 287 16:38 07.01.2020
1184 Clouds 7 1031 70 10000 1 270 16:19 07.01.2020
1185 Clouds 7 1031 70 10000 1 270 15:58 07.01.2020
1186 Clouds 7 1030 70 10000 1.5 270 15:40 07.01.2020
1187 Clear 7 1030 70 10000 1 0 15:22 07.01.2020
1188 Clouds 7 1031 70 10000 2.1 260 14:55 07.01.2020
1189 Clouds 7 1031 66 10000 3.1 270 14:37 07.01.2020
1190 Clouds 7 1030 61 10000 3.1 230 14:18 07.01.2020
1191 Clouds 7 1031 70 10000 3.6 210 13:39 07.01.2020
1192 Clouds 7 1031 75 10000 4.1 210 13:19 07.01.2020
1193 Clouds 6 1031 70 10000 4.1 210 12:41 07.01.2020
1194 Clouds 6 1031 81 10000 1.5 230 12:20 07.01.2020
1195 Clouds 6 1031 81 10000 4.1 210 11:57 07.01.2020
1196 Clouds 5 1031 81 10000 3.6 200 11:38 07.01.2020
1197 Clouds 5 1032 86 10000 2.1 210 11:20 07.01.2020
1198 Clouds 4 1032 81 10000 4.6 190 10:42 07.01.2020
1199 Clouds 4 1032 81 10000 4.6 190 10:24 07.01.2020
1200 Clouds 4 1031 86 10000 3.6 210 09:59 07.01.2020
1201 Clouds 3 1031 86 10000 3.1 190 09:38 07.01.2020
1202 Clouds 3 1030 80 10000 1.5 210 09:20 07.01.2020
1203 Clouds 3 1030 80 10000 2.6 210 08:46 07.01.2020
1204 Clouds 3 1029 86 10000 1.5 0 08:26 07.01.2020
1205 Clouds 3 1029 86 10000 1.5 0 08:26 07.01.2020
1206 Clouds 3 1029 91 10000 1 0 07:54 07.01.2020
1207 Clouds 3 1028 91 10000 1 0 07:29 07.01.2020
1208 Clouds 3 1028 86 10000 1.5 150 06:54 07.01.2020
1209 Clouds 3 1028 86 10000 1.5 150 06:54 07.01.2020
1210 Clouds 2 1028 91 10000 1.5 0 06:35 07.01.2020
1211 Clouds 2 1028 91 10000 1 0 05:57 07.01.2020
1212 Clouds 2 1028 91 10000 1 0 05:35 07.01.2020
1213 Clear 1 1027 94 10000 1.5 80 03:29 07.01.2020
1214 Clear 1 1026 92 10000 1.5 0 02:25 07.01.2020
1215 Clear 0 1026 100 10000 1 0 01:57 07.01.2020
1216 Clear 0 1026 100 10000 1 0 01:34 07.01.2020
1217 Clear 0 1026 100 10000 0.5 0 00:51 07.01.2020
1218 Clear 0 1026 92 10000 1.5 0 00:20 07.01.2020
1219 Clear 0 1026 92 10000 1.5 270 23:56 06.01.2020
1220 Clear 0 1026 100 10000 1 0 23:36 06.01.2020
1221 Clear 0 1026 92 7000 0.5 0 23:18 06.01.2020
1222 Clear 0 1026 100 10000 2.66 206 22:43 06.01.2020
1223 Clear 0 1026 100 10000 2.66 206 22:24 06.01.2020
1224 Clear 0 1026 92 10000 1.5 0 21:58 06.01.2020
1225 Clear 0 1026 100 9000 0.5 0 21:39 06.01.2020
1226 Clear 1 1026 100 9000 0.5 0 21:20 06.01.2020
1227 Clear 1 1026 100 9000 0.5 0 21:20 06.01.2020
1228 Clear 1 1026 100 9000 0.5 0 21:20 06.01.2020
1229 Clear 1 1026 76 10000 0.5 0 20:57 06.01.2020
1230 Clear 1 1026 92 10000 1.5 210 20:38 06.01.2020
1231 Clear 1 1026 92 10000 1.5 210 20:38 06.01.2020
1232 Clear 1 1026 100 9000 0.5 0 20:20 06.01.2020
1233 Clear 1 1026 100 9000 0.5 0 19:56 06.01.2020
1234 Clear 1 1026 59 10000 1 260 19:38 06.01.2020
1235 Clear 1 1026 59 10000 1 0 19:20 06.01.2020
1236 Clear 1 1026 59 10000 1 0 18:48 06.01.2020
1237 Clear 2 1026 86 10000 0.5 0 18:23 06.01.2020
1238 Clear 2 1026 86 10000 1 310 17:59 06.01.2020
1239 Clear 2 1026 59 10000 2.1 300 17:38 06.01.2020
1240 Clear 3 1026 70 10000 1 260 17:18 06.01.2020
1241 Clear 4 1026 70 10000 1.5 220 16:44 06.01.2020
1242 Clear 4 1026 70 10000 1.5 220 16:25 06.01.2020
1243 Clear 4 1026 65 10000 1 0 15:59 06.01.2020
1244 Clear 4 1026 65 10000 1 0 15:39 06.01.2020
1245 Clear 4 1026 65 10000 1 0 15:20 06.01.2020
1246 Clear 5 1026 65 10000 1 0 14:58 06.01.2020
1247 Clear 5 1027 70 10000 1.5 200 14:40 06.01.2020
1248 Clouds 5 1027 70 10000 2.1 190 14:20 06.01.2020
1249 Clouds 5 1027 70 10000 2.1 190 13:57 06.01.2020
1250 Clouds 5 1027 75 10000 3.1 180 13:37 06.01.2020
1251 Clouds 4 1027 75 10000 3.1 180 13:19 06.01.2020
1252 Clouds 5 1029 80 10000 3.6 180 12:43 06.01.2020
1253 Clouds 4 1029 80 10000 3.6 180 12:20 06.01.2020
1254 Clouds 4 1029 51 10000 1 0 11:58 06.01.2020
1255 Clouds 3 1030 86 10000 1 0 11:39 06.01.2020
1256 Clouds 2 1030 86 10000 1 0 11:20 06.01.2020
1257 Rain 1 1030 55 10000 0.73 192 10:54 06.01.2020
1258 Rain 0 1030 100 150 0.73 192 10:36 06.01.2020
1259 Rain 0 1030 92 100 1 0 10:18 06.01.2020
1260 Fog -1 1031 100 200 0.5 0 09:37 06.01.2020
1261 Fog -2 1031 100 250 1.5 100 09:19 06.01.2020
1262 Clouds -2 1030 92 10000 1 140 08:43 06.01.2020
1263 Clouds -2 1030 92 10000 1 140 08:25 06.01.2020
1264 Clouds -2 1030 92 10000 1.5 200 07:53 06.01.2020
1265 Clouds -2 1030 100 10000 1.5 200 07:28 06.01.2020
1266 Clouds -2 1031 100 10000 1 210 06:45 06.01.2020
1267 Clouds -2 1031 100 10000 1 210 06:20 06.01.2020
1268 Clouds -2 1031 100 10000 0.5 200 05:45 06.01.2020
1269 Clouds -2 1031 92 10000 1.1 134 04:38 06.01.2020
1270 Clouds -2 1031 92 10000 1.1 134 04:19 06.01.2020
1271 Clouds -1 1032 70 10000 1.5 0 02:46 06.01.2020
1272 Clouds -1 1032 70 10000 1.5 0 02:24 06.01.2020
1273 Clear -1 1032 86 10000 2.6 280 01:44 06.01.2020
1274 Mist -1 1032 100 4900 1 0 01:26 06.01.2020
1275 Clear -1 1033 82 10000 3.6 270 00:42 06.01.2020
1276 Clear -1 1033 82 10000 3.6 270 00:23 06.01.2020
1277 Clear 0 1033 82 10000 3.6 270 23:42 05.01.2020
1278 Clear 0 1033 82 10000 3.6 270 23:42 05.01.2020
1279 Mist 0 1033 92 4800 1 230 23:22 05.01.2020
1280 Mist 0 1033 92 4800 1 230 22:57 05.01.2020
1281 Clear 0 1034 89 10000 1 0 22:38 05.01.2020
1282 Clear 0 1034 89 10000 1 0 22:20 05.01.2020
1283 Clear 0 1034 89 10000 3.1 280 21:55 05.01.2020
1284 Clear 0 1034 89 10000 1 0 21:37 05.01.2020
1285 Clear 0 1034 100 8000 1 200 21:19 05.01.2020
1286 Clear 0 1034 100 8000 1 200 21:19 05.01.2020
1287 Clear 1 1034 89 10000 2.6 270 20:55 05.01.2020
1288 Clear 1 1034 89 10000 3.1 270 20:37 05.01.2020
1289 Clear 1 1034 92 10000 1 0 20:19 05.01.2020
1290 Clear 1 1034 92 10000 3.6 270 19:56 05.01.2020
1291 Clear 1 1034 86 10000 3.6 280 19:37 05.01.2020
1292 Clear 1 1034 93 10000 0.5 0 19:19 05.01.2020
1293 Clear 2 1035 80 10000 3.1 280 18:54 05.01.2020
1294 Clear 2 1035 80 10000 2.6 290 18:36 05.01.2020
1295 Clear 2 1035 80 10000 1.5 310 18:18 05.01.2020
1296 Clear 3 1035 80 10000 1.5 310 17:55 05.01.2020
1297 Clear 3 1035 80 10000 1.5 310 17:55 05.01.2020
1298 Clear 3 1035 75 10000 2.1 360 17:37 05.01.2020
1299 Clear 4 1035 75 10000 2.1 360 17:18 05.01.2020
1300 Clear 5 1035 70 10000 2.1 20 16:55 05.01.2020
1301 Clear 5 1035 75 10000 2.6 360 16:36 05.01.2020
1302 Clear 5 1035 75 10000 2.6 360 16:18 05.01.2020
1303 Clouds 5 1035 65 10000 2.1 30 15:36 05.01.2020
1304 Clouds 5 1035 65 10000 2.1 30 15:36 05.01.2020
1305 Clear 6 1035 70 10000 1.5 0 15:18 05.01.2020
1306 Clear 6 1035 70 10000 1.5 0 14:54 05.01.2020
1307 Clear 6 1035 70 10000 1.5 0 14:36 05.01.2020
1308 Clear 6 1035 70 10000 1 0 14:18 05.01.2020
1309 Clear 6 1036 65 10000 1 0 13:40 05.01.2020
1310 Clear 6 1036 65 10000 1 0 13:40 05.01.2020
1311 Clear 5 1036 70 10000 0.5 0 13:21 05.01.2020
1312 Clear 5 1036 70 10000 0.5 0 12:58 05.01.2020
1313 Clear 5 1036 70 10000 0.5 0 12:39 05.01.2020
1314 Clear 4 1036 70 10000 0.5 0 12:21 05.01.2020
1315 Clear 4 1036 65 10000 0.87 29 11:58 05.01.2020
1316 Clear 4 1036 75 10000 1.5 340 11:39 05.01.2020
1317 Clear 4 1036 75 10000 1.5 340 11:39 05.01.2020
1318 Clear 3 1036 75 10000 1.5 340 11:19 05.01.2020
1319 Clouds 3 1036 75 10000 0.5 0 10:56 05.01.2020
1320 Clouds 2 1036 82 10000 3.1 240 10:36 05.01.2020
1321 Clouds 2 1037 82 10000 1.5 190 10:18 05.01.2020
1322 Clouds 1 1036 82 10000 2.1 250 09:41 05.01.2020
1323 Clouds 0 1036 82 10000 2.1 250 09:21 05.01.2020
1324 Clouds 0 1036 82 10000 2.1 250 09:21 05.01.2020
1325 Clouds 0 1036 86 10000 2.6 220 08:48 05.01.2020
1326 Clouds 0 1036 82 10000 1.5 220 08:29 05.01.2020
1327 Clouds 0 1036 100 10000 1 0 07:56 05.01.2020
1328 Clouds 0 1036 100 10000 0.5 0 07:37 05.01.2020
1329 Clear 0 1036 100 10000 0.5 0 07:18 05.01.2020
1330 Clear 0 1036 100 10000 0.5 0 05:59 05.01.2020
1331 Clear 1 1036 90 10000 1.53 102 05:32 05.01.2020
1332 Clouds 1 1035 89 10000 2.1 180 04:43 05.01.2020
1333 Clouds 1 1036 93 10000 1.5 150 04:18 05.01.2020
1334 Clouds 1 1036 93 10000 1.5 150 04:18 05.01.2020
1335 Clouds 2 1035 93 10000 1.5 150 02:46 05.01.2020
1336 Clouds 2 1035 93 10000 1.5 150 02:24 05.01.2020
1337 Clouds 2 1036 93 10000 0.59 253 01:48 05.01.2020
1338 Clouds 2 1036 93 10000 1.5 150 01:19 05.01.2020
1339 Clouds 3 1036 93 10000 1 0 00:54 05.01.2020
1340 Clouds 2 1036 93 10000 1.5 340 00:36 05.01.2020
1341 Clouds 3 1036 86 10000 1 0 00:18 05.01.2020
1342 Rain 3 1036 86 10000 1.5 0 23:40 04.01.2020
1343 Clouds 3 1036 90 10000 0.5 0 23:20 04.01.2020
1344 Clouds 4 1035 90 10000 2.1 230 22:40 04.01.2020
1345 Clouds 4 1035 90 10000 2.1 230 22:22 04.01.2020
1346 Clouds 4 1035 90 10000 2.1 230 22:22 04.01.2020
1347 Clouds 4 1035 90 10000 3.1 190 21:58 04.01.2020
1348 Clouds 4 1035 90 10000 2.1 190 21:40 04.01.2020
1349 Clouds 4 1035 90 10000 2.1 190 21:21 04.01.2020
1350 Clouds 4 1035 90 10000 3.1 190 20:59 04.01.2020
1351 Clouds 4 1035 90 10000 3.1 210 20:40 04.01.2020
1352 Clouds 4 1035 92 10000 3.1 210 20:22 04.01.2020
1353 Clouds 4 1035 92 10000 3.1 210 20:22 04.01.2020
1354 Clouds 4 1035 92 10000 2.1 240 19:57 04.01.2020
1355 Clouds 4 1035 92 10000 1 0 19:39 04.01.2020
1356 Clouds 4 1035 92 10000 1 0 19:20 04.01.2020
1357 Clouds 4 1035 92 10000 2.6 240 18:56 04.01.2020
1358 Clouds 4 1034 92 10000 2.6 250 18:38 04.01.2020
1359 Clouds 4 1034 60 10000 1.5 270 18:19 04.01.2020
1360 Clouds 4 1034 56 10000 3.1 270 17:42 04.01.2020
1361 Clouds 4 1034 56 10000 3.1 270 17:42 04.01.2020
1362 Clouds 5 1034 56 10000 3.1 270 17:24 04.01.2020
1363 Clouds 5 1034 56 10000 3.1 270 17:24 04.01.2020
1364 Clouds 5 1033 86 10000 4.1 310 16:59 04.01.2020
1365 Clouds 5 1033 86 10000 3.6 300 16:40 04.01.2020
1366 Clouds 6 1033 86 10000 3.6 300 16:22 04.01.2020
1367 Clouds 6 1033 86 10000 3.6 300 16:22 04.01.2020
1368 Clouds 6 1033 61 10000 1 0 15:56 04.01.2020
1369 Clouds 6 1033 65 10000 2.1 210 15:38 04.01.2020
1370 Clouds 6 1033 65 10000 4.1 200 15:19 04.01.2020
1371 Clouds 6 1033 65 10000 4.1 200 14:56 04.01.2020
1372 Clouds 6 1033 65 10000 4.1 190 14:37 04.01.2020
1373 Clouds 6 1033 65 10000 4.1 190 14:19 04.01.2020
1374 Clouds 6 1033 65 10000 4.6 190 13:54 04.01.2020
1375 Clouds 6 1033 61 10000 3.6 170 13:36 04.01.2020
1376 Clouds 6 1033 61 10000 3.6 170 13:36 04.01.2020
1377 Clouds 6 1033 72 10000 1 0 13:18 04.01.2020
1378 Clouds 6 1033 72 10000 4.1 300 12:41 04.01.2020
1379 Clouds 6 1033 72 10000 4.1 300 12:19 04.01.2020
1380 Clouds 6 1033 61 10000 1 0 11:58 04.01.2020
1381 Clouds 6 1034 65 10000 1.5 0 11:38 04.01.2020
1382 Clouds 5 1033 65 10000 1 0 11:19 04.01.2020
1383 Rain 5 1033 75 10000 1 0 10:42 04.01.2020
1384 Rain 5 1033 75 10000 1 0 10:42 04.01.2020
1385 Rain 5 1033 75 10000 1 0 10:23 04.01.2020
1386 Rain 5 1033 75 10000 1 0 10:23 04.01.2020
1387 Rain 5 1033 75 10000 2.6 360 09:59 04.01.2020
1388 Rain 5 1033 75 10000 3.1 330 09:41 04.01.2020
1389 Rain 5 1033 75 10000 3.1 330 09:21 04.01.2020
1390 Rain 5 1032 81 10000 4.6 350 08:41 04.01.2020
1391 Rain 5 1032 81 10000 4.6 350 08:21 04.01.2020
1392 Rain 5 1031 93 10000 2.1 350 07:44 04.01.2020
1393 Rain 6 1030 93 10000 1.5 20 07:20 04.01.2020
1394 Rain 6 1030 93 10000 1 0 06:33 04.01.2020
1395 Rain 6 1030 100 10000 1 0 05:22 04.01.2020
1396 Rain 7 1029 93 10000 2.1 200 04:44 04.01.2020
1397 Rain 7 1029 93 10000 2.1 200 04:25 04.01.2020
1398 Rain 7 1029 100 10000 2.1 170 03:19 04.01.2020
1399 Clouds 6 1028 100 10000 1 0 02:23 04.01.2020
1400 Clouds 6 1028 93 10000 1 0 01:56 04.01.2020
1401 Clouds 7 1028 87 10000 2.6 160 01:32 04.01.2020
1402 Clouds 7 1028 93 10000 3.1 200 00:50 04.01.2020
1403 Clouds 7 1028 87 10000 1.5 180 00:28 04.01.2020
1404 Clouds 7 1028 93 10000 2.1 200 23:52 03.01.2020
1405 Clouds 7 1028 87 10000 4.6 200 23:27 03.01.2020
1406 Clouds 7 1028 87 10000 3.1 180 22:55 03.01.2020
1407 Clouds 7 1028 93 10000 3.1 180 22:37 03.01.2020
1408 Rain 7 1028 93 10000 2.1 190 22:18 03.01.2020
1409 Rain 7 1028 93 10000 2.1 190 21:56 03.01.2020
1410 Rain 7 1028 93 10000 1.5 170 21:37 03.01.2020
1411 Rain 7 1028 93 10000 1.5 170 21:18 03.01.2020
1412 Clouds 7 1028 93 10000 3.1 180 20:54 03.01.2020
1413 Clouds 7 1028 93 10000 2.6 190 20:36 03.01.2020
1414 Clouds 7 1027 93 10000 4.1 180 20:18 03.01.2020
1415 Clouds 7 1027 87 10000 4.1 200 19:42 03.01.2020
1416 Clouds 7 1027 87 10000 4.1 200 19:23 03.01.2020
1417 Clouds 7 1027 93 10000 5.1 200 18:57 03.01.2020
1418 Clouds 7 1027 87 10000 5.7 180 18:38 03.01.2020
1419 Clouds 7 1027 87 10000 5.7 180 18:20 03.01.2020
1420 Clouds 7 1026 76 10000 3.6 170 17:42 03.01.2020
1421 Clouds 8 1026 76 10000 3.6 170 17:22 03.01.2020
1422 Clouds 8 1026 81 10000 3.6 210 16:59 03.01.2020
1423 Clouds 8 1026 71 10000 4.6 230 16:40 03.01.2020
1424 Clouds 8 1025 66 10000 5.7 220 16:21 03.01.2020
1425 Clouds 8 1025 66 10000 6.7 220 15:42 03.01.2020
1426 Clouds 8 1025 66 10000 6.7 220 15:19 03.01.2020
1427 Rain 8 1024 66 10000 7.7 230 14:56 03.01.2020
1428 Clouds 8 1026 70 10000 1.5 0 14:37 03.01.2020
1429 Clouds 8 1025 71 10000 4.1 220 14:19 03.01.2020
1430 Clouds 8 1025 76 10000 3.1 150 13:41 03.01.2020
1431 Clouds 8 1025 76 10000 3.1 150 13:23 03.01.2020
1432 Clouds 7 1025 87 10000 1.5 0 12:56 03.01.2020
1433 Clouds 7 1026 86 10000 1.5 320 12:38 03.01.2020
1434 Clouds 7 1026 86 10000 1.5 320 12:19 03.01.2020
1435 Rain 7 1026 87 10000 3.1 150 11:42 03.01.2020
1436 Clouds 5 1025 81 10000 3.6 190 11:19 03.01.2020
1437 Clouds 4 1026 100 10000 1 280 10:44 03.01.2020
1438 Clouds 4 1026 100 10000 1 280 10:25 03.01.2020
1439 Clouds 3 1025 100 10000 1 0 09:57 03.01.2020
1440 Clouds 3 1025 77 7000 1 0 09:39 03.01.2020
1441 Clouds 3 1025 77 7000 1 0 09:21 03.01.2020
1442 Clouds 2 1025 77 6000 1 0 08:56 03.01.2020
1443 Clouds 2 1025 77 8000 1 0 08:37 03.01.2020
1444 Clouds 2 1025 82 8000 1 0 08:19 03.01.2020
1445 Clouds 2 1025 80 6000 1 0 07:39 03.01.2020
1446 Clouds 2 1025 80 7000 1 0 07:18 03.01.2020
1447 Clouds 2 1025 80 8000 1 0 06:47 03.01.2020
1448 Clouds 2 1025 80 8000 1 0 06:29 03.01.2020
1449 Clouds 2 1026 80 9000 1.5 210 05:39 03.01.2020
1450 Mist 1 1026 85 4900 2.1 191 04:21 03.01.2020
1451 Clouds 2 1026 85 6000 0.5 0 02:56 03.01.2020
1452 Clouds 2 1026 85 10000 2.1 191 02:33 03.01.2020
1453 Clouds 2 1027 86 10000 2.1 230 01:42 03.01.2020
1454 Clouds 2 1027 86 10000 2.6 190 00:50 03.01.2020
1455 Clouds 2 1027 93 10000 3.1 190 00:30 03.01.2020
1456 Clouds 2 1028 86 10000 2.1 210 23:56 02.01.2020
1457 Clouds 1 1028 100 10000 2.1 190 23:38 02.01.2020
1458 Clouds 1 1028 100 10000 2.1 190 23:19 02.01.2020
1459 Clouds 1 1028 81 6000 1.5 0 22:57 02.01.2020
1460 Mist 1 1028 81 3300 2.03 188 22:38 02.01.2020
1461 Mist 1 1028 81 3300 2.03 188 22:18 02.01.2020
1462 Fog 1 1028 81 250 1 360 21:41 02.01.2020
1463 Fog 1 1028 81 250 1 360 21:23 02.01.2020
1464 Mist 1 1028 81 2500 1.5 0 20:59 02.01.2020
1465 Fog 0 1028 81 600 2.03 188 20:39 02.01.2020
1466 Fog 0 1028 70 600 2.14 183 20:21 02.01.2020
1467 Fog 0 1028 75 600 2.24 184 20:21 02.01.2020
1468 Fog 0 1028 75 400 2.24 184 19:56 02.01.2020
1469 Fog 0 1028 75 300 2.24 184 19:38 02.01.2020
1470 Fog 0 1028 75 300 2.24 184 19:19 02.01.2020
1471 Fog 0 1028 75 300 2.24 184 18:58 02.01.2020
1472 Fog 0 1028 75 500 0.5 0 18:40 02.01.2020
1473 Fog 0 1028 75 500 0.5 0 18:22 02.01.2020
1474 Mist 1 1028 75 5000 1 120 17:57 02.01.2020
1475 Fog 1 1028 100 600 1 0 17:37 02.01.2020
1476 Clouds 1 1028 77 6000 1 0 17:19 02.01.2020
1477 Clouds 2 1028 77 6000 1 0 16:57 02.01.2020
1478 Clouds 2 1028 93 7000 1 0 16:38 02.01.2020
1479 Clouds 3 1028 93 7000 1 0 16:20 02.01.2020
1480 Clouds 3 1028 93 8000 1.5 0 15:56 02.01.2020
1481 Clouds 3 1028 77 8000 1.5 0 15:37 02.01.2020
1482 Clouds 3 1028 77 10000 1 0 15:19 02.01.2020
1483 Clouds 3 1029 77 10000 1.5 0 14:54 02.01.2020
1484 Clouds 3 1028 77 10000 1 0 14:54 02.01.2020
1485 Clouds 3 1029 77 10000 1.5 0 14:36 02.01.2020
1486 Clouds 3 1029 65 10000 1.5 220 14:18 02.01.2020
1487 Clouds 3 1029 65 10000 2.1 190 13:45 02.01.2020
1488 Clouds 3 1029 68 10000 2.1 190 13:26 02.01.2020
1489 Fog 3 1031 100 700 3.6 210 12:43 02.01.2020
1490 Clouds 3 1030 68 8000 2.1 210 12:24 02.01.2020
1491 Clouds 3 1030 68 8000 2.1 210 12:24 02.01.2020
1492 Fog 2 1031 92 900 3.6 200 11:43 02.01.2020
1493 Clouds 0 1031 100 7000 2.6 200 11:25 02.01.2020
1494 Clouds -1 1031 100 6000 2.1 210 10:57 02.01.2020
1495 Fog -2 1031 92 600 3.1 180 10:38 02.01.2020
1496 Clouds -2 1031 100 6000 3.1 200 10:19 02.01.2020
1497 Clouds -2 1031 100 6000 3.6 200 09:41 02.01.2020
1498 Clouds -2 1031 100 6000 3.6 200 09:22 02.01.2020
1499 Clouds -3 1031 100 8000 1.5 240 08:44 02.01.2020
1500 Clouds -3 1031 100 8000 1.5 240 08:25 02.01.2020
1501 Clouds -2 1031 100 9000 1.5 220 07:49 02.01.2020
1502 Mist -2 1031 100 4000 1 0 07:30 02.01.2020
1503 Mist -2 1031 100 5000 1.5 280 06:44 02.01.2020
1504 Mist -2 1031 100 5000 1.5 280 06:26 02.01.2020
1505 Clouds -2 1031 92 6000 1 0 04:53 02.01.2020
1506 Clouds -2 1031 92 6000 1 300 04:30 02.01.2020
1507 Mist -2 1031 100 5000 2.6 210 02:32 02.01.2020
1508 Clouds -2 1031 100 6000 3.6 180 01:58 02.01.2020
1509 Mist -2 1031 100 4900 1.5 220 01:33 02.01.2020
1510 Mist -2 1031 100 5000 1.5 250 00:57 02.01.2020
1511 Mist -2 1031 100 5000 1.5 0 00:33 02.01.2020
1512 Fog -2 1032 100 650 0.5 0 23:49 01.01.2020
1513 Fog -2 1032 100 650 0.5 0 23:27 01.01.2020
1514 Fog -2 1032 100 600 1 0 22:56 01.01.2020
1515 Fog -2 1032 100 650 1 0 22:38 01.01.2020
1516 Fog -2 1032 100 650 1 0 22:19 01.01.2020
1517 Fog -2 1032 100 700 1 330 21:56 01.01.2020
1518 Fog -2 1032 100 700 1 300 21:37 01.01.2020
1519 Fog -2 1032 100 700 1 300 21:18 01.01.2020
1520 Fog -2 1032 100 800 1 0 20:54 01.01.2020
1521 Fog -2 1032 100 550 1 0 20:36 01.01.2020
1522 Fog -1 1032 100 600 1 280 20:18 01.01.2020
1523 Fog -1 1032 100 600 1 280 19:54 01.01.2020
1524 Fog -1 1032 100 600 1.5 270 19:36 01.01.2020
1525 Fog -1 1032 92 800 1.5 280 19:18 01.01.2020
1526 Fog -1 1032 92 800 1.5 280 18:54 01.01.2020
1527 Fog -1 1032 92 550 1 0 18:36 01.01.2020
1528 Mist -1 1032 100 1100 1.5 250 18:18 01.01.2020
1529 Mist -1 1032 100 1100 1.5 250 17:55 01.01.2020
1530 Fog -1 1031 92 6000 3.1 330 17:36 01.01.2020
1531 Mist 0 1032 100 2700 0.5 0 17:18 01.01.2020
1532 Mist 0 1032 100 2700 1 0 16:39 01.01.2020
1533 Mist 0 1032 100 2700 1 0 16:20 01.01.2020
1534 Mist 0 1032 92 3200 0.17 111 15:57 01.01.2020
1535 Mist 1 1032 100 3400 1 0 15:39 01.01.2020
1536 Mist 1 1032 92 2900 1 0 15:20 01.01.2020
1537 Mist 1 1032 92 2900 1 0 14:58 01.01.2020
1538 Mist 1 1032 92 2900 1 0 14:58 01.01.2020
1539 Mist 1 1032 100 2800 1.5 0 14:39 01.01.2020
1540 Mist 1 1032 100 2800 1.5 0 14:21 01.01.2020
1541 Mist 1 1032 92 2900 1 0 13:56 01.01.2020
1542 Mist 1 1033 100 3100 0.5 0 13:37 01.01.2020
1543 Mist 1 1033 100 1700 1 0 13:18 01.01.2020
1544 Mist 2 1033 100 1700 1 0 12:55 01.01.2020
1545 Mist 2 1033 100 1300 1 0 12:37 01.01.2020
1546 Mist 2 1033 100 1300 1 0 12:18 01.01.2020
1547 Mist 0 1034 92 1400 1 0 11:43 01.01.2020
1548 Mist -1 1034 92 1400 1 0 11:22 01.01.2020
1549 Fog -1 1033 92 750 1 0 10:59 01.01.2020
1550 Fog -2 1033 92 700 1 0 10:40 01.01.2020
1551 Fog -2 1033 92 700 1 0 10:20 01.01.2020
1552 Fog -2 1033 92 700 1 0 10:20 01.01.2020
1553 Fog -2 1033 100 350 1 230 09:56 01.01.2020
1554 Fog -2 1033 92 400 1.5 230 09:37 01.01.2020
1555 Fog -2 1033 92 650 1.5 230 09:18 01.01.2020
1556 Fog -3 1033 92 650 1.5 230 08:55 01.01.2020
1557 Fog -3 1033 100 1200 1.5 250 08:36 01.01.2020
1558 Fog -3 1033 100 1200 1.5 250 08:18 01.01.2020
1559 Fog -3 1033 100 350 1 0 07:51 01.01.2020
1560 Fog -3 1033 100 350 1 0 07:32 01.01.2020
1561 Fog -3 1033 100 250 0.5 0 06:44 01.01.2020
1562 Fog -3 1033 100 300 1.68 126 06:20 01.01.2020
1563 Fog -3 1033 100 300 0.5 0 05:21 01.01.2020
1564 Fog -2 1033 92 2500 1 120 03:43 01.01.2020
1565 Fog -2 1033 92 2500 1 120 03:23 01.01.2020
1566 Mist -2 1033 100 4900 1.69 105 02:57 01.01.2020
1567 Mist -2 1033 92 3400 0.5 0 02:34 01.01.2020
1568 Mist -2 1033 100 4300 2.19 132 01:56 01.01.2020
1569 Mist -2 1034 92 2600 2.1 260 01:38 01.01.2020
1570 Mist -2 1034 92 2600 2.1 260 01:19 01.01.2020
1571 Clear -1 1033 49 10000 1 0 00:44 01.01.2020
1572 Clear -1 1033 49 10000 1 0 00:25 01.01.2020
1573 Clear -1 1034 92 10000 0.5 0 23:41 31.12.2019
1574 Clouds -1 1034 92 10000 0.5 0 23:21 31.12.2019
1575 Clouds -1 1034 100 10000 2.1 280 22:57 31.12.2019
1576 Clouds -1 1034 100 9000 0.5 0 22:39 31.12.2019
1577 Clouds -1 1034 92 6000 1 280 22:20 31.12.2019
1578 Clouds -1 1034 92 6000 1 280 21:57 31.12.2019
1579 Mist -1 1034 100 5000 0.5 0 21:38 31.12.2019
1580 Mist -1 1034 100 5000 0.5 0 21:20 31.12.2019
1581 Clouds -1 1034 92 7000 1.5 320 20:55 31.12.2019
1582 Clouds -1 1034 100 7000 1.5 310 20:37 31.12.2019
1583 Clouds 0 1034 100 7000 1.5 310 20:18 31.12.2019
1584 Clouds 0 1034 92 10000 1.5 330 19:54 31.12.2019
1585 Clouds 0 1034 60 9000 1.5 20 19:36 31.12.2019
1586 Clouds 0 1034 60 9000 1.5 20 19:18 31.12.2019
1587 Clouds 0 1033 60 10000 1 320 18:54 31.12.2019
1588 Clouds 0 1033 60 10000 1.5 360 18:36 31.12.2019
1589 Clouds 1 1033 60 10000 0.5 0 18:18 31.12.2019
1590 Clouds 1 1033 60 10000 0.5 0 17:54 31.12.2019
1591 Clouds 1 1033 86 10000 0.5 80 17:36 31.12.2019
1592 Clouds 2 1033 80 10000 0.98 112 17:18 31.12.2019
1593 Clouds 3 1033 80 10000 0.98 112 16:54 31.12.2019
1594 Clouds 3 1033 80 10000 1 260 16:36 31.12.2019
1595 Clouds 3 1033 66 10000 0.98 112 16:18 31.12.2019
1596 Clouds 4 1033 66 10000 0.98 112 15:54 31.12.2019
1597 Clouds 4 1033 80 10000 1 0 15:36 31.12.2019
1598 Clouds 4 1033 80 10000 1 0 15:18 31.12.2019
1599 Clouds 4 1033 86 10000 1.5 0 14:54 31.12.2019
1600 Clouds 4 1033 86 10000 2.6 360 14:36 31.12.2019
1601 Clouds 5 1033 86 10000 2.6 360 14:18 31.12.2019
1602 Clouds 5 1033 93 10000 2.1 360 13:54 31.12.2019
1603 Clouds 5 1033 86 10000 2.1 40 13:36 31.12.2019
1604 Clouds 5 1033 86 10000 2.1 50 13:18 31.12.2019
1605 Clouds 5 1033 80 10000 1 0 12:40 31.12.2019
1606 Clouds 5 1033 80 10000 1 0 12:20 31.12.2019
1607 Clouds 4 1033 86 10000 0.5 0 11:57 31.12.2019
1608 Clouds 5 1034 93 10000 1 0 11:39 31.12.2019
1609 Clouds 3 1033 54 10000 0.67 177 11:20 31.12.2019
1610 Clouds 2 1033 54 10000 0.67 177 10:58 31.12.2019
1611 Clouds 1 1033 54 10000 0.67 177 10:38 31.12.2019
1612 Clouds 0 1033 100 9000 1.5 190 10:20 31.12.2019
1613 Clouds 0 1033 100 9000 1.5 190 09:59 31.12.2019
1614 Clouds -1 1033 100 7000 1.5 180 09:40 31.12.2019
1615 Clouds -1 1033 100 7000 1.5 180 09:21 31.12.2019
1616 Clouds -1 1032 100 10000 2.1 210 08:58 31.12.2019
1617 Clouds -2 1032 92 7000 1.5 220 08:39 31.12.2019
1618 Clouds -2 1032 92 7000 1.5 220 08:20 31.12.2019
1619 Clouds -2 1032 92 8000 1 210 07:44 31.12.2019
1620 Clouds -2 1032 92 8000 1 210 07:22 31.12.2019
1621 Clouds -2 1032 100 8000 1.5 220 06:51 31.12.2019
1622 Clouds -2 1032 92 9000 1.5 210 06:23 31.12.2019
1623 Clouds -2 1032 92 9000 1.5 210 06:23 31.12.2019
1624 Mist -1 1032 92 5000 1.5 190 04:54 31.12.2019
1625 Clouds -1 1033 57 7000 3.6 180 04:21 31.12.2019
1626 Mist -1 1033 100 4100 0.5 0 02:57 31.12.2019
1627 Mist -1 1032 100 4200 2.1 360 02:20 31.12.2019
1628 Mist 0 1032 100 4800 1 220 01:49 31.12.2019
1629 Mist 0 1032 100 4800 1 220 01:31 31.12.2019
1630 Mist 0 1032 100 2300 1 200 00:48 31.12.2019
1631 Mist -1 1032 100 2300 1 200 00:25 31.12.2019
1632 Mist -1 1033 92 2400 1.41 166 23:58 30.12.2019
1633 Mist -1 1033 100 2100 1 130 23:40 30.12.2019
1634 Mist -1 1033 100 2100 1 130 23:22 30.12.2019
1635 Mist -1 1033 92 2100 0.5 0 22:59 30.12.2019
1636 Fog -1 1033 100 550 0.5 200 22:41 30.12.2019
1637 Fog -1 1033 100 550 0.5 200 22:41 30.12.2019
1638 Fog -1 1033 100 400 0.5 230 22:21 30.12.2019
1639 Fog -1 1033 100 400 0.5 230 21:57 30.12.2019
1640 Fog -1 1033 92 350 1.5 0 21:39 30.12.2019
1641 Fog -1 1033 92 350 1.5 0 21:20 30.12.2019
1642 Fog 0 1033 100 350 0.5 0 20:59 30.12.2019
1643 Fog 0 1033 100 350 1 0 20:41 30.12.2019
1644 Fog 0 1033 100 350 1 0 20:20 30.12.2019
1645 Fog 0 1033 100 350 1 340 19:59 30.12.2019
1646 Fog 0 1033 100 350 1 360 19:39 30.12.2019
1647 Fog 1 1033 100 350 1.5 340 19:20 30.12.2019
1648 Fog 1 1033 100 350 1.5 340 18:59 30.12.2019
1649 Fog 1 1033 100 350 1.5 360 18:41 30.12.2019
1650 Fog 1 1033 100 350 1.5 360 18:21 30.12.2019
1651 Mist 1 1033 92 4300 1 20 17:58 30.12.2019
1652 Mist 1 1033 100 4500 0.5 360 17:40 30.12.2019
1653 Mist 2 1033 62 4900 0.5 340 17:19 30.12.2019
1654 Mist 2 1033 62 4900 0.5 340 16:59 30.12.2019
1655 Mist 3 1033 62 5000 1 340 16:39 30.12.2019
1656 Mist 3 1033 62 5000 1.5 350 16:20 30.12.2019
1657 Mist 3 1033 62 5000 1.5 350 15:56 30.12.2019
1658 Mist 3 1033 62 5000 1 0 15:38 30.12.2019
1659 Mist 4 1033 62 5000 0.5 0 15:19 30.12.2019
1660 Mist 4 1033 62 5000 0.5 0 14:54 30.12.2019
1661 Mist 4 1033 62 5000 1 0 14:36 30.12.2019
1662 Mist 3 1034 49 5000 1.5 0 14:18 30.12.2019
1663 Mist 3 1034 49 5000 0.47 39 13:41 30.12.2019
1664 Mist 3 1034 49 5000 0.36 43 13:23 30.12.2019
1665 Mist 3 1034 100 5000 0.36 43 12:58 30.12.2019
1666 Mist 4 1035 100 2100 0.36 43 12:40 30.12.2019
1667 Mist 4 1035 100 4000 0.5 0 12:19 30.12.2019
1668 Mist 4 1035 100 2100 1 0 11:56 30.12.2019
1669 Mist 3 1035 100 2100 1 0 11:38 30.12.2019
1670 Mist 1 1035 100 2200 1 0 11:18 30.12.2019
1671 Mist -1 1036 100 2200 0.5 0 10:43 30.12.2019
1672 Mist -2 1035 100 1800 1 0 10:20 30.12.2019
1673 Mist -1 1035 100 2500 1 0 09:55 30.12.2019
1674 Mist -1 1035 100 2500 1 0 09:55 30.12.2019
1675 Mist -2 1035 100 2100 1 0 09:37 30.12.2019
1676 Mist -2 1035 100 2000 1.5 220 09:18 30.12.2019
1677 Mist -2 1035 100 2400 2.1 220 08:46 30.12.2019
1678 Mist -3 1035 100 2400 2.1 220 08:23 30.12.2019
1679 Mist -3 1035 100 2200 1.5 200 07:53 30.12.2019
1680 Mist -2 1035 100 2900 2.6 220 07:33 30.12.2019
1681 Mist -2 1035 100 4100 1.5 230 06:50 30.12.2019
1682 Mist -2 1036 100 4400 1 0 04:50 30.12.2019
1683 Mist -2 1036 100 2500 1.5 0 03:52 30.12.2019
1684 Mist -2 1036 100 2300 1.5 0 02:47 30.12.2019
1685 Mist -2 1036 100 1700 1 0 02:29 30.12.2019
1686 Mist -2 1037 100 1200 0.5 0 01:50 30.12.2019
1687 Mist -2 1037 100 1300 0.5 0 01:20 30.12.2019
1688 Mist -2 1037 100 1800 1 0 00:43 30.12.2019
1689 Mist -2 1037 100 2400 0.5 0 23:59 29.12.2019
1690 Mist -2 1037 100 3100 1 0 23:39 29.12.2019
1691 Mist -2 1037 100 3100 1 0 23:21 29.12.2019
1692 Mist -2 1037 100 4000 1.5 0 22:42 29.12.2019
1693 Mist -2 1037 100 4000 1.5 0 22:24 29.12.2019
1694 Mist -2 1037 100 4400 2.4 112 21:59 29.12.2019
1695 Mist -2 1037 100 4600 1 320 21:41 29.12.2019
1696 Mist -2 1037 100 4600 1 320 21:21 29.12.2019
1697 Mist -2 1037 100 4900 1 310 20:57 29.12.2019
1698 Mist -2 1037 100 5000 1 0 20:39 29.12.2019
1699 Mist -2 1037 100 5000 1 0 20:20 29.12.2019
1700 Mist -2 1037 100 5000 1 0 20:20 29.12.2019
1701 Mist -2 1037 100 5000 1 0 20:20 29.12.2019
1702 Mist -1 1037 100 5000 1 0 19:59 29.12.2019
1703 Mist -1 1037 100 5000 1 270 19:40 29.12.2019
1704 Mist -1 1037 100 5000 1 270 19:21 29.12.2019
1705 Mist -1 1037 100 5000 1.5 0 18:57 29.12.2019
1706 Mist -1 1037 100 5000 1.5 0 18:38 29.12.2019
1707 Mist -1 1037 100 5000 1.5 0 18:20 29.12.2019
1708 Mist -1 1037 100 5000 0.5 0 17:58 29.12.2019
1709 Clouds -1 1037 100 6000 2.23 111 17:39 29.12.2019
1710 Mist 0 1037 92 5000 1 0 17:20 29.12.2019
1711 Mist 0 1037 92 5000 1 0 16:57 29.12.2019
1712 Clouds 0 1037 92 6000 1.5 0 16:38 29.12.2019
1713 Clouds 0 1037 92 6000 1.5 0 16:38 29.12.2019
1714 Clouds 0 1037 92 6000 1.5 0 16:38 29.12.2019
1715 Clouds 0 1037 92 6000 1.5 0 16:20 29.12.2019
1716 Clouds 1 1037 92 6000 1.5 0 15:58 29.12.2019
1717 Clouds 1 1037 92 6000 1 0 15:39 29.12.2019
1718 Clouds 1 1037 92 6000 1 0 15:20 29.12.2019
1719 Clouds 1 1037 92 6000 1 0 14:58 29.12.2019
1720 Clouds 1 1037 92 6000 1 0 14:39 29.12.2019
1721 Fog 1 1037 100 800 1 0 14:18 29.12.2019
1722 Fog 1 1037 100 800 1 0 14:18 29.12.2019
1723 Fog 1 1037 100 800 1 0 13:58 29.12.2019
1724 Mist 1 1037 100 2000 1.5 0 13:39 29.12.2019
1725 Mist 1 1037 100 5000 1 0 13:21 29.12.2019
1726 Mist 1 1038 100 2000 1.5 0 12:56 29.12.2019
1727 Mist 1 1038 100 2000 0.85 42 12:38 29.12.2019
1728 Mist 1 1038 100 4100 1.5 0 12:19 29.12.2019
1729 Mist 0 1039 100 1800 1.5 0 11:40 29.12.2019
1730 Mist -1 1039 100 1200 1 0 11:21 29.12.2019
1731 Mist -1 1039 100 5000 0.5 0 10:56 29.12.2019
1732 Fog -1 1039 100 700 1.5 0 10:37 29.12.2019
1733 Fog -2 1039 100 600 1 0 10:18 29.12.2019
1734 Fog -2 1039 100 600 1 0 10:18 29.12.2019
1735 Fog -2 1039 100 500 2.1 210 09:44 29.12.2019
1736 Mist -2 1038 100 5000 1.5 120 09:26 29.12.2019
1737 Fog -2 1038 100 700 1.5 220 08:55 29.12.2019
1738 Clouds -2 1038 92 6000 1.58 103 08:37 29.12.2019
1739 Clouds -2 1038 92 6000 1.83 106 08:18 29.12.2019
1740 Clouds -2 1038 100 6000 1.5 330 07:43 29.12.2019
1741 Clouds -2 1038 100 6000 1.5 330 07:25 29.12.2019
1742 Clouds -2 1038 92 6000 1 0 06:28 29.12.2019
1743 Mist -2 1038 100 4700 1 340 05:55 29.12.2019
1744 Mist -2 1038 100 4500 1 360 04:59 29.12.2019
1745 Clouds -2 1038 100 6000 2.35 114 04:30 29.12.2019
1746 Clouds -1 1038 92 9000 1.5 310 03:35 29.12.2019
1747 Clouds -1 1038 100 7000 1 40 02:27 29.12.2019
1748 Clouds -1 1038 92 8000 1 340 01:52 29.12.2019
1749 Clouds -1 1038 92 10000 1.5 320 01:29 29.12.2019
1750 Clouds -1 1038 92 10000 1.5 320 01:29 29.12.2019
1751 Clouds -1 1039 92 10000 2.6 350 00:45 29.12.2019
1752 Clouds -1 1039 92 10000 2.6 350 00:45 29.12.2019
1753 Clouds -1 1039 92 10000 2.6 350 00:25 29.12.2019
1754 Clouds -1 1039 92 10000 2.6 350 00:25 29.12.2019
1755 Clouds 0 1039 100 10000 1.5 320 23:55 28.12.2019
1756 Clouds 0 1039 92 10000 1.5 330 23:37 28.12.2019
1757 Clouds 0 1039 100 9000 0.5 0 23:18 28.12.2019
1758 Clouds 0 1038 100 10000 0.5 0 22:37 28.12.2019
1759 Clouds 0 1038 92 10000 1.5 320 22:18 28.12.2019
1760 Clouds 0 1038 92 10000 1.5 320 21:56 28.12.2019
1761 Clouds 0 1038 73 10000 1 330 21:37 28.12.2019
1762 Clouds 0 1038 73 10000 1 330 21:19 28.12.2019
1763 Clouds 0 1038 73 10000 2.1 290 20:54 28.12.2019
1764 Clouds 0 1038 73 10000 2.1 290 20:54 28.12.2019
1765 Clouds 0 1038 86 10000 2.6 290 20:36 28.12.2019
1766 Clouds 1 1038 86 10000 2.6 290 20:18 28.12.2019
1767 Clouds 1 1039 82 10000 2.6 270 19:43 28.12.2019
1768 Clouds 1 1039 82 10000 2.6 270 19:24 28.12.2019
1769 Clouds 1 1038 82 10000 1.5 270 18:59 28.12.2019
1770 Clouds 1 1039 82 10000 1.5 310 18:41 28.12.2019
1771 Clouds 2 1039 93 10000 1.5 320 18:20 28.12.2019
1772 Clouds 2 1039 93 10000 1.5 320 17:59 28.12.2019
1773 Clouds 2 1038 82 10000 2.1 360 17:40 28.12.2019
1774 Clear 3 1038 83 10000 2.1 360 17:21 28.12.2019
1775 Clear 3 1038 80 10000 3.1 10 16:51 28.12.2019
1776 Clear 3 1038 80 10000 3.1 10 16:27 28.12.2019
1777 Clear 3 1038 80 10000 3.6 10 15:59 28.12.2019
1778 Clouds 3 1038 80 10000 4.1 10 15:41 28.12.2019
1779 Clouds 4 1038 80 10000 4.1 10 15:21 28.12.2019
1780 Clouds 4 1038 80 10000 4.1 10 15:21 28.12.2019
1781 Clouds 4 1038 80 10000 4.1 10 15:21 28.12.2019
1782 Clouds 4 1038 80 10000 4.1 20 14:48 28.12.2019
1783 Clouds 4 1038 80 10000 3.6 10 14:26 28.12.2019
1784 Clouds 4 1038 80 10000 2.6 20 13:58 28.12.2019
1785 Clouds 4 1038 86 10000 3.1 30 13:39 28.12.2019
1786 Clouds 4 1038 86 10000 3.6 30 13:20 28.12.2019
1787 Clouds 4 1038 86 10000 3.6 30 12:57 28.12.2019
1788 Clouds 4 1038 86 10000 3.6 20 12:39 28.12.2019
1789 Clouds 4 1038 86 10000 3.6 20 12:20 28.12.2019
1790 Clear 4 1038 93 10000 1.5 50 11:40 28.12.2019
1791 Clouds 3 1038 93 10000 1.5 50 11:21 28.12.2019
1792 Clouds 3 1038 93 10000 2.1 50 10:56 28.12.2019
1793 Fog 3 1038 93 300 2.6 360 10:37 28.12.2019
1794 Fog 3 1038 100 350 2.6 360 10:18 28.12.2019
1795 Fog 3 1038 93 600 2.6 360 09:45 28.12.2019
1796 Clouds 3 1038 86 10000 2.1 40 09:24 28.12.2019
1797 Clouds 3 1037 86 10000 2.6 40 08:58 28.12.2019
1798 Clouds 3 1037 86 10000 2.1 40 08:40 28.12.2019
1799 Clouds 3 1037 86 10000 2.1 40 08:22 28.12.2019
1800 Clouds 3 1036 80 10000 3.1 20 07:43 28.12.2019
1801 Clouds 3 1036 80 10000 3.1 20 07:22 28.12.2019
1802 Clouds 4 1035 75 10000 3.6 30 05:46 28.12.2019
1803 Clouds 5 1035 81 10000 2.6 20 03:48 28.12.2019
1804 Clouds 5 1035 81 10000 3.6 10 02:51 28.12.2019
1805 Clouds 5 1035 81 10000 4.6 10 02:20 28.12.2019
1806 Clouds 5 1035 81 10000 4.6 10 01:56 28.12.2019
1807 Clouds 5 1034 87 10000 5.7 20 01:23 28.12.2019
1808 Clouds 5 1034 87 10000 4.6 20 00:50 28.12.2019
1809 Drizzle 5 1034 87 10000 4.6 30 00:30 28.12.2019
1810 Clouds 6 1034 87 10000 4.1 20 23:58 27.12.2019
1811 Clouds 6 1034 87 10000 4.1 20 23:58 27.12.2019
1812 Clouds 6 1034 87 10000 5.1 20 23:39 27.12.2019
1813 Clouds 6 1034 87 10000 5.1 20 23:19 27.12.2019
1814 Clouds 6 1033 93 10000 4.1 20 22:57 27.12.2019
1815 Clouds 6 1033 93 10000 4.1 30 22:38 27.12.2019
1816 Clouds 6 1033 93 10000 3.6 30 22:19 27.12.2019
1817 Rain 6 1033 93 10000 3.6 30 21:43 27.12.2019
1818 Rain 6 1033 93 10000 3.6 30 21:25 27.12.2019
1819 Rain 6 1032 87 10000 3.6 30 20:58 27.12.2019
1820 Rain 6 1032 93 10000 5.1 30 20:40 27.12.2019
1821 Rain 6 1032 93 10000 5.1 30 20:21 27.12.2019
1822 Rain 6 1031 93 10000 4.1 20 19:41 27.12.2019
1823 Rain 6 1030 100 10000 3.6 10 19:20 27.12.2019
1824 Rain 7 1030 100 10000 3.6 10 18:58 27.12.2019
1825 Rain 7 1030 93 10000 3.1 20 18:37 27.12.2019
1826 Rain 7 1030 93 10000 3.1 20 18:19 27.12.2019
1827 Rain 7 1029 93 10000 3.1 20 17:56 27.12.2019
1828 Rain 7 1029 100 10000 2.1 340 17:38 27.12.2019
1829 Clouds 7 1029 100 10000 2.1 340 17:18 27.12.2019
1830 Clouds 7 1028 100 10000 1.5 340 16:56 27.12.2019
1831 Clouds 7 1028 100 10000 1 0 16:37 27.12.2019
1832 Clouds 7 1027 93 10000 1.5 280 16:19 27.12.2019
1833 Clouds 8 1026 93 10000 1 250 15:43 27.12.2019
1834 Clouds 8 1026 93 10000 1 250 15:20 27.12.2019
1835 Drizzle 8 1026 100 6000 1 0 14:57 27.12.2019
1836 Drizzle 8 1026 100 6000 1 0 14:39 27.12.2019
1837 Drizzle 7 1026 100 6000 1 0 14:20 27.12.2019
1838 Rain 8 1025 87 10000 1 0 13:48 27.12.2019
1839 Rain 7 1025 87 10000 1 0 13:25 27.12.2019
1840 Rain 7 1025 87 10000 1 0 13:25 27.12.2019
1841 Clouds 7 1025 87 10000 1 0 12:58 27.12.2019
1842 Clouds 7 1024 87 10000 0.5 0 12:40 27.12.2019
1843 Clouds 7 1024 87 10000 0.5 0 12:21 27.12.2019
1844 Clouds 7 1023 93 10000 0.5 0 11:45 27.12.2019
1845 Clouds 7 1023 93 10000 0.5 0 11:26 27.12.2019
1846 Rain 7 1023 100 10000 1.5 240 10:58 27.12.2019
1847 Rain 7 1022 100 10000 1 190 10:39 27.12.2019
1848 Rain 6 1022 100 9000 1 350 10:21 27.12.2019
1849 Rain 6 1022 100 10000 1 360 09:44 27.12.2019
1850 Rain 6 1022 100 10000 1 360 09:22 27.12.2019
1851 Rain 6 1021 100 8000 0.5 0 08:59 27.12.2019
1852 Rain 6 1021 100 10000 1 0 08:36 27.12.2019
1853 Rain 6 1020 100 10000 1.5 0 07:53 27.12.2019
1854 Rain 6 1020 100 10000 1.5 160 07:34 27.12.2019
1855 Rain 6 1020 87 10000 2.6 170 06:39 27.12.2019
1856 Rain 6 1021 87 10000 2.6 160 05:52 27.12.2019
1857 Rain 6 1022 93 10000 3.6 180 03:47 27.12.2019
1858 Rain 6 1022 93 10000 2.6 210 03:47 27.12.2019
1859 Clouds 6 1022 93 10000 5.1 180 02:25 27.12.2019
1860 Rain 5 1023 93 10000 2.1 180 01:42 27.12.2019
1861 Rain 5 1023 93 10000 2.1 180 01:20 27.12.2019
1862 Rain 5 1024 100 10000 1.5 0 00:46 27.12.2019
1863 Rain 5 1024 100 10000 1.5 0 00:25 27.12.2019
1864 Rain 5 1024 93 10000 3.1 180 23:44 26.12.2019
1865 Rain 5 1024 93 10000 3.1 180 23:24 26.12.2019
1866 Rain 5 1024 93 10000 1 0 22:58 26.12.2019
1867 Rain 4 1024 93 10000 1.5 0 22:38 26.12.2019
1868 Rain 5 1024 86 10000 2.1 180 22:18 26.12.2019
1869 Clouds 4 1025 93 10000 2.6 200 21:39 26.12.2019
1870 Clouds 5 1025 93 10000 2.6 200 21:21 26.12.2019
1871 Clouds 5 1025 100 10000 1.5 190 20:57 26.12.2019
1872 Clouds 4 1025 93 10000 1 200 20:38 26.12.2019
1873 Clouds 4 1025 93 10000 1 200 20:19 26.12.2019
1874 Clouds 4 1025 100 10000 2.07 200 19:55 26.12.2019
1875 Clouds 4 1025 93 10000 1.5 0 19:37 26.12.2019
1876 Clouds 4 1025 93 10000 1.5 0 19:19 26.12.2019
1877 Clouds 4 1024 86 10000 1 0 18:55 26.12.2019
1878 Clouds 4 1024 86 10000 2.6 190 18:36 26.12.2019
1879 Clouds 4 1024 86 10000 2.6 190 18:18 26.12.2019
1880 Clouds 4 1024 86 10000 2.1 190 17:41 26.12.2019
1881 Snow 4 1024 86 10000 2.1 190 17:21 26.12.2019
1882 Snow 4 1024 86 10000 3.1 190 16:50 26.12.2019
1883 Snow 4 1024 80 10000 4.1 170 16:27 26.12.2019
1884 Snow 4 1023 80 10000 4.1 190 15:57 26.12.2019
1885 Snow 4 1023 80 10000 3.6 170 15:39 26.12.2019
1886 Snow 4 1023 80 10000 3.6 170 15:19 26.12.2019
1887 Snow 4 1023 80 10000 3.1 160 14:41 26.12.2019
1888 Snow 4 1023 80 10000 3.1 160 14:23 26.12.2019
1889 Clouds 4 1024 86 10000 2.1 190 13:57 26.12.2019
1890 Clouds 4 1024 86 10000 2.1 170 13:39 26.12.2019
1891 Clouds 4 1024 86 10000 1.5 0 13:18 26.12.2019
1892 Clouds 4 1025 93 10000 1.5 120 12:45 26.12.2019
1893 Clouds 4 1025 93 10000 1.5 120 12:26 26.12.2019
1894 Clouds 3 1025 86 10000 1 130 11:59 26.12.2019
1895 Clouds 3 1025 86 10000 1 0 11:40 26.12.2019
1896 Rain 3 1025 86 10000 1 0 11:22 26.12.2019
1897 Rain 3 1025 86 10000 1 0 10:54 26.12.2019
1898 Rain 2 1025 93 10000 1 0 10:36 26.12.2019
1899 Clouds 2 1025 93 10000 1 0 10:18 26.12.2019
1900 Clouds 1 1025 100 10000 1 210 09:42 26.12.2019
1901 Clouds 1 1025 100 10000 1 210 09:24 26.12.2019
1902 Clouds 0 1025 88 10000 2.6 210 08:40 26.12.2019
1903 Clouds 0 1025 93 10000 2.6 210 08:22 26.12.2019
1904 Clouds 0 1025 93 10000 1.5 0 07:46 26.12.2019
1905 Clouds 0 1025 93 10000 1.5 0 07:26 26.12.2019
1906 Clouds 1 1025 93 10000 1 100 06:44 26.12.2019
1907 Clouds 0 1025 93 10000 1 100 06:25 26.12.2019
1908 Clouds 1 1025 93 10000 0.5 0 05:43 26.12.2019
1909 Clouds 1 1025 86 10000 2.6 220 04:38 26.12.2019
1910 Clouds 1 1026 93 10000 0.5 0 03:47 26.12.2019
1911 Rain 1 1025 86 10000 1.92 121 02:50 26.12.2019
1912 Rain 1 1026 86 10000 1.5 250 02:32 26.12.2019
1913 Fog 1 1025 91 3200 0.5 0 01:46 26.12.2019
1914 Fog 1 1025 91 3200 0.5 0 01:27 26.12.2019
1915 Fog 1 1026 91 8000 0.5 220 00:48 26.12.2019
1916 Clouds 2 1026 80 10000 2.1 240 00:25 26.12.2019
1917 Clouds 2 1026 80 10000 1.5 230 23:58 25.12.2019
1918 Clouds 2 1026 80 10000 3.6 230 23:39 25.12.2019
1919 Clouds 3 1026 80 10000 3.6 230 23:21 25.12.2019
1920 Clouds 3 1026 80 10000 2.1 230 22:58 25.12.2019
1921 Clouds 3 1026 75 10000 2.1 270 22:39 25.12.2019
1922 Clouds 3 1026 75 10000 2.1 270 22:20 25.12.2019
1923 Clouds 3 1026 80 10000 2.1 270 21:58 25.12.2019
1924 Clouds 4 1026 80 10000 2.1 280 21:39 25.12.2019
1925 Clouds 4 1026 80 10000 2.1 280 21:20 25.12.2019
1926 Clouds 4 1026 80 10000 2.6 290 20:56 25.12.2019
1927 Clouds 5 1026 86 10000 1 0 20:38 25.12.2019
1928 Clouds 5 1026 80 10000 0.3 243 20:18 25.12.2019
1929 Clouds 5 1026 80 10000 0.3 243 20:18 25.12.2019
1930 Clouds 5 1026 80 10000 0.3 243 19:43 25.12.2019
1931 Clouds 5 1026 80 10000 0.3 243 19:24 25.12.2019
1932 Clouds 5 1026 80 10000 2.1 340 18:58 25.12.2019
1933 Clouds 5 1026 75 10000 1.5 310 18:37 25.12.2019
1934 Clouds 6 1026 75 10000 1.5 310 18:18 25.12.2019
1935 Clouds 6 1025 70 10000 2.6 330 17:42 25.12.2019
1936 Clouds 7 1025 70 10000 2.6 330 17:19 25.12.2019
1937 Clouds 7 1025 70 10000 3.1 300 16:58 25.12.2019
1938 Clouds 7 1025 66 10000 2.1 340 16:37 25.12.2019
1939 Clouds 7 1025 66 10000 2.1 340 16:19 25.12.2019
1940 Clouds 7 1024 66 10000 3.6 300 15:57 25.12.2019
1941 Clouds 7 1023 70 10000 2.6 270 15:39 25.12.2019
1942 Rain 7 1023 70 10000 1.5 0 15:20 25.12.2019
1943 Rain 8 1023 70 10000 1.5 0 14:58 25.12.2019
1944 Rain 7 1022 66 10000 5.7 280 14:39 25.12.2019
1945 Rain 7 1022 66 10000 5.7 280 14:39 25.12.2019
1946 Rain 8 1022 66 10000 5.7 280 14:20 25.12.2019
1947 Rain 8 1022 76 10000 4.6 320 13:45 25.12.2019
1948 Rain 8 1022 76 10000 4.6 320 13:22 25.12.2019
1949 Rain 8 1021 62 10000 6.2 280 12:58 25.12.2019
1950 Rain 8 1021 62 10000 6.2 280 12:38 25.12.2019
1951 Rain 8 1021 62 10000 6.2 280 12:20 25.12.2019
1952 Rain 8 1021 66 10000 4.6 280 11:54 25.12.2019
1953 Rain 8 1021 71 10000 4.6 260 11:36 25.12.2019
1954 Rain 8 1021 66 10000 2.1 320 11:18 25.12.2019
1955 Rain 8 1020 81 10000 1 0 10:38 25.12.2019
1956 Rain 8 1019 76 10000 2.6 140 10:19 25.12.2019
1957 Rain 8 1019 76 10000 2.6 140 09:49 25.12.2019
1958 Rain 8 1019 76 10000 1.5 130 09:30 25.12.2019
1959 Rain 8 1019 76 10000 4.6 190 08:51 25.12.2019
1960 Rain 8 1018 76 10000 3.1 170 08:30 25.12.2019
1961 Clouds 7 1018 81 10000 3.6 190 07:50 25.12.2019
1962 Rain 7 1018 76 10000 5.1 180 07:31 25.12.2019
1963 Rain 8 1018 81 10000 5.7 180 06:51 25.12.2019
1964 Rain 8 1018 76 10000 4.6 180 06:22 25.12.2019
1965 Clouds 8 1018 76 10000 3.1 170 05:18 25.12.2019
1966 Clouds 7 1018 81 10000 4.6 180 04:39 25.12.2019
1967 Clouds 7 1018 81 10000 4.6 180 04:20 25.12.2019
1968 Rain 7 1018 76 10000 5.1 170 03:41 25.12.2019
1969 Rain 7 1017 76 10000 6.2 180 02:54 25.12.2019
1970 Rain 7 1017 70 10000 6.2 180 02:27 25.12.2019
1971 Clouds 8 1017 66 10000 4.1 190 01:25 25.12.2019
1972 Rain 8 1017 66 10000 3.6 200 00:54 25.12.2019
1973 Clouds 8 1017 66 10000 4.6 200 00:33 25.12.2019
1974 Clouds 8 1017 66 10000 4.1 180 23:58 24.12.2019
1975 Rain 8 1017 61 10000 1.5 190 23:39 24.12.2019
1976 Clouds 8 1017 61 10000 3.6 140 23:20 24.12.2019
1977 Clouds 8 1017 57 10000 3.1 200 22:41 24.12.2019
1978 Clouds 8 1017 57 10000 3.1 200 22:23 24.12.2019
1979 Rain 8 1017 53 10000 5.1 250 21:55 24.12.2019
1980 Rain 8 1017 53 10000 7.7 260 21:36 24.12.2019
1981 Clouds 8 1017 57 10000 7.2 270 21:18 24.12.2019
1982 Rain 8 1017 53 10000 5.7 250 20:41 24.12.2019
1983 Rain 9 1017 57 10000 5.7 260 20:19 24.12.2019
1984 Clouds 8 1018 81 10000 6.2 260 19:46 24.12.2019
1985 Clouds 8 1017 81 10000 4.6 260 19:22 24.12.2019
1986 Clouds 8 1018 81 10000 6.2 260 19:22 24.12.2019
1987 Rain 8 1016 62 10000 2.6 250 18:59 24.12.2019
1988 Rain 9 1016 71 10000 3.1 230 18:40 24.12.2019
1989 Rain 9 1016 71 10000 3.1 230 18:18 24.12.2019
1990 Rain 9 1016 71 10000 3.1 230 17:43 24.12.2019
1991 Rain 9 1016 71 10000 3.1 230 17:22 24.12.2019
1992 Clouds 9 1016 71 10000 5.1 230 16:58 24.12.2019
1993 Clouds 9 1015 62 10000 3.6 230 16:39 24.12.2019
1994 Clouds 9 1015 62 10000 3.6 230 16:20 24.12.2019
1995 Rain 10 1015 58 10000 6.2 260 15:57 24.12.2019
1996 Rain 9 1014 58 10000 6.7 260 15:37 24.12.2019
1997 Clouds 9 1016 100 10000 1 0 15:19 24.12.2019
1998 Clouds 9 1016 100 10000 1 0 15:19 24.12.2019
1999 Clouds 9 1016 100 10000 1 0 14:58 24.12.2019
2000 Rain 8 1016 100 7000 4.24 251 14:39 24.12.2019
2001 Rain 7 1015 100 6000 2.1 60 14:21 24.12.2019
2002 Rain 7 1015 100 6000 2.1 60 14:21 24.12.2019
2003 Rain 7 1015 100 6000 2.1 60 13:56 24.12.2019
2004 Rain 7 1015 93 5000 2.1 170 13:37 24.12.2019
2005 Rain 7 1015 93 5000 2.1 170 13:19 24.12.2019
2006 Rain 8 1013 81 10000 6.2 170 12:56 24.12.2019
2007 Rain 8 1013 81 10000 6.2 170 12:56 24.12.2019
2008 Rain 8 1013 81 10000 6.2 170 12:56 24.12.2019
2009 Clouds 7 1013 87 10000 6.7 170 12:37 24.12.2019
2010 Clouds 7 1013 87 10000 6.7 170 12:19 24.12.2019
2011 Clouds 7 1013 87 10000 5.1 170 11:56 24.12.2019
2012 Rain 6 1013 93 10000 6.2 170 11:37 24.12.2019
2013 Rain 6 1013 93 10000 6.2 170 11:37 24.12.2019
2014 Rain 6 1013 93 10000 6.2 170 11:37 24.12.2019
2015 Rain 6 1014 87 10000 5.1 170 11:19 24.12.2019
2016 Rain 6 1014 87 10000 5.1 170 10:56 24.12.2019
2017 Rain 6 1014 87 10000 5.1 170 10:56 24.12.2019
2018 Rain 5 1015 81 10000 5.7 170 10:38 24.12.2019
2019 Rain 6 1015 81 10000 5.7 170 10:19 24.12.2019
2020 Rain 5 1015 81 10000 7.2 180 09:55 24.12.2019
2021 Rain 5 1016 75 10000 6.7 180 09:37 24.12.2019
2022 Rain 5 1016 75 10000 6.2 180 09:19 24.12.2019
2023 Clouds 6 1017 75 10000 3.1 170 08:46 24.12.2019
2024 Clouds 5 1017 75 10000 3.1 170 08:24 24.12.2019
2025 Rain 5 1017 75 10000 4.1 170 07:46 24.12.2019
2026 Rain 5 1017 75 10000 4.1 170 07:27 24.12.2019
2027 Rain 5 1017 75 10000 5.1 170 06:59 24.12.2019
2028 Rain 4 1018 87 10000 2.6 200 06:39 24.12.2019
2029 Rain 4 1018 81 10000 4.6 180 06:19 24.12.2019
2030 Rain 5 1018 81 10000 4.6 180 05:49 24.12.2019
2031 Clouds 5 1019 87 10000 4.1 170 05:18 24.12.2019
2032 Clouds 5 1020 87 10000 3.6 170 04:21 24.12.2019
2033 Clouds 5 1020 93 10000 2.6 190 03:45 24.12.2019
2034 Clouds 5 1020 87 10000 3.1 160 02:28 24.12.2019
2035 Clouds 6 1020 81 10000 4.6 170 01:54 24.12.2019
2036 Clouds 6 1020 81 10000 4.6 170 01:25 24.12.2019
2037 Clouds 6 1020 81 10000 2.6 140 00:56 24.12.2019
2038 Clouds 6 1020 86 10000 1 0 00:37 24.12.2019
2039 Clouds 5 1020 86 10000 1 0 00:19 24.12.2019
2040 Clouds 6 1020 81 10000 4.1 180 23:42 23.12.2019
2041 Clouds 6 1020 81 10000 4.1 210 23:24 23.12.2019
2042 Clouds 6 1020 81 10000 4.1 210 22:57 23.12.2019
2043 Clouds 6 1019 86 10000 4.6 190 22:38 23.12.2019
2044 Clouds 6 1019 86 10000 4.6 190 22:38 23.12.2019
2045 Clouds 6 1019 65 10000 4.6 220 22:20 23.12.2019
2046 Clouds 6 1019 65 10000 4.6 220 21:56 23.12.2019
2047 Clouds 6 1019 70 10000 5.1 220 21:37 23.12.2019
2048 Clouds 6 1019 70 10000 5.1 220 21:19 23.12.2019
2049 Clouds 6 1019 70 10000 5.1 220 21:19 23.12.2019
2050 Clouds 6 1019 81 10000 4.1 220 20:58 23.12.2019
2051 Clouds 6 1018 81 10000 3.6 210 20:40 23.12.2019
2052 Clouds 6 1018 81 10000 3.6 210 20:19 23.12.2019
2053 Clouds 6 1018 81 10000 3.6 210 20:19 23.12.2019
2054 Clouds 6 1018 81 10000 3.6 210 20:19 23.12.2019
2055 Clouds 6 1018 93 10000 3.6 200 19:58 23.12.2019
2056 Clouds 6 1018 87 10000 4.1 210 19:39 23.12.2019
2057 Clouds 6 1018 87 10000 4.1 210 19:20 23.12.2019
2058 Clouds 6 1017 87 10000 3.6 200 18:58 23.12.2019
2059 Clouds 6 1017 81 10000 3.1 200 18:39 23.12.2019
2060 Clouds 6 1017 81 10000 3.1 200 18:20 23.12.2019
2061 Clouds 6 1017 87 10000 1.5 0 17:59 23.12.2019
2062 Clouds 7 1016 75 10000 4.1 250 17:40 23.12.2019
2063 Rain 7 1016 75 10000 4.1 250 17:19 23.12.2019
2064 Rain 7 1016 75 10000 1.5 200 16:57 23.12.2019
2065 Rain 7 1015 87 10000 2.6 350 16:39 23.12.2019
2066 Rain 7 1015 87 10000 2.6 350 16:19 23.12.2019
2067 Rain 7 1015 87 10000 2.6 350 16:19 23.12.2019
2068 Clouds 8 1015 81 10000 5.1 230 15:57 23.12.2019
2069 Clouds 8 1014 76 10000 6.7 240 15:37 23.12.2019
2070 Rain 8 1014 71 10000 2.6 230 15:19 23.12.2019
2071 Rain 8 1013 76 10000 6.2 250 14:56 23.12.2019
2072 Rain 7 1013 81 10000 5.7 210 14:38 23.12.2019
2073 Rain 7 1013 70 10000 5.1 280 14:18 23.12.2019
2074 Rain 7 1013 87 10000 5.7 220 13:56 23.12.2019
2075 Rain 7 1012 87 10000 5.7 200 13:38 23.12.2019
2076 Rain 7 1012 76 10000 2.1 0 13:20 23.12.2019
2077 Rain 7 1012 87 10000 5.7 190 12:55 23.12.2019
2078 Rain 7 1012 87 10000 5.1 200 12:36 23.12.2019
2079 Rain 7 1012 76 10000 2.6 190 12:18 23.12.2019
2080 Rain 7 1011 93 10000 4.6 200 11:42 23.12.2019
2081 Rain 7 1011 81 10000 5.1 180 11:24 23.12.2019
2082 Clouds 6 1011 93 10000 4.6 190 10:56 23.12.2019
2083 Rain 6 1011 93 10000 4.1 200 10:38 23.12.2019
2084 Rain 6 1010 87 10000 3.1 170 10:20 23.12.2019
2085 Rain 6 1010 93 10000 4.1 190 09:58 23.12.2019
2086 Rain 6 1009 87 10000 4.6 190 09:39 23.12.2019
2087 Rain 6 1009 87 10000 5.7 180 09:19 23.12.2019
2088 Rain 6 1009 87 10000 5.7 180 08:55 23.12.2019
2089 Rain 6 1008 87 10000 4.1 200 08:37 23.12.2019
2090 Clouds 6 1008 93 10000 5.1 180 08:18 23.12.2019
2091 Clouds 6 1008 93 10000 4.6 180 07:42 23.12.2019
2092 Clouds 6 1007 93 10000 3.6 190 07:19 23.12.2019
2093 Rain 6 1006 93 10000 3.1 200 06:45 23.12.2019
2094 Rain 6 1006 93 10000 3.1 200 06:23 23.12.2019
2095 Rain 6 1006 87 10000 3.6 210 05:47 23.12.2019
2096 Rain 6 1005 87 10000 4.1 170 05:18 23.12.2019
2097 Clouds 6 1005 75 10000 4.1 200 04:19 23.12.2019
2098 Clouds 6 1003 81 10000 2.6 210 02:48 23.12.2019
2099 Clouds 6 1003 81 10000 2.6 210 02:23 23.12.2019
2100 Rain 6 1003 75 10000 3.1 210 01:53 23.12.2019
2101 Rain 6 1002 81 10000 3.6 180 01:32 23.12.2019
2102 Clouds 6 1002 75 10000 4.1 210 00:55 23.12.2019
2103 Clouds 6 1001 75 10000 3.6 200 00:35 23.12.2019
2104 Clouds 6 1000 75 10000 3.1 210 23:57 22.12.2019
2105 Rain 6 1000 75 10000 3.6 190 23:39 22.12.2019
2106 Rain 6 1000 75 10000 4.6 210 23:20 22.12.2019
2107 Rain 6 1000 75 10000 4.6 210 22:57 22.12.2019
2108 Rain 6 999 81 10000 5.1 210 22:38 22.12.2019
2109 Rain 6 999 75 10000 5.1 210 22:19 22.12.2019
2110 Rain 6 999 75 10000 5.1 210 21:57 22.12.2019
2111 Clouds 6 998 75 10000 3.6 180 21:39 22.12.2019
2112 Clouds 7 997 81 10000 5.1 200 21:20 22.12.2019
2113 Clouds 6 997 81 10000 5.1 200 20:56 22.12.2019
2114 Clouds 7 997 81 10000 4.1 200 20:38 22.12.2019
2115 Clouds 6 997 81 10000 3.6 210 20:18 22.12.2019
2116 Clouds 6 997 81 10000 3.6 210 19:54 22.12.2019
2117 Rain 6 997 81 10000 2.6 280 19:36 22.12.2019
2118 Rain 7 996 70 10000 6.2 260 19:18 22.12.2019
2119 Rain 7 996 81 10000 5.1 230 18:39 22.12.2019
2120 Rain 7 996 81 10000 5.1 230 18:39 22.12.2019
2121 Rain 7 996 81 10000 5.1 230 18:21 22.12.2019
2122 Rain 7 996 81 10000 4.6 230 17:55 22.12.2019
2123 Rain 7 995 81 10000 5.7 200 17:37 22.12.2019
2124 Rain 7 994 76 10000 4.1 180 17:18 22.12.2019
2125 Rain 7 994 76 10000 4.1 180 17:18 22.12.2019
2126 Rain 7 994 76 10000 4.1 180 16:56 22.12.2019
2127 Clouds 7 994 76 10000 5.1 200 16:37 22.12.2019
2128 Clouds 8 994 76 10000 5.1 200 16:19 22.12.2019
2129 Rain 8 994 76 10000 5.1 210 15:56 22.12.2019
2130 Rain 8 993 76 10000 6.7 230 15:36 22.12.2019
2131 Rain 8 993 76 10000 6.7 230 15:36 22.12.2019
2132 Rain 8 992 87 10000 7.7 240 15:18 22.12.2019
2133 Rain 8 992 87 10000 7.7 240 14:54 22.12.2019
2134 Rain 8 992 87 10000 7.7 230 14:36 22.12.2019
2135 Rain 8 992 87 10000 7.7 230 14:36 22.12.2019
2136 Rain 8 991 66 10000 4.6 200 14:18 22.12.2019
2137 Rain 8 991 81 10000 6.2 200 13:54 22.12.2019
2138 Rain 8 990 87 10000 6.7 210 13:36 22.12.2019
2139 Rain 8 990 81 10000 3.6 180 13:18 22.12.2019
2140 Rain 8 990 87 10000 6.7 200 13:18 22.12.2019
2141 Clouds 8 990 87 10000 6.7 200 12:54 22.12.2019
2142 Clouds 8 990 87 10000 6.7 200 12:54 22.12.2019
2143 Clouds 8 989 87 10000 6.2 200 12:36 22.12.2019
2144 Rain 8 989 81 10000 7.2 210 12:18 22.12.2019
2145 Rain 8 988 76 10000 6.2 200 11:39 22.12.2019
2146 Rain 8 988 76 10000 7.2 190 11:21 22.12.2019
2147 Rain 8 988 76 10000 7.2 190 10:59 22.12.2019
2148 Rain 8 988 71 10000 7.7 200 10:40 22.12.2019
2149 Rain 8 987 93 10000 5.1 170 10:21 22.12.2019
2150 Rain 8 987 71 10000 7.7 190 09:59 22.12.2019
2151 Rain 8 987 71 10000 6.2 190 09:40 22.12.2019
2152 Rain 7 987 87 10000 5.1 170 09:22 22.12.2019
2153 Rain 7 987 71 10000 6.7 200 08:59 22.12.2019
2154 Rain 7 986 87 10000 5.7 190 08:38 22.12.2019
2155 Rain 6 986 87 10000 5.1 190 08:18 22.12.2019
2156 Clouds 6 986 87 10000 6.2 190 07:38 22.12.2019
2157 Clouds 5 986 87 10000 6.2 190 07:20 22.12.2019
2158 Clouds 5 986 87 10000 1.5 140 06:40 22.12.2019
2159 Clouds 6 986 87 10000 5.1 180 05:54 22.12.2019
2160 Clouds 6 986 87 10000 3.1 180 05:23 22.12.2019
2161 Clouds 6 986 93 10000 2.1 230 04:29 22.12.2019
2162 Clouds 6 987 93 10000 3.1 180 03:56 22.12.2019
2163 Drizzle 6 987 100 10000 5.1 190 02:42 22.12.2019
2164 Drizzle 6 987 100 10000 5.1 190 02:42 22.12.2019
2165 Rain 6 987 100 10000 4.6 200 01:51 22.12.2019
2166 Rain 6 988 100 10000 5.7 200 01:30 22.12.2019
2167 Rain 6 988 100 10000 5.7 200 01:30 22.12.2019
2168 Rain 6 988 87 10000 3.1 150 00:47 22.12.2019
2169 Rain 6 988 87 10000 3.1 150 00:24 22.12.2019
2170 Rain 6 988 93 10000 4.1 180 23:57 21.12.2019
2171 Rain 6 989 87 10000 3.6 150 23:38 21.12.2019
2172 Rain 5 988 87 10000 4.6 190 23:19 21.12.2019
2173 Rain 5 988 86 10000 3.1 210 22:45 21.12.2019
2174 Rain 5 988 93 10000 1 220 22:20 21.12.2019
2175 Clouds 5 988 80 10000 2.1 140 21:58 21.12.2019
2176 Clouds 5 988 75 10000 3.6 150 21:39 21.12.2019
2177 Clouds 5 988 93 10000 0.5 0 21:20 21.12.2019
2178 Clouds 5 989 75 10000 2.6 160 20:59 21.12.2019
2179 Clouds 5 989 81 10000 3.1 120 20:41 21.12.2019
2180 Clouds 5 989 86 10000 1 0 20:22 21.12.2019
2181 Clouds 5 989 86 10000 1 0 20:22 21.12.2019
2182 Clouds 5 990 75 10000 3.1 130 19:58 21.12.2019
2183 Clouds 5 990 81 10000 2.1 150 19:40 21.12.2019
2184 Clouds 5 991 93 10000 2.1 190 19:20 21.12.2019
2185 Clouds 5 991 93 10000 2.1 190 18:56 21.12.2019
2186 Clouds 5 992 87 10000 2.1 150 18:38 21.12.2019
2187 Clouds 5 992 87 10000 3.1 160 18:20 21.12.2019
2188 Clouds 6 992 87 10000 3.1 160 17:55 21.12.2019
2189 Clouds 6 993 87 10000 5.1 180 17:37 21.12.2019
2190 Clouds 6 993 81 10000 5.1 180 17:18 21.12.2019
2191 Clouds 7 993 81 10000 5.1 180 16:54 21.12.2019
2192 Clouds 7 993 87 10000 4.6 190 16:36 21.12.2019
2193 Clouds 7 993 87 10000 4.6 180 16:18 21.12.2019
2194 Clouds 8 993 87 10000 4.6 180 15:54 21.12.2019
2195 Clouds 8 994 93 10000 5.7 190 15:36 21.12.2019
2196 Rain 8 994 93 10000 5.7 180 15:18 21.12.2019
2197 Clouds 8 994 87 10000 6.2 180 14:40 21.12.2019
2198 Clouds 8 994 87 10000 6.2 180 14:40 21.12.2019
2199 Clouds 8 994 87 10000 6.2 180 14:22 21.12.2019
2200 Clouds 8 995 81 10000 6.7 180 13:58 21.12.2019
2201 Clouds 8 995 81 10000 4.1 190 13:39 21.12.2019
2202 Clouds 8 995 81 10000 4.1 190 13:19 21.12.2019
2203 Clouds 8 995 81 10000 3.1 170 12:56 21.12.2019
2204 Rain 8 995 81 10000 2.6 180 12:38 21.12.2019
2205 Rain 7 996 87 10000 4.1 190 12:19 21.12.2019
2206 Rain 7 996 87 10000 1.5 200 11:46 21.12.2019
2207 Rain 6 996 87 10000 1.5 200 11:27 21.12.2019
2208 Clouds 6 996 87 10000 3.1 190 10:59 21.12.2019
2209 Rain 5 996 93 10000 1.5 190 10:40 21.12.2019
2210 Rain 5 996 93 10000 1.5 190 10:21 21.12.2019
2211 Rain 4 996 93 10000 1.5 0 09:57 21.12.2019
2212 Rain 4 995 93 10000 3.1 200 09:39 21.12.2019
2213 Clouds 3 995 93 10000 1 0 09:19 21.12.2019
2214 Clouds 3 995 93 10000 3.1 200 08:47 21.12.2019
2215 Clouds 4 995 93 10000 3.1 200 08:27 21.12.2019
2216 Clouds 4 995 91 10000 2.1 190 07:58 21.12.2019
2217 Clouds 4 995 93 10000 1 0 07:39 21.12.2019
2218 Clouds 4 995 93 10000 1 0 07:20 21.12.2019
2219 Clouds 4 995 100 10000 2.1 210 06:40 21.12.2019
2220 Clouds 4 995 100 10000 2.1 210 06:22 21.12.2019
2221 Clouds 4 995 100 10000 1 0 05:25 21.12.2019
2222 Clouds 4 996 100 10000 2.1 170 04:55 21.12.2019
2223 Clear 4 996 93 10000 1.5 170 03:56 21.12.2019
2224 Clouds 4 996 100 7000 1.5 0 02:25 21.12.2019
2225 Clouds 5 996 100 10000 0.5 0 01:50 21.12.2019
2226 Clouds 5 996 93 10000 1 0 01:25 21.12.2019
2227 Clouds 5 996 93 10000 3.1 210 00:49 21.12.2019
2228 Clouds 5 996 93 10000 2.1 190 00:28 21.12.2019
2229 Clouds 6 996 93 10000 1.5 250 23:39 20.12.2019
2230 Clouds 6 996 93 10000 1.5 250 23:39 20.12.2019
2231 Rain 6 996 93 10000 1.5 250 23:21 20.12.2019
2232 Clouds 6 996 87 10000 4.6 190 22:59 20.12.2019
2233 Clouds 6 996 87 10000 3.6 170 22:39 20.12.2019
2234 Clouds 6 996 87 10000 3.6 170 22:19 20.12.2019
2235 Clouds 7 995 87 10000 5.1 170 21:56 20.12.2019
2236 Rain 7 995 87 10000 6.2 170 21:38 20.12.2019
2237 Rain 7 995 87 10000 6.2 170 21:18 20.12.2019
2238 Rain 7 995 87 10000 6.7 180 20:39 20.12.2019
2239 Rain 7 995 87 10000 6.7 180 20:39 20.12.2019
2240 Rain 7 995 87 10000 6.7 180 20:19 20.12.2019
2241 Rain 7 995 87 10000 6.7 180 19:57 20.12.2019
2242 Rain 7 995 87 10000 5.1 170 19:39 20.12.2019
2243 Rain 7 995 93 10000 6.7 190 19:19 20.12.2019
2244 Rain 8 994 93 10000 6.2 180 18:42 20.12.2019
2245 Rain 8 994 81 10000 4.1 170 18:24 20.12.2019
2246 Rain 8 994 93 10000 4.6 170 17:58 20.12.2019
2247 Rain 8 993 87 10000 4.6 210 17:40 20.12.2019
2248 Rain 8 993 87 10000 4.6 210 17:21 20.12.2019
2249 Rain 8 993 100 10000 2.6 240 16:59 20.12.2019
2250 Rain 8 993 100 10000 2.6 240 16:39 20.12.2019
2251 Rain 8 992 100 10000 2.6 290 16:20 20.12.2019
2252 Rain 8 992 100 10000 1.5 330 15:56 20.12.2019
2253 Rain 7 991 100 10000 3.1 140 15:38 20.12.2019
2254 Rain 8 991 100 10000 3.1 140 15:19 20.12.2019
2255 Rain 7 991 100 10000 2.6 180 14:55 20.12.2019
2256 Rain 7 991 100 10000 2.6 160 14:37 20.12.2019
2257 Rain 6 991 100 10000 2.6 160 14:18 20.12.2019
2258 Rain 6 991 100 10000 2.6 180 13:41 20.12.2019
2259 Rain 6 991 100 10000 2.1 200 13:21 20.12.2019
2260 Rain 7 992 100 10000 1.5 200 12:59 20.12.2019
2261 Rain 6 992 100 10000 1.5 200 12:40 20.12.2019
2262 Rain 7 992 100 10000 2.6 270 12:19 20.12.2019
2263 Rain 7 993 100 10000 2.6 280 11:59 20.12.2019
2264 Rain 6 993 100 10000 2.6 280 11:39 20.12.2019
2265 Rain 6 993 93 10000 1.5 0 11:20 20.12.2019
2266 Rain 6 994 100 10000 3.1 180 10:58 20.12.2019
2267 Rain 5 994 100 10000 3.1 180 10:40 20.12.2019
2268 Rain 5 994 100 10000 2.1 180 10:20 20.12.2019
2269 Rain 5 994 100 9000 1 0 09:56 20.12.2019
2270 Rain 5 994 100 9000 1 0 09:38 20.12.2019
2271 Rain 4 994 100 10000 1.5 0 09:19 20.12.2019
2272 Mist 4 994 100 3700 2.1 0 08:43 20.12.2019
2273 Fog 3 994 100 800 1 0 08:24 20.12.2019
2274 Fog 3 994 100 550 3.37 128 07:59 20.12.2019
2275 Fog 3 994 100 550 3.37 128 07:40 20.12.2019
2276 Fog 3 994 100 600 1 0 07:19 20.12.2019
2277 Fog 3 995 100 600 1 0 06:52 20.12.2019
2278 Fog 3 996 100 500 0.5 0 06:32 20.12.2019
2279 Fog 2 996 100 550 1.5 30 05:55 20.12.2019
2280 Fog 2 997 100 550 1.5 10 05:36 20.12.2019
2281 Fog 3 998 100 500 1.5 50 04:33 20.12.2019
2282 Fog 4 1000 100 450 0.5 0 03:30 20.12.2019
2283 Mist 4 1001 100 1300 1 0 02:44 20.12.2019
2284 Fog 5 1003 100 500 1 0 01:52 20.12.2019
2285 Rain 5 1004 100 450 1 0 01:33 20.12.2019
2286 Rain 4 1005 100 400 0.5 0 00:48 20.12.2019
2287 Fog 4 1005 100 400 1 0 00:29 20.12.2019
2288 Fog 4 1006 100 450 1 0 23:56 19.12.2019
2289 Fog 5 1006 100 450 1 0 23:38 19.12.2019
2290 Fog 5 1006 100 350 1 0 23:18 19.12.2019
2291 Fog 5 1005 100 400 1 0 22:38 19.12.2019
2292 Fog 6 1005 100 400 1.5 30 22:20 19.12.2019
2293 Fog 6 1006 100 450 1.5 330 21:56 19.12.2019
2294 Fog 6 1006 100 450 0.5 0 21:38 19.12.2019
2295 Fog 6 1006 100 450 0.5 0 21:19 19.12.2019
2296 Fog 6 1007 100 700 1 350 20:56 19.12.2019
2297 Fog 6 1007 100 700 1 350 20:56 19.12.2019
2298 Clouds 6 1007 87 10000 3.6 140 20:37 19.12.2019
2299 Clouds 6 1007 87 10000 3.6 140 20:37 19.12.2019
2300 Clouds 6 1007 87 10000 3.6 140 20:19 19.12.2019
2301 Clouds 6 1008 87 10000 2.6 190 19:57 19.12.2019
2302 Clouds 6 1008 87 10000 2.6 190 19:57 19.12.2019
2303 Clouds 7 1009 87 10000 2.6 180 19:39 19.12.2019
2304 Fog 7 1009 100 350 1.5 330 19:19 19.12.2019
2305 Fog 7 1009 100 350 1.5 330 19:19 19.12.2019
2306 Fog 7 1009 100 350 1.5 330 19:19 19.12.2019
2307 Fog 7 1009 100 250 1 20 18:56 19.12.2019
2308 Fog 7 1009 100 250 1 20 18:38 19.12.2019
2309 Mist 7 1010 100 5000 1.5 20 18:18 19.12.2019
2310 Clouds 7 1010 93 7000 2.1 350 17:55 19.12.2019
2311 Clouds 7 1010 100 10000 2.1 20 17:37 19.12.2019
2312 Clouds 8 1010 100 10000 2.1 20 17:37 19.12.2019
2313 Clouds 8 1010 100 10000 2.1 20 17:18 19.12.2019
2314 Clouds 9 1010 87 10000 1 0 16:55 19.12.2019
2315 Clouds 9 1010 93 10000 1.5 0 16:37 19.12.2019
2316 Clouds 9 1010 93 10000 1.5 0 16:19 19.12.2019
2317 Clouds 9 1010 87 10000 1 0 15:55 19.12.2019
2318 Clouds 9 1010 87 10000 1 0 15:37 19.12.2019
2319 Clouds 10 1010 87 10000 1 0 15:18 19.12.2019
2320 Clouds 10 1011 87 10000 1.5 0 14:42 19.12.2019
2321 Clouds 10 1011 87 10000 1 0 14:20 19.12.2019
2322 Clouds 10 1011 81 10000 1.5 10 13:59 19.12.2019
2323 Clouds 10 1012 81 10000 1 0 13:38 19.12.2019
2324 Clouds 10 1012 81 10000 1 0 13:38 19.12.2019
2325 Clouds 10 1012 81 10000 1 0 13:19 19.12.2019
2326 Clouds 10 1013 87 10000 1.5 150 12:57 19.12.2019
2327 Clouds 10 1013 100 10000 1.5 270 12:39 19.12.2019
2328 Clouds 9 1013 100 10000 1.5 270 12:19 19.12.2019
2329 Clouds 8 1014 100 10000 1.5 0 11:58 19.12.2019
2330 Clouds 8 1014 100 10000 1.5 0 11:40 19.12.2019
2331 Clouds 7 1014 100 10000 1.5 0 11:18 19.12.2019
2332 Clouds 6 1014 100 8000 1 30 10:58 19.12.2019
2333 Clouds 5 1014 100 10000 1 0 10:38 19.12.2019
2334 Clouds 5 1014 100 10000 1 0 10:20 19.12.2019
2335 Clouds 5 1015 100 10000 1 0 09:55 19.12.2019
2336 Clouds 5 1015 100 10000 2.1 190 09:37 19.12.2019
2337 Clouds 4 1015 100 9000 1 0 09:18 19.12.2019
2338 Fog 4 1015 100 1300 1 0 08:42 19.12.2019
2339 Rain 4 1016 100 300 0.5 0 08:20 19.12.2019
2340 Rain 4 1016 100 300 0.5 0 08:20 19.12.2019
2341 Rain 4 1016 100 300 0.5 0 08:20 19.12.2019
2342 Rain 4 1016 100 500 1 340 07:59 19.12.2019
2343 Fog 3 1016 100 500 1 340 07:40 19.12.2019
2344 Fog 3 1016 100 400 1 0 07:22 19.12.2019
2345 Fog 3 1016 100 450 1 0 06:52 19.12.2019
2346 Fog 3 1016 100 450 1 0 06:52 19.12.2019
2347 Fog 3 1016 100 450 1 0 06:52 19.12.2019
2348 Fog 3 1016 100 350 1.87 147 06:33 19.12.2019
2349 Fog 3 1016 100 400 1 0 05:59 19.12.2019
2350 Fog 3 1016 100 400 1 0 05:41 19.12.2019
2351 Fog 3 1016 100 350 1.93 147 05:18 19.12.2019
2352 Fog 4 1016 100 400 0.5 0 03:51 19.12.2019
2353 Mist 4 1017 100 1300 2.1 180 02:25 19.12.2019
2354 Fog 5 1017 100 750 1.5 230 01:24 19.12.2019
2355 Fog 5 1017 100 600 2.1 190 00:57 19.12.2019
2356 Fog 5 1017 100 600 2.1 190 00:38 19.12.2019
2357 Mist 5 1018 100 5000 1 0 00:19 19.12.2019
2358 Mist 6 1018 100 1600 1 0 23:44 18.12.2019
2359 Mist 6 1018 100 1600 1 0 23:19 18.12.2019
2360 Fog 6 1018 100 1900 2.94 123 22:56 18.12.2019
2361 Fog 6 1018 100 1900 2.94 123 22:38 18.12.2019
2362 Fog 6 1018 93 2500 0.5 0 22:20 18.12.2019
2363 Clouds 7 1018 100 10000 1.5 200 21:58 18.12.2019
2364 Clouds 7 1018 100 10000 1.5 200 21:39 18.12.2019
2365 Clouds 7 1018 100 10000 1.5 200 21:39 18.12.2019
2366 Clouds 7 1018 100 10000 1.5 240 21:20 18.12.2019
2367 Clouds 7 1018 93 10000 1.5 0 20:56 18.12.2019
2368 Clouds 7 1018 93 10000 1.5 0 20:38 18.12.2019
2369 Clouds 7 1017 93 10000 2.1 270 20:19 18.12.2019
2370 Clouds 8 1018 100 10000 2.1 290 19:56 18.12.2019
2371 Clouds 8 1018 100 10000 2.1 290 19:38 18.12.2019
2372 Clouds 8 1018 100 10000 1 290 19:19 18.12.2019
2373 Clouds 8 1018 100 10000 1.5 310 18:55 18.12.2019
2374 Clouds 8 1018 93 10000 1.5 340 18:37 18.12.2019
2375 Clouds 9 1018 93 10000 1.5 340 18:18 18.12.2019
2376 Clouds 9 1018 93 10000 2.1 340 17:55 18.12.2019
2377 Clouds 9 1018 87 10000 1.5 20 17:37 18.12.2019
2378 Clouds 10 1018 87 10000 1.5 10 17:18 18.12.2019
2379 Clouds 10 1018 87 10000 1.5 10 16:42 18.12.2019
2380 Clouds 11 1017 81 10000 1 0 16:23 18.12.2019
2381 Clouds 11 1017 76 10000 1.69 133 15:57 18.12.2019
2382 Clouds 12 1017 71 10000 1 0 15:39 18.12.2019
2383 Clouds 12 1017 71 10000 1 0 15:21 18.12.2019
2384 Clouds 12 1017 76 10000 2.6 180 14:56 18.12.2019
2385 Clouds 12 1017 76 10000 2.6 180 14:56 18.12.2019
2386 Clouds 12 1017 87 10000 1 0 14:38 18.12.2019
2387 Clouds 12 1017 71 10000 2.6 180 14:19 18.12.2019
2388 Clouds 12 1018 87 10000 2.6 330 13:55 18.12.2019
2389 Clouds 12 1018 76 10000 1 0 13:36 18.12.2019
2390 Clouds 12 1018 76 10000 3.6 190 13:18 18.12.2019
2391 Clouds 12 1018 76 10000 3.6 190 13:18 18.12.2019
2392 Clouds 11 1018 87 10000 1.5 190 12:40 18.12.2019
2393 Clouds 11 1018 87 10000 0.5 0 12:21 18.12.2019
2394 Clouds 10 1018 87 10000 0.5 0 11:57 18.12.2019
2395 Drizzle 10 1018 87 10000 0.5 0 11:39 18.12.2019
2396 Drizzle 10 1018 87 10000 2.6 230 11:20 18.12.2019
2397 Drizzle 10 1018 87 10000 2.6 230 10:58 18.12.2019
2398 Clouds 9 1018 81 10000 2.6 210 10:39 18.12.2019
2399 Rain 9 1017 93 10000 1.5 130 10:21 18.12.2019
2400 Drizzle 9 1017 81 10000 2.6 160 09:59 18.12.2019
2401 Drizzle 9 1017 81 10000 2.6 160 09:59 18.12.2019
2402 Rain 9 1017 93 10000 2.6 170 09:20 18.12.2019
2403 Rain 9 1017 93 10000 2.1 180 08:55 18.12.2019
2404 Drizzle 9 1017 93 10000 4.1 160 08:37 18.12.2019
2405 Rain 9 1016 87 10000 3.6 160 08:19 18.12.2019
2406 Rain 9 1016 87 10000 1.82 199 07:42 18.12.2019
2407 Rain 9 1016 87 10000 1.82 199 07:21 18.12.2019
2408 Rain 9 1016 87 10000 1.5 0 06:52 18.12.2019
2409 Clouds 8 1015 87 10000 1 0 06:26 18.12.2019
2410 Rain 8 1015 87 10000 1.5 0 05:37 18.12.2019
2411 Clouds 8 1014 81 10000 1.5 70 04:35 18.12.2019
2412 Clouds 7 1012 81 10000 3.6 210 02:50 18.12.2019
2413 Clouds 8 1012 81 10000 3.6 210 02:30 18.12.2019
2414 Clouds 7 1012 81 10000 2.6 150 01:47 18.12.2019
2415 Clouds 7 1012 81 10000 2.6 150 01:28 18.12.2019
2416 Clouds 8 1011 87 10000 1 0 00:59 18.12.2019
2417 Clouds 8 1011 87 10000 1.5 140 00:40 18.12.2019
2418 Clouds 7 1011 93 10000 0.5 0 00:21 18.12.2019
2419 Clouds 7 1011 93 10000 0.5 0 23:54 17.12.2019
2420 Clouds 7 1010 86 10000 1.5 0 23:36 17.12.2019
2421 Clouds 6 1010 93 10000 2.1 220 23:18 17.12.2019
2422 Clouds 6 1010 93 10000 2.1 220 22:54 17.12.2019
2423 Clouds 6 1010 93 10000 1.5 0 22:36 17.12.2019
2424 Clouds 6 1009 93 10000 1.5 0 22:18 17.12.2019
2425 Clouds 7 1009 93 10000 1.5 0 21:55 17.12.2019
2426 Clouds 7 1009 93 10000 1 0 21:36 17.12.2019
2427 Clouds 7 1009 93 10000 1.5 180 21:18 17.12.2019
2428 Clouds 7 1009 93 10000 1.5 180 20:55 17.12.2019
2429 Clouds 8 1008 81 10000 2.1 150 20:36 17.12.2019
2430 Clouds 8 1008 81 10000 3.6 170 20:18 17.12.2019
2431 Clouds 8 1008 76 10000 3.6 170 19:41 17.12.2019
2432 Clouds 8 1008 76 10000 3.6 260 19:20 17.12.2019
2433 Clouds 8 1008 81 10000 3.6 200 18:58 17.12.2019
2434 Clouds 8 1007 81 10000 2.1 280 18:40 17.12.2019
2435 Clouds 9 1006 76 10000 1.5 360 18:21 17.12.2019
2436 Clouds 9 1007 93 10000 0.5 0 17:58 17.12.2019
2437 Clouds 9 1007 76 10000 1.5 0 17:39 17.12.2019
2438 Clouds 10 1007 76 10000 3.6 200 17:19 17.12.2019
2439 Clouds 10 1007 81 10000 1.51 145 16:56 17.12.2019
2440 Clouds 10 1007 76 10000 2.6 200 16:37 17.12.2019
2441 Clouds 10 1007 76 10000 2.6 200 16:37 17.12.2019
2442 Clouds 10 1007 81 10000 2.1 240 16:19 17.12.2019
2443 Clouds 11 1007 76 10000 0.5 0 15:55 17.12.2019
2444 Clouds 10 1007 71 10000 4.1 230 15:37 17.12.2019
2445 Clouds 10 1007 67 10000 3.6 240 15:18 17.12.2019
2446 Clouds 10 1007 76 10000 2.1 220 14:55 17.12.2019
2447 Clouds 10 1007 71 10000 2.6 250 14:36 17.12.2019
2448 Clouds 11 1007 71 10000 1 0 14:18 17.12.2019
2449 Clouds 11 1007 71 10000 1 0 13:55 17.12.2019
2450 Clouds 10 1007 76 10000 1 0 13:37 17.12.2019
2451 Clouds 10 1007 71 10000 0.48 182 13:18 17.12.2019
2452 Clouds 10 1007 71 10000 2.1 240 12:41 17.12.2019
2453 Clouds 10 1008 71 10000 2.1 260 12:19 17.12.2019
2454 Clouds 10 1008 71 10000 2.1 260 12:19 17.12.2019
2455 Clouds 10 1008 71 10000 2.1 260 12:19 17.12.2019
2456 Clouds 10 1008 71 10000 2.1 260 11:59 17.12.2019
2457 Clouds 9 1007 76 10000 1.5 300 11:37 17.12.2019
2458 Clouds 8 1008 71 10000 1 0 11:19 17.12.2019
2459 Clouds 8 1008 76 10000 2.1 170 10:59 17.12.2019
2460 Clouds 7 1008 76 10000 2.1 160 10:41 17.12.2019
2461 Clouds 7 1007 87 10000 1.5 160 10:22 17.12.2019
2462 Clouds 6 1007 81 10000 2.1 170 09:59 17.12.2019
2463 Clouds 6 1007 81 10000 1 0 09:41 17.12.2019
2464 Clouds 5 1007 93 10000 3.1 210 09:20 17.12.2019
2465 Clouds 5 1007 93 10000 1.5 230 08:56 17.12.2019
2466 Clouds 5 1007 93 10000 1.5 230 08:56 17.12.2019
2467 Clouds 5 1007 87 10000 1 0 08:38 17.12.2019
2468 Clouds 6 1006 93 10000 2.6 290 08:20 17.12.2019
2469 Clouds 5 1006 93 10000 1.9 144 07:55 17.12.2019
2470 Clouds 5 1006 100 10000 0.5 0 07:36 17.12.2019
2471 Clouds 6 1006 87 10000 1.5 0 07:18 17.12.2019
2472 Clouds 6 1006 87 10000 1 0 06:35 17.12.2019
2473 Clouds 6 1005 93 10000 1.5 220 05:57 17.12.2019
2474 Clouds 6 1005 93 10000 1 0 05:38 17.12.2019
2475 Clouds 5 1005 93 10000 1 0 04:45 17.12.2019
2476 Clouds 6 1004 81 10000 3.1 190 02:47 17.12.2019
2477 Clouds 6 1004 86 10000 1.5 200 01:56 17.12.2019
2478 Clouds 6 1004 93 10000 1 0 01:20 17.12.2019
2479 Clouds 6 1005 93 10000 1 0 00:38 17.12.2019
2480 Clouds 6 1005 93 10000 1 0 00:20 17.12.2019
2481 Clouds 7 1005 93 10000 0.5 0 23:42 16.12.2019
2482 Clouds 7 1005 87 10000 1.5 0 23:19 16.12.2019
2483 Clouds 7 1005 87 10000 1.5 0 22:58 16.12.2019
2484 Clouds 7 1005 87 10000 3.1 170 22:38 16.12.2019
2485 Clouds 7 1005 87 10000 3.1 170 22:20 16.12.2019
2486 Clouds 7 1005 93 10000 2.6 350 21:57 16.12.2019
2487 Clouds 7 1005 87 10000 1 0 21:38 16.12.2019
2488 Clouds 7 1005 87 10000 1 0 21:20 16.12.2019
2489 Clouds 7 1005 87 10000 1 0 20:58 16.12.2019
2490 Clouds 7 1006 81 10000 1.5 210 20:39 16.12.2019
2491 Clouds 7 1006 81 10000 1.5 210 20:39 16.12.2019
2492 Clouds 7 1006 81 10000 1.5 210 20:19 16.12.2019
2493 Clouds 7 1006 87 10000 2.1 180 19:56 16.12.2019
2494 Clouds 7 1006 93 10000 1.5 120 19:37 16.12.2019
2495 Clouds 7 1006 81 10000 3.6 220 19:19 16.12.2019
2496 Clouds 8 1006 81 10000 3.6 220 18:59 16.12.2019
2497 Clouds 7 1006 93 10000 2.1 250 18:40 16.12.2019
2498 Clouds 7 1006 93 10000 3.11 139 18:20 16.12.2019
2499 Clouds 8 1006 87 10000 2.6 190 17:59 16.12.2019
2500 Clouds 8 1007 81 10000 1.5 0 17:40 16.12.2019
2501 Clouds 9 1007 81 10000 1.5 240 17:21 16.12.2019
2502 Clouds 9 1007 81 10000 1.5 240 16:57 16.12.2019
2503 Clouds 9 1007 71 10000 1.5 0 16:39 16.12.2019
2504 Clouds 10 1007 71 10000 1.5 0 16:20 16.12.2019
2505 Clouds 10 1007 81 10000 1.5 250 15:59 16.12.2019
2506 Clouds 10 1007 76 10000 1 0 15:39 16.12.2019
2507 Clouds 10 1007 76 10000 1 260 15:21 16.12.2019
2508 Clouds 11 1007 71 10000 3.1 170 14:57 16.12.2019
2509 Clouds 10 1007 71 10000 2.1 240 14:37 16.12.2019
2510 Clouds 10 1008 71 10000 2.1 210 14:19 16.12.2019
2511 Clouds 10 1008 76 10000 2.1 220 13:57 16.12.2019
2512 Clouds 10 1008 71 10000 2.1 240 13:38 16.12.2019
2513 Clouds 10 1008 71 10000 2.1 240 13:20 16.12.2019
2514 Clouds 10 1008 71 10000 2.1 240 12:58 16.12.2019
2515 Clouds 10 1008 71 10000 2.6 220 12:39 16.12.2019
2516 Clouds 10 1009 76 10000 2.6 210 12:20 16.12.2019
2517 Clouds 10 1009 76 10000 2.6 210 11:59 16.12.2019
2518 Clouds 10 1009 76 10000 2.6 250 11:41 16.12.2019
2519 Clouds 8 1009 87 10000 2.1 270 11:21 16.12.2019
2520 Clouds 8 1009 76 10000 1.5 0 10:58 16.12.2019
2521 Clouds 8 1009 71 10000 1.5 0 10:40 16.12.2019
2522 Clouds 7 1009 66 10000 3.6 170 10:20 16.12.2019
2523 Clouds 7 1009 71 10000 2.6 190 09:46 16.12.2019
2524 Clouds 7 1009 71 10000 2.6 190 09:28 16.12.2019
2525 Clouds 6 1009 71 10000 3.1 200 08:58 16.12.2019
2526 Clouds 6 1009 71 10000 3.1 200 08:58 16.12.2019
2527 Clouds 6 1009 71 10000 5.7 190 08:38 16.12.2019
2528 Clouds 6 1009 93 10000 1.5 250 08:18 16.12.2019
2529 Clouds 5 1009 93 10000 1.5 250 07:49 16.12.2019
2530 Clouds 6 1009 93 10000 1.5 250 07:30 16.12.2019
2531 Clouds 6 1009 93 10000 2.6 210 06:46 16.12.2019
2532 Clouds 6 1009 93 10000 2.6 210 06:26 16.12.2019
2533 Clouds 6 1009 93 10000 3.1 200 05:58 16.12.2019
2534 Clouds 6 1009 93 10000 2.6 180 05:39 16.12.2019
2535 Clouds 6 1010 93 10000 2.1 230 05:21 16.12.2019
2536 Clouds 7 1010 93 10000 1.5 180 02:50 16.12.2019
2537 Clouds 7 1010 100 10000 2.6 200 01:45 16.12.2019
2538 Clouds 7 1010 93 10000 2.1 190 00:56 16.12.2019
2539 Clouds 8 1010 93 10000 2.6 260 00:37 16.12.2019
2540 Clouds 8 1010 93 10000 1.5 0 00:18 16.12.2019
2541 Clouds 8 1010 100 10000 2.1 210 23:40 15.12.2019
2542 Clouds 8 1010 100 10000 2.1 210 23:40 15.12.2019
2543 Rain 8 1010 100 10000 2.1 210 23:22 15.12.2019
2544 Rain 8 1010 100 10000 1.5 210 22:57 15.12.2019
2545 Rain 8 1011 93 10000 1.5 260 22:38 15.12.2019
2546 Clouds 8 1011 93 10000 1.5 0 22:19 15.12.2019
2547 Clouds 8 1011 93 10000 1.5 0 21:57 15.12.2019
2548 Clouds 8 1011 93 10000 1 240 21:38 15.12.2019
2549 Clouds 9 1011 87 10000 2.69 160 21:20 15.12.2019
2550 Clouds 9 1011 87 10000 2.69 160 20:58 15.12.2019
2551 Clouds 9 1011 87 10000 2.6 210 20:39 15.12.2019
2552 Clouds 9 1011 87 10000 2.6 210 20:39 15.12.2019
2553 Clouds 9 1011 87 10000 2.6 210 20:21 15.12.2019
2554 Rain 9 1010 87 10000 3.1 190 19:58 15.12.2019
2555 Rain 9 1010 81 10000 2.6 210 19:40 15.12.2019
2556 Rain 9 1010 71 10000 2.6 170 19:20 15.12.2019
2557 Rain 9 1010 71 10000 2.6 170 18:58 15.12.2019
2558 Rain 10 1010 76 10000 1 160 18:39 15.12.2019
2559 Rain 10 1010 76 10000 2.1 210 18:19 15.12.2019
2560 Rain 10 1010 76 10000 2.1 210 17:56 15.12.2019
2561 Rain 10 1010 81 10000 3.1 210 17:38 15.12.2019
2562 Rain 10 1010 76 10000 3.6 220 17:19 15.12.2019
2563 Rain 10 1010 76 10000 3.6 220 16:57 15.12.2019
2564 Rain 11 1009 87 10000 1.5 100 16:39 15.12.2019
2565 Rain 11 1009 81 10000 1 0 16:21 15.12.2019
2566 Rain 11 1009 81 10000 1 0 15:56 15.12.2019
2567 Rain 11 1008 81 10000 3.1 260 15:38 15.12.2019
2568 Rain 11 1008 81 10000 5.1 260 15:19 15.12.2019
2569 Rain 11 1008 81 10000 5.1 260 14:56 15.12.2019
2570 Rain 11 1007 76 10000 1.5 220 14:37 15.12.2019
2571 Rain 12 1007 71 10000 3.6 230 14:18 15.12.2019
2572 Rain 12 1007 71 10000 3.6 230 13:58 15.12.2019
2573 Rain 12 1007 62 10000 5.1 220 13:37 15.12.2019
2574 Rain 12 1007 62 10000 5.1 220 13:19 15.12.2019
2575 Rain 13 1007 71 10000 6.2 200 12:56 15.12.2019
2576 Clouds 13 1006 67 10000 5.1 220 12:38 15.12.2019
2577 Clouds 14 1006 67 10000 5.1 220 12:20 15.12.2019
2578 Clouds 14 1006 67 10000 7.7 210 11:56 15.12.2019
2579 Rain 13 1006 67 10000 7.2 200 11:36 15.12.2019
2580 Clouds 12 1006 71 10000 4.1 200 11:18 15.12.2019
2581 Clouds 12 1006 71 10000 4.1 200 10:55 15.12.2019
2582 Clouds 12 1005 62 10000 3.6 190 10:36 15.12.2019
2583 Rain 12 1005 71 10000 3.1 170 10:18 15.12.2019
2584 Clouds 11 1005 66 10000 2.6 220 09:41 15.12.2019
2585 Clouds 12 1005 66 10000 2.6 220 09:20 15.12.2019
2586 Clouds 12 1004 66 10000 4.1 180 08:58 15.12.2019
2587 Clouds 12 1004 71 10000 5.1 170 08:39 15.12.2019
2588 Clouds 11 1004 71 10000 5.7 160 08:21 15.12.2019
2589 Clouds 11 1004 71 10000 5.7 160 07:56 15.12.2019
2590 Rain 11 1003 71 10000 5.1 170 07:34 15.12.2019
2591 Rain 11 1003 71 10000 5.7 180 06:52 15.12.2019
2592 Clouds 11 1002 71 10000 4.6 160 06:20 15.12.2019
2593 Clouds 11 1002 71 10000 3.6 160 05:28 15.12.2019
2594 Clouds 11 1002 76 10000 5.7 180 04:47 15.12.2019
2595 Rain 10 1003 93 10000 5.1 160 03:31 15.12.2019
2596 Rain 9 1003 100 8000 1.5 210 02:34 15.12.2019
2597 Rain 9 1004 100 7000 0.5 0 01:47 15.12.2019
2598 Rain 9 1004 100 7000 0.5 0 01:28 15.12.2019
2599 Rain 8 1005 87 10000 5.1 190 00:59 15.12.2019
2600 Rain 9 1005 81 10000 6.7 200 00:41 15.12.2019
2601 Rain 9 1005 93 7000 3.6 180 00:23 15.12.2019
2602 Clouds 9 1005 87 10000 3.1 190 23:40 14.12.2019
2603 Clouds 8 1005 87 10000 3.1 190 23:21 14.12.2019
2604 Clouds 8 1006 76 10000 6.2 190 22:58 14.12.2019
2605 Clouds 8 1006 81 10000 4.6 200 22:40 14.12.2019
2606 Clouds 8 1006 81 10000 3.1 210 22:21 14.12.2019
2607 Clouds 8 1006 76 10000 7.2 180 21:56 14.12.2019
2608 Clouds 9 1006 71 10000 4.6 220 21:38 14.12.2019
2609 Clouds 9 1006 76 10000 6.7 210 21:19 14.12.2019
2610 Clouds 9 1006 66 10000 5.7 200 20:57 14.12.2019
2611 Rain 9 1006 66 10000 7.2 200 20:39 14.12.2019
2612 Rain 9 1005 66 10000 7.7 190 20:19 14.12.2019
2613 Rain 9 1005 66 10000 7.7 190 19:57 14.12.2019
2614 Clouds 9 1004 66 10000 6.7 190 19:37 14.12.2019
2615 Clouds 9 1004 66 10000 6.7 190 19:19 14.12.2019
2616 Clouds 10 1004 61 10000 5.7 190 18:56 14.12.2019
2617 Rain 10 1004 61 10000 6.2 200 18:37 14.12.2019
2618 Rain 9 1004 57 10000 6.7 200 18:19 14.12.2019
2619 Rain 9 1004 57 10000 7.7 190 17:43 14.12.2019
2620 Clear 8 1004 57 10000 7.7 190 17:24 14.12.2019
2621 Clear 8 1004 53 10000 7.7 200 16:58 14.12.2019
2622 Clear 8 1003 53 10000 7.7 190 16:39 14.12.2019
2623 Clear 8 1003 53 10000 7.7 190 16:18 14.12.2019
2624 Clear 8 1003 50 10000 7.7 190 15:43 14.12.2019
2625 Clear 8 1003 50 10000 7.7 190 15:22 14.12.2019
2626 Clear 8 1003 50 10000 7.7 190 14:59 14.12.2019
2627 Clear 8 1003 82 10000 7.7 180 14:39 14.12.2019
2628 Rain 9 1003 83 10000 7.7 180 14:20 14.12.2019
2629 Rain 9 1003 83 10000 5.7 180 13:57 14.12.2019
2630 Rain 9 1003 43 10000 7.7 230 13:38 14.12.2019
2631 Rain 9 1002 86 10000 7.7 250 13:18 14.12.2019
2632 Rain 9 1002 86 10000 7.7 250 12:55 14.12.2019
2633 Rain 8 1001 86 10000 10.3 260 12:37 14.12.2019
2634 Rain 9 1000 61 10000 12.3 270 12:18 14.12.2019
2635 Rain 8 1000 61 10000 12.3 270 11:55 14.12.2019
2636 Rain 9 1000 66 10000 7.2 230 11:36 14.12.2019
2637 Rain 8 999 70 10000 8.7 210 11:18 14.12.2019
2638 Rain 8 999 70 10000 8.7 210 10:55 14.12.2019
2639 Clouds 8 998 57 10000 9.8 250 10:37 14.12.2019
2640 Clouds 8 998 61 10000 8.2 250 10:18 14.12.2019
2641 Clouds 8 996 57 10000 8.7 260 09:40 14.12.2019
2642 Clouds 8 996 57 10000 8.7 260 09:20 14.12.2019
2643 Clouds 8 995 57 10000 12.3 260 09:20 14.12.2019
2644 Clouds 8 994 57 10000 13.4 260 08:44 14.12.2019
2645 Clouds 8 994 57 10000 13.4 260 08:44 14.12.2019
2646 Clouds 8 994 57 10000 13.4 260 08:20 14.12.2019
2647 Rain 8 992 57 10000 14.4 260 07:57 14.12.2019
2648 Rain 8 991 53 10000 13.4 260 07:38 14.12.2019
2649 Rain 8 991 62 10000 12.9 250 07:19 14.12.2019
2650 Rain 8 991 93 10000 6.7 190 06:41 14.12.2019
2651 Rain 8 990 87 10000 7.7 200 06:22 14.12.2019
2652 Clouds 5 990 86 10000 7.2 170 05:22 14.12.2019
2653 Rain 5 992 86 10000 6.2 180 02:51 14.12.2019
2654 Rain 4 993 80 10000 5.1 180 02:23 14.12.2019
2655 Clouds 4 994 80 10000 5.7 200 01:43 14.12.2019
2656 Clouds 4 993 80 10000 6.7 180 00:58 14.12.2019
2657 Clouds 4 995 80 10000 5.7 170 00:40 14.12.2019
2658 Clouds 4 995 75 10000 5.1 180 00:19 14.12.2019
2659 Clouds 4 995 70 10000 6.2 190 23:41 13.12.2019
2660 Clouds 5 995 70 10000 6.2 190 23:41 13.12.2019
2661 Clouds 5 995 96 10000 4.1 180 23:19 13.12.2019
2662 Clouds 5 995 96 10000 4.1 180 22:56 13.12.2019
2663 Clouds 5 995 75 10000 4.6 180 22:37 13.12.2019
2664 Clouds 5 995 70 10000 5.1 220 22:18 13.12.2019
2665 Clouds 4 994 70 10000 4.6 200 21:44 13.12.2019
2666 Clouds 5 994 65 10000 5.1 210 21:22 13.12.2019
2667 Clouds 5 994 65 10000 5.1 210 20:59 13.12.2019
2668 Clouds 5 993 65 10000 5.7 220 20:40 13.12.2019
2669 Clouds 5 993 65 10000 5.7 220 20:20 13.12.2019
2670 Clouds 5 992 65 10000 5.7 230 19:57 13.12.2019
2671 Clouds 5 992 65 10000 6.2 230 19:39 13.12.2019
2672 Clouds 5 992 65 10000 6.2 230 19:20 13.12.2019
2673 Clouds 5 991 70 10000 7.2 210 18:56 13.12.2019
2674 Rain 5 990 70 10000 6.7 190 18:38 13.12.2019
2675 Rain 5 990 70 10000 6.7 190 18:18 13.12.2019
2676 Rain 5 989 81 10000 5.1 210 17:41 13.12.2019
2677 Rain 5 989 81 10000 5.1 210 17:19 13.12.2019
2678 Rain 5 989 81 10000 5.1 210 17:19 13.12.2019
2679 Rain 5 988 75 10000 6.2 210 16:58 13.12.2019
2680 Clouds 5 988 81 10000 5.1 190 16:39 13.12.2019
2681 Clouds 5 988 81 10000 5.1 190 16:20 13.12.2019
2682 Clouds 5 987 81 10000 5.7 200 15:43 13.12.2019
2683 -273 0 0 0 0 0 15:23 13.12.2019
2684 Clouds 5 986 75 10000 5.1 200 14:58 13.12.2019
2685 Clouds 5 986 75 10000 5.1 200 14:39 13.12.2019
2686 Clouds 6 985 75 10000 6.2 200 14:20 13.12.2019
2687 Clouds 6 985 75 10000 6.2 200 14:20 13.12.2019
2688 Clouds 6 985 75 10000 6.2 200 14:20 13.12.2019
2689 Rain 6 985 87 10000 5.7 200 13:56 13.12.2019
2690 Rain 6 985 87 10000 5.1 210 13:37 13.12.2019
2691 Rain 6 985 87 10000 5.1 210 13:37 13.12.2019
2692 Rain 6 985 87 10000 5.1 210 13:18 13.12.2019
2693 Rain 6 984 81 10000 2.6 170 12:42 13.12.2019
2694 Rain 6 984 87 10000 2.6 170 12:20 13.12.2019
2695 Rain 5 984 86 7000 6.2 250 11:57 13.12.2019
2696 Rain 5 984 86 7000 6.2 250 11:39 13.12.2019
2697 Rain 5 983 75 10000 5.1 220 11:19 13.12.2019
2698 Rain 6 982 87 10000 5.1 210 10:42 13.12.2019
2699 Rain 6 981 87 10000 3.6 200 10:22 13.12.2019
2700 Rain 5 980 93 10000 5.1 170 09:54 13.12.2019
2701 Rain 5 979 93 10000 6.2 180 09:36 13.12.2019
2702 Rain 5 979 93 10000 6.2 180 09:18 13.12.2019
2703 Rain 5 978 93 10000 5.7 200 08:41 13.12.2019
2704 Rain 5 977 93 7000 8.7 180 08:23 13.12.2019
2705 Rain 4 978 100 10000 5.7 210 07:44 13.12.2019
2706 Rain 4 978 93 10000 5.1 190 07:21 13.12.2019
2707 Rain 4 979 93 10000 5.7 190 06:51 13.12.2019
2708 Rain 4 980 93 10000 4.6 190 06:28 13.12.2019
2709 Rain 4 981 93 10000 5.7 200 05:45 13.12.2019
2710 Clouds 4 982 100 10000 2.1 200 05:24 13.12.2019
2711 Clouds 3 984 93 10000 3.6 200 04:35 13.12.2019
2712 Clouds 3 986 93 10000 5.1 190 03:31 13.12.2019
2713 Rain 3 987 93 10000 5.7 200 02:33 13.12.2019
2714 Rain 2 988 100 9000 7.7 190 01:43 13.12.2019
2715 Rain 2 990 93 10000 7.2 180 00:55 13.12.2019
2716 Rain 2 991 74 10000 5.7 200 00:36 13.12.2019
2717 Clouds 2 991 74 10000 4.6 210 23:57 12.12.2019
2718 Clouds 2 991 74 10000 4.6 210 23:39 12.12.2019
2719 Clouds 2 992 80 10000 2.1 220 23:20 12.12.2019
2720 Clouds 1 993 82 10000 3.1 220 22:55 12.12.2019
2721 Clouds 1 994 82 10000 2.1 260 22:37 12.12.2019
2722 Clouds 1 994 82 10000 2.1 260 22:18 12.12.2019
2723 Clouds 1 995 92 10000 1 0 21:54 12.12.2019
2724 Clouds 0 995 92 10000 1 0 21:36 12.12.2019
2725 Clouds 1 995 92 10000 1 0 21:18 12.12.2019
2726 Clouds 1 996 92 10000 2.1 240 20:55 12.12.2019
2727 Clouds 1 997 82 10000 1 0 20:37 12.12.2019
2728 Clouds 1 997 86 10000 1 0 20:19 12.12.2019
2729 Clouds 1 998 86 10000 2.1 230 19:42 12.12.2019
2730 Clouds 1 998 86 10000 3.1 180 19:22 12.12.2019
2731 Clouds 1 999 86 10000 3.1 190 18:58 12.12.2019
2732 Clouds 1 999 86 10000 3.1 190 18:40 12.12.2019
2733 Clouds 1 1000 86 10000 3.6 170 18:20 12.12.2019
2734 Clouds 2 1000 86 10000 4.1 180 17:58 12.12.2019
2735 Clouds 2 1000 86 10000 4.1 180 17:40 12.12.2019
2736 Clouds 2 1001 92 10000 3.6 170 17:21 12.12.2019
2737 Clouds 3 1002 92 10000 5.1 180 16:58 12.12.2019
2738 Clouds 3 1002 92 10000 5.1 180 16:40 12.12.2019
2739 Clouds 4 1002 92 10000 5.1 180 16:21 12.12.2019
2740 Clouds 4 1003 92 10000 5.1 180 15:57 12.12.2019
2741 Clouds 4 1003 92 10000 5.1 180 15:39 12.12.2019
2742 Clouds 5 1003 92 10000 5.1 200 15:18 12.12.2019
2743 Clouds 5 1004 92 10000 7.2 190 14:56 12.12.2019
2744 Clouds 5 1004 75 10000 6.2 190 14:36 12.12.2019
2745 Clouds 5 1004 75 10000 6.2 190 14:18 12.12.2019
2746 Clouds 5 1005 75 10000 5.7 190 13:54 12.12.2019
2747 Clouds 5 1005 70 10000 3.6 230 13:36 12.12.2019
2748 Clouds 5 1005 70 10000 3.6 230 13:18 12.12.2019
2749 Clouds 5 1006 75 10000 4.6 210 12:40 12.12.2019
2750 Clouds 5 1006 75 10000 4.6 210 12:40 12.12.2019
2751 Clouds 5 1006 75 10000 4.6 210 12:22 12.12.2019
2752 Clouds 4 1007 80 10000 4.6 190 11:59 12.12.2019
2753 Clouds 4 1007 80 10000 4.6 190 11:39 12.12.2019
2754 Clouds 4 1007 80 10000 4.6 190 11:39 12.12.2019
2755 Clouds 4 1007 86 10000 3.1 190 11:21 12.12.2019
2756 Clouds 4 1007 86 10000 4.1 180 10:58 12.12.2019
2757 Clouds 3 1007 86 10000 4.1 180 10:40 12.12.2019
2758 Clouds 3 1007 86 10000 3.1 190 10:21 12.12.2019
2759 Clouds 3 1007 86 10000 1 0 09:56 12.12.2019
2760 Clouds 3 1007 86 10000 3.09 234 09:38 12.12.2019
2761 Clouds 3 1007 86 10000 3.09 234 09:19 12.12.2019
2762 Rain 3 1007 93 10000 2.6 180 08:46 12.12.2019
2763 Rain 3 1006 98 10000 2.6 200 08:28 12.12.2019
2764 Rain 3 1006 86 10000 4.1 190 07:54 12.12.2019
2765 Rain 3 1006 86 10000 2.1 190 07:36 12.12.2019
2766 Rain 3 1006 86 10000 2.1 190 07:18 12.12.2019
2767 Rain 3 1006 86 10000 4.6 170 06:41 12.12.2019
2768 Rain 3 1006 86 10000 5.1 180 06:21 12.12.2019
2769 Rain 3 1006 93 10000 2.6 200 05:26 12.12.2019
2770 Rain 3 1006 93 10000 2.1 220 04:46 12.12.2019
2771 Clouds 3 1007 93 10000 1 0 02:42 12.12.2019
2772 Clouds 3 1007 93 10000 0.5 0 02:24 12.12.2019
2773 Clouds 3 1007 93 10000 1 0 01:59 12.12.2019
2774 Clouds 3 1008 100 10000 1.5 0 01:36 12.12.2019
2775 Clouds 3 1008 93 10000 2.1 200 00:49 12.12.2019
2776 Clouds 3 1008 93 10000 3.6 170 00:22 12.12.2019
2777 Clouds 3 1008 93 10000 3.1 170 23:58 11.12.2019
2778 Clouds 3 1009 86 10000 2.1 170 23:38 11.12.2019
2779 Clouds 3 1009 86 10000 2.1 170 23:18 11.12.2019
2780 Clouds 3 1009 86 10000 3.6 180 22:56 11.12.2019
2781 Clouds 3 1009 86 10000 3.6 180 22:56 11.12.2019
2782 Clouds 3 1009 93 10000 5.7 180 22:38 11.12.2019
2783 Clouds 3 1009 93 10000 5.7 180 22:19 11.12.2019
2784 Rain 3 1009 86 10000 5.7 180 21:55 11.12.2019
2785 Rain 3 1009 86 10000 4.6 190 21:36 11.12.2019
2786 Rain 3 1009 86 10000 4.6 190 21:18 11.12.2019
2787 Rain 3 1009 86 10000 4.6 190 21:18 11.12.2019
2788 Rain 3 1010 86 10000 5.1 180 20:55 11.12.2019
2789 Rain 3 1010 86 10000 3.6 180 20:36 11.12.2019
2790 Rain 3 1010 86 10000 3.6 180 20:18 11.12.2019
2791 Rain 3 1010 86 10000 4.6 180 19:42 11.12.2019
2792 Rain 3 1010 86 10000 4.1 180 19:23 11.12.2019
2793 Rain 3 1010 80 10000 4.6 180 18:59 11.12.2019
2794 Rain 3 1010 80 10000 4.6 180 18:40 11.12.2019
2795 Rain 3 1009 80 10000 5.7 180 18:40 11.12.2019
2796 Rain 2 1009 80 10000 5.7 180 18:21 11.12.2019
2797 Rain 2 1011 93 7000 2.1 130 17:57 11.12.2019
2798 Rain 3 1011 93 4000 1 0 17:38 11.12.2019
2799 Rain 2 1011 93 4000 1 0 17:18 11.12.2019
2800 Rain 3 1009 94 10000 4.1 170 16:56 11.12.2019
2801 Rain 3 1009 94 10000 4.1 170 16:56 11.12.2019
2802 Rain 3 1009 94 10000 4.1 170 16:38 11.12.2019
2803 Clouds 3 1008 94 10000 2.6 170 16:19 11.12.2019
2804 Clouds 3 1009 94 10000 2.1 220 15:57 11.12.2019
2805 Rain 3 1009 69 10000 2.6 200 15:38 11.12.2019
2806 Rain 3 1009 69 10000 2.6 200 15:20 11.12.2019
2807 Rain 3 1009 69 10000 3.1 200 14:55 11.12.2019
2808 Rain 3 1009 69 10000 2.6 200 14:37 11.12.2019
2809 Rain 3 1009 69 10000 2.6 200 14:19 11.12.2019
2810 Rain 3 1010 69 10000 2.1 200 13:54 11.12.2019
2811 Rain 3 1010 69 10000 3.1 190 13:36 11.12.2019
2812 Rain 3 1010 69 10000 3.1 190 13:18 11.12.2019
2813 Rain 3 1011 69 10000 3.1 190 12:54 11.12.2019
2814 Clouds 3 1011 74 10000 1.5 0 12:36 11.12.2019
2815 Clouds 3 1011 74 10000 1.5 0 12:36 11.12.2019
2816 Clouds 3 1011 74 10000 1.5 0 12:18 11.12.2019
2817 Rain 3 1012 67 10000 2.1 220 11:54 11.12.2019
2818 Rain 2 1013 80 10000 2.1 180 11:36 11.12.2019
2819 Clouds 2 1013 80 10000 2.1 180 11:18 11.12.2019
2820 Clouds 1 1014 86 10000 1.5 210 10:41 11.12.2019
2821 Clouds 1 1014 86 10000 1.5 210 10:23 11.12.2019
2822 Rain 1 1014 86 10000 2.6 180 09:58 11.12.2019
2823 Clouds 1 1014 86 10000 3.1 190 09:38 11.12.2019
2824 Clouds 1 1014 86 10000 3.1 190 09:20 11.12.2019
2825 Clouds 1 1015 80 10000 4.1 180 08:57 11.12.2019
2826 Clouds 1 1015 80 10000 3.6 190 08:37 11.12.2019
2827 Clouds 0 1015 80 10000 3.6 190 08:18 11.12.2019
2828 Clouds 0 1015 74 10000 3.6 190 07:45 11.12.2019
2829 Clouds 0 1015 80 10000 3.6 190 07:25 11.12.2019
2830 Clouds 0 1016 80 10000 4.6 190 06:57 11.12.2019
2831 Clouds 0 1016 80 10000 4.1 190 06:37 11.12.2019
2832 Clouds 0 1016 80 10000 4.1 190 06:18 11.12.2019
2833 Clouds -1 1016 74 10000 5.1 190 05:37 11.12.2019
2834 Clouds -1 1017 74 10000 4.1 200 04:57 11.12.2019
2835 Clouds -1 1018 74 10000 1.5 190 03:49 11.12.2019
2836 Clouds -1 1019 86 10000 2.1 230 02:49 11.12.2019
2837 Clouds -1 1020 86 10000 2.1 220 01:23 11.12.2019
2838 Clouds -1 1021 86 10000 2.6 220 00:46 11.12.2019
2839 Clouds -1 1021 92 10000 2.6 200 00:21 11.12.2019
2840 Clouds -1 1022 64 10000 1.5 180 23:47 10.12.2019
2841 Clouds -1 1022 64 10000 1.5 0 23:28 10.12.2019
2842 Clouds -1 1022 74 10000 2.1 190 22:58 10.12.2019
2843 Clouds -1 1022 74 10000 2.1 190 22:40 10.12.2019
2844 Clouds -1 1023 74 10000 2.1 210 22:22 10.12.2019
2845 Clouds -1 1023 74 10000 2.1 210 21:56 10.12.2019
2846 Clouds -1 1023 74 10000 2.1 210 21:38 10.12.2019
2847 Clouds -1 1023 74 10000 2.6 200 21:19 10.12.2019
2848 Clouds 0 1024 80 10000 1.5 0 20:57 10.12.2019
2849 Clouds 0 1024 80 10000 3.6 260 20:37 10.12.2019
2850 Clouds 0 1024 80 10000 3.6 260 20:19 10.12.2019
2851 Clear 0 1024 80 10000 2.6 260 19:55 10.12.2019
2852 Clear 0 1024 80 10000 3.6 270 19:37 10.12.2019
2853 Clear 0 1024 80 10000 3.6 270 19:18 10.12.2019
2854 Clear 1 1025 82 10000 3.1 270 18:40 10.12.2019
2855 Clear 1 1025 80 10000 2.6 270 18:20 10.12.2019
2856 Clear 2 1025 74 10000 1.5 250 17:58 10.12.2019
2857 Clear 2 1025 74 10000 1.5 250 17:39 10.12.2019
2858 Clear 3 1025 69 10000 3.1 180 17:20 10.12.2019
2859 Clear 4 1025 60 10000 4.1 170 16:54 10.12.2019
2860 Clear 4 1026 86 10000 3.1 170 16:36 10.12.2019
2861 Clear 5 1026 86 10000 3.1 170 16:18 10.12.2019
2862 Clear 5 1026 86 10000 3.1 170 16:18 10.12.2019
2863 Clear 5 1026 86 10000 3.1 170 16:18 10.12.2019
2864 Clear 5 1026 86 10000 3.1 160 15:38 10.12.2019
2865 Clear 6 1026 86 10000 3.6 150 15:18 10.12.2019
2866 Clear 6 1027 56 10000 2.1 160 14:56 10.12.2019
2867 Clear 6 1028 56 10000 1.5 170 14:37 10.12.2019
2868 Clouds 6 1028 56 10000 1.5 170 14:19 10.12.2019
2869 Clouds 6 1028 56 10000 2.6 150 13:57 10.12.2019
2870 Clouds 6 1028 56 10000 2.6 150 13:38 10.12.2019
2871 Clouds 6 1028 52 10000 2.6 160 13:19 10.12.2019
2872 Clouds 6 1028 56 10000 3.1 160 12:47 10.12.2019
2873 Clouds 6 1029 65 10000 2.6 170 12:27 10.12.2019
2874 Clouds 5 1029 78 10000 3.1 170 11:55 10.12.2019
2875 Clouds 5 1029 75 10000 2.6 200 11:37 10.12.2019
2876 Snow 4 1029 75 10000 2.6 200 11:18 10.12.2019
2877 Snow 3 1029 80 10000 2.6 200 10:42 10.12.2019
2878 Snow 3 1029 90 10000 2.6 220 10:24 10.12.2019
2879 Snow 3 1029 90 10000 3.1 190 09:57 10.12.2019
2880 Snow 2 1028 90 10000 2.6 160 09:38 10.12.2019
2881 Snow 2 1028 90 10000 2.6 160 09:38 10.12.2019
2882 Snow 2 1028 90 10000 2.6 160 09:20 10.12.2019
2883 Snow 2 1028 90 10000 2.1 230 08:58 10.12.2019
2884 Snow 2 1028 90 10000 3.1 240 08:39 10.12.2019
2885 Snow 2 1028 90 10000 2.1 230 08:39 10.12.2019
2886 Snow 2 1028 98 10000 3.1 240 08:19 10.12.2019
2887 Snow 2 1028 98 10000 2.1 270 07:44 10.12.2019
2888 Clouds 2 1028 98 10000 3.6 230 07:26 10.12.2019
2889 Snow 2 1027 98 10000 1.5 250 06:50 10.12.2019
2890 Snow 2 1027 98 10000 4.1 300 06:25 10.12.2019
2891 Clouds 2 1026 69 10000 1.5 0 05:57 10.12.2019
2892 Clouds 2 1026 69 10000 1.5 320 05:38 10.12.2019
2893 Snow 3 1025 69 10000 1.5 0 04:23 10.12.2019
2894 Snow 3 1024 65 10000 3.6 320 03:24 10.12.2019
2895 Snow 4 1022 60 10000 7.2 340 01:56 10.12.2019
2896 Rain 4 1022 97 10000 6.2 330 01:38 10.12.2019
2897 Rain 4 1022 97 10000 6.2 330 01:18 10.12.2019
2898 Rain 4 1020 75 10000 3.1 320 00:29 10.12.2019
2899 Rain 5 1019 70 10000 5.7 320 23:58 09.12.2019
2900 Rain 5 1019 70 10000 5.7 320 23:39 09.12.2019
2901 Rain 5 1019 70 10000 5.7 320 23:39 09.12.2019
2902 Rain 5 1018 70 10000 5.1 320 23:20 09.12.2019
2903 Rain 5 1018 70 10000 5.1 320 23:20 09.12.2019
2904 Rain 5 1017 75 10000 5.1 320 22:56 09.12.2019
2905 Rain 5 1016 81 10000 1.5 0 22:38 09.12.2019
2906 Rain 5 1016 81 10000 1.5 0 22:18 09.12.2019
2907 Rain 5 1015 81 10000 3.6 270 21:55 09.12.2019
2908 Rain 5 1015 81 10000 3.6 270 21:37 09.12.2019
2909 Rain 5 1014 75 10000 2.6 0 21:18 09.12.2019
2910 Rain 5 1013 81 10000 1.5 0 20:55 09.12.2019
2911 Rain 5 1012 75 10000 4.1 270 20:37 09.12.2019
2912 Rain 6 1012 75 10000 4.1 270 20:19 09.12.2019
2913 Rain 6 1012 75 10000 5.1 280 19:55 09.12.2019
2914 Rain 6 1012 75 10000 5.1 280 19:55 09.12.2019
2915 Rain 6 1011 75 10000 4.1 280 19:37 09.12.2019
2916 Rain 6 1011 75 10000 4.1 280 19:19 09.12.2019
2917 Rain 6 1011 87 7000 3.6 300 18:55 09.12.2019
2918 Rain 6 1010 81 10000 4.1 280 18:37 09.12.2019
2919 Rain 6 1010 81 10000 4.1 280 18:19 09.12.2019
2920 -273 0 0 0 0 0 17:57 09.12.2019
2921 Rain 6 1009 75 10000 4.6 280 17:38 09.12.2019
2922 Rain 6 1008 70 10000 6.7 310 17:19 09.12.2019
2923 Rain 6 1007 87 10000 2.1 200 16:56 09.12.2019
2924 Rain 7 1006 75 10000 1.5 0 16:37 09.12.2019
2925 Rain 7 1006 75 10000 1.5 0 16:18 09.12.2019
2926 Rain 7 1005 81 10000 2.1 210 15:55 09.12.2019
2927 Rain 7 1005 87 10000 2.6 210 15:37 09.12.2019
2928 Rain 7 1005 87 10000 2.6 210 15:18 09.12.2019
2929 Rain 7 1005 87 10000 5.1 200 14:42 09.12.2019
2930 Rain 7 1004 87 10000 4.1 190 14:19 09.12.2019
2931 Clouds 7 1004 76 10000 5.7 180 13:58 09.12.2019
2932 Clouds 7 1004 76 10000 5.7 180 13:38 09.12.2019
2933 Rain 7 1005 81 10000 4.1 180 13:19 09.12.2019
2934 Clouds 7 1004 81 10000 6.2 180 12:57 09.12.2019
2935 Rain 7 1005 75 10000 4.6 230 12:38 09.12.2019
2936 Rain 7 1005 75 10000 4.6 230 12:20 09.12.2019
2937 Rain 7 1005 81 10000 4.1 200 11:58 09.12.2019
2938 Rain 7 1005 81 10000 4.1 200 11:39 09.12.2019
2939 Rain 7 1005 87 10000 3.6 180 11:21 09.12.2019
2940 Rain 7 1005 81 10000 3.6 200 10:55 09.12.2019
2941 Rain 7 1005 87 10000 3.6 170 10:37 09.12.2019
2942 Rain 7 1005 87 10000 3.6 170 10:18 09.12.2019
2943 Rain 7 1005 81 10000 4.1 190 09:41 09.12.2019
2944 Rain 7 1005 75 10000 4.1 170 09:22 09.12.2019
2945 Clouds 7 1005 81 10000 3.6 150 08:55 09.12.2019
2946 Clouds 7 1006 81 10000 3.1 190 08:37 09.12.2019
2947 Rain 6 1006 81 10000 3.1 190 08:19 09.12.2019
2948 Rain 7 1006 81 10000 2.6 220 07:42 09.12.2019
2949 Rain 7 1005 81 10000 7.2 210 07:24 09.12.2019
2950 Rain 7 1006 87 10000 6.2 210 06:54 09.12.2019
2951 Rain 7 1006 66 10000 7.2 210 06:27 09.12.2019
2952 Clouds 7 1006 66 10000 6.7 210 05:30 09.12.2019
2953 Clouds 7 1007 70 10000 4.6 200 04:51 09.12.2019
2954 Clouds 7 1007 70 10000 5.7 190 04:20 09.12.2019
2955 Rain 8 1008 66 10000 7.2 230 02:27 09.12.2019
2956 Rain 8 1008 61 10000 5.7 220 01:44 09.12.2019
2957 Rain 9 1009 61 10000 6.7 250 00:55 09.12.2019
2958 Rain 8 1008 87 10000 2.6 230 00:32 09.12.2019
2959 Rain 9 1008 76 7000 2.6 290 23:54 08.12.2019
2960 Rain 9 1008 71 8000 3.6 220 23:36 08.12.2019
2961 Rain 9 1008 71 8000 3.6 220 23:18 08.12.2019
2962 Rain 9 1007 66 10000 4.6 200 22:56 08.12.2019
2963 Rain 10 1007 76 10000 3.6 220 22:37 08.12.2019
2964 Rain 10 1007 76 10000 3.6 220 22:18 08.12.2019
2965 Clouds 10 1007 81 10000 3.6 170 21:55 08.12.2019
2966 Clouds 10 1007 87 10000 3.1 170 21:36 08.12.2019
2967 Clouds 10 1007 87 10000 3.1 170 21:18 08.12.2019
2968 Clouds 10 1007 81 10000 4.6 170 20:54 08.12.2019
2969 Clouds 10 1008 87 10000 5.7 180 20:36 08.12.2019
2970 Clouds 9 1008 87 10000 5.7 180 20:18 08.12.2019
2971 Rain 10 1008 81 10000 4.6 180 19:54 08.12.2019
2972 Rain 10 1008 76 10000 5.1 180 19:36 08.12.2019
2973 Rain 10 1008 76 10000 5.1 180 19:18 08.12.2019
2974 Clouds 10 1008 71 10000 4.6 170 18:54 08.12.2019
2975 Rain 10 1008 76 10000 4.1 170 18:36 08.12.2019
2976 Rain 10 1008 76 10000 4.1 170 18:18 08.12.2019
2977 Clouds 10 1008 71 10000 5.7 170 17:54 08.12.2019
2978 Rain 10 1009 71 10000 5.7 230 17:36 08.12.2019
2979 Clouds 11 1009 71 10000 5.7 230 17:18 08.12.2019
2980 Clouds 11 1009 66 10000 4.1 190 16:42 08.12.2019
2981 Clouds 11 1009 62 10000 3.6 200 16:24 08.12.2019
2982 Clouds 11 1009 62 10000 5.7 200 15:59 08.12.2019
2983 Clouds 11 1010 62 10000 7.7 230 15:37 08.12.2019
2984 Clouds 12 1010 62 10000 7.7 230 15:18 08.12.2019
2985 Clouds 12 1010 62 10000 7.7 230 15:18 08.12.2019
2986 Clouds 11 1010 62 10000 8.2 220 14:57 08.12.2019
2987 Clouds 11 1011 62 10000 6.7 220 14:37 08.12.2019
2988 Clouds 12 1011 62 10000 6.7 220 14:19 08.12.2019
2989 Clouds 12 1011 62 10000 8.7 210 13:41 08.12.2019
2990 Clouds 12 1012 62 10000 8.7 220 13:22 08.12.2019
2991 Clouds 11 1012 66 10000 4.6 200 12:59 08.12.2019
2992 Clouds 12 1012 66 10000 4.6 200 12:40 08.12.2019
2993 Clouds 12 1013 62 10000 5.1 220 12:20 08.12.2019
2994 Clouds 11 1014 62 10000 6.2 210 11:59 08.12.2019
2995 Clouds 11 1014 62 10000 4.1 230 11:38 08.12.2019
2996 Clouds 10 1014 62 10000 4.1 230 11:19 08.12.2019
2997 Clouds 9 1014 66 10000 4.1 160 10:57 08.12.2019
2998 Clouds 9 1014 71 10000 4.6 170 10:38 08.12.2019
2999 Clouds 9 1014 71 10000 4.6 170 10:19 08.12.2019
3000 Clouds 8 1014 76 10000 3.6 170 09:55 08.12.2019
3001 Clouds 7 1014 81 10000 4.6 180 09:37 08.12.2019
3002 Clouds 7 1014 81 10000 4.6 180 09:19 08.12.2019
3003 Clouds 7 1014 81 10000 4.6 180 09:19 08.12.2019
3004 Clouds 6 1014 87 10000 4.6 170 08:57 08.12.2019
3005 Clouds 6 1015 87 10000 4.6 180 08:36 08.12.2019
3006 Clouds 5 1015 87 10000 4.6 180 08:18 08.12.2019
3007 Clouds 5 1015 93 10000 2.1 180 07:41 08.12.2019
3008 Clouds 5 1015 93 10000 0.5 0 07:19 08.12.2019
3009 Clouds 4 1016 93 10000 2.1 160 06:43 08.12.2019
3010 Clouds 4 1016 93 10000 4.1 170 06:21 08.12.2019
3011 Clouds 4 1016 93 10000 1 0 05:30 08.12.2019
3012 Clouds 4 1016 87 10000 2.6 180 04:58 08.12.2019
3013 Clouds 5 1018 87 10000 3.1 180 03:47 08.12.2019
3014 Clouds 5 1018 81 10000 4.6 170 03:20 08.12.2019
3015 Clouds 5 1018 93 10000 3.1 170 02:34 08.12.2019
3016 Clouds 6 1019 87 10000 4.1 190 01:48 08.12.2019
3017 Clouds 6 1019 87 10000 4.6 190 00:59 08.12.2019
3018 Clouds 6 1020 87 10000 2.6 200 00:39 08.12.2019
3019 Clouds 6 1020 87 10000 2.6 200 00:19 08.12.2019
3020 Clouds 6 1020 87 10000 2.1 190 23:40 07.12.2019
3021 Clouds 6 1020 93 10000 3.6 180 23:21 07.12.2019
3022 Clouds 6 1020 87 10000 4.1 180 22:56 07.12.2019
3023 Clouds 6 1019 87 10000 5.7 180 22:38 07.12.2019
3024 Clouds 6 1019 87 10000 5.7 180 22:20 07.12.2019
3025 Clouds 6 1020 87 10000 5.7 180 21:56 07.12.2019
3026 Clouds 6 1020 81 10000 5.1 180 21:38 07.12.2019
3027 Clouds 6 1020 81 10000 5.1 180 21:38 07.12.2019
3028 Clouds 6 1020 81 10000 5.1 180 21:38 07.12.2019
3029 Clouds 6 1020 81 10000 5.1 180 21:19 07.12.2019
3030 Clouds 6 1020 87 10000 4.6 180 20:59 07.12.2019
3031 Clouds 7 1020 87 10000 3.1 190 20:36 07.12.2019
3032 Clouds 7 1020 87 10000 3.1 190 20:18 07.12.2019
3033 Clouds 7 1020 87 10000 0.5 0 19:56 07.12.2019
3034 Clouds 7 1020 87 10000 0.5 0 19:38 07.12.2019
3035 Clouds 7 1020 87 10000 0.5 0 19:20 07.12.2019
3036 Clouds 7 1020 81 10000 1.5 270 18:44 07.12.2019
3037 Clouds 7 1019 87 10000 1.5 250 18:20 07.12.2019
3038 Clouds 7 1019 87 10000 2.6 160 17:58 07.12.2019
3039 Clouds 7 1019 87 10000 2.6 160 17:40 07.12.2019
3040 Clouds 8 1019 81 10000 3.1 170 17:22 07.12.2019
3041 Clouds 8 1019 81 10000 3.1 170 16:57 07.12.2019
3042 Clouds 8 1019 81 10000 2.6 200 16:38 07.12.2019
3043 Clouds 8 1019 81 10000 2.6 200 16:20 07.12.2019
3044 Clouds 9 1019 76 10000 3.6 200 15:57 07.12.2019
3045 Clouds 8 1018 66 10000 4.1 180 15:38 07.12.2019
3046 Clouds 9 1018 66 10000 4.1 180 15:20 07.12.2019
3047 Rain 9 1018 71 10000 3.1 230 14:42 07.12.2019
3048 Clouds 9 1019 76 10000 3.6 220 14:19 07.12.2019
3049 Clouds 9 1019 71 10000 3.6 240 13:58 07.12.2019
3050 Clouds 9 1019 71 10000 3.6 240 13:39 07.12.2019
3051 Clouds 9 1019 71 10000 3.1 260 13:19 07.12.2019
3052 Clouds 9 1019 66 10000 4.6 220 12:41 07.12.2019
3053 Clouds 9 1019 76 10000 4.1 210 12:23 07.12.2019
3054 Rain 9 1019 81 10000 4.1 200 11:59 07.12.2019
3055 Rain 9 1019 81 10000 4.1 200 11:41 07.12.2019
3056 Rain 8 1019 81 10000 4.1 190 11:22 07.12.2019
3057 Clouds 8 1018 81 10000 4.6 180 10:54 07.12.2019
3058 Clouds 8 1018 87 10000 5.1 180 10:36 07.12.2019
3059 Clouds 8 1018 87 10000 5.1 180 10:18 07.12.2019
3060 Clouds 7 1018 87 10000 3.6 170 09:39 07.12.2019
3061 Clouds 7 1018 87 10000 3.1 170 09:20 07.12.2019
3062 Rain 7 1018 93 10000 4.1 180 08:45 07.12.2019
3063 Drizzle 7 1018 93 10000 4.6 190 08:24 07.12.2019
3064 Rain 7 1018 93 10000 4.1 190 07:49 07.12.2019
3065 Clouds 7 1017 93 10000 5.7 180 07:28 07.12.2019
3066 Rain 7 1017 93 10000 5.1 180 06:52 07.12.2019
3067 Rain 7 1017 87 10000 4.6 180 06:26 07.12.2019
3068 Rain 7 1016 87 10000 4.6 200 05:47 07.12.2019
3069 Rain 7 1016 87 10000 5.7 180 04:44 07.12.2019
3070 Clouds 7 1016 76 10000 5.7 200 03:50 07.12.2019
3071 Clouds 7 1015 70 10000 4.6 180 02:23 07.12.2019
3072 Clouds 7 1015 70 10000 4.6 180 02:23 07.12.2019
3073 Clouds 6 1015 66 10000 3.6 170 01:42 07.12.2019
3074 Rain 6 1015 70 10000 4.1 190 01:24 07.12.2019
3075 Clouds 6 1015 76 10000 3.6 180 00:36 07.12.2019
3076 Clouds 6 1015 76 10000 3.6 180 00:18 07.12.2019
3077 Clouds 6 1015 76 10000 3.6 180 00:18 07.12.2019
3078 Rain 6 1015 70 10000 2.6 170 23:42 06.12.2019
3079 Rain 5 1017 86 10000 0.5 0 23:20 06.12.2019
3080 Rain 6 1016 70 10000 3.1 170 22:57 06.12.2019
3081 Rain 5 1016 70 10000 4.6 180 22:36 06.12.2019
3082 Rain 5 1016 70 10000 4.6 180 22:18 06.12.2019
3083 Rain 5 1016 65 10000 5.1 170 21:41 06.12.2019
3084 Rain 5 1016 70 10000 3.6 180 21:21 06.12.2019
3085 Rain 5 1016 70 10000 3.6 180 21:21 06.12.2019
3086 Rain 5 1016 75 10000 2.6 180 20:59 06.12.2019
3087 Rain 5 1016 75 10000 2.6 180 20:41 06.12.2019
3088 Clouds 5 1016 61 10000 1.5 0 20:20 06.12.2019
3089 Clouds 4 1016 61 10000 2.6 160 19:43 06.12.2019
3090 Clouds 4 1016 65 10000 3.1 180 19:25 06.12.2019
3091 Clouds 4 1016 65 10000 3.1 170 18:59 06.12.2019
3092 Clouds 4 1016 65 10000 3.1 170 18:40 06.12.2019
3093 Clouds 4 1016 65 10000 1.5 160 18:22 06.12.2019
3094 Clouds 5 1016 70 10000 2.6 60 17:58 06.12.2019
3095 Clouds 5 1016 70 10000 2.6 60 17:40 06.12.2019
3096 Clouds 5 1016 67 10000 1 0 17:22 06.12.2019
3097 Clouds 6 1018 80 10000 2.6 180 16:58 06.12.2019
3098 Clouds 6 1018 80 10000 2.6 180 16:39 06.12.2019
3099 Clouds 7 1017 66 10000 3.6 190 16:21 06.12.2019
3100 Clouds 7 1019 65 10000 2.1 200 15:42 06.12.2019
3101 Clouds 7 1017 61 10000 4.1 180 15:23 06.12.2019
3102 Clouds 7 1017 70 10000 1 120 14:59 06.12.2019
3103 Clouds 7 1017 70 10000 1 120 14:41 06.12.2019
3104 Clouds 7 1017 70 10000 1 0 14:20 06.12.2019
3105 Clouds 7 1018 70 10000 1.5 0 13:58 06.12.2019
3106 Clouds 7 1018 70 10000 1.5 0 13:40 06.12.2019
3107 Clouds 6 1018 80 10000 1 340 13:21 06.12.2019
3108 Clouds 5 1019 80 10000 1 0 12:39 06.12.2019
3109 Clouds 5 1019 86 10000 1 0 12:21 06.12.2019
3110 Clouds 4 1020 93 10000 1.5 230 11:43 06.12.2019
3111 Clouds 3 1020 93 10000 1.5 230 11:23 06.12.2019
3112 Clouds 3 1020 51 9000 2.6 200 10:58 06.12.2019
3113 Rain 3 1020 51 9000 2.6 200 10:40 06.12.2019
3114 Rain 2 1021 100 9000 1.5 200 10:20 06.12.2019
3115 Rain 1 1021 100 10000 1.5 0 09:56 06.12.2019
3116 Clouds 0 1021 92 10000 1 200 09:37 06.12.2019
3117 Clouds 0 1021 92 10000 1 200 09:19 06.12.2019
3118 Clouds 0 1021 100 10000 0.5 0 08:43 06.12.2019
3119 Clouds -1 1021 92 10000 1 0 08:25 06.12.2019
3120 Clouds -1 1021 100 10000 1 0 07:43 06.12.2019
3121 Mist -1 1021 100 3400 1.5 0 07:23 06.12.2019
3122 Mist -1 1021 100 3400 1.5 0 07:23 06.12.2019
3123 Clouds -1 1021 92 10000 1 0 06:55 06.12.2019
3124 Clear -1 1021 92 10000 0.5 0 06:26 06.12.2019
3125 Clear -2 1021 92 10000 1 190 05:52 06.12.2019
3126 Clear -1 1022 92 10000 0.5 200 04:34 06.12.2019
3127 Mist -1 1022 92 5000 1.81 182 01:48 06.12.2019
3128 Mist -1 1022 100 4700 1.71 180 01:22 06.12.2019
3129 Mist -1 1023 45 5000 2.6 160 00:39 06.12.2019
3130 Mist -1 1023 45 5000 2.6 160 00:19 06.12.2019
3131 Mist 0 1023 100 4500 2.1 200 23:38 05.12.2019
3132 Mist -1 1023 100 4500 2.1 200 23:18 05.12.2019
3133 Mist -1 1023 47 4500 3.1 180 22:55 05.12.2019
3134 Mist -1 1023 47 4500 2.6 180 22:37 05.12.2019
3135 Mist -1 1023 47 4500 2.6 180 22:18 05.12.2019
3136 Mist 0 1023 47 5000 2.6 180 21:42 05.12.2019
3137 Mist -1 1023 47 5000 2.6 170 21:24 05.12.2019
3138 Mist -1 1023 100 5000 3.1 160 20:59 05.12.2019
3139 Fog -1 1023 92 250 0.5 0 20:40 05.12.2019
3140 Fog -1 1023 100 250 2.6 190 20:20 05.12.2019
3141 Fog 0 1023 92 350 1.54 165 19:56 05.12.2019
3142 Fog 0 1023 100 100 1 220 19:38 05.12.2019
3143 Fog 0 1023 100 300 0.5 350 19:19 05.12.2019
3144 Fog 0 1023 100 100 1 0 18:54 05.12.2019
3145 Fog 0 1023 100 100 1.5 220 18:36 05.12.2019
3146 Fog 1 1023 100 50 1 230 18:18 05.12.2019
3147 Fog 0 1023 100 100 1 0 17:39 05.12.2019
3148 Fog 0 1023 100 100 1 0 17:39 05.12.2019
3149 Fog 2 1023 100 250 1 0 17:19 05.12.2019
3150 Fog 2 1023 100 50 0.5 0 16:57 05.12.2019
3151 Fog 2 1023 100 100 1 0 16:38 05.12.2019
3152 Clear 2 1023 68 10000 1.5 40 16:20 05.12.2019
3153 Fog 2 1023 100 200 1.5 0 15:56 05.12.2019
3154 Fog 1 1023 68 450 1 0 15:37 05.12.2019
3155 Fog 1 1023 68 200 2.6 360 15:19 05.12.2019
3156 Fog 2 1023 68 200 2.6 360 14:55 05.12.2019
3157 Mist 1 1023 68 1500 2.6 320 14:36 05.12.2019
3158 Mist 5 1023 46 4000 1 0 14:18 05.12.2019
3159 Clear 5 1022 46 10000 2.1 190 13:56 05.12.2019
3160 Mist 5 1023 46 4000 1 0 13:37 05.12.2019
3161 Clear 5 1023 48 10000 0.5 0 13:18 05.12.2019
3162 Mist 4 1023 48 4500 1 0 12:43 05.12.2019
3163 Clear 3 1023 48 10000 1.5 150 12:24 05.12.2019
3164 Mist 3 1023 48 4000 0.5 0 11:59 05.12.2019
3165 Mist 1 1023 100 4000 0.5 0 11:38 05.12.2019
3166 Mist 1 1024 100 3500 0.5 0 11:20 05.12.2019
3167 Clear 1 1023 92 9000 0.72 234 11:20 05.12.2019
3168 Mist 1 1024 100 3500 0.5 0 10:56 05.12.2019
3169 Mist 0 1024 92 2700 1 0 10:38 05.12.2019
3170 Clear 0 1023 92 7000 1 350 10:18 05.12.2019
3171 Fog -1 1023 92 400 1 0 09:46 05.12.2019
3172 Clear -2 1023 92 10000 1 20 09:24 05.12.2019
3173 Mist -3 1023 92 2500 0.5 0 08:59 05.12.2019
3174 Mist -3 1023 100 4000 0.5 50 08:39 05.12.2019
3175 Clouds -2 1022 92 6000 3.1 180 08:20 05.12.2019
3176 Clear -3 1023 100 6000 1.01 167 07:56 05.12.2019
3177 Mist -3 1022 92 5000 2.6 180 07:36 05.12.2019
3178 Mist -2 1022 100 4500 2.6 190 07:18 05.12.2019
3179 Clouds -3 1022 92 7000 1.01 167 06:42 05.12.2019
3180 Mist -3 1021 92 4500 2.6 190 06:21 05.12.2019
3181 Mist -3 1021 92 4500 2.1 180 05:48 05.12.2019
3182 Mist -3 1021 92 4500 2.1 180 05:23 05.12.2019
3183 Mist -2 1021 92 5000 2.6 180 04:25 05.12.2019
3184 Mist -2 1021 92 5000 2.6 180 04:25 05.12.2019
3185 Mist -2 1021 92 5000 1.17 191 02:54 05.12.2019
3186 Fog -2 1021 92 1300 1 180 02:25 05.12.2019
3187 Fog -2 1021 100 350 0.5 0 01:59 05.12.2019
3188 Fog -2 1021 92 350 0.5 0 01:40 05.12.2019
3189 Fog -2 1021 92 350 0.5 0 01:20 05.12.2019
3190 Fog -2 1021 100 300 0.5 0 00:37 05.12.2019
3191 Fog -2 1021 100 350 1 0 00:18 05.12.2019
3192 Fog -2 1020 100 300 1 0 23:42 04.12.2019
3193 Fog -2 1020 100 300 1 0 23:22 04.12.2019
3194 Fog -2 1020 100 500 1 0 22:57 04.12.2019
3195 Fog -1 1020 100 350 1 0 22:36 04.12.2019
3196 Fog -1 1021 100 450 0.5 0 22:18 04.12.2019
3197 Fog -1 1021 100 450 0.5 0 21:55 04.12.2019
3198 Fog -1 1021 100 400 1.5 200 21:37 04.12.2019
3199 Fog -2 1021 100 450 1.5 210 21:18 04.12.2019
3200 Fog -2 1021 100 450 1.5 210 21:18 04.12.2019
3201 Fog -2 1021 100 450 1.5 210 20:56 04.12.2019
3202 Fog -2 1021 100 400 1.5 220 20:38 04.12.2019
3203 Fog -1 1021 100 400 1.5 220 20:19 04.12.2019
3204 Fog -1 1021 92 250 2.6 200 19:41 04.12.2019
3205 Fog -1 1021 100 350 1 0 19:22 04.12.2019
3206 Fog -1 1021 100 250 2.1 210 18:59 04.12.2019
3207 Fog -2 1021 100 150 2.1 190 18:41 04.12.2019
3208 Fog -2 1021 100 300 0.5 0 18:22 04.12.2019
3209 Fog -1 1021 100 100 2.6 200 17:58 04.12.2019
3210 Fog -1 1020 100 150 2.1 220 17:39 04.12.2019
3211 Fog 0 1020 100 100 1.5 220 17:18 04.12.2019
3212 Fog 0 1020 100 100 1.5 220 17:18 04.12.2019
3213 Fog 0 1020 100 400 1 0 16:54 04.12.2019
3214 Fog 0 1020 100 150 1 250 16:36 04.12.2019
3215 Fog 1 1020 100 250 1.5 200 16:18 04.12.2019
3216 Fog 1 1020 71 900 1 0 15:42 04.12.2019
3217 Mist 1 1019 100 1700 1 0 15:21 04.12.2019
3218 Mist 1 1020 100 1000 1 250 15:00 04.12.2019
3219 Mist 1 1020 100 1200 1 0 14:41 04.12.2019
3220 Clear 3 1019 69 10000 4.1 110 14:21 04.12.2019
3221 Clear 3 1019 64 10000 4.6 100 13:56 04.12.2019
3222 Fog 3 1020 100 400 1 0 13:37 04.12.2019
3223 Fog 2 1021 92 350 1.5 0 13:18 04.12.2019
3224 Fog 2 1021 100 400 1 0 12:42 04.12.2019
3225 Mist 3 1021 100 3900 1.5 360 12:23 04.12.2019
3226 Fog 2 1022 92 300 0.5 0 11:45 04.12.2019
3227 Fog 0 1022 92 300 0.5 0 11:26 04.12.2019
3228 Fog 0 1022 92 300 0.5 0 10:59 04.12.2019
3229 Fog 0 1022 100 300 1 0 10:40 04.12.2019
3230 Fog 0 1022 100 450 1 0 10:22 04.12.2019
3231 Fog -1 1023 92 400 1 0 09:45 04.12.2019
3232 Fog -2 1023 92 400 1 0 09:25 04.12.2019
3233 Fog -2 1023 92 400 1 0 09:25 04.12.2019
3234 Fog -3 1023 100 350 0.5 0 08:59 04.12.2019
3235 Fog -3 1023 100 500 0.62 86 08:38 04.12.2019
3236 Fog -3 1023 100 100 0.5 0 08:19 04.12.2019
3237 Clear -3 1022 92 10000 1 340 07:42 04.12.2019
3238 Clear -3 1022 92 10000 1 340 07:23 04.12.2019
3239 Clear -3 1022 92 10000 1.5 200 06:33 04.12.2019
3240 Clear -3 1022 92 10000 1 260 05:48 04.12.2019
3241 Clear -3 1022 79 10000 1.5 270 04:58 04.12.2019
3242 Clear -3 1023 86 10000 1 0 03:54 04.12.2019
3243 Clear -2 1023 86 10000 1.5 300 02:21 04.12.2019
3244 Clear -2 1025 68 10000 4.1 270 00:50 04.12.2019
3245 Clear -2 1025 68 10000 4.1 270 00:23 04.12.2019
3246 Clear -2 1024 100 7000 1 0 23:57 03.12.2019
3247 Clear -1 1025 68 10000 2.1 290 23:38 03.12.2019
3248 Clear -2 1025 92 10000 1.5 310 23:19 03.12.2019
3249 Clear -1 1025 73 10000 1.5 310 22:40 03.12.2019
3250 Clear -1 1025 73 10000 1.5 310 22:19 03.12.2019
3251 Clear -1 1025 86 10000 1.5 280 21:58 03.12.2019
3252 Clear -1 1026 80 10000 1.5 290 21:38 03.12.2019
3253 Clear -1 1026 92 10000 1.5 270 21:19 03.12.2019
3254 Clear -1 1026 92 10000 1.5 270 20:58 03.12.2019
3255 Clear -1 1026 73 10000 1.5 280 20:39 03.12.2019
3256 Clear -1 1026 92 10000 1 0 20:18 03.12.2019
3257 Clear -1 1026 92 10000 1 0 19:55 03.12.2019
3258 Clear -1 1026 86 10000 1.5 0 19:55 03.12.2019
3259 Clear 0 1026 78 10000 1 0 19:37 03.12.2019
3260 Clear 0 1026 80 10000 1.5 0 19:18 03.12.2019
3261 Clear 0 1026 86 10000 0.5 120 19:18 03.12.2019
3262 Clear 0 1026 92 10000 1.5 310 18:56 03.12.2019
3263 Clear 0 1026 80 10000 1.5 0 18:38 03.12.2019
3264 Clear 0 1026 78 10000 1.5 310 18:19 03.12.2019
3265 Clear 0 1026 80 10000 3.1 10 17:56 03.12.2019
3266 Clear 1 1026 78 10000 2.6 20 17:36 03.12.2019
3267 Clear 2 1026 67 10000 1 30 17:18 03.12.2019
3268 -273 0 0 0 0 0 16:56 03.12.2019
3269 Clear 3 1026 67 10000 2.6 30 16:37 03.12.2019
3270 Clear 3 1026 80 10000 3.1 20 16:19 03.12.2019
3271 Clear 3 1026 80 10000 3.1 20 15:54 03.12.2019
3272 Clear 3 1026 75 10000 3.6 20 15:36 03.12.2019
3273 Clear 3 1026 75 10000 4.6 10 15:18 03.12.2019
3274 Clear 3 1026 75 10000 4.6 10 14:41 03.12.2019
3275 Clear 4 1026 60 10000 3.1 10 14:20 03.12.2019
3276 Clear 4 1027 75 10000 5.1 20 13:56 03.12.2019
3277 Clear 4 1027 75 10000 3.6 20 13:36 03.12.2019
3278 Clear 4 1028 80 10000 2.6 350 13:18 03.12.2019
3279 Clear 4 1028 80 10000 3.1 20 12:41 03.12.2019
3280 Clear 3 1028 51 10000 1.5 30 12:18 03.12.2019
3281 Clear 3 1028 51 10000 1.5 30 11:58 03.12.2019
3282 Clear 3 1029 51 10000 2.1 20 11:39 03.12.2019
3283 Clear 1 1029 70 10000 1.5 20 11:21 03.12.2019
3284 Clear 1 1029 70 10000 2.1 30 10:58 03.12.2019
3285 Clear 1 1029 70 10000 2.1 30 10:58 03.12.2019
3286 Clear 0 1029 70 10000 1.5 20 10:40 03.12.2019
3287 Clear 0 1030 92 10000 2.1 20 10:19 03.12.2019
3288 Clear -1 1030 92 10000 1.5 60 09:46 03.12.2019
3289 Clear -1 1030 92 10000 1.5 60 09:46 03.12.2019
3290 Clear -2 1029 92 10000 1 0 09:25 03.12.2019
3291 Clear -3 1030 92 10000 1 60 08:59 03.12.2019
3292 Clear -3 1030 92 10000 1 60 08:59 03.12.2019
3293 Clear -3 1029 100 10000 1 0 08:40 03.12.2019
3294 Clear -3 1029 100 10000 1 10 08:22 03.12.2019
3295 Clear -3 1029 100 10000 1 10 07:54 03.12.2019
3296 Clear -3 1029 100 10000 3.1 340 07:30 03.12.2019
3297 Clear -3 1028 100 10000 2.1 360 06:59 03.12.2019
3298 Fog -3 1028 92 2500 2.7 102 06:22 03.12.2019
3299 Clear -3 1029 100 10000 2.7 102 05:58 03.12.2019
3300 Clear -2 1028 92 10000 2.1 320 04:49 03.12.2019
3301 Mist -2 1028 92 3700 0.5 310 03:39 03.12.2019
3302 Clear -2 1029 92 7000 1 0 03:19 03.12.2019
3303 Clouds -2 1028 86 10000 1.5 340 02:47 03.12.2019
3304 Clouds -2 1028 86 10000 1.5 340 02:26 03.12.2019
3305 Clouds -1 1028 92 10000 1.5 330 01:42 03.12.2019
3306 Clouds -2 1028 92 10000 1.5 330 01:23 03.12.2019
3307 Clouds -1 1029 86 10000 1 0 00:55 03.12.2019
3308 Clouds -1 1029 86 10000 1 270 00:37 03.12.2019
3309 Clouds -1 1029 92 10000 1 270 00:18 03.12.2019
3310 Clouds -1 1028 92 10000 1 0 23:42 02.12.2019
3311 Clouds -1 1028 92 10000 1 0 23:19 02.12.2019
3312 Clouds -1 1029 86 10000 1.5 300 22:42 02.12.2019
3313 Clouds -1 1029 86 10000 1.5 300 22:22 02.12.2019
3314 Clouds -1 1028 86 10000 1.5 280 21:58 02.12.2019
3315 Clouds -1 1028 80 10000 3.1 280 21:37 02.12.2019
3316 Clouds -1 1028 80 10000 3.1 280 21:19 02.12.2019
3317 Clouds -1 1028 80 10000 3.1 280 20:56 02.12.2019
3318 Clouds -1 1028 80 10000 2.6 280 20:38 02.12.2019
3319 Clouds 0 1028 81 10000 2.6 280 20:19 02.12.2019
3320 Clouds 0 1028 81 10000 1 0 19:55 02.12.2019
3321 Clouds 0 1028 86 10000 2.1 130 19:36 02.12.2019
3322 Clouds 0 1028 86 10000 1 0 19:18 02.12.2019
3323 Clouds 0 1028 81 10000 1 160 18:42 02.12.2019
3324 Clouds 1 1027 81 10000 1 330 18:20 02.12.2019
3325 Clouds 1 1028 80 10000 2.09 101 17:58 02.12.2019
3326 Clouds 1 1027 81 10000 2.09 101 17:40 02.12.2019
3327 Clear 2 1027 69 10000 0.5 70 17:20 02.12.2019
3328 Clear 2 1027 69 10000 0.5 70 16:54 02.12.2019
3329 Clear 3 1027 78 10000 1 30 16:36 02.12.2019
3330 Clear 3 1027 78 10000 2.1 350 16:18 02.12.2019
3331 Clouds 3 1027 78 10000 3.1 40 15:55 02.12.2019
3332 Clouds 3 1027 78 10000 1 0 15:36 02.12.2019
3333 Clouds 3 1027 78 10000 3.6 50 15:18 02.12.2019
3334 Clouds 3 1027 78 10000 3.1 360 14:39 02.12.2019
3335 Clouds 3 1026 66 10000 3.6 40 14:20 02.12.2019
3336 Clouds 3 1027 66 10000 2.1 350 13:58 02.12.2019
3337 Clouds 3 1026 66 9000 2.6 360 13:39 02.12.2019
3338 Clouds 3 1026 74 10000 5.1 30 13:20 02.12.2019
3339 Clouds 3 1026 74 10000 5.1 30 13:20 02.12.2019
3340 Clouds 3 1026 68 10000 3.1 360 12:58 02.12.2019
3341 Clouds 3 1026 68 10000 2.6 360 12:40 02.12.2019
3342 Clouds 2 1026 74 10000 5.7 30 12:20 02.12.2019
3343 Clouds 2 1026 68 10000 5.1 30 11:56 02.12.2019
3344 Clouds 2 1026 68 10000 3.6 20 11:37 02.12.2019
3345 Clouds 2 1026 88 10000 2.6 30 11:18 02.12.2019
3346 Clouds 2 1026 88 10000 2.6 30 10:55 02.12.2019
3347 Snow 1 1026 88 10000 3.1 10 10:37 02.12.2019
3348 Snow 1 1025 86 10000 2.6 10 10:19 02.12.2019
3349 Clouds 1 1025 88 10000 2.6 10 09:41 02.12.2019
3350 Snow 1 1024 80 10000 1.5 0 09:19 02.12.2019
3351 Clouds 1 1025 88 10000 2.6 10 08:58 02.12.2019
3352 Clouds 1 1024 88 10000 3.1 20 08:39 02.12.2019
3353 Clouds 1 1024 97 10000 3.1 10 08:21 02.12.2019
3354 Clouds 1 1023 80 10000 3.1 10 07:44 02.12.2019
3355 Clouds 1 1023 80 10000 3.1 10 07:23 02.12.2019
3356 Clouds 1 1022 80 10000 3.6 10 06:57 02.12.2019
3357 Clouds 1 1022 80 10000 3.6 10 06:57 02.12.2019
3358 Clouds 2 1022 96 10000 2.1 360 06:38 02.12.2019
3359 Clouds 2 1021 96 10000 3.6 30 05:36 02.12.2019
3360 Clouds 2 1021 96 10000 3.1 10 04:50 02.12.2019
3361 Clouds 2 1020 96 10000 2.1 360 02:55 02.12.2019
3362 Clouds 2 1019 96 10000 2.6 360 02:36 02.12.2019
3363 Clouds 2 1019 97 10000 3.6 10 01:28 02.12.2019
3364 Clouds 2 1019 98 10000 3.6 360 00:59 02.12.2019
3365 Clouds 2 1019 93 10000 3.6 350 00:28 02.12.2019
3366 Clouds 3 1019 86 10000 3.1 350 23:57 01.12.2019
3367 Clouds 2 1018 86 10000 1.5 360 23:38 01.12.2019
3368 Clouds 2 1018 86 10000 1.5 360 23:19 01.12.2019
3369 Clouds 2 1018 93 10000 0.5 330 22:56 01.12.2019
3370 Clouds 2 1018 86 10000 0.5 0 22:37 01.12.2019
3371 Clouds 3 1017 93 10000 1.5 10 22:18 01.12.2019
3372 Clouds 3 1017 93 10000 1.5 10 21:56 01.12.2019
3373 Clouds 3 1017 93 10000 2.1 20 21:38 01.12.2019
3374 Clouds 3 1017 93 10000 2.1 20 21:19 01.12.2019
3375 Clouds 3 1017 93 10000 2.1 30 20:56 01.12.2019
3376 Clouds 3 1017 86 10000 1 40 20:37 01.12.2019
3377 Clouds 3 1017 86 10000 1 40 20:37 01.12.2019
3378 Clouds 3 1017 86 10000 1 40 20:19 01.12.2019
3379 Clouds 3 1017 93 10000 0.5 0 19:55 01.12.2019
3380 Clouds 3 1017 86 10000 0.5 0 19:37 01.12.2019
3381 Clouds 3 1017 93 10000 0.5 0 19:19 01.12.2019
3382 Clouds 3 1017 93 10000 0.5 0 18:55 01.12.2019
3383 Clouds 3 1016 86 10000 1 20 18:37 01.12.2019
3384 Clouds 3 1016 86 10000 1 20 18:18 01.12.2019
3385 Clouds 3 1016 93 10000 1.5 360 17:56 01.12.2019
3386 Clouds 3 1016 93 10000 1 330 17:38 01.12.2019
3387 Clouds 3 1016 93 10000 1.5 360 17:19 01.12.2019
3388 Clouds 3 1016 86 10000 1 0 16:44 01.12.2019
3389 Clouds 3 1016 86 10000 1 0 16:25 01.12.2019
3390 Clouds 4 1016 86 10000 1.5 360 15:58 01.12.2019
3391 Clouds 4 1016 86 10000 1.5 20 15:40 01.12.2019
3392 Clouds 4 1016 86 10000 1.5 20 15:40 01.12.2019
3393 Clouds 4 1016 86 10000 1.5 0 15:22 01.12.2019
3394 Clouds 4 1016 86 10000 1.5 20 15:22 01.12.2019
3395 Clouds 4 1016 86 10000 3.1 20 14:38 01.12.2019
3396 Clouds 4 1016 86 10000 3.1 20 14:19 01.12.2019
3397 Clouds 4 1016 86 10000 3.6 10 13:40 01.12.2019
3398 Clouds 4 1016 86 10000 3.6 10 13:22 01.12.2019
3399 Clouds 4 1016 86 10000 1 0 12:59 01.12.2019
3400 Clouds 3 1017 86 10000 1 0 12:40 01.12.2019
3401 Clouds 3 1017 86 10000 1 0 12:40 01.12.2019
3402 Clouds 3 1017 86 10000 1 0 12:40 01.12.2019
3403 Clouds 3 1017 86 10000 1 0 12:40 01.12.2019
3404 Clouds 3 1017 86 10000 1 0 12:40 01.12.2019
3405 Clouds 3 1016 93 10000 0.5 0 11:54 01.12.2019
3406 Rain 3 1016 93 10000 1.5 320 11:36 01.12.2019
3407 Snow 2 1015 93 10000 2.1 20 11:18 01.12.2019
3408 Snow 3 1015 93 10000 2.1 20 11:18 01.12.2019
3409 Rain 2 1015 93 10000 3.1 10 10:42 01.12.2019
3410 Rain 2 1015 93 7000 2.6 360 10:20 01.12.2019
3411 Rain 2 1015 93 7000 1.5 40 09:42 01.12.2019
3412 Rain 2 1015 93 7000 1.5 40 09:23 01.12.2019
3413 Rain 2 1015 93 10000 1 0 08:57 01.12.2019
3414 Rain 2 1014 93 6000 1.5 50 08:37 01.12.2019
3415 Rain 2 1014 93 6000 1.5 50 08:19 01.12.2019
3416 Rain 2 1015 93 7000 1.5 250 07:48 01.12.2019
3417 Rain 2 1015 93 7000 1.5 250 07:28 01.12.2019
3418 Rain 2 1014 93 10000 2.1 340 06:52 01.12.2019
3419 Rain 2 1015 93 7000 1.5 0 05:58 01.12.2019
3420 Rain 2 1015 93 6000 2.1 10 05:34 01.12.2019
3421 Rain 2 1017 82 10000 0.5 0 04:29 01.12.2019
3422 Clouds 1 1018 82 10000 1.5 330 02:46 01.12.2019
3423 Clouds 1 1018 82 10000 1.5 330 02:27 01.12.2019
3424 Clouds 2 1018 87 10000 2.1 290 01:54 01.12.2019
3425 Clouds 1 1018 87 10000 1.5 310 01:32 01.12.2019
3426 Clouds 1 1018 87 10000 2.6 270 00:50 01.12.2019
3427 Clouds 2 1018 87 10000 2.6 270 00:27 01.12.2019
3428 Clouds 2 1018 87 10000 1.5 290 23:59 30.11.2019
3429 Clouds 2 1019 80 10000 3.1 270 23:40 30.11.2019
3430 Clouds 2 1019 80 10000 3.1 270 23:21 30.11.2019
3431 Clouds 2 1019 87 10000 2.1 290 22:49 30.11.2019
3432 Clouds 2 1019 87 10000 2.1 290 22:29 30.11.2019
3433 Clouds 2 1019 86 10000 1 0 21:56 30.11.2019
3434 Clouds 2 1019 87 10000 2.6 260 21:37 30.11.2019
3435 Clouds 2 1019 87 10000 2.6 260 21:19 30.11.2019
3436 Clouds 2 1020 87 10000 3.1 280 20:55 30.11.2019
3437 Clouds 2 1020 87 10000 2.6 310 20:36 30.11.2019
3438 Clouds 2 1020 89 10000 2.1 310 20:18 30.11.2019
3439 Clouds 2 1020 89 10000 2.1 310 19:55 30.11.2019
3440 Clouds 3 1020 86 10000 2.1 290 19:36 30.11.2019
3441 Clouds 3 1020 89 10000 1.5 0 19:18 30.11.2019
3442 Clouds 2 1020 89 10000 1.5 0 18:54 30.11.2019
3443 Clouds 2 1020 93 10000 2.1 310 18:36 30.11.2019
3444 Clouds 3 1020 86 10000 2.1 320 18:18 30.11.2019
3445 Clouds 3 1020 86 10000 2.1 320 18:18 30.11.2019
3446 Clouds 3 1020 86 10000 2.1 320 17:56 30.11.2019
3447 Clouds 3 1020 86 10000 2.6 320 17:37 30.11.2019
3448 Clear 4 1020 86 10000 2.6 320 17:19 30.11.2019
3449 Clear 5 1021 60 10000 2.6 50 16:42 30.11.2019
3450 Clear 5 1021 86 10000 2.6 340 16:22 30.11.2019
3451 Clear 6 1021 56 10000 2.6 60 15:55 30.11.2019
3452 Clear 6 1021 56 10000 2.6 60 15:55 30.11.2019
3453 Clear 6 1021 49 10000 3.6 90 15:37 30.11.2019
3454 Clear 6 1021 61 10000 3.6 30 15:18 30.11.2019
3455 Clear 6 1021 70 10000 2.6 10 14:56 30.11.2019
3456 Clouds 6 1021 70 10000 3.6 40 14:37 30.11.2019
3457 Clouds 6 1022 75 10000 3.6 20 14:18 30.11.2019
3458 Clouds 7 1022 75 10000 3.6 20 13:56 30.11.2019
3459 Clouds 6 1022 81 10000 3.6 30 13:36 30.11.2019
3460 Clouds 6 1023 75 10000 3.1 10 13:18 30.11.2019
3461 Clouds 6 1023 87 10000 2.1 20 12:42 30.11.2019
3462 Clouds 6 1023 87 10000 2.1 20 12:24 30.11.2019
3463 Clouds 5 1024 81 10000 0.5 0 11:43 30.11.2019
3464 Clear 4 1024 86 10000 2.1 40 11:20 30.11.2019
3465 Clear 4 1024 86 10000 1.26 107 10:57 30.11.2019
3466 Clear 4 1024 93 10000 1 10 10:39 30.11.2019
3467 Clear 3 1023 86 10000 2.1 360 10:20 30.11.2019
3468 Clear 3 1023 100 10000 0.5 0 09:46 30.11.2019
3469 Clear 3 1023 100 10000 0.5 0 09:28 30.11.2019
3470 Clear 3 1023 81 10000 3.1 260 08:45 30.11.2019
3471 Clouds 2 1023 87 10000 3.1 260 08:24 30.11.2019
3472 Clouds 2 1023 87 10000 2.1 230 07:59 30.11.2019
3473 Clouds 3 1023 86 10000 2.6 230 07:41 30.11.2019
3474 Clouds 2 1023 86 10000 2.6 230 07:22 30.11.2019
3475 Clouds 3 1023 80 10000 3.1 270 06:30 30.11.2019
3476 Clouds 3 1023 87 10000 2.6 270 05:58 30.11.2019
3477 Clouds 3 1022 87 10000 3.1 260 03:54 30.11.2019
3478 Clouds 3 1022 87 10000 3.1 270 03:18 30.11.2019
3479 Clouds 3 1022 93 10000 1 0 02:25 30.11.2019
3480 Clouds 3 1021 86 10000 3.6 270 01:50 30.11.2019
3481 Clouds 3 1021 86 10000 3.1 270 01:24 30.11.2019
3482 Clouds 4 1021 86 10000 2.6 270 00:38 30.11.2019
3483 Clouds 4 1021 86 10000 2.6 270 00:20 30.11.2019
3484 Clouds 4 1020 93 10000 1 0 23:44 29.11.2019
3485 Snow 4 1020 100 10000 1 0 23:23 29.11.2019
3486 Snow 4 1020 100 10000 1 0 23:23 29.11.2019
3487 Snow 4 1020 100 10000 1.5 250 22:48 29.11.2019
3488 Snow 4 1020 100 10000 1.5 250 22:27 29.11.2019
3489 Snow 5 1019 100 10000 1 0 21:56 29.11.2019
3490 Clouds 4 1019 100 10000 1 330 21:38 29.11.2019
3491 Clouds 5 1019 100 10000 1 330 21:19 29.11.2019
3492 Clouds 5 1019 100 10000 1.5 250 20:54 29.11.2019
3493 Rain 5 1018 100 10000 1.5 240 20:36 29.11.2019
3494 Rain 6 1018 87 10000 1 110 20:18 29.11.2019
3495 Rain 6 1018 100 10000 1.5 300 19:54 29.11.2019
3496 Rain 6 1018 87 10000 1 80 19:36 29.11.2019
3497 Clouds 6 1017 87 10000 0.5 30 19:18 29.11.2019
3498 Rain 6 1017 93 10000 1 0 18:41 29.11.2019
3499 Rain 6 1017 93 10000 1 0 18:41 29.11.2019
3500 Rain 6 1016 87 10000 4.1 40 18:23 29.11.2019
3501 Rain 6 1016 87 10000 1.5 350 17:56 29.11.2019
3502 Rain 6 1015 87 10000 1.5 350 17:38 29.11.2019
3503 Rain 6 1015 87 10000 2.6 30 17:19 29.11.2019
3504 Rain 7 1014 87 10000 4.1 20 16:42 29.11.2019
3505 Rain 7 1014 93 7000 3.1 30 16:21 29.11.2019
3506 Rain 7 1014 93 10000 3.1 20 15:56 29.11.2019
3507 Rain 7 1013 93 10000 6.7 20 15:37 29.11.2019
3508 Rain 8 1012 93 7000 2.1 300 15:19 29.11.2019
3509 Rain 8 1011 87 10000 4.1 200 14:40 29.11.2019
3510 Rain 8 1011 87 10000 4.1 200 14:40 29.11.2019
3511 Rain 8 1012 81 10000 1.5 0 14:21 29.11.2019
3512 Rain 8 1011 87 10000 3.6 190 13:57 29.11.2019
3513 Rain 8 1011 87 10000 4.1 210 13:37 29.11.2019
3514 Clouds 8 1011 87 10000 4.1 200 13:19 29.11.2019
3515 Clouds 8 1011 87 10000 4.6 200 12:43 29.11.2019
3516 Clouds 8 1011 87 10000 1.5 190 12:25 29.11.2019
3517 Rain 8 1011 87 10000 3.1 190 11:56 29.11.2019
3518 Clouds 8 1010 93 10000 5.1 190 11:38 29.11.2019
3519 Rain 8 1010 93 10000 5.1 190 11:19 29.11.2019
3520 Rain 7 1010 93 10000 5.1 190 10:57 29.11.2019
3521 Rain 7 1010 93 10000 4.6 190 10:39 29.11.2019
3522 Rain 7 1009 93 9000 0.5 0 10:21 29.11.2019
3523 Rain 7 1009 93 10000 4.1 200 09:59 29.11.2019
3524 Rain 7 1008 87 10000 3.1 200 09:39 29.11.2019
3525 Rain 7 1008 100 10000 4.1 190 09:20 29.11.2019
3526 Rain 7 1008 93 10000 1.5 170 08:55 29.11.2019
3527 Rain 7 1007 93 10000 3.1 190 08:37 29.11.2019
3528 Rain 7 1007 87 10000 1.5 250 08:19 29.11.2019
3529 Rain 7 1006 87 10000 2.6 220 07:42 29.11.2019
3530 Rain 7 1006 87 10000 2.6 220 07:42 29.11.2019
3531 Rain 8 1006 87 10000 2.6 220 07:23 29.11.2019
3532 Rain 8 1006 93 10000 3.1 200 06:54 29.11.2019
3533 Rain 8 1006 93 10000 4.1 190 06:35 29.11.2019
3534 Rain 8 1006 87 10000 4.1 170 05:46 29.11.2019
3535 Rain 8 1006 87 10000 4.1 170 05:23 29.11.2019
3536 Rain 8 1005 87 10000 3.6 160 05:23 29.11.2019
3537 Rain 8 1006 81 10000 4.1 210 03:43 29.11.2019
3538 Rain 8 1005 93 7000 3.1 200 03:19 29.11.2019
3539 Rain 8 1005 100 10000 1.5 170 02:25 29.11.2019
3540 Rain 8 1005 93 7000 1 0 01:50 29.11.2019
3541 Rain 9 1005 93 7000 1 0 01:24 29.11.2019
3542 Rain 8 1005 100 6000 1 0 00:41 29.11.2019
3543 Rain 9 1005 100 6000 1 0 00:20 29.11.2019
3544 Rain 9 1005 93 8000 2.6 300 23:44 28.11.2019
3545 Rain 9 1005 93 8000 2.6 300 23:44 28.11.2019
3546 Rain 8 1005 93 8000 2.6 300 23:21 28.11.2019
3547 Rain 8 1004 93 10000 2.6 190 22:58 28.11.2019
3548 Rain 9 1004 93 10000 4.1 180 22:38 28.11.2019
3549 Rain 9 1004 93 10000 4.1 180 22:38 28.11.2019
3550 Rain 9 1004 93 10000 4.1 180 22:20 28.11.2019
3551 Rain 9 1004 87 10000 5.1 210 21:56 28.11.2019
3552 Rain 8 1004 93 10000 4.6 170 21:38 28.11.2019
3553 Rain 8 1004 87 10000 4.1 200 21:19 28.11.2019
3554 Rain 8 1004 87 10000 4.1 200 20:55 28.11.2019
3555 Rain 8 1004 93 8000 4.6 180 20:37 28.11.2019
3556 Clouds 8 1003 87 10000 4.6 180 20:18 28.11.2019
3557 Clouds 8 1003 87 10000 4.1 190 19:41 28.11.2019
3558 Clouds 8 1003 87 10000 4.1 190 19:41 28.11.2019
3559 Clouds 8 1003 87 10000 5.7 190 19:23 28.11.2019
3560 Clouds 8 1003 87 10000 5.7 190 18:59 28.11.2019
3561 Clouds 8 1003 93 10000 6.2 200 18:40 28.11.2019
3562 Rain 8 1003 87 8000 1.5 0 18:19 28.11.2019
3563 Rain 8 1003 81 10000 6.2 200 18:00 28.11.2019
3564 Rain 8 1002 81 10000 7.2 200 17:41 28.11.2019
3565 Rain 9 1002 87 10000 5.7 200 17:23 28.11.2019
3566 Rain 9 1002 87 10000 5.7 200 16:58 28.11.2019
3567 Clouds 10 1002 87 10000 4.6 230 16:38 28.11.2019
3568 Rain 10 1002 87 7000 7.7 210 16:19 28.11.2019
3569 -273 0 0 0 0 0 15:55 28.11.2019
3570 Rain 10 1001 71 10000 5.1 210 15:36 28.11.2019
3571 Clouds 10 1001 76 10000 6.2 210 15:18 28.11.2019
3572 Clouds 10 1001 76 10000 6.2 200 14:41 28.11.2019
3573 Clouds 10 1001 81 10000 6.2 200 14:22 28.11.2019
3574 Rain 10 1001 81 10000 6.2 200 13:59 28.11.2019
3575 Rain 10 1001 81 10000 6.2 200 13:59 28.11.2019
3576 Rain 10 1001 76 10000 7.2 200 13:41 28.11.2019
3577 Rain 10 1001 81 10000 4.6 180 13:22 28.11.2019
3578 Rain 10 1001 81 10000 4.6 180 13:22 28.11.2019
3579 Clouds 10 1001 76 10000 7.7 200 12:49 28.11.2019
3580 Clouds 10 1001 76 10000 7.7 200 12:29 28.11.2019
3581 Rain 10 1001 93 10000 4.6 180 11:59 28.11.2019
3582 Rain 10 1001 87 10000 6.2 200 11:41 28.11.2019
3583 Rain 10 1001 93 10000 4.6 180 11:21 28.11.2019
3584 Clouds 10 1001 76 10000 6.2 200 10:59 28.11.2019
3585 Rain 10 1000 76 10000 6.7 200 10:40 28.11.2019
3586 Rain 10 1000 81 10000 5.7 190 10:20 28.11.2019
3587 Rain 10 1000 81 10000 5.7 200 09:42 28.11.2019
3588 Clouds 10 1000 81 10000 5.1 190 09:23 28.11.2019
3589 Clouds 9 1000 81 10000 5.1 190 08:59 28.11.2019
3590 Clouds 9 1000 76 10000 6.2 200 08:40 28.11.2019
3591 Clouds 9 999 81 10000 7.2 200 08:21 28.11.2019
3592 Clouds 9 999 81 10000 4.6 180 07:43 28.11.2019
3593 Clouds 9 999 81 10000 4.6 180 07:25 28.11.2019
3594 Clouds 9 999 87 10000 4.6 190 06:58 28.11.2019
3595 Rain 9 999 76 9000 3.1 210 06:37 28.11.2019
3596 Rain 10 999 81 10000 4.6 200 05:53 28.11.2019
3597 Clouds 10 999 81 10000 3.6 200 05:33 28.11.2019
3598 Rain 10 999 87 10000 3.1 150 03:49 28.11.2019
3599 Rain 10 999 87 8000 4.1 170 02:30 28.11.2019
3600 Rain 10 999 81 10000 4.6 170 01:23 28.11.2019
3601 Clouds 11 999 81 10000 3.6 180 00:39 28.11.2019
3602 Rain 10 999 81 10000 3.6 160 00:18 28.11.2019
3603 Rain 11 999 81 10000 4.1 180 23:38 27.11.2019
3604 Clouds 11 999 87 10000 5.1 180 23:20 27.11.2019
3605 Clouds 11 999 87 10000 5.1 180 22:56 27.11.2019
3606 Rain 11 999 87 10000 5.1 200 22:38 27.11.2019
3607 Rain 11 999 87 10000 5.1 180 22:18 27.11.2019
3608 Rain 11 999 87 10000 5.1 180 21:55 27.11.2019
3609 Clouds 11 999 81 10000 5.7 180 21:37 27.11.2019
3610 Rain 11 999 81 10000 7.2 180 21:18 27.11.2019
3611 Rain 11 999 81 10000 7.2 180 20:56 27.11.2019
3612 Clouds 11 999 71 10000 5.7 180 20:37 27.11.2019
3613 Clouds 11 999 71 10000 5.7 180 20:37 27.11.2019
3614 Rain 11 998 66 10000 8.2 200 20:19 27.11.2019
3615 Clouds 11 999 71 10000 4.6 210 19:56 27.11.2019
3616 Rain 11 998 62 10000 9.3 200 19:37 27.11.2019
3617 Clouds 11 999 76 10000 4.1 190 19:18 27.11.2019
3618 Clouds 11 998 62 10000 8.2 200 18:56 27.11.2019
3619 Clouds 11 998 62 10000 8.2 200 18:36 27.11.2019
3620 Rain 11 998 81 10000 4.6 190 18:18 27.11.2019
3621 Rain 12 998 81 10000 5.7 180 17:55 27.11.2019
3622 Rain 12 998 62 10000 9.3 210 17:37 27.11.2019
3623 Clouds 12 997 62 10000 9.3 210 17:18 27.11.2019
3624 Clouds 12 997 76 10000 8.2 190 16:55 27.11.2019
3625 Clouds 12 997 76 10000 8.2 190 16:55 27.11.2019
3626 Clouds 13 997 58 10000 8.2 200 16:36 27.11.2019
3627 Clouds 12 997 58 10000 8.2 200 16:18 27.11.2019
3628 -273 0 0 0 0 0 15:55 27.11.2019
3629 Clouds 13 997 62 10000 9.8 210 15:37 27.11.2019
3630 Clouds 13 997 62 10000 9.3 210 15:19 27.11.2019
3631 Clouds 13 997 71 10000 6.2 190 14:55 27.11.2019
3632 Clouds 13 997 58 10000 10.3 210 14:37 27.11.2019
3633 Clouds 13 997 71 10000 5.7 180 14:19 27.11.2019
3634 Rain 13 998 71 10000 5.7 200 13:55 27.11.2019
3635 Rain 13 997 62 10000 7.7 210 13:36 27.11.2019
3636 Rain 13 997 58 10000 9.3 200 13:18 27.11.2019
3637 Clouds 13 998 58 10000 10.3 210 12:41 27.11.2019
3638 Clouds 13 998 58 10000 8.2 200 12:21 27.11.2019
3639 Clouds 13 998 62 10000 7.7 200 11:56 27.11.2019
3640 Clouds 12 998 62 10000 7.7 200 11:36 27.11.2019
3641 Rain 10 998 66 10000 7.7 200 11:18 27.11.2019
3642 Rain 10 998 66 10000 6.2 190 10:46 27.11.2019
3643 Clouds 10 999 81 10000 5.1 170 10:24 27.11.2019
3644 Rain 10 999 76 10000 5.7 200 09:57 27.11.2019
3645 Rain 9 999 76 10000 6.2 190 09:39 27.11.2019
3646 Rain 9 998 76 10000 5.7 180 09:18 27.11.2019
3647 Rain 9 998 76 10000 6.2 190 08:42 27.11.2019
3648 Rain 8 998 87 10000 7.7 180 08:23 27.11.2019
3649 Rain 8 998 76 10000 3.1 180 07:49 27.11.2019
3650 Rain 8 1000 87 8000 1 0 07:30 27.11.2019
3651 Rain 8 998 76 10000 3.1 130 06:55 27.11.2019
3652 Rain 8 1000 87 8000 1 0 06:55 27.11.2019
3653 Rain 8 998 76 10000 3.1 130 06:37 27.11.2019
3654 Rain 8 997 76 10000 4.6 160 05:53 27.11.2019
3655 Rain 8 997 76 10000 4.6 160 05:26 27.11.2019
3656 Rain 7 997 81 10000 3.1 200 04:49 27.11.2019
3657 Rain 7 997 81 10000 3.1 200 04:31 27.11.2019
3658 Clouds 7 997 87 10000 1.5 210 03:45 27.11.2019
3659 Clouds 7 997 87 10000 1.5 210 03:20 27.11.2019
3660 Clouds 7 998 87 10000 1 0 02:34 27.11.2019
3661 Clouds 7 1000 87 10000 1.5 0 01:22 27.11.2019
3662 Clouds 7 1000 93 10000 2.1 200 00:40 27.11.2019
3663 Clouds 7 1001 93 10000 1 0 00:22 27.11.2019
3664 Clouds 6 1001 93 10000 2.1 250 23:42 26.11.2019
3665 Clouds 7 1002 100 10000 1.5 210 23:24 26.11.2019
3666 Clouds 7 1002 100 10000 1.5 210 22:55 26.11.2019
3667 Clouds 6 1003 100 10000 1 0 22:36 26.11.2019
3668 Clouds 7 1003 93 10000 1.5 230 22:18 26.11.2019
3669 Clouds 7 1004 100 10000 2.98 142 21:39 26.11.2019
3670 Clouds 7 1004 100 10000 0.5 240 21:21 26.11.2019
3671 Clouds 7 1004 100 10000 0.5 240 20:57 26.11.2019
3672 Clouds 7 1004 93 10000 1 200 20:39 26.11.2019
3673 Clouds 7 1005 87 10000 1 0 20:19 26.11.2019
3674 Clouds 7 1005 87 10000 1 0 19:56 26.11.2019
3675 Clouds 7 1005 87 10000 1.5 290 19:38 26.11.2019
3676 Clouds 7 1005 76 10000 2.1 140 19:20 26.11.2019
3677 Clouds 8 1005 76 10000 2.1 140 18:58 26.11.2019
3678 Clouds 8 1005 81 10000 2.1 150 18:39 26.11.2019
3679 Clouds 8 1005 76 10000 2.1 170 18:21 26.11.2019
3680 Clouds 8 1005 81 10000 1 0 17:59 26.11.2019
3681 Clouds 8 1006 71 10000 1.5 150 17:41 26.11.2019
3682 Clouds 9 1006 71 10000 2.1 170 17:22 26.11.2019
3683 Clouds 10 1006 71 10000 3.1 150 16:57 26.11.2019
3684 Clouds 10 1006 71 10000 2.1 230 16:38 26.11.2019
3685 Clouds 11 1006 76 10000 3.6 180 16:19 26.11.2019
3686 Clouds 11 1006 66 10000 2.6 200 15:59 26.11.2019
3687 Clouds 11 1006 62 10000 3.1 190 15:38 26.11.2019
3688 Clouds 11 1006 66 10000 5.1 180 15:20 26.11.2019
3689 Clouds 12 1006 67 10000 2.6 190 14:59 26.11.2019
3690 Clouds 12 1007 67 10000 3.6 210 14:41 26.11.2019
3691 Clouds 12 1007 71 10000 4.6 170 14:22 26.11.2019
3692 Clouds 12 1007 71 10000 4.1 210 13:43 26.11.2019
3693 Clouds 12 1007 76 10000 3.6 180 13:23 26.11.2019
3694 Clouds 12 1007 76 10000 4.6 180 12:56 26.11.2019
3695 Clouds 11 1008 81 10000 3.1 220 12:36 26.11.2019
3696 Clouds 11 1008 81 10000 1.5 0 12:18 26.11.2019
3697 Clouds 11 1008 81 10000 2.6 180 11:55 26.11.2019
3698 Clouds 10 1008 87 10000 0.5 0 11:36 26.11.2019
3699 Clouds 9 1009 87 10000 1 0 11:18 26.11.2019
3700 Clouds 9 1009 87 10000 2.1 190 10:54 26.11.2019
3701 Clouds 9 1009 87 10000 1.85 181 10:36 26.11.2019
3702 Clouds 8 1009 93 10000 0.5 0 10:18 26.11.2019
3703 Clouds 8 1009 93 10000 0.5 0 09:42 26.11.2019
3704 Clouds 7 1009 100 10000 1 0 09:23 26.11.2019
3705 Clouds 7 1009 93 10000 1.5 270 08:47 26.11.2019
3706 Clouds 7 1010 93 5000 2.6 160 08:28 26.11.2019
3707 Clouds 7 1010 93 6000 2.6 160 07:58 26.11.2019
3708 Mist 7 1010 93 5000 3.1 160 07:40 26.11.2019
3709 Mist 7 1010 93 4500 2.6 170 07:21 26.11.2019
3710 Mist 7 1010 93 5000 2.1 180 06:50 26.11.2019
3711 Clouds 6 1010 93 7000 1.5 180 05:59 26.11.2019
3712 Clouds 7 1009 100 10000 1.5 0 05:26 26.11.2019
3713 Clouds 6 1010 93 10000 1.5 0 03:22 26.11.2019
3714 Clouds 6 1010 100 10000 0.5 0 01:37 26.11.2019
3715 Clouds 6 1011 100 10000 1 0 01:19 26.11.2019
3716 Clouds 6 1011 100 9000 1 200 00:41 26.11.2019
3717 Clouds 6 1011 100 8000 1 0 00:18 26.11.2019
3718 Clouds 6 1011 100 10000 1.5 0 23:38 25.11.2019
3719 Clouds 6 1011 100 6000 1 160 23:19 25.11.2019
3720 Clouds 6 1011 100 6000 1 160 22:54 25.11.2019
3721 Mist 6 1011 100 2800 1 0 22:36 25.11.2019
3722 Fog 6 1011 100 800 1 220 22:18 25.11.2019
3723 Clouds 6 1011 93 7000 1.5 180 21:54 25.11.2019
3724 Clouds 6 1011 93 7000 1.5 190 21:36 25.11.2019
3725 Fog 7 1011 93 500 1 0 21:18 25.11.2019
3726 Fog 7 1011 93 500 1 0 20:54 25.11.2019
3727 Mist 7 1011 100 2400 1.16 197 20:36 25.11.2019
3728 Clouds 7 1011 93 10000 1.5 150 20:18 25.11.2019
3729 Mist 7 1011 100 5000 1.24 181 19:54 25.11.2019
3730 Clouds 7 1011 93 9000 1.5 160 19:36 25.11.2019
3731 Clouds 7 1011 100 9000 1.5 230 19:18 25.11.2019
3732 Clouds 7 1011 100 9000 1.24 181 18:54 25.11.2019
3733 Clouds 7 1010 93 9000 1.24 181 18:36 25.11.2019
3734 Clouds 7 1010 93 9000 1.24 181 18:36 25.11.2019
3735 Clouds 8 1010 87 9000 0.5 230 18:18 25.11.2019
3736 Clouds 8 1010 87 9000 1.24 181 17:54 25.11.2019
3737 Clouds 8 1010 87 9000 1.24 181 17:36 25.11.2019
3738 Clouds 8 1010 87 9000 0.5 220 17:18 25.11.2019
3739 Clouds 9 1010 87 10000 1 230 16:41 25.11.2019
3740 Clouds 9 1010 87 10000 0.71 254 16:23 25.11.2019
3741 Clouds 9 1010 81 10000 1.5 270 15:57 25.11.2019
3742 Clouds 9 1010 81 10000 2.6 270 15:37 25.11.2019
3743 Clouds 10 1009 76 10000 1.5 290 15:19 25.11.2019
3744 Clouds 10 1010 87 10000 1.5 230 14:55 25.11.2019
3745 Clouds 10 1009 76 10000 1 0 14:36 25.11.2019
3746 Clouds 10 1009 81 10000 1 0 14:18 25.11.2019
3747 Clouds 10 1010 81 10000 1 0 13:39 25.11.2019
3748 Clouds 10 1010 87 10000 2.1 120 13:20 25.11.2019
3749 Clouds 10 1010 87 10000 1 0 12:59 25.11.2019
3750 Clouds 9 1010 87 10000 1 0 12:40 25.11.2019
3751 Clouds 9 1010 87 10000 1.5 190 12:20 25.11.2019
3752 Clouds 9 1010 87 10000 1 190 11:56 25.11.2019
3753 Clouds 9 1010 87 10000 2.1 190 11:38 25.11.2019
3754 Clouds 8 1011 93 8000 2.1 170 11:19 25.11.2019
3755 Clouds 7 1010 87 8000 2.1 150 10:42 25.11.2019
3756 Clouds 7 1010 93 10000 1.5 180 10:22 25.11.2019
3757 Clouds 6 1010 93 7000 1 0 09:55 25.11.2019
3758 Clouds 6 1011 93 8000 1 0 09:37 25.11.2019
3759 Clouds 6 1011 93 7000 0.5 0 09:18 25.11.2019
3760 Clouds 6 1011 93 7000 0.5 0 09:18 25.11.2019
3761 Clouds 5 1010 100 7000 0.8 258 08:39 25.11.2019
3762 Mist 5 1010 100 5000 1 190 08:20 25.11.2019
3763 Clouds 5 1010 100 7000 1 250 07:42 25.11.2019
3764 Clouds 5 1010 100 7000 1 250 07:24 25.11.2019
3765 Clouds 5 1010 100 7000 1 210 06:48 25.11.2019
3766 Clouds 5 1010 100 6000 0.43 144 06:21 25.11.2019
3767 Clouds 5 1010 100 6000 0.43 144 06:21 25.11.2019
3768 Clouds 5 1010 100 9000 0.5 160 05:39 25.11.2019
3769 Clouds 5 1010 100 6000 0.34 268 04:52 25.11.2019
3770 Clouds 5 1010 100 6000 0.5 360 02:52 25.11.2019
3771 Clouds 5 1010 100 6000 1 340 02:26 25.11.2019
3772 Clouds 5 1010 100 6000 0.5 190 01:40 25.11.2019
3773 Clouds 5 1010 100 6000 0.5 190 01:21 25.11.2019
3774 Clouds 5 1010 100 6000 0.58 273 00:24 25.11.2019
3775 Clouds 4 1010 100 9000 0.5 190 23:59 24.11.2019
3776 Mist 4 1010 100 5000 0.58 273 23:41 24.11.2019
3777 Mist 4 1010 100 4300 0.51 298 23:19 24.11.2019
3778 Mist 4 1010 100 4300 0.51 298 22:56 24.11.2019
3779 Clouds 4 1010 100 6000 0.51 298 22:37 24.11.2019
3780 Mist 4 1010 100 4500 1 250 22:18 24.11.2019
3781 Mist 4 1010 100 4500 1 250 22:18 24.11.2019
3782 Mist 4 1010 100 4500 1 250 21:54 24.11.2019
3783 Mist 4 1010 93 3300 1 0 21:36 24.11.2019
3784 Mist 4 1010 93 5000 1 0 21:18 24.11.2019
3785 Mist 4 1010 93 5000 1 0 20:54 24.11.2019
3786 Mist 4 1010 100 3900 2.1 350 20:36 24.11.2019
3787 Fog 4 1010 100 7000 0.75 193 20:18 24.11.2019
3788 Clouds 5 1010 93 9000 0.5 0 19:54 24.11.2019
3789 Clouds 5 1010 93 9000 0.5 0 19:36 24.11.2019
3790 Clouds 5 1010 100 10000 0.75 193 19:18 24.11.2019
3791 Clouds 5 1009 93 10000 1 150 18:54 24.11.2019
3792 Clouds 5 1009 93 10000 1 150 18:36 24.11.2019
3793 Clouds 5 1009 93 10000 0.75 193 18:18 24.11.2019
3794 Clouds 6 1009 100 10000 0.5 240 17:41 24.11.2019
3795 Clouds 7 1008 87 10000 0.55 310 17:23 24.11.2019
3796 Clouds 7 1008 87 10000 0.55 310 16:59 24.11.2019
3797 Clouds 7 1009 87 10000 1 250 16:41 24.11.2019
3798 Clouds 8 1008 81 10000 0.5 0 16:23 24.11.2019
3799 Clouds 8 1009 87 10000 0.5 0 15:57 24.11.2019
3800 Clouds 9 1008 81 10000 0.55 310 15:39 24.11.2019
3801 Clouds 9 1008 81 10000 0.5 0 15:21 24.11.2019
3802 Clouds 9 1008 81 10000 1.5 0 14:40 24.11.2019
3803 Clouds 9 1008 81 10000 1.5 0 14:20 24.11.2019
3804 Clouds 9 1008 81 10000 1.5 0 14:20 24.11.2019
3805 Clouds 9 1008 81 10000 1 0 13:59 24.11.2019
3806 Clouds 8 1008 87 10000 0.5 0 13:38 24.11.2019
3807 Clouds 8 1008 87 10000 0.5 0 13:20 24.11.2019
3808 Clouds 8 1008 81 10000 0.5 0 12:56 24.11.2019
3809 Clouds 7 1007 81 10000 1.5 110 12:38 24.11.2019
3810 Clouds 7 1007 81 10000 1.42 285 12:18 24.11.2019
3811 Clouds 7 1007 87 10000 1.5 0 11:55 24.11.2019
3812 Clouds 6 1007 87 10000 1.5 0 11:36 24.11.2019
3813 Clouds 6 1007 81 10000 0.53 263 11:18 24.11.2019
3814 Clouds 5 1007 93 7000 1 0 10:44 24.11.2019
3815 Clouds 5 1007 93 7000 1 0 10:26 24.11.2019
3816 Clouds 4 1007 93 7000 1 0 10:26 24.11.2019
3817 Clouds 4 1006 93 7000 0.53 263 09:54 24.11.2019
3818 Clouds 4 1006 93 7000 0.53 263 09:54 24.11.2019
3819 Clouds 3 1006 85 7000 0.5 0 09:36 24.11.2019
3820 Clouds 3 1006 85 7000 0.5 0 09:36 24.11.2019
3821 Clouds 2 1006 85 6000 0.53 263 09:18 24.11.2019
3822 Clouds 2 1006 85 6000 0.53 263 09:18 24.11.2019
3823 Mist 2 1005 85 5000 1 0 08:42 24.11.2019
3824 Mist 1 1005 92 5000 1 0 08:21 24.11.2019
3825 Mist 1 1005 92 4900 1 0 07:52 24.11.2019
3826 Clouds 1 1005 92 6000 0.52 167 07:34 24.11.2019
3827 Clouds 1 1004 92 6000 1 0 06:57 24.11.2019
3828 Mist 1 1004 92 5000 1 0 05:59 24.11.2019
3829 Mist 1 1003 89 2400 1.07 155 04:47 24.11.2019
3830 Mist 2 1002 100 5000 2.1 140 02:50 24.11.2019
3831 Mist 2 1002 100 5000 2.1 140 02:50 24.11.2019
3832 Mist 2 1002 100 4600 1.5 180 01:58 24.11.2019
3833 Mist 2 1002 100 4500 0.17 318 01:39 24.11.2019
3834 Mist 2 1001 100 4300 1 0 01:20 24.11.2019
3835 Mist 2 1001 100 4500 1 0 00:46 24.11.2019
3836 Mist 2 1001 93 5000 0.17 318 00:23 24.11.2019
3837 Mist 2 1000 100 5000 1.5 0 23:44 23.11.2019
3838 Mist 2 1000 100 5000 1.5 0 23:22 23.11.2019
3839 Clouds 2 1000 93 6000 1.5 160 22:58 23.11.2019
3840 Clouds 2 1000 93 6000 1.5 160 22:58 23.11.2019
3841 Mist 2 1000 93 5000 1 0 22:39 23.11.2019
3842 Mist 2 1000 93 5000 1 0 22:21 23.11.2019
3843 Clouds 3 1000 100 6000 1.5 180 21:58 23.11.2019
3844 Clouds 3 1000 100 6000 1.5 150 21:40 23.11.2019
3845 Clouds 3 1000 100 6000 1.5 150 21:21 23.11.2019
3846 Mist 3 999 93 5000 1 210 20:55 23.11.2019
3847 Clouds 3 999 100 6000 1.5 220 20:36 23.11.2019
3848 Clouds 3 999 100 7000 1 0 20:18 23.11.2019
3849 Clouds 3 999 100 7000 1 0 19:54 23.11.2019
3850 Clouds 3 999 93 7000 1.5 170 19:36 23.11.2019
3851 Clouds 3 998 93 9000 1 150 19:18 23.11.2019
3852 Clouds 4 998 93 9000 1 170 18:39 23.11.2019
3853 Clouds 4 998 93 10000 1.5 180 18:20 23.11.2019
3854 Clouds 4 998 93 10000 1.5 180 18:20 23.11.2019
3855 Clouds 4 997 86 10000 1 170 17:54 23.11.2019
3856 Clouds 4 997 86 10000 1 170 17:36 23.11.2019
3857 Clouds 4 997 86 10000 1 170 17:36 23.11.2019
3858 Clouds 4 997 86 10000 1.5 230 17:18 23.11.2019
3859 Clouds 5 997 86 10000 1.5 230 16:55 23.11.2019
3860 Clouds 5 996 86 10000 1 220 16:36 23.11.2019
3861 Clouds 5 996 86 10000 1 220 16:36 23.11.2019
3862 Clouds 5 996 81 10000 1.34 103 16:18 23.11.2019
3863 Clouds 5 996 81 10000 1.34 103 15:56 23.11.2019
3864 Clouds 5 996 81 10000 0.5 0 15:37 23.11.2019
3865 Clouds 5 996 81 10000 1.5 20 15:18 23.11.2019
3866 Clouds 5 995 86 10000 1 0 14:42 23.11.2019
3867 Clouds 5 995 86 10000 2.6 10 14:21 23.11.2019
3868 Clouds 5 995 86 10000 2.6 10 13:59 23.11.2019
3869 Clouds 5 995 86 10000 1.5 0 13:40 23.11.2019
3870 Clouds 5 995 86 10000 3.1 30 13:19 23.11.2019
3871 Clouds 6 995 86 10000 2.1 340 12:44 23.11.2019
3872 Clouds 6 995 86 10000 2.1 340 12:24 23.11.2019
3873 Clouds 6 996 93 10000 1.5 0 11:56 23.11.2019
3874 Clouds 5 996 93 10000 2.6 10 11:38 23.11.2019
3875 Clouds 4 996 93 10000 2.1 20 11:18 23.11.2019
3876 Clouds 4 996 93 10000 2.1 20 11:18 23.11.2019
3877 Clouds 3 996 86 9000 2.1 340 10:43 23.11.2019
3878 Clouds 3 996 86 9000 2.1 340 10:20 23.11.2019
3879 Clouds 3 996 93 8000 1.5 330 09:41 23.11.2019
3880 Clouds 3 996 93 6000 1.5 330 09:19 23.11.2019
3881 Mist 3 996 100 5000 1.5 350 08:42 23.11.2019
3882 Mist 2 996 100 5000 1.5 350 08:19 23.11.2019
3883 Clouds 3 996 93 7000 1.5 320 07:52 23.11.2019
3884 Clouds 3 997 93 6000 1.5 20 07:34 23.11.2019
3885 Clouds 3 997 100 6000 1 0 06:43 23.11.2019
3886 Clouds 3 997 100 7000 2.6 10 06:19 23.11.2019
3887 Clouds 3 998 93 8000 1 0 05:48 23.11.2019
3888 Clouds 3 998 93 8000 1 0 05:28 23.11.2019
3889 Clouds 3 998 100 10000 2.1 10 04:47 23.11.2019
3890 Clouds 3 998 100 10000 2.1 10 04:26 23.11.2019
3891 Clouds 3 999 93 9000 2.6 360 02:45 23.11.2019
3892 Clouds 3 1000 93 10000 1 0 01:42 23.11.2019
3893 Clouds 4 1000 93 10000 2.6 10 01:21 23.11.2019
3894 Clouds 4 1000 100 8000 1.5 350 00:40 23.11.2019
3895 Clouds 4 1001 100 9000 1.5 350 00:18 23.11.2019
3896 Clouds 4 1001 93 10000 2.1 360 23:42 22.11.2019
3897 Clouds 4 1001 93 10000 3.1 10 23:20 22.11.2019
3898 Clouds 4 1001 93 10000 3.1 10 22:57 22.11.2019
3899 Clouds 4 1001 93 9000 2.6 20 22:38 22.11.2019
3900 Clouds 4 1001 93 9000 2.6 20 22:20 22.11.2019
3901 Clouds 4 1002 93 9000 1 0 21:58 22.11.2019
3902 Clouds 4 1002 100 9000 1.5 40 21:39 22.11.2019
3903 Clouds 4 1002 100 9000 2.1 20 21:20 22.11.2019
3904 Clouds 4 1002 93 10000 1 20 20:43 22.11.2019
3905 Clouds 4 1002 93 10000 1 20 20:22 22.11.2019
3906 Clouds 4 1002 93 10000 1 20 20:22 22.11.2019
3907 Clouds 4 1002 93 10000 1.5 350 19:57 22.11.2019
3908 Clouds 4 1003 93 10000 2.6 40 19:38 22.11.2019
3909 Clouds 4 1003 93 10000 1.5 340 19:19 22.11.2019
3910 Clouds 4 1003 93 10000 1.5 340 19:19 22.11.2019
3911 Clouds 5 1003 93 10000 1.5 340 18:58 22.11.2019
3912 Clouds 4 1003 100 10000 3.1 330 18:36 22.11.2019
3913 Clouds 5 1003 100 10000 3.1 60 18:18 22.11.2019
3914 Clouds 5 1004 93 10000 2.6 20 17:40 22.11.2019
3915 Clouds 6 1004 93 10000 2.6 350 17:22 22.11.2019
3916 Clouds 6 1004 87 10000 3.6 360 16:48 22.11.2019
3917 Clouds 7 1004 87 10000 3.6 360 16:29 22.11.2019
3918 Clouds 7 1005 81 10000 4.1 20 15:47 22.11.2019
3919 Clouds 8 1005 81 10000 4.1 20 15:25 22.11.2019
3920 Clouds 8 1005 81 10000 3.6 20 14:58 22.11.2019
3921 Clouds 8 1005 81 10000 3.1 10 14:39 22.11.2019
3922 Clouds 8 1005 76 10000 2.1 10 14:21 22.11.2019
3923 Clouds 8 1006 76 10000 2.6 30 13:59 22.11.2019
3924 Clouds 8 1006 81 10000 1.5 0 13:37 22.11.2019
3925 Clouds 8 1006 81 10000 1.5 20 13:19 22.11.2019
3926 Clouds 8 1006 81 10000 1.5 20 12:57 22.11.2019
3927 Clouds 8 1007 87 8000 2.1 360 12:39 22.11.2019
3928 Clouds 8 1007 87 8000 2.6 20 12:19 22.11.2019
3929 Clouds 8 1007 87 8000 2.6 20 12:19 22.11.2019
3930 Clouds 8 1007 87 10000 1 0 11:56 22.11.2019
3931 Clouds 8 1008 93 8000 1.5 30 11:36 22.11.2019
3932 Clouds 6 1008 87 8000 1 0 11:18 22.11.2019
3933 Clouds 5 1008 93 7000 0.5 0 10:42 22.11.2019
3934 Clouds 5 1008 87 6000 2.27 121 10:23 22.11.2019
3935 Clouds 5 1008 100 7000 1 0 09:59 22.11.2019
3936 Clouds 5 1008 100 7000 2.1 290 09:40 22.11.2019
3937 Mist 4 1008 100 5000 1 0 09:21 22.11.2019
3938 Mist 4 1008 100 5000 1 0 08:57 22.11.2019
3939 Mist 4 1008 93 3000 2.1 80 08:38 22.11.2019
3940 Mist 4 1009 100 2500 1.5 30 08:20 22.11.2019
3941 Mist 4 1008 100 5000 0.5 0 07:41 22.11.2019
3942 Mist 3 1008 100 5000 0.5 0 07:19 22.11.2019
3943 Clouds 3 1008 93 6000 1 0 06:42 22.11.2019
3944 Clouds 3 1008 93 6000 1 0 06:21 22.11.2019
3945 Clouds 3 1008 100 7000 1 0 05:32 22.11.2019
3946 Clouds 3 1008 86 9000 2.1 180 03:26 22.11.2019
3947 Rain 3 1008 93 10000 1.5 0 02:39 22.11.2019
3948 Clouds 3 1008 100 10000 1.5 220 02:20 22.11.2019
3949 Clouds 3 1008 100 9000 2.6 220 01:43 22.11.2019
3950 Clouds 3 1008 100 6000 0.5 0 01:18 22.11.2019
3951 Clouds 3 1008 100 6000 1 0 00:43 22.11.2019
3952 Clouds 3 1008 100 6000 1 0 00:22 22.11.2019
3953 Fog 3 1008 93 900 1 0 23:43 21.11.2019
3954 Fog 3 1008 93 900 1 0 23:24 21.11.2019
3955 Mist 3 1009 100 4800 2.1 129 22:56 21.11.2019
3956 Clouds 3 1009 93 6000 2.1 129 22:38 21.11.2019
3957 Clouds 3 1009 100 6000 2.1 129 22:19 21.11.2019
3958 Clouds 4 1009 100 6000 2.1 129 21:55 21.11.2019
3959 Clouds 3 1009 100 6000 0.5 0 21:36 21.11.2019
3960 Mist 4 1009 93 5000 0.5 0 21:18 21.11.2019
3961 Mist 3 1009 93 5000 0.5 0 20:57 21.11.2019
3962 Mist 3 1009 93 5000 1.5 200 20:37 21.11.2019
3963 Mist 3 1009 93 5000 1.5 200 20:37 21.11.2019
3964 Clouds 4 1009 93 6000 1 0 20:18 21.11.2019
3965 Clouds 4 1009 93 6000 1 0 19:58 21.11.2019
3966 Mist 3 1009 100 4500 1 260 19:38 21.11.2019
3967 Clouds 4 1009 93 6000 2.01 117 19:20 21.11.2019
3968 Clouds 4 1009 93 6000 1.5 80 18:55 21.11.2019
3969 Clouds 4 1009 93 6000 1.5 80 18:37 21.11.2019
3970 Clouds 4 1009 93 6000 1.5 20 18:18 21.11.2019
3971 Clouds 4 1009 93 7000 1.5 30 17:41 21.11.2019
3972 Clouds 4 1009 93 7000 1.5 30 17:41 21.11.2019
3973 Clouds 5 1008 86 7000 1.5 20 17:22 21.11.2019
3974 Clouds 5 1008 86 7000 1.5 20 16:59 21.11.2019
3975 Clouds 5 1008 86 7000 1.5 20 16:59 21.11.2019
3976 Clouds 6 1008 87 8000 1 30 16:41 21.11.2019
3977 Clouds 6 1008 87 8000 1.5 330 16:21 21.11.2019
3978 Clouds 6 1008 87 8000 1.5 330 15:56 21.11.2019
3979 Clouds 6 1008 87 8000 1.5 330 15:38 21.11.2019
3980 Clouds 7 1008 81 10000 1 0 15:19 21.11.2019
3981 Clouds 7 1008 81 10000 1 0 14:55 21.11.2019
3982 Clouds 7 1008 81 8000 1 0 14:36 21.11.2019
3983 Clouds 6 1009 81 10000 0.5 0 14:18 21.11.2019
3984 Clouds 6 1009 86 8000 1.5 230 13:39 21.11.2019
3985 Clouds 6 1009 86 8000 2.1 210 13:20 21.11.2019
3986 Clouds 6 1009 93 7000 1 0 12:56 21.11.2019
3987 Clouds 6 1010 86 8000 1 0 12:37 21.11.2019
3988 Clouds 5 1010 93 7000 2.1 230 12:19 21.11.2019
3989 Clouds 5 1010 93 7000 1.5 200 11:41 21.11.2019
3990 Clouds 5 1010 93 7000 1.5 200 11:41 21.11.2019
3991 Clouds 4 1011 93 7000 2.1 210 11:21 21.11.2019
3992 Clouds 4 1011 93 7000 2.1 210 10:59 21.11.2019
3993 Clouds 3 1010 100 6000 1 230 10:41 21.11.2019
3994 Mist 3 1010 100 5000 1.5 0 10:22 21.11.2019
3995 Clouds 2 1011 93 5000 2.1 220 09:56 21.11.2019
3996 Mist 2 1011 93 4000 1.5 0 09:38 21.11.2019
3997 Mist 2 1010 100 4100 1.5 220 09:19 21.11.2019
3998 Mist 1 1011 100 1500 1.5 240 08:41 21.11.2019
3999 Mist 1 1011 100 2500 1.5 210 08:20 21.11.2019
4000 Mist 1 1010 100 2100 1.5 0 07:42 21.11.2019
4001 Mist 1 1010 100 2100 1 0 07:18 21.11.2019
4002 Mist 1 1010 100 2100 1 0 06:57 21.11.2019
4003 Mist 1 1010 100 1100 1.5 140 06:34 21.11.2019
4004 Fog 1 1011 100 800 2.1 160 05:37 21.11.2019
4005 Mist 1 1011 93 1900 1.5 0 03:34 21.11.2019
4006 Mist 1 1011 93 5000 2.1 220 02:42 21.11.2019
4007 Mist 1 1011 93 5000 2.1 220 02:20 21.11.2019
4008 Rain 1 1012 93 6000 1.5 130 01:42 21.11.2019
4009 Clouds 1 1012 100 7000 0.5 0 00:55 21.11.2019
4010 Clouds 1 1012 100 7000 0.5 0 00:55 21.11.2019
4011 Mist 1 1012 100 5000 1.47 143 00:22 21.11.2019
4012 Mist 1 1012 100 4300 1 0 23:59 20.11.2019
4013 Mist 1 1012 93 4500 1 0 23:40 20.11.2019
4014 Mist 2 1012 93 4500 1 0 23:21 20.11.2019
4015 Mist 2 1013 100 2500 1.5 330 22:55 20.11.2019
4016 Mist 2 1013 93 4600 1 0 22:37 20.11.2019
4017 Mist 2 1013 93 5000 1.5 40 22:19 20.11.2019
4018 Mist 2 1013 93 5000 1.5 40 21:57 20.11.2019
4019 Clouds 2 1013 93 6000 1.5 30 21:38 20.11.2019
4020 Mist 2 1013 93 5000 1.5 360 21:19 20.11.2019
4021 Mist 2 1013 93 5000 1.5 360 20:55 20.11.2019
4022 Mist 2 1013 93 5000 1.5 360 20:55 20.11.2019
4023 Mist 2 1013 93 5000 1.5 350 20:37 20.11.2019
4024 Mist 2 1013 93 5000 1.5 350 20:37 20.11.2019
4025 Mist 2 1013 100 2400 1.5 270 20:19 20.11.2019
4026 Clouds 2 1013 93 6000 1.5 20 19:55 20.11.2019
4027 Mist 2 1013 100 2700 1 290 19:36 20.11.2019
4028 Mist 2 1013 93 3000 1 290 19:18 20.11.2019
4029 Mist 2 1013 93 3000 1 290 18:57 20.11.2019
4030 Mist 2 1014 100 2800 1 300 18:38 20.11.2019
4031 Mist 2 1014 100 2800 0.5 0 18:20 20.11.2019
4032 Mist 2 1014 100 2800 0.5 0 17:55 20.11.2019
4033 Mist 2 1014 100 3000 0.5 0 17:37 20.11.2019
4034 Mist 2 1014 100 2300 0.5 0 17:18 20.11.2019
4035 Mist 2 1014 100 2100 0.5 0 16:41 20.11.2019
4036 Clouds 3 1014 100 9000 2.1 30 16:20 20.11.2019
4037 Clouds 3 1014 93 9000 1.5 0 15:58 20.11.2019
4038 Fog 3 1014 100 600 1 0 15:40 20.11.2019
4039 Fog 3 1014 100 500 1.5 0 15:20 20.11.2019
4040 Fog 3 1014 100 500 1.5 0 14:58 20.11.2019
4041 Fog 3 1014 100 500 2.1 40 14:39 20.11.2019
4042 Clouds 3 1014 100 9000 2.1 50 14:21 20.11.2019
4043 Clouds 3 1014 100 10000 2.1 30 13:57 20.11.2019
4044 Fog 2 1015 75 800 2.6 20 13:38 20.11.2019
4045 Clouds 2 1015 100 8000 1.5 10 13:19 20.11.2019
4046 Fog 3 1015 78 350 2.1 40 12:42 20.11.2019
4047 Mist 2 1015 100 5000 2.1 360 12:24 20.11.2019
4048 Fog 2 1016 78 350 2.1 30 11:57 20.11.2019
4049 Fog 2 1016 78 500 3.6 20 11:38 20.11.2019
4050 Fog 2 1016 86 350 3.6 40 11:18 20.11.2019
4051 Fog 2 1016 86 650 2.6 20 10:55 20.11.2019
4052 Fog 1 1016 86 300 3.1 40 10:36 20.11.2019
4053 Fog 1 1017 100 250 2.6 50 10:18 20.11.2019
4054 Fog 1 1017 100 200 2.6 40 09:43 20.11.2019
4055 Fog 1 1017 100 250 2.6 40 09:21 20.11.2019
4056 Fog 1 1017 100 250 2.6 40 08:56 20.11.2019
4057 Fog 1 1017 100 300 2.6 40 08:37 20.11.2019
4058 Fog 1 1016 100 350 1.5 20 08:19 20.11.2019
4059 Fog 1 1017 100 450 1 0 07:45 20.11.2019
4060 Fog 1 1017 100 450 1 0 07:25 20.11.2019
4061 Fog 1 1017 100 700 1.5 10 06:48 20.11.2019
4062 Clouds 1 1017 100 10000 2.1 360 06:22 20.11.2019
4063 Clouds 1 1017 92 10000 1 0 05:26 20.11.2019
4064 Clouds 1 1017 93 10000 1 0 03:36 20.11.2019
4065 Clouds 2 1017 94 10000 1.5 330 02:21 20.11.2019
4066 Clouds 2 1018 94 10000 3.1 290 01:33 20.11.2019
4067 Clouds 2 1018 94 10000 2.6 290 00:41 20.11.2019
4068 Clouds 1 1018 94 10000 3.1 280 23:55 19.11.2019
4069 Clouds 2 1018 93 10000 2.6 290 23:26 19.11.2019
4070 Clouds 2 1018 93 10000 3.1 280 22:59 19.11.2019
4071 Clouds 2 1018 93 10000 3.1 290 22:41 19.11.2019
4072 Clouds 2 1018 93 10000 3.1 290 22:19 19.11.2019
4073 Clouds 2 1018 93 10000 3.1 290 22:19 19.11.2019
4074 Clouds 2 1018 93 10000 3.1 290 22:19 19.11.2019
4075 Clouds 2 1018 100 10000 1.5 0 21:57 19.11.2019
4076 Clouds 2 1018 100 10000 1.5 0 21:38 19.11.2019
4077 Clouds 3 1018 100 10000 1.5 0 21:19 19.11.2019
4078 Clouds 3 1019 100 10000 1.86 109 21:19 19.11.2019
4079 Clouds 3 1018 100 10000 1.5 0 21:19 19.11.2019
4080 Clouds 3 1019 100 10000 1.86 109 20:56 19.11.2019
4081 Clouds 3 1019 100 10000 1.86 109 20:56 19.11.2019
4082 Clouds 3 1019 93 10000 1.5 350 20:38 19.11.2019
4083 Rain 4 1019 93 10000 1.26 81 20:20 19.11.2019
4084 Rain 4 1018 93 10000 1.5 360 19:57 19.11.2019
4085 Rain 4 1018 93 10000 1.5 360 19:57 19.11.2019
4086 Rain 4 1019 93 10000 1.26 81 19:39 19.11.2019
4087 Rain 4 1019 100 10000 1 340 19:19 19.11.2019
4088 Clouds 4 1018 86 10000 2.1 30 18:55 19.11.2019
4089 Clouds 4 1018 93 10000 0.5 0 18:36 19.11.2019
4090 Clouds 4 1018 87 10000 1 40 18:18 19.11.2019
4091 Clouds 4 1018 81 10000 2.1 50 17:56 19.11.2019
4092 Clouds 4 1018 93 10000 1.5 360 17:37 19.11.2019
4093 Clouds 5 1018 87 10000 1 20 17:18 19.11.2019
4094 Clouds 5 1018 81 10000 1 0 16:54 19.11.2019
4095 Clouds 5 1018 87 10000 1.5 360 16:36 19.11.2019
4096 Clouds 6 1018 87 10000 2.6 360 16:18 19.11.2019
4097 Rain 6 1018 81 10000 2.1 320 15:41 19.11.2019
4098 Rain 6 1017 81 10000 1 0 15:23 19.11.2019
4099 Rain 6 1017 81 10000 0.5 0 14:56 19.11.2019
4100 Rain 6 1017 81 10000 0.5 0 14:37 19.11.2019
4101 Rain 6 1017 81 10000 1 0 14:19 19.11.2019
4102 Rain 6 1018 81 10000 0.5 0 13:41 19.11.2019
4103 Rain 6 1018 81 10000 1 0 13:20 19.11.2019
4104 Rain 6 1018 81 10000 1 0 13:20 19.11.2019
4105 Rain 6 1018 81 10000 1 0 13:20 19.11.2019
4106 Rain 6 1018 81 10000 1 0 13:20 19.11.2019
4107 Clouds 6 1018 87 10000 1.5 190 12:42 19.11.2019
4108 Clouds 6 1017 87 10000 1 0 12:23 19.11.2019
4109 Clouds 6 1018 81 10000 2.6 200 11:59 19.11.2019
4110 Clouds 5 1018 81 10000 2.1 200 11:39 19.11.2019
4111 Clouds 5 1018 93 10000 1 0 11:20 19.11.2019
4112 Clouds 4 1018 81 10000 2.1 200 10:58 19.11.2019
4113 Clouds 4 1018 86 10000 1.5 0 10:40 19.11.2019
4114 Clouds 4 1017 86 10000 2.1 190 10:20 19.11.2019
4115 Clouds 3 1017 86 10000 2.1 140 09:42 19.11.2019
4116 Rain 3 1017 86 5000 1 0 09:20 19.11.2019
4117 Rain 3 1017 100 10000 1.14 330 08:56 19.11.2019
4118 Clouds 3 1017 93 10000 1 210 08:38 19.11.2019
4119 Clouds 2 1017 93 10000 0.71 130 08:20 19.11.2019
4120 Clouds 2 1016 93 10000 1.5 0 07:42 19.11.2019
4121 Clouds 2 1016 93 10000 1.5 0 07:23 19.11.2019
4122 Clouds 2 1016 93 10000 0.71 130 06:54 19.11.2019
4123 Clouds 2 1016 93 10000 1 120 06:35 19.11.2019
4124 Clouds 1 1016 100 10000 0.5 130 05:51 19.11.2019
4125 Clouds 1 1016 93 10000 1.84 143 04:48 19.11.2019
4126 Clouds 1 1016 92 9000 1.84 143 03:35 19.11.2019
4127 Mist 1 1015 92 4100 0.5 0 02:59 19.11.2019
4128 Clouds 1 1015 100 10000 1.5 170 02:33 19.11.2019
4129 Clouds 2 1015 93 10000 0.5 0 01:47 19.11.2019
4130 Clouds 3 1016 86 10000 4.1 170 00:41 19.11.2019
4131 Clouds 3 1015 86 10000 4.6 170 00:19 19.11.2019
4132 Clouds 3 1015 86 10000 3.6 180 23:38 18.11.2019
4133 Clouds 3 1015 86 10000 4.6 180 23:19 18.11.2019
4134 Clouds 3 1015 86 10000 5.1 180 22:46 18.11.2019
4135 Clouds 3 1015 86 10000 5.1 180 22:24 18.11.2019
4136 Clouds 3 1015 93 10000 2.1 190 21:57 18.11.2019
4137 Clouds 3 1015 93 10000 0.5 0 21:39 18.11.2019
4138 Clouds 3 1014 93 10000 0.5 0 21:20 18.11.2019
4139 Clouds 3 1014 93 10000 0.5 0 20:57 18.11.2019
4140 Clouds 3 1014 86 10000 2.1 240 20:39 18.11.2019
4141 Clouds 4 1014 75 10000 4.1 200 20:19 18.11.2019
4142 Clouds 4 1014 75 10000 4.1 200 19:57 18.11.2019
4143 Clouds 4 1013 75 10000 5.1 210 19:38 18.11.2019
4144 Clouds 4 1013 75 10000 5.1 210 19:20 18.11.2019
4145 Clouds 4 1013 75 10000 5.1 210 18:56 18.11.2019
4146 Clouds 4 1013 81 10000 5.7 210 18:38 18.11.2019
4147 Clouds 4 1013 86 10000 3.1 190 18:19 18.11.2019
4148 Clouds 4 1013 86 10000 3.1 190 18:19 18.11.2019
4149 Clouds 5 1013 81 10000 6.2 210 17:55 18.11.2019
4150 Clouds 5 1013 81 10000 6.2 210 17:37 18.11.2019
4151 Clouds 5 1012 81 10000 5.1 210 17:18 18.11.2019
4152 Clouds 5 1012 81 10000 5.1 210 16:42 18.11.2019
4153 Clouds 5 1012 81 10000 5.1 210 16:24 18.11.2019
4154 Clouds 5 1012 81 10000 6.2 210 15:58 18.11.2019
4155 Clouds 5 1011 81 10000 5.7 200 15:39 18.11.2019
4156 Snow 5 1011 75 10000 4.1 230 15:20 18.11.2019
4157 Clouds 5 1011 81 10000 5.1 200 14:56 18.11.2019
4158 Clouds 5 1011 81 10000 5.7 210 14:37 18.11.2019
4159 Clouds 5 1011 81 10000 6.7 210 14:18 18.11.2019
4160 Clouds 5 1010 81 10000 6.2 210 13:42 18.11.2019
4161 Clouds 5 1010 81 10000 6.2 210 13:23 18.11.2019
4162 Rain 5 1010 86 10000 6.2 200 12:40 18.11.2019
4163 Rain 5 1010 86 10000 4.6 200 12:20 18.11.2019
4164 Rain 5 1010 86 10000 4.1 200 11:57 18.11.2019
4165 Rain 5 1010 86 10000 6.2 200 11:38 18.11.2019
4166 Rain 4 1010 93 10000 4.1 190 11:20 18.11.2019
4167 Rain 3 1010 86 10000 6.2 200 10:44 18.11.2019
4168 Rain 3 1009 93 10000 5.1 180 10:25 18.11.2019
4169 Rain 3 1009 93 10000 5.7 200 09:58 18.11.2019
4170 Rain 3 1009 93 10000 4.6 200 09:38 18.11.2019
4171 Rain 3 1008 100 10000 5.7 190 09:20 18.11.2019
4172 Rain 2 1008 100 10000 5.7 190 08:57 18.11.2019
4173 Rain 2 1008 93 10000 5.1 190 08:39 18.11.2019
4174 Rain 2 1008 93 10000 5.7 190 08:19 18.11.2019
4175 Rain 2 1007 100 10000 5.1 190 07:45 18.11.2019
4176 Rain 2 1007 100 10000 5.1 190 07:25 18.11.2019
4177 Rain 2 1006 100 10000 3.1 190 06:49 18.11.2019
4178 Rain 2 1006 93 7000 3.6 180 06:28 18.11.2019
4179 Rain 2 1006 93 9000 3.93 228 05:44 18.11.2019
4180 Rain 2 1005 93 10000 1 0 03:59 18.11.2019
4181 Clouds 3 1005 100 10000 1.56 211 01:47 18.11.2019
4182 Clouds 3 1005 100 10000 1.56 211 01:25 18.11.2019
4183 Clouds 3 1005 100 10000 2.6 170 00:20 18.11.2019
4184 Drizzle 3 1005 100 10000 3.1 210 23:41 17.11.2019
4185 Drizzle 3 1005 100 10000 3.1 210 23:23 17.11.2019
4186 Clouds 3 1005 93 10000 3.1 160 22:58 17.11.2019
4187 Clouds 3 1005 93 10000 1.5 160 22:39 17.11.2019
4188 Clouds 3 1005 93 10000 1.5 160 22:21 17.11.2019
4189 Clouds 2 1005 93 10000 1.5 160 21:57 17.11.2019
4190 Clouds 2 1005 93 10000 1.5 160 21:57 17.11.2019
4191 Rain 2 1005 100 10000 1.5 170 21:39 17.11.2019
4192 Rain 2 1005 100 10000 2.6 180 21:18 17.11.2019
4193 Rain 2 1005 100 10000 2.6 180 20:55 17.11.2019
4194 Rain 2 1005 100 10000 2.6 180 20:55 17.11.2019
4195 Drizzle 3 1005 93 10000 2.6 170 20:37 17.11.2019
4196 Rain 3 1005 93 10000 3.1 180 20:19 17.11.2019
4197 Rain 2 1005 93 10000 3.1 180 19:56 17.11.2019
4198 Rain 2 1004 93 9000 2.6 190 19:37 17.11.2019
4199 Rain 3 1004 93 9000 2.6 190 19:19 17.11.2019
4200 Rain 3 1004 100 10000 3.1 190 18:55 17.11.2019
4201 Rain 3 1004 100 10000 3.1 190 18:36 17.11.2019
4202 Rain 3 1004 93 7000 2.6 210 18:18 17.11.2019
4203 Rain 3 1004 93 7000 2.6 210 17:57 17.11.2019
4204 Rain 3 1004 93 6000 2.6 180 17:38 17.11.2019
4205 Rain 3 1004 100 1500 0.5 0 17:19 17.11.2019
4206 Rain 3 1004 100 1500 0.5 0 16:57 17.11.2019
4207 Rain 3 1004 93 2000 1.5 0 16:38 17.11.2019
4208 Drizzle 3 1004 93 9000 1.5 150 16:20 17.11.2019
4209 Rain 3 1004 93 3200 2.6 10 15:55 17.11.2019
4210 Drizzle 3 1004 100 3000 2.6 20 15:36 17.11.2019
4211 Drizzle 3 1004 100 3000 2.6 20 15:36 17.11.2019
4212 Drizzle 3 1004 100 3000 4.1 10 15:18 17.11.2019
4213 Drizzle 3 1004 100 3000 4.1 10 14:55 17.11.2019
4214 Drizzle 2 1004 93 6000 3.1 270 14:37 17.11.2019
4215 Rain 3 1005 93 10000 3.1 20 14:18 17.11.2019
4216 Rain 2 1005 100 5000 2.1 300 13:41 17.11.2019
4217 Rain 2 1005 100 4200 1 0 13:22 17.11.2019
4218 Rain 2 1005 100 4200 1 0 13:00 17.11.2019
4219 Rain 2 1005 100 3500 2.1 300 12:38 17.11.2019
4220 Rain 2 1005 100 3300 2.1 340 12:19 17.11.2019
4221 Rain 2 1005 100 3300 2.1 340 11:56 17.11.2019
4222 Rain 2 1005 100 1500 4.1 320 11:38 17.11.2019
4223 Rain 2 1006 100 750 4.1 330 11:19 17.11.2019
4224 Rain 2 1007 100 6000 3.1 20 10:41 17.11.2019
4225 Fog 2 1006 100 450 3.6 320 10:23 17.11.2019
4226 Fog 2 1007 100 400 3.6 330 09:57 17.11.2019
4227 Mist 2 1007 100 5000 1.5 330 09:39 17.11.2019
4228 Mist 2 1008 100 4800 4.1 360 09:19 17.11.2019
4229 Mist 2 1008 100 4500 2.6 30 08:38 17.11.2019
4230 Mist 1 1008 100 4500 2.6 30 08:19 17.11.2019
4231 Mist 1 1008 100 2400 2.1 350 07:46 17.11.2019
4232 Mist 1 1008 100 2400 2.1 350 07:22 17.11.2019
4233 Fog 1 1008 100 1200 2.1 330 06:57 17.11.2019
4234 Fog 1 1009 100 900 2.6 340 06:32 17.11.2019
4235 Fog 1 1009 100 450 2.1 10 05:40 17.11.2019
4236 Fog 1 1009 100 450 2.1 10 05:40 17.11.2019
4237 Clouds 1 1009 93 6000 1.5 60 04:23 17.11.2019
4238 Clouds 1 1011 100 8000 1.51 111 03:45 17.11.2019
4239 Clouds 1 1011 100 8000 1.51 111 03:25 17.11.2019
4240 Clouds 1 1011 92 7000 2.6 340 02:27 17.11.2019
4241 Clouds 1 1011 93 10000 1.5 280 01:25 17.11.2019
4242 Clouds 1 1011 86 10000 1.6 114 00:54 17.11.2019
4243 Clouds 1 1012 86 10000 1 0 00:22 17.11.2019
4244 Clouds 1 1012 86 10000 1 0 23:46 16.11.2019
4245 Clouds 1 1012 92 10000 1 0 23:20 16.11.2019
4246 Clouds 1 1011 86 10000 3.1 280 22:59 16.11.2019
4247 Clouds 1 1011 86 10000 3.1 260 22:40 16.11.2019
4248 Clouds 1 1011 86 10000 3.1 260 22:40 16.11.2019
4249 Clouds 1 1011 86 10000 3.1 260 22:19 16.11.2019
4250 Clouds 1 1011 92 6000 0.5 0 21:56 16.11.2019
4251 Clouds 2 1012 86 10000 3.1 260 21:37 16.11.2019
4252 Clouds 2 1011 86 10000 3.6 280 21:19 16.11.2019
4253 Clouds 2 1011 86 10000 4.1 280 20:41 16.11.2019
4254 Clouds 3 1011 86 10000 4.1 280 20:21 16.11.2019
4255 Clouds 3 1011 86 10000 3.1 260 19:58 16.11.2019
4256 Clouds 3 1011 86 10000 3.1 260 19:58 16.11.2019
4257 Clouds 3 1011 86 10000 3.6 270 19:40 16.11.2019
4258 Clouds 3 1011 86 10000 3.6 270 19:21 16.11.2019
4259 Clouds 3 1011 86 10000 2.1 310 18:47 16.11.2019
4260 Clouds 3 1011 86 10000 2.1 310 18:29 16.11.2019
4261 Clouds 4 1010 80 10000 2.1 290 17:57 16.11.2019
4262 Clouds 5 1010 80 10000 2.1 290 17:38 16.11.2019
4263 Clouds 6 1010 80 10000 2.1 290 17:19 16.11.2019
4264 Clouds 6 1010 61 10000 0.5 0 16:48 16.11.2019
4265 Clouds 6 1010 61 10000 0.5 0 16:30 16.11.2019
4266 Clouds 7 1010 61 10000 0.99 132 15:59 16.11.2019
4267 Clouds 7 1009 61 10000 0.99 132 15:41 16.11.2019
4268 Clouds 8 1009 66 10000 1 0 15:21 16.11.2019
4269 Clouds 8 1009 66 10000 1 0 14:58 16.11.2019
4270 Clouds 8 1010 75 10000 1.5 0 14:39 16.11.2019
4271 Clouds 8 1010 75 10000 1.5 0 14:21 16.11.2019
4272 Clouds 8 1010 75 10000 3.1 180 13:56 16.11.2019
4273 Clouds 8 1010 70 10000 2.6 170 13:38 16.11.2019
4274 Clouds 7 1010 70 10000 2.6 170 13:18 16.11.2019
4275 Clouds 7 1010 75 10000 2.1 160 12:55 16.11.2019
4276 Clouds 7 1010 75 10000 1.5 180 12:36 16.11.2019
4277 Clouds 6 1010 80 10000 2.1 170 12:18 16.11.2019
4278 Clouds 5 1010 80 10000 1 0 11:42 16.11.2019
4279 Clouds 5 1010 80 10000 1 0 11:23 16.11.2019
4280 Clouds 4 1010 86 10000 1 0 10:56 16.11.2019
4281 Clouds 4 1010 86 10000 1.5 120 10:37 16.11.2019
4282 Mist 3 1009 100 3500 2.1 180 10:19 16.11.2019
4283 Mist 3 1009 93 4500 2.6 220 09:42 16.11.2019
4284 Clouds 2 1009 93 10000 0.64 229 09:20 16.11.2019
4285 Mist 2 1009 100 4000 1 0 08:58 16.11.2019
4286 Mist 2 1008 100 3500 0.64 229 08:37 16.11.2019
4287 Mist 2 1008 93 3500 0.5 0 08:18 16.11.2019
4288 Mist 1 1007 100 4000 1 210 07:41 16.11.2019
4289 Mist 1 1007 100 2000 1.5 120 07:20 16.11.2019
4290 Fog 1 1007 100 800 1.5 130 06:45 16.11.2019
4291 Clouds 1 1006 95 10000 1.06 258 06:26 16.11.2019
4292 Clouds 1 1005 100 6000 1.5 230 04:50 16.11.2019
4293 Clouds 0 1005 95 10000 0.5 349 03:42 16.11.2019
4294 Clouds 0 1005 95 10000 0.5 349 03:23 16.11.2019
4295 Clouds 1 1004 97 10000 2.6 270 01:47 16.11.2019
4296 Clouds 1 1004 94 10000 2.6 270 01:19 16.11.2019
4297 Clouds 2 1004 94 10000 1.5 0 00:42 16.11.2019
4298 Clouds 2 1004 86 10000 3.1 270 00:22 16.11.2019
4299 Clouds 2 1004 86 10000 3.1 270 23:40 15.11.2019
4300 Clouds 2 1004 86 10000 3.1 270 23:21 15.11.2019
4301 Clouds 2 1004 86 10000 3.1 280 22:55 15.11.2019
4302 Clouds 2 1004 86 10000 1 0 22:37 15.11.2019
4303 Clouds 3 1004 86 10000 1 0 22:18 15.11.2019
4304 Clouds 3 1004 93 10000 1.5 320 21:42 15.11.2019
4305 Clouds 3 1004 93 10000 1.5 320 21:21 15.11.2019
4306 Clouds 3 1003 86 10000 1.5 0 20:59 15.11.2019
4307 Clouds 3 1003 86 10000 2.1 270 20:40 15.11.2019
4308 Clouds 3 1003 86 10000 2.1 270 20:22 15.11.2019
4309 Clouds 3 1003 86 10000 1.5 90 19:59 15.11.2019
4310 Clouds 3 1003 86 10000 0.5 360 19:41 15.11.2019
4311 Clouds 4 1003 86 10000 1.5 70 19:21 15.11.2019
4312 Clouds 4 1003 86 10000 1.5 70 18:59 15.11.2019
4313 Clouds 4 1003 86 10000 1.5 100 18:41 15.11.2019
4314 Clouds 4 1003 86 10000 1.5 100 18:41 15.11.2019
4315 Clouds 4 1002 80 10000 2.6 280 18:22 15.11.2019
4316 Clouds 5 1002 80 10000 2.6 280 17:55 15.11.2019
4317 Clouds 5 1002 75 10000 0.5 0 17:37 15.11.2019
4318 Clouds 5 1002 70 10000 1.3 92 17:18 15.11.2019
4319 Clouds 6 1002 70 10000 1 180 16:40 15.11.2019
4320 Clouds 6 1001 70 10000 1.5 180 16:22 15.11.2019
4321 Clouds 7 1001 70 10000 2.1 180 15:59 15.11.2019
4322 Clouds 7 1001 70 10000 3.6 210 15:36 15.11.2019
4323 Clouds 7 1001 70 10000 4.6 220 15:18 15.11.2019
4324 Clouds 7 1001 65 10000 4.1 170 14:55 15.11.2019
4325 Clouds 7 1001 61 10000 5.1 220 14:37 15.11.2019
4326 Clouds 7 1001 65 10000 4.6 220 14:18 15.11.2019
4327 Clouds 7 1001 65 10000 4.6 220 13:54 15.11.2019
4328 Clouds 7 1000 70 10000 5.1 170 13:54 15.11.2019
4329 Clouds 7 1001 61 10000 6.2 200 13:36 15.11.2019
4330 Rain 7 1001 65 10000 6.7 190 13:18 15.11.2019
4331 Rain 7 1000 70 10000 6.7 170 12:56 15.11.2019
4332 Rain 7 1000 65 10000 4.1 180 12:37 15.11.2019
4333 Rain 6 1000 70 10000 5.7 210 12:18 15.11.2019
4334 Rain 6 1000 75 10000 6.2 200 11:39 15.11.2019
4335 Snow 5 1000 75 10000 4.1 190 11:21 15.11.2019
4336 Snow 5 1000 75 10000 4.1 190 11:21 15.11.2019
4337 Snow 5 1000 75 7000 4.1 190 10:58 15.11.2019
4338 Snow 5 1000 80 7000 5.7 180 10:39 15.11.2019
4339 Clouds 5 999 86 0 1.5 0 10:20 15.11.2019
4340 Clouds 4 999 86 6000 2.1 200 09:41 15.11.2019
4341 Clouds 4 998 86 10000 2.6 130 09:21 15.11.2019
4342 Clouds 3 999 86 10000 2.1 160 08:58 15.11.2019
4343 Clouds 3 998 86 6000 1.5 0 08:39 15.11.2019
4344 Clouds 3 997 86 10000 2.6 140 08:21 15.11.2019
4345 Clouds 3 997 86 10000 3.6 180 07:44 15.11.2019
4346 Clouds 2 995 80 10000 1 0 07:25 15.11.2019
4347 Clouds 3 994 86 10000 3.6 20 06:36 15.11.2019
4348 Clouds 2 993 86 10000 5.1 10 05:57 15.11.2019
4349 Clouds 2 994 86 10000 5.1 10 05:38 15.11.2019
4350 Clouds 3 994 86 10000 6.7 10 04:54 15.11.2019
4351 Clouds 3 995 86 10000 4.6 10 03:43 15.11.2019
4352 Clouds 3 995 80 10000 5.1 10 02:37 15.11.2019
4353 Clouds 3 996 75 10000 4.6 10 01:57 15.11.2019
4354 Clouds 2 996 75 10000 4.6 10 01:57 15.11.2019
4355 Clouds 3 996 75 10000 5.1 360 01:32 15.11.2019
4356 Clouds 3 997 75 10000 5.1 360 00:42 15.11.2019
4357 Clouds 3 997 75 10000 4.6 10 00:24 15.11.2019
4358 Clouds 3 997 93 10000 2.1 280 23:47 14.11.2019
4359 Clouds 3 997 93 10000 2.1 310 23:27 14.11.2019
4360 Clouds 3 997 93 10000 2.1 310 22:55 14.11.2019
4361 Clouds 4 997 70 10000 6.2 20 22:37 14.11.2019
4362 Clouds 4 997 70 10000 5.1 20 22:19 14.11.2019
4363 Clouds 4 998 70 10000 4.6 10 21:42 14.11.2019
4364 Clouds 4 998 70 10000 4.6 10 21:23 14.11.2019
4365 Clouds 4 998 70 10000 4.6 20 20:56 14.11.2019
4366 Clouds 4 998 70 10000 4.6 10 20:37 14.11.2019
4367 Clouds 4 999 80 10000 2.6 360 20:19 14.11.2019
4368 Clouds 5 999 80 10000 2.6 360 19:58 14.11.2019
4369 Clouds 5 999 86 10000 3.1 10 19:40 14.11.2019
4370 Clouds 4 999 86 10000 2.6 20 19:18 14.11.2019
4371 Clouds 5 999 86 10000 3.1 10 18:54 14.11.2019
4372 Clouds 5 999 86 10000 3.1 10 18:36 14.11.2019
4373 Clouds 5 999 87 10000 4.1 360 18:18 14.11.2019
4374 Clouds 5 998 75 10000 3.1 340 17:38 14.11.2019
4375 Clouds 5 998 75 10000 3.1 340 17:38 14.11.2019
4376 Clouds 5 1000 86 10000 3.6 10 17:20 14.11.2019
4377 Clouds 6 1000 81 10000 3.1 10 16:58 14.11.2019
4378 Clouds 6 1000 81 10000 3.1 10 16:58 14.11.2019
4379 Clouds 6 1000 81 10000 4.1 350 16:39 14.11.2019
4380 Clouds 6 1000 75 10000 2.6 30 16:20 14.11.2019
4381 Clouds 6 1000 81 10000 3.1 350 16:20 14.11.2019
4382 Clouds 7 1000 81 10000 3.1 350 15:58 14.11.2019
4383 Clouds 7 1000 70 10000 3.1 20 15:39 14.11.2019
4384 Clouds 7 1000 75 10000 1.5 20 15:20 14.11.2019
4385 Clouds 7 1001 65 10000 2.1 340 14:58 14.11.2019
4386 Clouds 7 1001 65 10000 2.6 360 14:40 14.11.2019
4387 Clouds 7 1001 70 10000 1.5 70 14:21 14.11.2019
4388 Clouds 8 1001 65 10000 1 0 13:55 14.11.2019
4389 Clouds 7 1001 59 10000 1 0 13:36 14.11.2019
4390 Clouds 7 1002 65 10000 2.1 170 13:18 14.11.2019
4391 Clouds 7 1003 65 10000 2.6 180 12:44 14.11.2019
4392 Clouds 7 1002 58 10000 3.6 180 12:24 14.11.2019
4393 Clouds 6 1003 70 10000 2.6 190 11:56 14.11.2019
4394 Clouds 6 1003 75 10000 4.1 200 11:38 14.11.2019
4395 Clouds 5 1002 81 10000 3.6 180 11:19 14.11.2019
4396 Clouds 5 1003 75 10000 3.6 210 10:57 14.11.2019
4397 Clouds 4 1002 75 10000 1 0 10:37 14.11.2019
4398 Clouds 4 1002 80 10000 4.6 250 10:19 14.11.2019
4399 Clouds 4 1002 93 10000 1.5 110 09:55 14.11.2019
4400 Clouds 3 1001 75 10000 1 0 09:37 14.11.2019
4401 Clouds 2 1002 93 10000 3.1 200 09:18 14.11.2019
4402 Clouds 2 1002 93 10000 3.1 200 08:46 14.11.2019
4403 Clouds 2 1002 93 10000 3.1 200 08:46 14.11.2019
4404 Clouds 2 1002 100 10000 1 160 08:23 14.11.2019
4405 Clouds 2 1001 82 10000 1 200 07:42 14.11.2019
4406 Clouds 2 1001 82 10000 1 200 07:24 14.11.2019
4407 Clouds 2 1001 100 10000 1 290 06:47 14.11.2019
4408 Clouds 1 1001 100 10000 1 290 06:22 14.11.2019
4409 Clouds 1 1001 100 10000 0.5 0 05:59 14.11.2019
4410 Clouds 1 1001 100 10000 2.1 120 04:38 14.11.2019
4411 Clouds 1 1002 91 10000 1 0 03:50 14.11.2019
4412 Clouds 1 1003 91 10000 0.5 0 02:41 14.11.2019
4413 Clouds 2 1003 100 8000 1 0 01:41 14.11.2019
4414 Clouds 1 1004 92 10000 1.5 240 00:58 14.11.2019
4415 Clouds 2 1004 100 10000 1 190 00:40 14.11.2019
4416 Clouds 3 1004 93 10000 1.5 0 00:20 14.11.2019
4417 Clouds 3 1005 93 10000 3.1 210 23:39 13.11.2019
4418 Clouds 4 1005 93 10000 3.6 200 23:20 13.11.2019
4419 Clouds 4 1005 93 10000 3.6 200 22:55 13.11.2019
4420 Clouds 4 1005 93 10000 2.6 170 22:37 13.11.2019
4421 Clouds 3 1005 86 10000 5.1 180 22:19 13.11.2019
4422 Clouds 4 1005 86 10000 5.1 180 21:55 13.11.2019
4423 Clouds 3 1005 86 10000 4.1 180 21:37 13.11.2019
4424 Clouds 4 1006 86 10000 5.1 180 21:18 13.11.2019
4425 Clouds 4 1006 86 10000 5.1 180 20:55 13.11.2019
4426 Clouds 4 1006 86 10000 1.5 170 20:37 13.11.2019
4427 Clouds 4 1006 81 10000 4.6 180 20:18 13.11.2019
4428 Clouds 5 1006 75 10000 4.1 180 19:43 13.11.2019
4429 Clouds 5 1006 75 10000 4.6 180 19:20 13.11.2019
4430 Clouds 5 1006 75 10000 4.6 180 18:57 13.11.2019
4431 Clouds 5 1006 80 10000 3.1 180 18:39 13.11.2019
4432 Clouds 5 1006 81 10000 4.1 180 18:21 13.11.2019
4433 Clouds 5 1006 81 10000 3.1 190 17:58 13.11.2019
4434 Clouds 5 1006 75 10000 3.1 180 17:40 13.11.2019
4435 Clouds 6 1005 70 10000 4.6 210 17:21 13.11.2019
4436 Clouds 6 1005 75 10000 3.6 200 16:58 13.11.2019
4437 Clouds 6 1006 70 10000 4.1 200 16:39 13.11.2019
4438 Clouds 6 1006 70 10000 4.1 200 16:21 13.11.2019
4439 Clouds 6 1005 75 10000 4.1 180 15:58 13.11.2019
4440 Clouds 6 1005 70 10000 5.1 200 15:39 13.11.2019
4441 Clouds 6 1005 70 10000 6.2 200 15:20 13.11.2019
4442 Clouds 6 1005 70 10000 5.1 200 14:43 13.11.2019
4443 Clouds 6 1005 75 10000 5.7 180 14:23 13.11.2019
4444 Clouds 6 1005 75 10000 4.1 170 13:59 13.11.2019
4445 Clouds 6 1005 70 10000 5.7 190 13:37 13.11.2019
4446 Clouds 6 1005 65 10000 5.7 200 13:19 13.11.2019
4447 Clouds 6 1005 75 10000 4.6 180 12:56 13.11.2019
4448 Clouds 6 1005 70 10000 6.2 200 12:37 13.11.2019
4449 Clouds 6 1005 70 10000 5.1 190 12:19 13.11.2019
4450 Clouds 6 1005 75 10000 4.6 200 11:41 13.11.2019
4451 Clouds 6 1005 75 10000 5.1 190 11:21 13.11.2019
4452 Clouds 5 1005 75 10000 5.1 190 10:59 13.11.2019
4453 Clouds 5 1005 81 10000 5.1 200 10:41 13.11.2019
4454 Clouds 5 1005 81 10000 5.1 200 10:41 13.11.2019
4455 Clouds 5 1005 75 10000 1.5 0 10:21 13.11.2019
4456 Clouds 5 1005 86 10000 5.1 200 09:59 13.11.2019
4457 Clouds 4 1005 86 10000 4.6 190 09:39 13.11.2019
4458 Clouds 3 1005 86 10000 4.6 190 09:20 13.11.2019
4459 Clouds 4 1005 86 10000 4.6 190 09:20 13.11.2019
4460 Clouds 3 1005 93 10000 3.1 190 08:40 13.11.2019
4461 Clouds 2 1005 100 10000 0.5 0 08:21 13.11.2019
4462 Clouds 2 1004 93 10000 1.5 250 07:43 13.11.2019
4463 Snow 2 1004 97 10000 1 0 07:22 13.11.2019
4464 Snow 2 1004 97 10000 1 0 06:58 13.11.2019
4465 Snow 2 1004 97 10000 1 0 06:36 13.11.2019
4466 Snow 3 1004 97 10000 2.1 280 06:18 13.11.2019
4467 Snow 3 1004 97 6000 1.33 214 05:45 13.11.2019
4468 Snow 3 1003 100 9000 1 0 04:56 13.11.2019
4469 Clouds 3 1003 93 10000 2.1 170 03:36 13.11.2019
4470 Clouds 4 1004 93 10000 0.81 191 01:48 13.11.2019
4471 Clouds 4 1004 93 10000 0.64 219 01:23 13.11.2019
4472 Clouds 4 1004 100 10000 1 0 00:37 13.11.2019
4473 Clouds 4 1004 93 10000 2.1 270 23:56 12.11.2019
4474 Clouds 4 1004 100 10000 1 0 23:37 12.11.2019
4475 Clouds 4 1004 100 10000 1 0 23:18 12.11.2019
4476 Clouds 4 1004 93 10000 0.5 0 22:40 12.11.2019
4477 Clouds 4 1003 93 10000 1 0 22:18 12.11.2019
4478 Clouds 4 1003 93 10000 1 0 21:54 12.11.2019
4479 Clouds 4 1004 93 10000 1 0 21:36 12.11.2019
4480 Clouds 4 1004 81 10000 2.6 190 21:18 12.11.2019
4481 Clouds 4 1004 81 10000 2.6 190 20:55 12.11.2019
4482 Clouds 4 1004 81 10000 3.6 180 20:36 12.11.2019
4483 Clouds 4 1004 75 10000 3.6 170 20:18 12.11.2019
4484 Clouds 4 1004 75 10000 3.6 170 20:18 12.11.2019
4485 Clouds 5 1004 80 10000 3.6 230 19:54 12.11.2019
4486 Clouds 5 1004 80 10000 3.6 230 19:54 12.11.2019
4487 Clouds 5 1004 75 10000 3.6 190 19:36 12.11.2019
4488 Snow 5 1005 75 10000 4.1 200 19:18 12.11.2019
4489 Snow 5 1005 93 10000 2.6 220 18:55 12.11.2019
4490 Snow 5 1005 75 10000 2.6 190 18:36 12.11.2019
4491 Clouds 6 1005 70 10000 2.6 200 18:18 12.11.2019
4492 Snow 5 1005 86 10000 4.1 200 17:55 12.11.2019
4493 Rain 5 1005 65 10000 4.1 200 17:36 12.11.2019
4494 Rain 5 1005 65 10000 4.1 200 17:36 12.11.2019
4495 Rain 6 1005 65 10000 4.1 200 17:36 12.11.2019
4496 Clouds 7 1006 65 10000 5.7 200 17:18 12.11.2019
4497 Rain 7 1006 70 10000 5.1 200 16:43 12.11.2019
4498 Rain 7 1006 70 10000 5.1 200 16:24 12.11.2019
4499 Clouds 8 1005 61 10000 5.1 190 15:57 12.11.2019
4500 Clouds 8 1005 61 10000 6.2 210 15:37 12.11.2019
4501 Clouds 8 1005 61 10000 7.2 200 15:18 12.11.2019
4502 Clouds 8 1005 57 10000 6.7 190 14:42 12.11.2019
4503 Clouds 8 1005 66 10000 6.7 190 14:20 12.11.2019
4504 Clouds 8 1006 61 10000 6.2 190 13:58 12.11.2019
4505 Clouds 8 1006 66 10000 6.7 190 13:40 12.11.2019
4506 Clouds 8 1006 65 10000 6.7 180 13:20 12.11.2019
4507 Clouds 8 1006 65 10000 6.7 180 12:59 12.11.2019
4508 Clouds 8 1007 65 10000 6.7 180 12:39 12.11.2019
4509 Clouds 8 1007 65 10000 7.2 190 12:18 12.11.2019
4510 Clouds 8 1007 65 10000 2.6 200 11:54 12.11.2019
4511 Clouds 8 1008 65 10000 7.7 190 11:36 12.11.2019
4512 Clouds 6 1008 70 10000 7.7 190 11:18 12.11.2019
4513 Clouds 6 1007 65 10000 4.6 190 10:54 12.11.2019
4514 Clouds 6 1008 70 10000 7.2 210 10:36 12.11.2019
4515 Clouds 6 1008 70 10000 7.2 210 10:36 12.11.2019
4516 Clouds 6 1008 75 10000 7.7 200 10:18 12.11.2019
4517 Clouds 6 1008 75 10000 7.2 200 09:39 12.11.2019
4518 Clouds 4 1008 81 10000 6.2 190 09:19 12.11.2019
4519 Clouds 4 1009 86 10000 3.1 180 08:49 12.11.2019
4520 Clouds 4 1009 86 10000 3.1 180 08:29 12.11.2019
4521 Clouds 3 1008 93 10000 3.6 180 07:43 12.11.2019
4522 Clouds 3 1008 93 10000 3.6 180 07:25 12.11.2019
4523 Clouds 3 1008 86 10000 4.1 180 06:54 12.11.2019
4524 Clouds 4 1008 80 10000 3.6 170 06:28 12.11.2019
4525 Clouds 4 1009 81 10000 3.1 160 05:56 12.11.2019
4526 Clouds 4 1009 86 10000 2.6 180 04:59 12.11.2019
4527 Clouds 4 1009 93 10000 1.5 180 04:37 12.11.2019
4528 Clouds 5 1009 86 10000 3.6 190 02:48 12.11.2019
4529 Clouds 5 1009 81 10000 3.6 170 01:38 12.11.2019
4530 Clouds 5 1009 87 10000 1.5 0 01:18 12.11.2019
4531 Clouds 5 1009 93 10000 3.1 190 00:40 12.11.2019
4532 Clouds 5 1009 93 10000 3.1 190 00:18 12.11.2019
4533 Rain 5 1008 87 10000 4.6 190 23:41 11.11.2019
4534 Rain 5 1008 87 10000 6.2 180 23:20 11.11.2019
4535 Rain 5 1007 81 10000 5.7 190 22:39 11.11.2019
4536 Rain 5 1007 87 10000 4.6 190 22:20 11.11.2019
4537 Rain 5 1007 87 10000 4.6 190 21:59 11.11.2019
4538 Rain 5 1007 87 10000 5.1 190 21:40 11.11.2019
4539 Rain 5 1007 87 10000 5.1 190 21:21 11.11.2019
4540 Rain 5 1007 87 10000 4.6 190 20:59 11.11.2019
4541 Rain 5 1007 87 10000 5.1 200 20:41 11.11.2019
4542 Clouds 5 1007 87 10000 5.1 200 20:20 11.11.2019
4543 Rain 5 1007 87 10000 5.1 200 19:56 11.11.2019
4544 Clouds 5 1007 75 10000 3.1 200 19:38 11.11.2019
4545 Clouds 5 1007 75 10000 3.6 190 19:18 11.11.2019
4546 Clouds 5 1007 75 10000 3.6 190 19:18 11.11.2019
4547 Clouds 5 1007 75 10000 4.1 170 18:42 11.11.2019
4548 Clouds 5 1007 86 10000 2.1 210 18:22 11.11.2019
4549 Clouds 5 1007 75 10000 1.5 0 18:00 11.11.2019
4550 Clouds 5 1007 80 10000 1 0 17:41 11.11.2019
4551 Clouds 5 1007 86 10000 2.1 230 17:22 11.11.2019
4552 Clouds 5 1007 81 10000 2.6 170 16:39 11.11.2019
4553 Clouds 6 1007 81 10000 2.1 170 16:21 11.11.2019
4554 Drizzle 5 1008 86 10000 2.1 210 15:57 11.11.2019
4555 Clouds 6 1008 81 10000 2.1 170 15:39 11.11.2019
4556 Clouds 6 1008 80 10000 2.1 170 15:19 11.11.2019
4557 Clouds 6 1008 86 10000 3.6 190 15:19 11.11.2019
4558 Clouds 6 1008 80 10000 2.1 170 14:43 11.11.2019
4559 Clouds 5 1008 80 10000 2.1 170 14:25 11.11.2019
4560 Clouds 6 1009 80 10000 2.6 160 13:58 11.11.2019
4561 Clouds 5 1009 80 10000 3.1 170 13:38 11.11.2019
4562 Clouds 5 1010 86 10000 2.6 170 13:19 11.11.2019
4563 Clouds 5 1010 86 10000 2.6 170 13:19 11.11.2019
4564 Clouds 6 1010 86 10000 2.6 170 12:57 11.11.2019
4565 Clouds 5 1010 86 10000 3.1 170 12:39 11.11.2019
4566 Clouds 5 1011 86 10000 3.1 170 12:20 11.11.2019
4567 Clouds 5 1011 86 10000 4.1 150 11:42 11.11.2019
4568 Clouds 4 1011 93 10000 4.1 190 11:22 11.11.2019
4569 Clouds 4 1012 86 10000 3.6 150 10:57 11.11.2019
4570 Clouds 4 1012 86 9000 2.6 160 10:38 11.11.2019
4571 Clouds 3 1012 100 10000 1.5 0 10:18 11.11.2019
4572 Clouds 3 1013 100 10000 1.5 240 09:54 11.11.2019
4573 Clouds 3 1013 93 8000 2.6 210 09:36 11.11.2019
4574 Clouds 2 1013 93 10000 2.1 190 09:18 11.11.2019
4575 Clouds 2 1013 93 8000 1.5 150 08:37 11.11.2019
4576 Clouds 2 1013 100 10000 1.5 0 08:19 11.11.2019
4577 Clouds 2 1014 100 7000 1.5 0 07:54 11.11.2019
4578 Clouds 2 1014 100 6000 1 0 07:36 11.11.2019
4579 Clouds 2 1014 100 6000 1 0 07:36 11.11.2019
4580 -273 0 0 0 0 0 07:18 11.11.2019
4581 Clouds 2 1014 100 7000 1.5 310 06:41 11.11.2019
4582 Clouds 2 1014 100 7000 1.5 310 06:21 11.11.2019
4583 Clouds 2 1015 100 10000 1.5 270 05:49 11.11.2019
4584 Mist 2 1015 100 4500 2.1 210 03:59 11.11.2019
4585 Mist 2 1015 100 2900 3.1 180 03:22 11.11.2019
4586 Mist 2 1015 100 1700 1.5 190 02:20 11.11.2019
4587 Mist 2 1016 100 1000 1.13 124 01:55 11.11.2019
4588 Mist 2 1016 100 1000 1 0 01:34 11.11.2019
4589 Fog 2 1016 100 750 1.5 0 00:47 11.11.2019
4590 Fog 1 1016 100 750 1.5 0 00:19 11.11.2019
4591 Fog 1 1016 100 750 1.5 0 00:19 11.11.2019
4592 Fog 1 1016 100 550 2.1 20 23:39 10.11.2019
4593 Fog 1 1016 100 550 2.1 20 23:20 10.11.2019
4594 Fog 1 1016 100 500 1.5 10 22:57 10.11.2019
4595 Fog 1 1016 100 450 1.5 0 22:38 10.11.2019
4596 Fog 1 1016 100 450 1.5 0 22:20 10.11.2019
4597 Fog 1 1016 100 400 1.5 0 22:20 10.11.2019
4598 Fog 1 1016 100 400 1.5 0 21:58 10.11.2019
4599 Fog 1 1016 100 400 1.5 0 21:58 10.11.2019
4600 Fog 1 1016 100 450 1.5 350 21:39 10.11.2019
4601 Fog 1 1016 100 450 1.5 350 21:39 10.11.2019
4602 Fog 2 1016 100 450 1.5 350 21:21 10.11.2019
4603 Fog 2 1016 100 550 2.1 350 20:56 10.11.2019
4604 Fog 2 1016 100 650 2.1 360 20:38 10.11.2019
4605 Fog 2 1016 100 650 2.1 360 20:20 10.11.2019
4606 Mist 2 1016 100 1200 1.5 320 19:54 10.11.2019
4607 Mist 2 1016 100 2700 1.5 20 19:36 10.11.2019
4608 Mist 2 1016 100 2700 1.5 20 19:18 10.11.2019
4609 Mist 3 1015 100 2600 2.1 20 18:54 10.11.2019
4610 Mist 3 1015 100 2600 2.1 20 18:54 10.11.2019
4611 Mist 3 1015 100 1700 2.1 40 18:36 10.11.2019
4612 Mist 3 1015 100 1700 2.1 40 18:18 10.11.2019
4613 Mist 3 1015 100 3700 2.6 40 17:55 10.11.2019
4614 Mist 3 1014 93 2100 2.6 20 17:36 10.11.2019
4615 Mist 4 1014 93 5000 2.1 40 17:18 10.11.2019
4616 Fog 5 1014 100 750 1 0 16:43 10.11.2019
4617 Fog 5 1014 100 750 1 0 16:25 10.11.2019
4618 Clouds 5 1013 86 10000 2.6 20 15:56 10.11.2019
4619 Clouds 5 1013 86 10000 2.6 40 15:37 10.11.2019
4620 Clouds 5 1013 86 10000 2.6 40 15:18 10.11.2019
4621 Clouds 6 1012 81 10000 2.1 60 14:58 10.11.2019
4622 Clouds 6 1012 75 10000 1 0 14:38 10.11.2019
4623 Clouds 6 1012 75 10000 1 0 14:20 10.11.2019
4624 Clouds 6 1012 81 10000 1 0 13:55 10.11.2019
4625 Mist 5 1012 100 2800 2.1 350 13:36 10.11.2019
4626 Mist 5 1013 100 2200 2.1 330 13:18 10.11.2019
4627 Fog 6 1012 100 700 1.5 0 12:41 10.11.2019
4628 Clouds 6 1012 86 10000 1.56 306 12:19 10.11.2019
4629 Clouds 6 1012 93 10000 0.5 0 11:56 10.11.2019
4630 Clouds 5 1012 93 10000 1.5 0 11:38 10.11.2019
4631 Clouds 4 1011 100 10000 1 360 11:19 10.11.2019
4632 Clouds 4 1011 100 9000 1 0 10:42 10.11.2019
4633 Clouds 3 1011 100 9000 1 0 10:22 10.11.2019
4634 Clouds 3 1011 100 9000 1 0 10:22 10.11.2019
4635 Clouds 3 1011 100 10000 1 120 09:59 10.11.2019
4636 Rain 2 1010 78 5000 1 150 09:39 10.11.2019
4637 Rain 2 1010 78 5000 1 150 09:19 10.11.2019
4638 Mist 1 1010 100 1300 0.46 275 08:39 10.11.2019
4639 Mist 0 1010 100 1300 1.88 125 08:20 10.11.2019
4640 Mist 0 1010 100 1200 1.88 125 07:53 10.11.2019
4641 Fog 0 1009 100 600 1.5 340 07:34 10.11.2019
4642 Clouds 0 1009 100 10000 0.5 0 06:59 10.11.2019
4643 Clouds 0 1009 100 10000 1.5 120 06:21 10.11.2019
4644 Clear 1 1008 93 10000 1 150 03:38 10.11.2019
4645 Clear 1 1008 93 10000 2.1 270 02:33 10.11.2019
4646 Clear 1 1008 86 10000 1.5 0 01:37 10.11.2019
4647 Clear 1 1008 89 10000 2.1 280 01:18 10.11.2019
4648 Clear 1 1008 86 10000 2.1 280 00:37 10.11.2019
4649 Clear 1 1009 89 10000 2.6 290 23:42 09.11.2019
4650 Clear 1 1009 89 10000 2.6 290 23:19 09.11.2019
4651 Clear 2 1008 93 10000 1.5 340 22:54 09.11.2019
4652 Clear 2 1008 86 10000 2.1 270 22:36 09.11.2019
4653 Clear 2 1008 86 10000 2.1 270 22:18 09.11.2019
4654 Clear 2 1009 93 10000 2.1 280 21:54 09.11.2019
4655 Clear 2 1009 93 10000 1 0 21:36 09.11.2019
4656 Clear 2 1009 93 10000 1 0 21:18 09.11.2019
4657 Clear 3 1009 86 10000 1 240 20:41 09.11.2019
4658 Clouds 3 1009 86 10000 1 240 20:21 09.11.2019
4659 Clouds 3 1009 86 10000 1 0 19:55 09.11.2019
4660 Clouds 4 1009 80 10000 1.5 250 19:36 09.11.2019
4661 Clouds 4 1009 80 10000 2.1 210 19:18 09.11.2019
4662 Clouds 4 1010 80 10000 2.6 280 18:40 09.11.2019
4663 Clouds 5 1009 81 10000 2.6 290 18:19 09.11.2019
4664 Clouds 5 1009 81 10000 2.6 290 18:19 09.11.2019
4665 Clouds 5 1009 81 10000 2.6 290 17:58 09.11.2019
4666 Clouds 6 1009 70 10000 1.5 0 17:40 09.11.2019
4667 Rain 7 1010 70 10000 1.27 226 17:21 09.11.2019
4668 Clouds 8 1010 76 10000 1 360 16:42 09.11.2019
4669 Clouds 8 1010 76 10000 1 360 16:21 09.11.2019
4670 Clouds 8 1010 76 10000 1.5 320 15:57 09.11.2019
4671 Rain 8 1010 66 10000 0.5 0 15:39 09.11.2019
4672 Rain 8 1010 66 10000 0.5 0 15:20 09.11.2019
4673 Rain 9 1010 76 10000 1.5 200 14:42 09.11.2019
4674 Rain 8 1010 76 10000 1.5 200 14:42 09.11.2019
4675 Rain 9 1010 76 10000 1.5 200 14:22 09.11.2019
4676 Clouds 9 1011 70 10000 0.5 70 13:57 09.11.2019
4677 Clouds 9 1011 70 10000 1 0 13:37 09.11.2019
4678 Clouds 9 1011 76 10000 1.5 0 13:19 09.11.2019
4679 Clouds 9 1011 76 10000 1.5 0 12:55 09.11.2019
4680 Clouds 8 1012 81 10000 1.5 140 12:37 09.11.2019
4681 Rain 8 1012 75 10000 1 180 12:18 09.11.2019
4682 Clouds 7 1012 81 10000 0.5 0 11:44 09.11.2019
4683 Clouds 6 1012 81 10000 0.5 0 11:20 09.11.2019
4684 Clouds 5 1012 86 10000 1.5 0 10:42 09.11.2019
4685 Clouds 5 1012 93 10000 1.5 0 10:20 09.11.2019
4686 Clouds 5 1012 93 10000 1.5 0 10:00 09.11.2019
4687 Clouds 4 1012 93 10000 1.5 200 09:41 09.11.2019
4688 Clouds 4 1012 93 10000 1.5 200 09:20 09.11.2019
4689 Clouds 3 1012 100 10000 2.1 210 08:43 09.11.2019
4690 Clouds 3 1012 100 10000 2.1 210 08:25 09.11.2019
4691 Clouds 3 1012 100 10000 2.1 170 07:55 09.11.2019
4692 Clouds 3 1011 100 10000 1 0 07:37 09.11.2019
4693 Clouds 3 1011 100 10000 1 0 07:19 09.11.2019
4694 Rain 3 1011 93 10000 1 200 06:43 09.11.2019
4695 Rain 3 1011 93 10000 1 200 06:25 09.11.2019
4696 Clouds 2 1011 93 10000 2.1 190 05:40 09.11.2019
4697 Clouds 2 1010 93 10000 1 200 04:29 09.11.2019
4698 Clouds 2 1010 86 10000 1.5 270 02:52 09.11.2019
4699 Clouds 2 1010 86 10000 2.6 250 02:34 09.11.2019
4700 Clouds 3 1009 100 10000 1.5 250 01:18 09.11.2019
4701 Clouds 3 1009 93 10000 1 250 00:41 09.11.2019
4702 Clouds 4 1009 93 10000 1.5 260 00:22 09.11.2019
4703 Clouds 4 1009 93 10000 1 0 23:41 08.11.2019
4704 Rain 4 1009 93 10000 1 0 23:22 08.11.2019
4705 Rain 4 1009 93 10000 1.5 180 22:59 08.11.2019
4706 Rain 4 1009 93 10000 2.1 170 22:39 08.11.2019
4707 Rain 5 1009 93 10000 2.1 170 22:21 08.11.2019
4708 Rain 5 1008 93 10000 1.5 250 21:42 08.11.2019
4709 Rain 5 1008 93 10000 1.5 250 21:24 08.11.2019
4710 Rain 5 1008 93 10000 1 320 20:58 08.11.2019
4711 Rain 5 1008 93 10000 1 320 20:40 08.11.2019
4712 Rain 5 1008 93 10000 2.1 120 20:20 08.11.2019
4713 Rain 5 1008 93 10000 1.5 360 19:55 08.11.2019
4714 Rain 5 1008 93 10000 1 0 19:37 08.11.2019
4715 Rain 5 1007 87 10000 2.1 60 19:18 08.11.2019
4716 Rain 5 1007 87 10000 2.1 60 18:54 08.11.2019
4717 Rain 5 1007 87 10000 2.1 140 18:36 08.11.2019
4718 Rain 5 1007 87 10000 1 0 18:18 08.11.2019
4719 Rain 5 1006 93 10000 1 0 17:54 08.11.2019
4720 Drizzle 5 1006 93 10000 1.5 60 17:36 08.11.2019
4721 Drizzle 6 1006 87 10000 1.5 50 17:18 08.11.2019
4722 Drizzle 6 1006 87 10000 1.5 50 16:57 08.11.2019
4723 Drizzle 6 1006 87 10000 2.6 70 16:38 08.11.2019
4724 Drizzle 6 1006 93 8000 3.1 50 16:18 08.11.2019
4725 Drizzle 6 1006 93 8000 3.1 50 15:55 08.11.2019
4726 Drizzle 6 1005 93 8000 2.6 50 15:36 08.11.2019
4727 Drizzle 6 1005 93 8000 2.6 50 15:36 08.11.2019
4728 Drizzle 7 1005 93 10000 1.5 30 15:18 08.11.2019
4729 Rain 6 1005 81 10000 0.5 0 14:54 08.11.2019
4730 Drizzle 7 1005 93 10000 2.1 40 14:36 08.11.2019
4731 Drizzle 6 1005 87 10000 1 0 14:18 08.11.2019
4732 Clouds 6 1005 87 10000 1 0 13:42 08.11.2019
4733 Clouds 6 1004 81 10000 1 0 13:22 08.11.2019
4734 Clouds 6 1004 81 10000 1 0 13:22 08.11.2019
4735 Clouds 6 1004 81 10000 1 0 13:22 08.11.2019
4736 Clouds 6 1004 93 10000 1 0 12:58 08.11.2019
4737 Clouds 7 1005 93 10000 1 0 12:39 08.11.2019
4738 Clouds 7 1004 87 10000 1.49 304 12:21 08.11.2019
4739 Drizzle 7 1005 93 10000 1 0 11:55 08.11.2019
4740 Clouds 6 1005 93 10000 1 340 11:37 08.11.2019
4741 Clouds 6 1005 93 10000 1 0 11:19 08.11.2019
4742 Clouds 6 1005 93 10000 0.6 52 10:43 08.11.2019
4743 Clouds 6 1005 93 10000 0.6 52 10:22 08.11.2019
4744 Clouds 6 1005 93 10000 1 0 09:59 08.11.2019
4745 Clouds 6 1005 100 10000 1 300 09:40 08.11.2019
4746 Clouds 6 1005 93 10000 1.5 240 09:20 08.11.2019
4747 Clouds 6 1005 100 10000 1 230 08:46 08.11.2019
4748 Clouds 5 1004 87 10000 1.5 110 08:25 08.11.2019
4749 Rain 5 1004 93 10000 2.1 310 07:57 08.11.2019
4750 Rain 6 1004 87 9000 1.5 310 07:39 08.11.2019
4751 Clouds 5 1005 93 10000 0.5 0 07:20 08.11.2019
4752 Clouds 6 1005 87 10000 2.1 170 06:40 08.11.2019
4753 Clouds 6 1004 86 10000 1 250 06:20 08.11.2019
4754 Clouds 6 1004 86 10000 1.36 114 05:53 08.11.2019
4755 Snow 6 1004 81 10000 1.5 290 05:19 08.11.2019
4756 Snow 6 1005 86 10000 1 0 03:44 08.11.2019
4757 Snow 6 1005 86 10000 1 0 03:21 08.11.2019
4758 Snow 5 1005 81 10000 1 0 02:42 08.11.2019
4759 Snow 5 1005 93 10000 1 0 01:47 08.11.2019
4760 Snow 5 1005 93 10000 1 0 01:24 08.11.2019
4761 Snow 6 1005 81 10000 2.1 280 00:24 08.11.2019
4762 Snow 6 1005 81 10000 1 0 23:58 07.11.2019
4763 Snow 6 1005 87 10000 1.5 0 23:40 07.11.2019
4764 Rain 6 1005 87 10000 1.5 0 23:22 07.11.2019
4765 Rain 7 1005 87 10000 1 0 22:42 07.11.2019
4766 Rain 7 1005 87 10000 1 0 22:22 07.11.2019
4767 Rain 7 1005 87 10000 1.5 270 21:56 07.11.2019
4768 Rain 7 1005 75 10000 2.6 180 21:38 07.11.2019
4769 Rain 7 1005 87 10000 0.5 0 21:19 07.11.2019
4770 Rain 7 1005 81 10000 1.42 185 20:58 07.11.2019
4771 Rain 7 1005 81 10000 2.6 170 20:39 07.11.2019
4772 Clouds 7 1005 81 10000 2.6 240 20:21 07.11.2019
4773 Clouds 7 1005 81 10000 1.5 240 19:56 07.11.2019
4774 Clouds 7 1005 76 10000 2.6 160 19:37 07.11.2019
4775 Clouds 8 1005 81 10000 2.6 180 19:18 07.11.2019
4776 Clouds 8 1005 81 10000 2.6 180 18:56 07.11.2019
4777 Clouds 8 1004 76 10000 3.6 200 18:37 07.11.2019
4778 Clouds 8 1004 81 10000 2.6 210 18:19 07.11.2019
4779 Rain 9 1004 61 10000 4.6 220 17:40 07.11.2019
4780 Rain 9 1004 61 10000 4.6 220 17:22 07.11.2019
4781 Rain 9 1003 61 10000 5.7 200 16:59 07.11.2019
4782 Rain 9 1003 61 10000 5.7 200 16:40 07.11.2019
4783 Clouds 10 1003 66 10000 3.6 230 16:22 07.11.2019
4784 Clouds 10 1003 66 10000 4.1 250 15:59 07.11.2019
4785 Clouds 10 1003 66 10000 4.1 250 15:39 07.11.2019
4786 Rain 10 1002 71 10000 4.6 230 15:19 07.11.2019
4787 Clouds 10 1002 71 10000 3.6 170 14:54 07.11.2019
4788 Clouds 11 1001 76 10000 3.6 180 14:36 07.11.2019
4789 Clouds 10 1001 76 10000 3.6 180 14:18 07.11.2019
4790 Clouds 10 1001 81 10000 5.1 180 13:54 07.11.2019
4791 Clouds 10 1001 81 10000 3.6 180 13:36 07.11.2019
4792 Clouds 10 1001 81 10000 3.6 180 13:18 07.11.2019
4793 Rain 10 1001 87 10000 2.6 190 12:54 07.11.2019
4794 Rain 10 1001 87 10000 4.1 170 12:36 07.11.2019
4795 Clouds 9 1001 87 10000 4.1 170 12:18 07.11.2019
4796 Drizzle 8 1001 87 10000 5.1 180 11:40 07.11.2019
4797 Drizzle 8 1001 87 10000 5.1 180 11:22 07.11.2019
4798 Rain 7 1001 87 10000 6.2 190 10:42 07.11.2019
4799 Rain 7 1001 87 10000 6.2 190 10:19 07.11.2019
4800 Rain 7 1001 87 10000 6.2 190 10:19 07.11.2019
4801 Rain 7 1001 81 10000 5.1 190 09:45 07.11.2019
4802 Clouds 7 1001 75 10000 5.7 190 09:26 07.11.2019
4803 -273 0 0 0 0 0 09:24 07.11.2019
4804 Clouds 7 1001 75 10000 5.7 190 08:58 07.11.2019
4805 Clouds 7 1001 75 10000 5.7 190 08:40 07.11.2019
4806 Clouds 6 1001 81 10000 4.6 180 08:22 07.11.2019
4807 Clouds 5 1001 87 10000 3.6 190 07:55 07.11.2019
4808 Clouds 5 1001 87 10000 4.1 190 07:37 07.11.2019
4809 Clouds 5 1001 87 10000 4.1 190 07:18 07.11.2019
4810 Clouds 5 1001 87 10000 3.6 180 06:41 07.11.2019
4811 Clouds 5 1001 87 10000 3.6 180 06:41 07.11.2019
4812 Clouds 5 1002 87 10000 3.6 200 06:22 07.11.2019
4813 Clouds 5 1002 93 10000 4.6 190 05:47 07.11.2019
4814 Clouds 5 1002 100 10000 2.6 230 05:29 07.11.2019
4815 Clouds 5 1003 100 10000 1 250 04:50 07.11.2019
4816 Clouds 6 1003 93 10000 2.1 220 04:28 07.11.2019
4817 Clouds 7 1004 87 10000 4.6 190 01:27 07.11.2019
4818 Clouds 7 1005 87 10000 4.6 190 00:27 07.11.2019
4819 Clouds 8 1005 87 10000 2.6 210 23:50 06.11.2019
4820 Clouds 8 1006 87 10000 2.6 220 23:23 06.11.2019
4821 Rain 8 1006 87 10000 4.1 190 22:59 06.11.2019
4822 Rain 8 1006 87 10000 4.1 190 22:39 06.11.2019
4823 Rain 8 1006 87 10000 4.1 190 22:20 06.11.2019
4824 Clouds 8 1006 87 10000 3.1 180 21:57 06.11.2019
4825 Clouds 8 1006 87 10000 1.5 180 21:39 06.11.2019
4826 Clouds 8 1006 87 10000 1.5 180 21:19 06.11.2019
4827 Clouds 8 1006 81 10000 2.1 210 20:56 06.11.2019
4828 Clouds 8 1006 87 10000 3.1 190 20:38 06.11.2019
4829 Clouds 8 1006 87 10000 3.1 190 20:20 06.11.2019
4830 Rain 8 1006 87 10000 3.6 190 19:56 06.11.2019
4831 Clouds 8 1006 81 10000 3.1 180 19:36 06.11.2019
4832 Clouds 9 1006 81 10000 3.1 180 19:18 06.11.2019
4833 Rain 8 1006 76 10000 3.1 200 18:55 06.11.2019
4834 Clouds 9 1006 87 10000 1.5 220 18:36 06.11.2019
4835 Clouds 9 1005 81 10000 2.6 200 18:18 06.11.2019
4836 Clouds 9 1005 81 10000 2.6 200 17:42 06.11.2019
4837 Rain 9 1005 76 10000 2.6 210 17:23 06.11.2019
4838 Clouds 9 1005 87 10000 2.1 180 16:57 06.11.2019
4839 Clouds 10 1005 81 10000 2.1 180 16:39 06.11.2019
4840 Clouds 10 1005 81 10000 2.1 180 16:39 06.11.2019
4841 Rain 10 1005 81 10000 3.6 230 16:21 06.11.2019
4842 Clouds 10 1005 62 10000 5.1 230 15:58 06.11.2019
4843 Clouds 10 1005 76 10000 4.6 200 15:38 06.11.2019
4844 Clouds 10 1005 76 10000 4.6 200 15:38 06.11.2019
4845 Clouds 10 1005 76 10000 4.6 200 15:38 06.11.2019
4846 Clouds 10 1005 62 10000 5.7 230 15:19 06.11.2019
4847 Clouds 10 1005 71 10000 4.6 210 14:57 06.11.2019
4848 Clouds 11 1005 71 10000 4.1 190 14:39 06.11.2019
4849 Clouds 11 1005 71 10000 4.1 190 14:39 06.11.2019
4850 Rain 11 1005 66 10000 2.6 210 14:21 06.11.2019
4851 Clouds 11 1005 76 10000 3.6 200 13:59 06.11.2019
4852 Clouds 10 1005 76 10000 3.6 200 13:38 06.11.2019
4853 Rain 10 1005 81 10000 3.1 200 13:19 06.11.2019
4854 Clouds 10 1005 81 10000 3.6 180 12:55 06.11.2019
4855 Clouds 10 1005 76 10000 3.6 190 12:37 06.11.2019
4856 Rain 10 1005 81 10000 3.1 190 12:18 06.11.2019
4857 Rain 10 1005 81 10000 3.1 190 12:18 06.11.2019
4858 Rain 10 1005 81 10000 3.1 190 11:57 06.11.2019
4859 Rain 10 1005 87 10000 4.1 180 11:36 06.11.2019
4860 Rain 9 1005 87 10000 3.6 200 11:18 06.11.2019
4861 Clouds 9 1005 87 10000 2.1 150 10:55 06.11.2019
4862 Clouds 9 1005 93 10000 4.1 180 10:37 06.11.2019
4863 Clouds 9 1005 93 10000 1.5 170 10:19 06.11.2019
4864 Clouds 9 1005 93 10000 1.5 170 10:19 06.11.2019
4865 Rain 8 1005 87 10000 3.6 190 09:42 06.11.2019
4866 Rain 8 1005 93 10000 2.6 190 09:21 06.11.2019
4867 Rain 8 1005 93 10000 2.6 190 08:57 06.11.2019
4868 Rain 8 1004 93 10000 3.1 190 08:38 06.11.2019
4869 Rain 8 1004 93 10000 1.49 230 08:19 06.11.2019
4870 Rain 8 1004 93 10000 3.1 180 07:55 06.11.2019
4871 Rain 8 1003 93 10000 2.6 180 07:36 06.11.2019
4872 Rain 8 1003 93 10000 2.6 180 07:36 06.11.2019
4873 Rain 7 1003 93 10000 1 0 07:18 06.11.2019
4874 Clouds 7 1002 100 10000 1.5 160 06:42 06.11.2019
4875 Clouds 7 1002 100 10000 1.5 160 06:23 06.11.2019
4876 Rain 7 1002 93 10000 1.5 180 03:58 06.11.2019
4877 Clouds 7 1001 93 10000 2.1 160 02:19 06.11.2019
4878 Rain 7 1001 93 10000 1.5 170 01:31 06.11.2019
4879 Clouds 7 1001 93 10000 1.51 185 00:35 06.11.2019
4880 Clouds 7 1000 93 10000 1 0 23:58 05.11.2019
4881 Clouds 8 1000 93 10000 1 190 23:38 05.11.2019
4882 Clouds 8 1000 93 10000 0.5 0 23:19 05.11.2019
4883 Rain 8 1000 93 10000 2.6 250 22:43 05.11.2019
4884 Rain 8 1000 93 10000 1 220 22:20 05.11.2019
4885 Rain 8 1000 93 10000 1 220 21:59 05.11.2019
4886 Rain 8 1000 93 10000 1 220 21:59 05.11.2019
4887 Rain 8 1000 93 10000 1 0 21:41 05.11.2019
4888 Rain 8 1000 93 10000 1.5 210 21:20 05.11.2019
4889 Clouds 8 1000 93 10000 2.1 200 20:57 05.11.2019
4890 Rain 8 1000 93 10000 1 0 20:38 05.11.2019
4891 Clouds 8 999 100 10000 2.1 180 20:20 05.11.2019
4892 Clouds 7 999 100 10000 1 0 19:56 05.11.2019
4893 Rain 8 999 93 10000 2.1 180 19:38 05.11.2019
4894 Rain 8 999 93 10000 2.1 180 19:38 05.11.2019
4895 Rain 8 999 100 3800 1 0 19:20 05.11.2019
4896 Clouds 8 999 93 10000 2.1 190 18:57 05.11.2019
4897 Clouds 8 999 87 10000 2.1 190 18:38 05.11.2019
4898 Rain 8 999 93 10000 1 240 18:19 05.11.2019
4899 Clouds 9 999 93 10000 2.1 210 17:57 05.11.2019
4900 Rain 9 999 87 10000 4.6 200 17:38 05.11.2019
4901 Rain 9 998 71 10000 4.1 200 17:18 05.11.2019
4902 Rain 10 998 71 10000 2.1 220 16:42 05.11.2019
4903 Rain 10 998 87 7000 2.6 10 16:22 05.11.2019
4904 Rain 10 998 66 10000 3.1 210 15:59 05.11.2019
4905 Clouds 11 998 58 10000 2.6 210 15:37 05.11.2019
4906 Clouds 11 998 58 10000 1.5 0 15:19 05.11.2019
4907 Clouds 12 998 58 10000 1.5 0 14:57 05.11.2019
4908 Rain 11 998 58 10000 2.1 210 14:38 05.11.2019
4909 Clouds 12 998 66 10000 2.1 170 14:20 05.11.2019
4910 Clouds 13 998 58 10000 2.6 170 13:43 05.11.2019
4911 Clouds 12 998 71 10000 3.6 170 13:24 05.11.2019
4912 Rain 12 998 62 10000 2.1 200 12:59 05.11.2019
4913 Rain 12 998 62 10000 2.6 210 12:39 05.11.2019
4914 Rain 12 998 62 10000 2.6 210 12:39 05.11.2019
4915 Clouds 12 998 62 10000 3.1 200 12:20 05.11.2019
4916 Clouds 12 999 87 10000 2.1 340 11:55 05.11.2019
4917 Clouds 12 999 71 10000 2.6 180 11:36 05.11.2019
4918 Clouds 11 999 66 10000 3.1 160 11:18 05.11.2019
4919 Clouds 11 999 66 10000 3.1 160 10:42 05.11.2019
4920 Clouds 10 999 81 10000 2.6 170 10:24 05.11.2019
4921 Clouds 10 999 66 10000 2.6 190 09:58 05.11.2019
4922 Clouds 9 999 71 10000 1.5 180 09:39 05.11.2019
4923 Clouds 8 999 87 10000 0.83 173 09:19 05.11.2019
4924 Clouds 8 999 93 10000 0.83 173 08:55 05.11.2019
4925 Clouds 8 999 93 10000 0.83 173 08:55 05.11.2019
4926 Clouds 7 998 81 10000 2.6 170 08:37 05.11.2019
4927 Clouds 6 998 81 10000 2.6 170 08:18 05.11.2019
4928 Clouds 6 998 87 10000 2.6 160 07:43 05.11.2019
4929 Clouds 6 998 87 10000 2.6 160 07:24 05.11.2019
4930 Clouds 6 997 93 10000 1.5 0 06:51 05.11.2019
4931 Clouds 6 997 93 10000 1.5 0 06:26 05.11.2019
4932 Clouds 6 998 93 10000 2.1 190 05:39 05.11.2019
4933 Clouds 7 998 93 10000 2.1 210 05:19 05.11.2019
4934 Clouds 7 998 93 10000 3.6 190 04:20 05.11.2019
4935 Clouds 7 998 87 10000 3.1 170 03:24 05.11.2019
4936 Clouds 8 998 81 10000 3.1 150 02:42 05.11.2019
4937 Clouds 9 998 81 10000 3.6 140 01:52 05.11.2019
4938 Clouds 9 998 81 10000 3.6 140 01:52 05.11.2019
4939 Clouds 9 998 81 10000 3.6 140 01:52 05.11.2019
4940 Clouds 9 998 62 10000 2.6 230 00:46 05.11.2019
4941 Clouds 9 998 62 10000 2.6 230 00:25 05.11.2019
4942 Clouds 9 997 66 10000 1 0 23:42 04.11.2019
4943 Rain 9 998 81 10000 5.1 220 23:19 04.11.2019
4944 Rain 9 998 81 10000 5.1 220 22:56 04.11.2019
4945 Clouds 9 997 76 10000 2.1 330 22:37 04.11.2019
4946 Clouds 10 997 76 10000 2.1 330 22:19 04.11.2019
4947 Rain 10 996 66 10000 6.2 290 21:55 04.11.2019
4948 Rain 10 995 81 10000 2.1 160 21:37 04.11.2019
4949 Clouds 11 995 81 10000 3.1 180 21:18 04.11.2019
4950 Rain 11 995 81 10000 3.1 180 20:55 04.11.2019
4951 Rain 10 995 81 10000 4.1 160 20:37 04.11.2019
4952 Rain 10 995 76 10000 4.6 180 20:18 04.11.2019
4953 Rain 10 995 71 10000 6.2 180 19:43 04.11.2019
4954 Clouds 10 995 81 10000 3.6 190 19:25 04.11.2019
4955 Rain 11 995 76 10000 5.7 190 18:59 04.11.2019
4956 Rain 11 995 81 10000 4.1 180 18:41 04.11.2019
4957 Clouds 11 994 87 10000 6.2 180 18:23 04.11.2019
4958 Rain 11 994 81 10000 5.1 190 17:59 04.11.2019
4959 Clouds 11 994 76 10000 5.1 190 17:37 04.11.2019
4960 Clouds 12 994 82 10000 5.1 180 17:19 04.11.2019
4961 Rain 12 994 82 10000 5.1 180 16:44 04.11.2019
4962 Rain 12 994 71 10000 3.6 190 16:25 04.11.2019
4963 Rain 12 994 82 10000 5.7 180 15:59 04.11.2019
4964 Rain 12 993 82 10000 5.1 180 15:41 04.11.2019
4965 Rain 12 994 71 10000 4.6 200 15:21 04.11.2019
4966 Rain 13 993 72 10000 4.6 190 14:58 04.11.2019
4967 Rain 13 993 72 10000 4.6 190 14:58 04.11.2019
4968 Rain 13 993 76 10000 5.1 190 14:40 04.11.2019
4969 Rain 13 993 67 10000 4.1 210 14:20 04.11.2019
4970 Rain 13 993 67 10000 4.1 210 14:20 04.11.2019
4971 Rain 13 993 67 10000 4.6 210 13:58 04.11.2019
4972 Rain 13 993 71 10000 5.1 200 13:40 04.11.2019
4973 Rain 13 993 71 10000 3.1 170 13:21 04.11.2019
4974 Rain 12 993 82 10000 5.7 200 12:57 04.11.2019
4975 Rain 12 993 81 10000 7.2 210 12:38 04.11.2019
4976 Rain 12 993 82 10000 5.1 200 12:20 04.11.2019
4977 Rain 12 993 81 10000 5.7 200 11:43 04.11.2019
4978 Rain 11 993 93 10000 3.6 190 11:24 04.11.2019
4979 Rain 12 993 71 10000 6.7 190 10:59 04.11.2019
4980 Rain 11 993 71 10000 6.2 200 10:41 04.11.2019
4981 Rain 11 993 71 10000 6.2 200 10:41 04.11.2019
4982 Rain 11 993 87 10000 3.1 140 10:23 04.11.2019
4983 Rain 11 993 87 10000 3.1 140 10:23 04.11.2019
4984 Clouds 11 993 66 10000 4.6 190 09:46 04.11.2019
4985 Clouds 11 993 66 10000 4.6 190 09:28 04.11.2019
4986 Clouds 10 993 66 10000 5.7 190 08:59 04.11.2019
4987 Clouds 10 993 76 10000 4.1 190 08:38 04.11.2019
4988 Clouds 9 993 87 10000 2.6 190 08:19 04.11.2019
4989 Clouds 9 993 87 10000 2.6 160 07:44 04.11.2019
4990 -273 0 0 0 0 0 07:24 04.11.2019
4991 Clouds 9 994 87 10000 3.1 170 06:57 04.11.2019
4992 Clouds 9 994 87 10000 4.6 170 06:33 04.11.2019
4993 Clouds 9 994 87 10000 5.1 190 05:49 04.11.2019
4994 Clouds 9 994 93 10000 6.7 190 04:44 04.11.2019
4995 Clouds 9 994 93 10000 6.7 190 04:21 04.11.2019
4996 Rain 9 994 93 10000 4.1 180 02:34 04.11.2019
4997 Rain 10 994 93 10000 5.1 180 01:22 04.11.2019
4998 Rain 9 994 93 10000 6.7 180 00:43 04.11.2019
4999 Clouds 10 994 93 10000 6.7 180 00:21 04.11.2019
5000 Rain 10 993 87 10000 7.7 180 23:44 03.11.2019
5001 Rain 10 993 87 10000 7.7 180 23:44 03.11.2019
5002 Rain 10 993 87 10000 7.7 180 23:22 03.11.2019
5003 Rain 10 993 87 10000 7.2 180 22:59 03.11.2019
5004 Clouds 10 993 76 10000 5.1 210 22:41 03.11.2019
5005 Rain 10 992 76 10000 3.6 240 22:21 03.11.2019
5006 Rain 10 992 76 10000 3.6 240 21:59 03.11.2019
5007 Clouds 10 992 76 10000 5.1 230 21:41 03.11.2019
5008 Clouds 10 992 76 10000 5.1 230 21:21 03.11.2019
5009 Rain 11 991 87 10000 4.6 180 20:56 03.11.2019
5010 Clouds 11 990 93 10000 3.1 200 20:37 03.11.2019
5011 Clouds 11 989 93 10000 5.7 180 20:18 03.11.2019
5012 Clouds 11 989 93 10000 5.7 180 19:56 03.11.2019
5013 Clouds 11 989 81 10000 5.7 180 19:38 03.11.2019
5014 Clouds 11 989 87 10000 2.6 210 19:19 03.11.2019
5015 Clouds 11 989 87 10000 3.1 180 18:39 03.11.2019
5016 Clouds 11 989 87 10000 3.1 180 18:19 03.11.2019
5017 Clouds 11 988 87 10000 3.6 170 17:59 03.11.2019
5018 Clouds 10 988 87 10000 4.6 180 17:41 03.11.2019
5019 Clouds 11 988 87 10000 4.6 180 17:41 03.11.2019
5020 Rain 11 988 87 10000 4.6 180 17:20 03.11.2019
5021 Rain 11 988 82 10000 6.2 170 16:56 03.11.2019
5022 Rain 11 987 82 10000 7.2 170 16:38 03.11.2019
5023 Rain 11 987 82 10000 7.2 170 16:20 03.11.2019
5024 Rain 12 987 87 10000 6.7 170 15:57 03.11.2019
5025 Rain 12 987 87 10000 5.1 170 15:39 03.11.2019
5026 Rain 12 987 87 10000 6.2 180 15:20 03.11.2019
5027 Rain 12 987 87 10000 6.7 180 14:42 03.11.2019
5028 Rain 12 987 82 10000 5.7 190 14:19 03.11.2019
5029 Rain 12 987 82 10000 5.7 190 13:58 03.11.2019
5030 Rain 13 986 82 10000 5.1 180 13:40 03.11.2019
5031 Rain 13 986 82 10000 4.6 180 13:18 03.11.2019
5032 Rain 13 987 82 10000 5.1 190 12:39 03.11.2019
5033 Rain 13 987 82 10000 5.1 190 12:20 03.11.2019
5034 Clouds 13 987 82 10000 5.1 180 11:58 03.11.2019
5035 Clouds 13 987 77 10000 4.1 210 11:40 03.11.2019
5036 Clouds 12 987 82 10000 4.6 190 11:20 03.11.2019
5037 Clouds 12 987 82 10000 4.6 190 11:20 03.11.2019
5038 Clouds 12 987 82 10000 4.6 190 10:55 03.11.2019
5039 Clouds 12 988 82 10000 4.1 180 10:37 03.11.2019
5040 Clouds 12 988 87 10000 4.1 190 10:18 03.11.2019
5041 Clouds 12 988 87 10000 4.1 190 10:18 03.11.2019
5042 Rain 12 988 87 10000 3.6 170 09:42 03.11.2019
5043 Rain 11 988 87 10000 3.6 170 09:23 03.11.2019
5044 Rain 11 988 93 10000 1.5 200 08:56 03.11.2019
5045 Rain 11 988 93 10000 3.1 200 08:36 03.11.2019
5046 Rain 11 989 93 10000 3.1 170 08:18 03.11.2019
5047 Rain 11 989 93 10000 4.6 190 07:44 03.11.2019
5048 Rain 11 989 93 10000 4.6 190 07:20 03.11.2019
5049 Rain 11 989 93 10000 4.6 190 07:20 03.11.2019
5050 Rain 11 989 93 10000 4.6 180 06:39 03.11.2019
5051 Rain 11 989 93 10000 5.1 180 05:54 03.11.2019
5052 Clouds 11 990 93 10000 4.1 170 05:34 03.11.2019
5053 Rain 11 990 87 10000 3.6 170 04:52 03.11.2019
5054 Rain 11 991 93 10000 3.6 170 03:58 03.11.2019
5055 Rain 11 992 100 9000 2.1 160 03:19 03.11.2019
5056 Rain 11 993 87 10000 3.1 150 02:23 03.11.2019
5057 Rain 11 993 87 10000 4.6 180 01:49 03.11.2019
5058 Rain 11 994 87 10000 4.1 170 01:27 03.11.2019
5059 Rain 11 994 87 10000 1.5 0 00:59 03.11.2019
5060 Rain 11 994 87 9000 2.1 200 00:38 03.11.2019
5061 Rain 12 994 87 9000 2.1 200 00:20 03.11.2019
5062 Rain 12 994 87 8000 1.5 220 23:54 02.11.2019
5063 Rain 12 994 93 10000 3.1 210 23:36 02.11.2019
5064 Rain 13 994 93 8000 2.1 210 23:18 02.11.2019
5065 Rain 13 994 93 8000 2.1 210 22:54 02.11.2019
5066 Rain 12 994 93 10000 1.5 0 22:36 02.11.2019
5067 Rain 13 994 93 10000 1.5 0 22:18 02.11.2019
5068 Rain 13 994 93 10000 1.5 0 21:55 02.11.2019
5069 Rain 13 995 82 10000 4.1 170 21:36 02.11.2019
5070 Rain 13 995 82 10000 4.6 180 21:18 02.11.2019
5071 Rain 13 995 82 10000 4.6 180 21:18 02.11.2019
5072 Rain 13 995 82 10000 4.6 180 21:18 02.11.2019
5073 Rain 13 995 82 10000 5.1 190 20:41 02.11.2019
5074 Rain 13 995 87 10000 4.1 190 20:22 02.11.2019
5075 Rain 13 995 87 10000 5.1 180 19:59 02.11.2019
5076 Rain 13 996 87 8000 5.1 190 19:38 02.11.2019
5077 Rain 13 996 82 9000 3.6 160 19:19 02.11.2019
5078 Rain 13 996 82 9000 3.6 160 18:55 02.11.2019
5079 Clouds 13 996 82 10000 3.1 160 18:36 02.11.2019
5080 Rain 13 996 82 10000 4.1 160 18:18 02.11.2019
5081 Rain 13 996 82 10000 4.1 160 17:55 02.11.2019
5082 Rain 14 996 72 10000 4.1 160 17:37 02.11.2019
5083 Rain 14 996 67 10000 4.1 170 17:18 02.11.2019
5084 Rain 15 997 72 10000 4.1 170 16:40 02.11.2019
5085 Clouds 15 997 68 10000 4.6 170 16:21 02.11.2019
5086 Clouds 15 997 59 10000 4.1 210 15:44 02.11.2019
5087 Clouds 16 997 59 10000 4.1 210 15:22 02.11.2019
5088 Clouds 16 997 59 10000 3.6 230 14:59 02.11.2019
5089 Clouds 16 997 59 10000 4.6 210 14:41 02.11.2019
5090 Clouds 16 997 59 10000 4.6 210 14:41 02.11.2019
5091 Clouds 16 997 59 10000 4.6 210 14:22 02.11.2019
5092 Clouds 16 997 72 10000 5.1 200 13:56 02.11.2019
5093 Clouds 16 997 68 10000 6.2 210 13:37 02.11.2019
5094 Clouds 16 998 59 10000 5.1 220 13:18 02.11.2019
5095 Rain 16 998 68 10000 7.2 200 12:40 02.11.2019
5096 Rain 16 998 63 10000 5.1 230 12:22 02.11.2019
5097 Rain 16 998 72 10000 7.2 200 11:57 02.11.2019
5098 Rain 16 998 72 10000 7.7 200 11:38 02.11.2019
5099 Clouds 16 998 72 10000 4.1 190 11:19 02.11.2019
5100 Clouds 15 999 77 10000 5.1 190 10:44 02.11.2019
5101 Clouds 15 999 77 10000 5.1 190 10:25 02.11.2019
5102 Clouds 15 999 82 10000 6.7 190 09:56 02.11.2019
5103 Clouds 14 998 87 10000 6.7 190 09:38 02.11.2019
5104 Clouds 14 998 93 10000 6.2 190 09:19 02.11.2019
5105 Clouds 13 998 93 10000 5.7 190 08:44 02.11.2019
5106 Clouds 13 998 93 10000 5.7 190 08:22 02.11.2019
5107 Clouds 12 998 93 10000 6.7 180 07:47 02.11.2019
5108 Clouds 12 998 93 10000 6.7 180 07:28 02.11.2019
5109 Clouds 12 998 93 10000 6.7 180 07:28 02.11.2019
5110 Rain 13 998 87 10000 5.7 190 06:54 02.11.2019
5111 Drizzle 12 999 87 10000 5.7 180 06:29 02.11.2019
5112 Rain 12 999 87 10000 6.7 180 05:56 02.11.2019
5113 Rain 13 999 87 10000 6.7 180 05:20 02.11.2019
5114 Clouds 12 999 87 10000 7.2 190 04:21 02.11.2019
5115 Rain 12 999 87 10000 8.2 190 03:49 02.11.2019
5116 Rain 12 1000 82 10000 5.7 190 02:40 02.11.2019
5117 Clouds 12 1001 93 10000 2.1 110 01:44 02.11.2019
5118 Clouds 12 1001 93 10000 2.1 110 01:23 02.11.2019
5119 Rain 12 1002 93 10000 2.6 160 00:51 02.11.2019
5120 Rain 12 1002 93 10000 2.6 160 00:26 02.11.2019
5121 Rain 12 1002 93 10000 5.1 170 23:48 01.11.2019
5122 Rain 11 1002 93 10000 5.1 170 23:22 01.11.2019
5123 Rain 11 1003 93 10000 5.1 170 22:58 01.11.2019
5124 Rain 12 1003 93 10000 4.6 170 22:39 01.11.2019
5125 Rain 12 1004 93 10000 5.7 170 22:20 01.11.2019
5126 Rain 11 1004 87 10000 5.1 180 21:41 01.11.2019
5127 Rain 11 1004 87 10000 5.1 180 21:23 01.11.2019
5128 Rain 11 1004 87 10000 5.1 180 20:57 01.11.2019
5129 Rain 11 1004 87 10000 4.6 170 20:39 01.11.2019
5130 Clouds 11 1007 100 10000 2.6 160 20:19 01.11.2019
5131 Clouds 11 1005 87 10000 3.1 190 19:56 01.11.2019
5132 Rain 11 1005 87 10000 2.1 210 19:38 01.11.2019
5133 Rain 11 1006 93 10000 2.1 210 19:19 01.11.2019
5134 Clouds 11 1006 93 10000 3.1 190 18:39 01.11.2019
5135 Clouds 11 1006 93 10000 4.1 180 18:21 01.11.2019
5136 Rain 11 1006 93 10000 4.1 180 17:56 01.11.2019
5137 Rain 11 1006 87 10000 3.1 170 17:37 01.11.2019
5138 Rain 11 1007 93 10000 3.1 180 17:19 01.11.2019
5139 Rain 11 1007 93 10000 3.1 190 16:38 01.11.2019
5140 Rain 11 1007 93 10000 3.1 180 16:20 01.11.2019
5141 Rain 11 1008 93 10000 4.6 190 15:55 01.11.2019
5142 Rain 11 1008 93 10000 5.7 180 15:36 01.11.2019
5143 Rain 11 1009 93 10000 6.2 180 15:18 01.11.2019
5144 Rain 11 1009 93 10000 6.7 180 14:42 01.11.2019
5145 Rain 11 1009 93 10000 6.7 180 14:24 01.11.2019
5146 Rain 11 1010 93 10000 4.6 170 13:57 01.11.2019
5147 Rain 11 1011 87 10000 5.1 170 13:39 01.11.2019
5148 Rain 12 1011 87 10000 5.1 170 13:20 01.11.2019
5149 Clouds 12 1012 87 10000 4.1 180 12:44 01.11.2019
5150 Clouds 12 1012 87 10000 4.1 180 12:26 01.11.2019
5151 Clouds 12 1012 87 10000 3.6 180 11:59 01.11.2019
5152 Clouds 12 1013 87 10000 1.5 0 11:40 01.11.2019
5153 Clouds 11 1013 93 10000 1.5 200 11:22 01.11.2019
5154 Clouds 11 1013 93 10000 1.5 190 10:42 01.11.2019
5155 Clouds 11 1013 93 10000 1.5 190 10:24 01.11.2019
5156 Clouds 11 1014 93 10000 1 210 09:58 01.11.2019
5157 Clouds 11 1014 93 10000 1 210 09:58 01.11.2019
5158 Clouds 10 1014 93 8000 1.5 220 09:40 01.11.2019
5159 Clouds 10 1014 93 8000 2.6 200 09:20 01.11.2019
5160 Clouds 10 1014 93 8000 2.6 200 09:20 01.11.2019
5161 Clouds 9 1014 93 10000 2.1 190 08:45 01.11.2019
5162 Clouds 9 1014 93 10000 2.1 190 08:22 01.11.2019
5163 Clouds 8 1015 93 9000 2.1 200 07:57 01.11.2019
5164 Clouds 8 1015 93 10000 2.1 190 07:39 01.11.2019
5165 Clouds 8 1015 93 10000 2.1 200 07:20 01.11.2019
5166 Clouds 8 1015 93 10000 3.6 180 06:47 01.11.2019
5167 Clouds 8 1015 93 10000 3.6 180 06:22 01.11.2019
5168 Clouds 8 1016 100 8000 1.51 208 05:44 01.11.2019
5169 Clouds 8 1016 100 7000 1.69 173 04:29 01.11.2019
5170 Clouds 8 1017 93 10000 0.5 0 03:26 01.11.2019
5171 Clouds 8 1018 87 10000 1 150 01:37 01.11.2019
5172 Clouds 8 1018 93 10000 1.5 200 00:43 01.11.2019
5173 Clouds 8 1018 93 10000 1.5 200 00:19 01.11.2019
5174 Clouds 8 1018 93 10000 1 230 23:44 31.10.2019
5175 Clouds 8 1018 93 10000 1 230 23:44 31.10.2019
5176 Clouds 8 1018 93 10000 1 230 23:23 31.10.2019
5177 Clouds 8 1019 93 10000 1 190 22:57 31.10.2019
5178 Clouds 8 1019 87 10000 1.5 190 22:39 31.10.2019
5179 Clouds 8 1019 87 10000 1.5 190 22:21 31.10.2019
5180 Clouds 8 1019 87 10000 1 240 21:44 31.10.2019
5181 Clouds 8 1019 87 10000 1 240 21:21 31.10.2019
5182 Clouds 8 1019 87 10000 1 230 20:57 31.10.2019
5183 Clouds 8 1019 87 10000 1.76 152 20:39 31.10.2019
5184 Clouds 8 1019 87 10000 0.55 140 20:21 31.10.2019
5185 Clouds 8 1019 87 10000 2.1 210 19:42 31.10.2019
5186 Clouds 9 1019 87 10000 0.55 140 19:23 31.10.2019
5187 Clouds 9 1019 81 10000 0.5 0 18:58 31.10.2019
5188 Clouds 9 1019 81 10000 1 290 18:39 31.10.2019
5189 Clouds 9 1019 87 10000 1 20 18:20 31.10.2019
5190 Clouds 9 1019 76 10000 1.5 330 17:43 31.10.2019
5191 Clouds 9 1019 76 10000 1.5 330 17:43 31.10.2019
5192 Clouds 9 1019 87 10000 1 10 17:24 31.10.2019
5193 Clouds 9 1019 81 10000 2.1 340 16:59 31.10.2019
5194 Clouds 9 1019 81 10000 2.1 340 16:40 31.10.2019
5195 Clouds 9 1019 76 10000 2.1 350 16:20 31.10.2019
5196 Clouds 9 1019 76 10000 2.1 350 15:58 31.10.2019
5197 Clouds 9 1019 81 10000 2.1 350 15:39 31.10.2019
5198 Clouds 9 1019 81 10000 1.5 0 15:20 31.10.2019
5199 Clouds 9 1019 81 10000 2.1 350 14:56 31.10.2019
5200 Clouds 9 1019 81 10000 1.5 350 14:38 31.10.2019
5201 Clouds 9 1019 87 10000 1.5 0 14:20 31.10.2019
5202 Clouds 9 1019 81 10000 2.1 10 13:57 31.10.2019
5203 Clouds 9 1020 87 10000 3.1 360 13:38 31.10.2019
5204 Clouds 9 1020 87 10000 3.1 30 13:19 31.10.2019
5205 Clouds 9 1020 87 10000 2.6 360 12:54 31.10.2019
5206 Clouds 9 1020 93 10000 2.6 10 12:36 31.10.2019
5207 Clouds 9 1020 87 7000 2.1 20 12:18 31.10.2019
5208 Clouds 8 1021 93 7000 2.6 30 11:43 31.10.2019
5209 Clouds 8 1020 87 8000 2.6 360 11:19 31.10.2019
5210 Clouds 8 1021 93 7000 2.1 10 10:57 31.10.2019
5211 Clouds 8 1021 93 7000 2.1 10 10:57 31.10.2019
5212 Clouds 7 1021 93 5000 2.1 340 10:38 31.10.2019
5213 Mist 7 1021 93 5000 3.1 350 10:20 31.10.2019
5214 Clouds 6 1021 93 7000 2.6 20 09:44 31.10.2019
5215 Clouds 6 1021 93 7000 2.6 20 09:44 31.10.2019
5216 Clouds 6 1021 93 6000 3.1 10 09:19 31.10.2019
5217 Clouds 6 1020 93 7000 2.6 30 08:57 31.10.2019
5218 Clouds 6 1021 93 5000 3.1 360 08:39 31.10.2019
5219 Rain 6 1020 93 6000 3.1 30 08:20 31.10.2019
5220 Mist 6 1020 93 5000 2.1 30 07:45 31.10.2019
5221 Mist 6 1020 93 5000 2.1 30 07:24 31.10.2019
5222 Mist 6 1020 93 5000 1.5 20 06:51 31.10.2019
5223 Rain 6 1020 93 7000 1 360 06:30 31.10.2019
5224 Rain 6 1021 93 6000 2.6 10 05:19 31.10.2019
5225 Rain 6 1021 93 6000 2.6 10 05:19 31.10.2019
5226 Clouds 7 1021 100 6000 1.5 350 02:49 31.10.2019
5227 Clouds 7 1021 100 6000 2.1 340 02:24 31.10.2019
5228 Rain 7 1022 100 4900 2.6 10 00:51 31.10.2019
5229 Rain 7 1022 100 4900 2.6 10 00:25 31.10.2019
5230 Rain 7 1022 93 7000 1.5 360 23:42 30.10.2019
5231 Rain 7 1022 93 7000 1.5 360 23:23 30.10.2019
5232 Rain 7 1022 93 6000 1 360 22:42 30.10.2019
5233 Rain 7 1022 93 7000 1 320 22:19 30.10.2019
5234 Rain 7 1022 93 7000 1 320 21:55 30.10.2019
5235 Rain 7 1022 93 7000 1 320 21:37 30.10.2019
5236 Rain 7 1022 93 9000 2.1 350 21:18 30.10.2019
5237 Rain 7 1022 93 9000 2.1 350 20:58 30.10.2019
5238 Rain 7 1022 93 9000 2.6 350 20:39 30.10.2019
5239 Rain 7 1022 93 9000 2.6 350 20:21 30.10.2019
5240 Drizzle 7 1022 93 7000 2.6 350 19:54 30.10.2019
5241 Rain 7 1023 93 10000 1.52 92 19:36 30.10.2019
5242 Rain 7 1023 93 10000 1.5 350 19:18 30.10.2019
5243 Rain 7 1022 81 10000 2.1 30 18:39 30.10.2019
5244 Rain 8 1022 81 10000 3.1 50 18:19 30.10.2019
5245 Rain 8 1022 93 7000 3.6 350 18:19 30.10.2019
5246 Clouds 8 1022 81 10000 3.1 50 17:57 30.10.2019
5247 Rain 8 1022 76 10000 2.1 50 17:38 30.10.2019
5248 Rain 8 1022 76 10000 2.6 40 17:18 30.10.2019
5249 Rain 8 1022 93 10000 2.6 280 16:55 30.10.2019
5250 Rain 8 1022 93 10000 2.6 280 16:55 30.10.2019
5251 Rain 8 1022 76 10000 1.5 0 16:37 30.10.2019
5252 Rain 8 1022 76 10000 2.1 70 16:18 30.10.2019
5253 Rain 8 1022 76 10000 2.1 70 15:54 30.10.2019
5254 Rain 8 1022 76 10000 2.1 80 15:36 30.10.2019
5255 Rain 8 1022 76 9000 2.6 90 15:18 30.10.2019
5256 Rain 8 1022 76 10000 2.1 60 14:41 30.10.2019
5257 Rain 8 1022 100 5000 2.1 350 14:22 30.10.2019
5258 Rain 8 1022 81 10000 3.6 20 13:58 30.10.2019
5259 Rain 8 1023 76 10000 3.6 20 13:40 30.10.2019
5260 Rain 8 1023 87 7000 3.1 20 13:20 30.10.2019
5261 Rain 8 1023 81 10000 3.6 20 12:57 30.10.2019
5262 Rain 8 1023 81 10000 4.1 10 12:38 30.10.2019
5263 Rain 8 1023 87 10000 3.6 360 12:19 30.10.2019
5264 Rain 8 1024 87 10000 3.6 360 11:41 30.10.2019
5265 Rain 7 1023 87 10000 2.1 30 11:23 30.10.2019
5266 Rain 7 1024 93 10000 2.6 360 10:45 30.10.2019
5267 Rain 7 1024 93 10000 2.6 360 10:27 30.10.2019
5268 Rain 7 1024 87 10000 2.6 360 09:59 30.10.2019
5269 Rain 7 1024 93 10000 2.6 20 09:39 30.10.2019
5270 Clouds 7 1023 87 10000 2.6 10 09:21 30.10.2019
5271 Rain 7 1024 93 9000 3.1 10 08:42 30.10.2019
5272 Clouds 6 1023 87 10000 2.1 10 08:23 30.10.2019
5273 Rain 6 1023 93 9000 2.6 360 07:59 30.10.2019
5274 Clouds 6 1023 93 9000 2.6 360 07:59 30.10.2019
5275 Rain 6 1023 87 10000 2.6 350 07:39 30.10.2019
5276 Clouds 6 1023 93 10000 2.1 360 06:48 30.10.2019
5277 Clouds 6 1023 93 10000 2.1 360 06:29 30.10.2019
5278 Clouds 7 1023 93 10000 2.6 360 05:55 30.10.2019
5279 Clouds 7 1023 93 10000 2.1 360 05:37 30.10.2019
5280 Clouds 7 1023 87 10000 2.6 350 03:51 30.10.2019
5281 Rain 7 1023 87 10000 2.6 350 03:21 30.10.2019
5282 Rain 7 1023 87 10000 3.1 360 02:48 30.10.2019
5283 Clouds 7 1023 87 10000 3.6 10 01:43 30.10.2019
5284 Clouds 7 1023 93 10000 3.6 10 00:37 30.10.2019
5285 Clouds 7 1023 93 10000 4.1 360 00:19 30.10.2019
5286 Clouds 7 1023 93 10000 3.6 360 23:39 29.10.2019
5287 Clouds 7 1023 93 10000 3.6 360 23:19 29.10.2019
5288 Clouds 7 1023 93 10000 3.6 360 22:42 29.10.2019
5289 Clouds 7 1023 93 10000 4.1 360 22:19 29.10.2019
5290 Clouds 7 1023 93 10000 4.1 360 22:19 29.10.2019
5291 Clouds 7 1023 93 10000 4.1 360 21:55 29.10.2019
5292 Clouds 7 1023 93 10000 3.6 360 21:37 29.10.2019
5293 Clouds 7 1023 93 10000 3.6 10 21:19 29.10.2019
5294 Clouds 7 1023 93 10000 4.1 360 20:42 29.10.2019
5295 Clouds 7 1023 93 10000 4.1 360 20:23 29.10.2019
5296 Clouds 7 1023 93 10000 2.6 30 19:59 29.10.2019
5297 Clouds 7 1023 93 10000 2.6 20 19:40 29.10.2019
5298 Clouds 7 1023 87 10000 3.1 350 19:22 29.10.2019
5299 Clouds 7 1023 93 10000 3.6 360 18:59 29.10.2019
5300 Clouds 7 1023 93 10000 1.5 20 18:40 29.10.2019
5301 Drizzle 7 1022 93 8000 3.1 350 18:21 29.10.2019
5302 Rain 7 1023 93 10000 2.1 20 17:58 29.10.2019
5303 Rain 7 1022 93 10000 2.6 20 17:39 29.10.2019
5304 Rain 7 1022 93 10000 2.1 20 17:21 29.10.2019
5305 Rain 7 1022 93 10000 2.1 20 16:58 29.10.2019
5306 Drizzle 7 1022 93 10000 3.6 20 16:38 29.10.2019
5307 Drizzle 7 1022 93 10000 3.1 10 16:18 29.10.2019
5308 Rain 8 1021 93 10000 3.1 360 15:42 29.10.2019
5309 Drizzle 7 1021 93 10000 2.6 20 15:22 29.10.2019
5310 Drizzle 7 1021 93 10000 2.6 20 14:59 29.10.2019
5311 Rain 8 1021 93 10000 4.1 20 14:41 29.10.2019
5312 Rain 7 1021 87 10000 3.6 350 14:23 29.10.2019
5313 Rain 8 1021 93 10000 4.6 10 13:57 29.10.2019
5314 Rain 7 1022 93 10000 4.1 20 13:39 29.10.2019
5315 Rain 7 1021 93 7000 4.1 360 13:21 29.10.2019
5316 Rain 7 1022 100 7000 3.6 360 12:43 29.10.2019
5317 Rain 7 1021 93 3900 3.1 360 12:25 29.10.2019
5318 Rain 7 1021 93 7000 3.1 10 11:55 29.10.2019
5319 Clouds 7 1021 93 10000 3.6 20 11:37 29.10.2019
5320 Clouds 7 1021 93 10000 4.1 360 11:18 29.10.2019
5321 Clouds 7 1021 93 10000 4.1 360 10:57 29.10.2019
5322 Clouds 7 1021 93 10000 3.1 360 10:38 29.10.2019
5323 Clouds 7 1020 93 9000 3.6 10 10:19 29.10.2019
5324 Rain 7 1020 93 10000 4.6 10 09:42 29.10.2019
5325 Rain 7 1020 93 9000 2.6 10 09:23 29.10.2019
5326 Rain 7 1020 93 8000 3.6 350 08:57 29.10.2019
5327 Rain 7 1020 93 9000 3.1 10 08:39 29.10.2019
5328 Rain 7 1019 93 8000 3.1 30 08:20 29.10.2019
5329 Rain 7 1019 93 7000 2.1 10 07:48 29.10.2019
5330 Rain 7 1019 93 7000 2.1 10 07:21 29.10.2019
5331 Rain 7 1018 93 7000 3.1 20 06:54 29.10.2019
5332 Rain 7 1018 93 10000 2.1 10 06:36 29.10.2019
5333 Rain 7 1018 93 8000 2.6 10 06:18 29.10.2019
5334 Rain 7 1018 93 9000 2.6 20 05:48 29.10.2019
5335 Rain 7 1018 93 7000 3.1 20 05:18 29.10.2019
5336 Rain 8 1018 87 10000 2.1 20 03:31 29.10.2019
5337 Rain 8 1018 93 7000 3.6 360 01:57 29.10.2019
5338 Clouds 8 1018 93 10000 2.6 10 01:36 29.10.2019
5339 Drizzle 8 1019 93 9000 2.6 360 00:56 29.10.2019
5340 Clouds 8 1019 93 9000 2.6 360 00:26 29.10.2019
5341 Clouds 8 1019 87 10000 4.1 360 23:41 28.10.2019
5342 Rain 8 1019 87 10000 4.1 360 23:20 28.10.2019
5343 Rain 8 1019 87 10000 4.1 360 23:20 28.10.2019
5344 Rain 8 1019 81 10000 4.6 10 22:57 28.10.2019
5345 Rain 8 1019 81 10000 4.1 360 22:37 28.10.2019
5346 Rain 8 1019 81 10000 4.6 360 22:18 28.10.2019
5347 Rain 8 1019 81 10000 4.6 360 21:54 28.10.2019
5348 Clouds 8 1019 87 10000 3.1 360 21:36 28.10.2019
5349 Rain 8 1019 81 10000 3.6 360 21:18 28.10.2019
5350 Rain 8 1019 87 10000 3.6 360 20:42 28.10.2019
5351 Rain 9 1019 87 10000 3.6 360 20:24 28.10.2019
5352 -273 0 0 0 0 0 20:24 28.10.2019
5353 Rain 9 1020 93 10000 2.1 360 19:58 28.10.2019
5354 Rain 9 1020 93 10000 2.6 360 19:39 28.10.2019
5355 Clouds 9 1020 81 10000 3.6 360 19:20 28.10.2019
5356 Clouds 9 1020 93 10000 2.1 360 18:58 28.10.2019
5357 Clouds 9 1020 93 10000 1.5 30 18:39 28.10.2019
5358 Clouds 9 1019 87 10000 3.1 10 18:21 28.10.2019
5359 Clouds 9 1019 87 10000 3.1 10 18:21 28.10.2019
5360 Clouds 9 1019 93 10000 2.1 30 17:56 28.10.2019
5361 Clouds 9 1019 93 10000 2.6 20 17:38 28.10.2019
5362 Clouds 9 1019 93 10000 3.6 10 17:19 28.10.2019
5363 Clouds 9 1019 93 10000 3.1 10 16:56 28.10.2019
5364 Clouds 9 1019 87 10000 2.6 360 16:38 28.10.2019
5365 Clouds 9 1020 100 10000 2.1 10 16:19 28.10.2019
5366 Clouds 9 1020 100 10000 2.1 10 15:56 28.10.2019
5367 Clouds 9 1020 93 8000 3.1 10 15:38 28.10.2019
5368 Clouds 9 1020 93 10000 4.1 10 15:19 28.10.2019
5369 Clouds 9 1020 93 8000 3.6 10 14:56 28.10.2019
5370 Clouds 9 1020 93 10000 3.6 360 14:37 28.10.2019
5371 Clouds 9 1020 93 10000 4.1 20 14:18 28.10.2019
5372 Clouds 9 1020 93 10000 3.1 20 13:54 28.10.2019
5373 Clouds 9 1021 93 10000 4.1 10 13:36 28.10.2019
5374 Clouds 9 1021 93 10000 3.6 360 13:18 28.10.2019
5375 Clouds 9 1021 93 10000 3.6 360 12:41 28.10.2019
5376 Clouds 9 1021 87 10000 3.6 10 12:20 28.10.2019
5377 Clouds 9 1022 93 10000 2.6 350 11:40 28.10.2019
5378 Clouds 9 1021 93 10000 4.1 10 11:21 28.10.2019
5379 Clouds 8 1022 93 8000 2.6 360 10:57 28.10.2019
5380 Clouds 8 1022 100 9000 3.1 10 10:38 28.10.2019
5381 Clouds 8 1022 100 8000 2.6 10 10:20 28.10.2019
5382 Rain 8 1022 100 8000 2.6 10 09:55 28.10.2019
5383 Rain 8 1022 93 10000 4.1 10 09:55 28.10.2019
5384 Rain 8 1022 100 8000 3.1 360 09:37 28.10.2019
5385 Rain 8 1022 93 8000 2.1 350 09:18 28.10.2019
5386 Rain 8 1022 93 10000 4.6 360 08:56 28.10.2019
5387 Rain 8 1022 93 10000 4.6 360 08:56 28.10.2019
5388 Rain 8 1022 93 7000 2.1 360 08:37 28.10.2019
5389 Rain 8 1021 93 4400 2.6 10 08:18 28.10.2019
5390 Rain 8 1021 93 10000 4.1 10 07:54 28.10.2019
5391 Rain 8 1021 93 8000 4.1 10 07:36 28.10.2019
5392 Rain 8 1021 93 8000 3.6 10 07:18 28.10.2019
5393 Rain 8 1021 87 8000 3.1 10 06:39 28.10.2019
5394 Rain 8 1021 93 7000 3.6 10 05:33 28.10.2019
5395 Rain 9 1022 93 9000 3.1 20 03:45 28.10.2019
5396 Rain 10 1022 100 8000 3.6 20 02:46 28.10.2019
5397 Rain 11 1022 93 8000 4.1 20 01:52 28.10.2019
5398 Rain 11 1022 93 10000 5.1 20 00:53 28.10.2019
5399 Clouds 11 1022 100 10000 4.6 10 00:31 28.10.2019
5400 Clouds 12 1021 93 10000 0.5 0 23:47 27.10.2019
5401 Rain 12 1021 93 10000 0.5 0 23:23 27.10.2019
5402 Rain 12 1021 93 10000 1.5 270 22:57 27.10.2019
5403 Rain 13 1021 100 8000 1.08 353 22:39 27.10.2019
5404 Rain 13 1021 100 8000 1.08 353 22:21 27.10.2019
5405 Rain 13 1021 100 7000 0.5 0 21:57 27.10.2019
5406 Rain 14 1021 100 6000 1 0 21:39 27.10.2019
5407 Rain 14 1021 100 6000 1 0 21:20 27.10.2019
5408 Rain 14 1021 100 6000 1.5 350 20:56 27.10.2019
5409 Rain 14 1021 93 7000 2.1 50 20:37 27.10.2019
5410 Rain 14 1021 93 7000 1.5 40 20:19 27.10.2019
5411 Rain 15 1021 93 7000 1.5 40 19:54 27.10.2019
5412 Rain 15 1021 93 8000 1 0 19:36 27.10.2019
5413 Rain 15 1020 93 8000 1 0 19:18 27.10.2019
5414 Rain 15 1020 93 8000 1 0 18:54 27.10.2019
5415 Rain 15 1020 87 6000 1 0 18:36 27.10.2019
5416 Clouds 15 1020 77 10000 0.97 253 18:18 27.10.2019
5417 Clouds 16 1019 82 10000 1.5 0 17:39 27.10.2019
5418 Clouds 17 1019 77 10000 1 0 17:19 27.10.2019
5419 Clouds 17 1019 77 10000 1 0 16:58 27.10.2019
5420 Clouds 18 1019 72 10000 1.16 253 16:39 27.10.2019
5421 Clouds 18 1019 72 10000 1.16 253 16:21 27.10.2019
5422 Clouds 18 1019 72 10000 1 340 15:56 27.10.2019
5423 Clouds 18 1019 68 10000 1.5 30 15:37 27.10.2019
5424 Clouds 18 1019 72 10000 2.1 350 15:19 27.10.2019
5425 Clouds 19 1019 68 10000 2.6 330 14:42 27.10.2019
5426 Clouds 19 1019 68 10000 2.6 330 14:21 27.10.2019
5427 Clouds 19 1019 56 10000 2.6 220 13:58 27.10.2019
5428 Clouds 19 1019 56 10000 2.1 200 13:39 27.10.2019
5429 Clouds 20 1020 56 10000 2.1 180 13:20 27.10.2019
5430 Clouds 20 1020 56 10000 2.1 180 12:57 27.10.2019
5431 Clouds 19 1020 64 10000 2.1 170 12:38 27.10.2019
5432 Clouds 19 1020 63 10000 3.1 160 12:19 27.10.2019
5433 Clouds 18 1020 68 10000 3.1 170 11:41 27.10.2019
5434 Clouds 17 1020 68 10000 3.1 170 11:21 27.10.2019
5435 Clouds 15 1020 72 10000 3.1 170 10:45 27.10.2019
5436 Clouds 15 1020 72 10000 3.1 170 10:26 27.10.2019
5437 Clouds 15 1020 77 10000 2.1 190 09:58 27.10.2019
5438 Clouds 15 1020 82 10000 2.1 200 09:39 27.10.2019
5439 Clouds 14 1020 82 10000 2.1 210 09:18 27.10.2019
5440 Clouds 14 1020 82 10000 2.1 210 08:56 27.10.2019
5441 Clouds 13 1020 87 10000 3.1 190 08:37 27.10.2019
5442 Clouds 11 1020 93 10000 2.6 190 08:18 27.10.2019
5443 Clouds 10 1019 87 10000 2.6 200 07:44 27.10.2019
5444 Clouds 11 1019 87 10000 2.6 200 07:24 27.10.2019
5445 Clouds 10 1019 87 10000 3.6 210 06:51 27.10.2019
5446 Clouds 10 1019 87 10000 4.1 180 06:27 27.10.2019
5447 Clouds 10 1019 93 10000 3.1 190 05:41 27.10.2019
5448 Clouds 11 1019 87 10000 2.1 170 04:55 27.10.2019
5449 Clouds 11 1019 93 10000 1 0 03:24 27.10.2019
5450 Clouds 11 1020 87 10000 1 0 02:21 27.10.2019
5451 Clouds 11 1020 81 10000 3.1 210 01:54 27.10.2019
5452 Clouds 11 1020 81 10000 3.1 230 01:23 27.10.2019
5453 Clouds 12 1020 76 10000 3.6 230 00:51 27.10.2019
5454 Clouds 12 1020 76 10000 3.6 230 00:28 27.10.2019
5455 Clouds 11 1020 81 10000 2.6 220 23:57 26.10.2019
5456 Clouds 12 1020 76 10000 2.1 240 23:38 26.10.2019
5457 Clouds 12 1020 71 10000 3.6 220 23:20 26.10.2019
5458 Clouds 12 1020 71 10000 3.6 220 22:56 26.10.2019
5459 Clouds 12 1019 71 10000 2.6 220 22:37 26.10.2019
5460 Clouds 13 1019 71 10000 2.1 210 22:18 26.10.2019
5461 Clouds 13 1019 71 10000 2.6 220 21:44 26.10.2019
5462 Clouds 13 1019 71 10000 2.6 220 21:22 26.10.2019
5463 Clouds 13 1019 76 10000 3.1 200 20:59 26.10.2019
5464 Clouds 14 1019 71 10000 3.1 230 20:39 26.10.2019
5465 Clouds 14 1019 67 10000 3.1 230 20:18 26.10.2019
5466 Clouds 14 1019 67 10000 3.1 230 20:18 26.10.2019
5467 Clouds 14 1019 67 10000 2.6 240 19:42 26.10.2019
5468 Clouds 14 1019 67 10000 2.6 240 19:42 26.10.2019
5469 Clouds 15 1019 67 10000 2.6 240 19:21 26.10.2019
5470 Clouds 15 1019 77 10000 2.1 230 18:57 26.10.2019
5471 Clouds 16 1018 72 10000 1 0 18:39 26.10.2019
5472 Clouds 16 1018 72 10000 1 0 18:39 26.10.2019
5473 Clear 18 1018 68 10000 1.5 250 18:20 26.10.2019
5474 Clear 18 1018 68 10000 1.5 250 17:57 26.10.2019
5475 Clear 18 1018 68 10000 2.1 350 17:38 26.10.2019
5476 Clear 18 1018 68 10000 2.1 350 17:20 26.10.2019
5477 Clear 19 1018 53 10000 1.5 0 16:45 26.10.2019
5478 Clear 20 1018 53 10000 1.5 0 16:25 26.10.2019
5479 Clear 20 1019 53 10000 1.5 200 15:59 26.10.2019
5480 Clear 20 1019 60 10000 1.5 0 15:40 26.10.2019
5481 Clear 20 1019 60 10000 3.1 170 15:18 26.10.2019
5482 Clear 19 1020 63 10000 2.6 190 14:40 26.10.2019
5483 Clear 19 1020 63 10000 2.6 190 14:20 26.10.2019
5484 Clear 19 1020 53 0 2.24 257 13:58 26.10.2019
5485 Clear 19 1020 53 0 2.24 257 13:37 26.10.2019
5486 Clear 17 1020 67 10000 4.1 190 13:19 26.10.2019
5487 Clear 14 1022 69 0 2.24 257 12:44 26.10.2019
5488 Clear 14 1021 81 7000 1 0 12:21 26.10.2019
5489 Clear 13 1021 81 7000 1 0 11:48 26.10.2019
5490 Clear 13 1021 81 7000 1 0 11:26 26.10.2019
5491 Clear 13 1021 81 7000 1 0 11:26 26.10.2019
5492 Mist 10 1021 87 2800 2.1 130 10:47 26.10.2019
5493 Mist 10 1021 87 2800 2.1 130 10:27 26.10.2019
5494 Mist 10 1021 87 2800 2.1 130 10:27 26.10.2019
5495 Mist 9 1021 87 5000 1 0 09:56 26.10.2019
5496 Mist 8 1021 93 2600 2.1 150 09:38 26.10.2019
5497 Mist 8 1021 93 2600 2.1 150 09:20 26.10.2019
5498 Clear 7 1021 100 10000 1.81 158 08:42 26.10.2019
5499 Clear 7 1021 100 10000 1.81 158 08:24 26.10.2019
5500 Mist 7 1021 100 5000 0.5 110 07:44 26.10.2019
5501 Mist 7 1021 100 5000 0.5 110 07:24 26.10.2019
5502 Clear 7 1021 100 7000 1.5 170 06:42 26.10.2019
5503 Clear 8 1021 100 7000 1.5 170 06:23 26.10.2019
5504 Clear 7 1021 93 10000 2.1 240 05:19 26.10.2019
5505 Clear 8 1021 93 10000 3.6 200 04:23 26.10.2019
5506 Clouds 9 1022 100 10000 1.97 150 02:46 26.10.2019
5507 Clouds 9 1022 93 10000 1.5 210 01:54 26.10.2019
5508 Clouds 9 1022 93 10000 1.5 190 01:22 26.10.2019
5509 Clouds 10 1022 93 10000 0.5 0 00:23 26.10.2019
5510 Clouds 10 1023 93 10000 2.1 230 23:43 25.10.2019
5511 Clouds 10 1023 93 10000 2.1 230 23:20 25.10.2019
5512 Clouds 10 1023 93 10000 1.5 250 22:40 25.10.2019
5513 Clouds 11 1023 93 10000 1.5 250 22:22 25.10.2019
5514 Clouds 11 1023 87 10000 1 0 21:58 25.10.2019
5515 Clouds 11 1023 82 10000 2.6 270 21:40 25.10.2019
5516 Clouds 11 1023 87 10000 2.1 260 21:19 25.10.2019
5517 Clouds 11 1023 87 10000 2.1 260 20:56 25.10.2019
5518 Clouds 12 1023 87 10000 2.6 260 20:38 25.10.2019
5519 Clouds 12 1023 72 10000 2.6 130 20:18 25.10.2019
5520 Clouds 13 1023 77 10000 2.6 130 19:43 25.10.2019
5521 Clouds 13 1022 82 10000 1 0 19:25 25.10.2019
5522 Clouds 14 1022 63 10000 0.5 0 18:45 25.10.2019
5523 Clouds 16 1022 72 10000 1.5 312 18:23 25.10.2019
5524 Clouds 17 1022 55 10000 1.5 190 17:41 25.10.2019
5525 Clouds 18 1022 59 10000 1 0 17:22 25.10.2019
5526 Clouds 18 1022 55 10000 1.5 180 16:56 25.10.2019
5527 Clouds 18 1022 52 10000 1 0 16:37 25.10.2019
5528 Clouds 18 1022 52 10000 0.5 0 16:19 25.10.2019
5529 Clouds 18 1022 55 10000 1 0 15:41 25.10.2019
5530 Clouds 18 1022 55 10000 1.5 0 15:22 25.10.2019
5531 Clouds 18 1023 59 10000 2.6 240 14:59 25.10.2019
5532 Clouds 18 1023 59 10000 3.1 230 14:40 25.10.2019
5533 Clouds 18 1023 55 10000 2.6 200 14:21 25.10.2019
5534 Clouds 18 1023 63 10000 2.6 190 13:44 25.10.2019
5535 Clouds 18 1023 63 10000 2.6 190 13:44 25.10.2019
5536 Clouds 18 1023 55 10000 1.5 150 13:25 25.10.2019
5537 Clouds 18 1024 68 10000 3.1 230 12:58 25.10.2019
5538 Clouds 18 1024 67 10000 3.6 200 12:39 25.10.2019
5539 Clouds 16 1024 67 10000 3.6 180 12:20 25.10.2019
5540 Clouds 16 1024 72 10000 3.1 200 11:41 25.10.2019
5541 Clouds 15 1023 77 10000 1 0 11:23 25.10.2019
5542 Clouds 15 1024 77 10000 2.6 200 10:59 25.10.2019
5543 Clouds 14 1023 77 10000 2.6 180 10:39 25.10.2019
5544 Clouds 14 1023 82 10000 1 0 10:21 25.10.2019
5545 Clouds 13 1023 76 10000 3.1 200 09:57 25.10.2019
5546 Clouds 12 1023 76 10000 3.1 200 09:38 25.10.2019
5547 Clouds 11 1022 76 10000 2.6 190 09:19 25.10.2019
5548 Clouds 11 1022 82 10000 2.6 180 08:44 25.10.2019
5549 Clouds 11 1022 82 10000 2.6 180 08:24 25.10.2019
5550 Clouds 11 1021 93 10000 2.6 210 07:52 25.10.2019
5551 Clouds 11 1021 93 10000 0.5 0 07:34 25.10.2019
5552 Clouds 10 1020 93 10000 1.5 0 06:41 25.10.2019
5553 Clouds 10 1020 93 10000 1.98 208 05:51 25.10.2019
5554 Clouds 11 1020 93 10000 0.5 0 05:32 25.10.2019
5555 Clouds 11 1019 87 10000 1.5 0 04:42 25.10.2019
5556 Clouds 12 1019 87 10000 0.5 0 03:29 25.10.2019
5557 Clouds 13 1017 87 10000 2.6 190 01:53 25.10.2019
5558 Clouds 14 1017 82 10000 3.1 200 00:50 25.10.2019
5559 Clouds 14 1016 82 10000 3.1 190 00:20 25.10.2019
5560 Clouds 14 1016 82 10000 3.6 190 23:40 24.10.2019
5561 Clouds 14 1016 82 10000 2.1 200 23:22 24.10.2019
5562 Clouds 15 1016 82 10000 2.1 200 22:54 24.10.2019
5563 Clouds 15 1015 67 10000 2.6 200 22:36 24.10.2019
5564 Rain 15 1015 72 10000 0.5 0 22:18 24.10.2019
5565 Rain 15 1015 72 10000 0.5 0 22:18 24.10.2019
5566 Rain 15 1015 72 10000 0.5 0 21:56 24.10.2019
5567 Rain 15 1015 67 10000 2.1 200 21:37 24.10.2019
5568 Rain 15 1015 67 10000 2.1 200 21:37 24.10.2019
5569 Clouds 15 1014 77 10000 1.5 250 21:18 24.10.2019
5570 Clouds 15 1014 77 10000 1.5 250 20:56 24.10.2019
5571 Clouds 15 1014 77 10000 2.1 250 20:37 24.10.2019
5572 Clouds 15 1014 77 10000 2.1 250 20:19 24.10.2019
5573 Clouds 16 1013 63 10000 3.1 180 19:43 24.10.2019
5574 Clouds 15 1013 59 10000 3.1 180 19:23 24.10.2019
5575 Clouds 16 1013 59 10000 3.1 180 18:58 24.10.2019
5576 Clouds 16 1013 55 10000 3.6 170 18:39 24.10.2019
5577 Rain 17 1012 55 10000 3.6 170 18:21 24.10.2019
5578 Rain 17 1013 59 10000 3.6 180 17:57 24.10.2019
5579 Rain 17 1013 59 10000 3.6 180 17:38 24.10.2019
5580 Rain 18 1012 63 10000 2.6 160 17:19 24.10.2019
5581 Rain 18 1012 63 10000 2.6 160 16:54 24.10.2019
5582 Rain 18 1012 63 10000 2.6 160 16:54 24.10.2019
5583 Rain 18 1012 63 10000 3.1 180 16:36 24.10.2019
5584 Rain 18 1012 68 10000 3.1 190 16:18 24.10.2019
5585 Rain 18 1012 68 10000 3.1 190 15:54 24.10.2019
5586 Rain 18 1012 60 10000 3.6 180 15:36 24.10.2019
5587 Clouds 19 1012 60 10000 4.1 180 15:18 24.10.2019
5588 Clouds 18 1012 63 10000 4.1 190 14:42 24.10.2019
5589 Clouds 18 1012 72 10000 1.5 0 14:23 24.10.2019
5590 Clouds 18 1012 68 10000 3.1 190 13:58 24.10.2019
5591 Clouds 17 1013 77 10000 3.6 180 13:37 24.10.2019
5592 Clouds 17 1013 82 10000 3.1 210 13:18 24.10.2019
5593 Clouds 17 1013 82 10000 1 0 12:56 24.10.2019
5594 Clouds 16 1012 82 10000 2.6 190 12:37 24.10.2019
5595 Clouds 15 1012 87 10000 2.1 210 12:18 24.10.2019
5596 Clouds 15 1012 87 10000 2.1 150 11:55 24.10.2019
5597 Clouds 14 1012 93 10000 1.5 230 11:36 24.10.2019
5598 Clouds 14 1012 100 7000 1.5 0 11:18 24.10.2019
5599 Mist 13 1011 100 1000 1.5 0 10:42 24.10.2019
5600 Clouds 12 1011 93 550 1 0 10:23 24.10.2019
5601 Fog 12 1011 100 300 3.1 230 09:40 24.10.2019
5602 Clouds 11 1010 100 6000 2.6 240 09:19 24.10.2019
5603 Clouds 11 1010 100 6000 2.6 240 08:59 24.10.2019
5604 Clouds 11 1010 100 6000 1 250 08:41 24.10.2019
5605 Clouds 11 1010 93 6000 1 0 08:20 24.10.2019
5606 Clouds 11 1011 100 6000 1 0 07:47 24.10.2019
5607 Clouds 11 1010 100 7000 1 0 07:23 24.10.2019
5608 Clouds 11 1010 100 7000 1 0 06:56 24.10.2019
5609 Mist 11 1011 100 5000 1.5 200 06:36 24.10.2019
5610 Mist 11 1011 100 5000 1 170 05:55 24.10.2019
5611 Mist 11 1011 100 2600 1 0 05:33 24.10.2019
5612 Mist 11 1011 100 5000 1 360 04:33 24.10.2019
5613 Clouds 12 1011 93 7000 1 0 03:35 24.10.2019
5614 Clouds 12 1011 93 6000 1.5 320 02:41 24.10.2019
5615 Clouds 12 1011 93 6000 1.5 130 02:20 24.10.2019
5616 Clouds 12 1011 93 6000 1.5 160 01:31 24.10.2019
5617 Clouds 12 1011 93 7000 2.6 170 00:56 24.10.2019
5618 Clouds 12 1011 100 6000 3.6 190 00:30 24.10.2019
5619 Mist 12 1011 100 5000 3.6 170 23:57 23.10.2019
5620 Clouds 12 1010 100 6000 2.1 170 23:38 23.10.2019
5621 Clouds 12 1010 100 6000 2.1 170 23:19 23.10.2019
5622 Clouds 12 1010 93 8000 2.1 190 22:56 23.10.2019
5623 Clouds 12 1011 93 10000 1.5 200 22:37 23.10.2019
5624 Clouds 12 1010 93 10000 1 0 22:18 23.10.2019
5625 Clouds 12 1010 93 10000 1 0 21:56 23.10.2019
5626 Clouds 12 1010 100 10000 1.5 0 21:37 23.10.2019
5627 Clouds 12 1011 100 7000 1.5 0 21:19 23.10.2019
5628 Clouds 12 1011 100 7000 1.5 0 20:54 23.10.2019
5629 Clouds 12 1011 100 8000 1.5 0 20:36 23.10.2019
5630 Mist 12 1011 100 2500 1 0 20:18 23.10.2019
5631 Mist 12 1011 100 2000 1.5 220 19:42 23.10.2019
5632 Mist 13 1011 100 4000 1 0 19:19 23.10.2019
5633 Clouds 13 1012 93 8000 1 0 18:57 23.10.2019
5634 Mist 13 1012 100 4000 1 0 18:39 23.10.2019
5635 Mist 13 1012 100 4000 1 0 18:19 23.10.2019
5636 Clouds 14 1012 93 9000 2.6 350 17:55 23.10.2019
5637 Mist 14 1012 100 4000 1.13 88 17:37 23.10.2019
5638 Mist 15 1012 100 4000 0.5 0 17:18 23.10.2019
5639 Mist 16 1012 100 3000 1.5 0 16:40 23.10.2019
5640 Mist 16 1013 100 3000 1.5 10 16:21 23.10.2019
5641 Clouds 16 1013 87 10000 2.6 20 15:57 23.10.2019
5642 Mist 16 1013 100 3000 1.5 350 15:39 23.10.2019
5643 Mist 15 1014 100 3000 2.6 350 15:20 23.10.2019
5644 Clouds 15 1014 93 10000 1 0 14:56 23.10.2019
5645 Mist 15 1014 100 3000 2.6 360 14:37 23.10.2019
5646 Mist 15 1014 100 3500 1.5 0 14:18 23.10.2019
5647 Clouds 17 1015 100 3500 1 0 13:43 23.10.2019
5648 Clouds 16 1015 93 10000 1.5 10 13:25 23.10.2019
5649 Clouds 15 1015 100 8000 1.5 0 12:57 23.10.2019
5650 Mist 14 1015 100 2000 1 0 12:39 23.10.2019
5651 Mist 13 1016 100 1400 1 0 12:19 23.10.2019
5652 Clouds 13 1016 93 8000 1.5 210 11:58 23.10.2019
5653 Mist 13 1016 100 2000 2.6 20 11:39 23.10.2019
5654 Clouds 13 1016 100 6000 0.67 115 11:21 23.10.2019
5655 Clouds 12 1016 93 6000 1 0 10:56 23.10.2019
5656 Fog 12 1016 100 800 1 0 10:38 23.10.2019
5657 Fog 12 1016 100 800 1 0 10:38 23.10.2019
5658 Mist 12 1016 100 1500 1 50 10:19 23.10.2019
5659 Mist 12 1016 100 4000 1.5 30 09:40 23.10.2019
5660 Mist 11 1016 100 5000 1 360 09:22 23.10.2019
5661 Fog 11 1016 100 600 2.6 60 08:55 23.10.2019
5662 Fog 11 1016 100 600 2.6 60 08:55 23.10.2019
5663 Fog 11 1016 100 700 1 0 08:37 23.10.2019
5664 Fog 11 1016 100 900 2.1 50 08:18 23.10.2019
5665 Fog 11 1016 100 750 1 0 07:44 23.10.2019
5666 Fog 11 1016 100 750 1 0 07:20 23.10.2019
5667 Mist 11 1017 100 1700 1.87 120 06:43 23.10.2019
5668 Mist 11 1017 100 1700 1.74 125 06:19 23.10.2019
5669 Mist 11 1017 100 2900 1.5 20 05:20 23.10.2019
5670 Clouds 11 1018 93 6000 2.1 360 03:58 23.10.2019
5671 Clouds 12 1019 93 10000 2.6 30 02:44 23.10.2019
5672 Fog 12 1019 100 1700 1 0 01:43 23.10.2019
5673 Clouds 12 1020 93 10000 1 340 01:19 23.10.2019
5674 Clouds 12 1020 93 10000 2.1 290 00:35 23.10.2019
5675 Clouds 12 1021 93 10000 1.5 280 23:57 22.10.2019
5676 Clouds 12 1021 87 10000 1.5 280 23:37 22.10.2019
5677 Clouds 12 1021 87 10000 1.5 310 23:18 22.10.2019
5678 Clouds 12 1021 87 10000 1.5 310 23:18 22.10.2019
5679 Clouds 12 1021 87 10000 1.5 310 22:54 22.10.2019
5680 Clouds 12 1021 87 9000 1 340 22:36 22.10.2019
5681 Clouds 12 1021 100 7000 1.5 0 22:18 22.10.2019
5682 Clouds 12 1021 100 7000 1.5 0 21:55 22.10.2019
5683 Clouds 13 1021 93 8000 0.5 320 21:36 22.10.2019
5684 Clouds 13 1022 93 10000 0.5 360 21:18 22.10.2019
5685 Clouds 13 1022 87 10000 2.1 10 20:42 22.10.2019
5686 Clouds 13 1022 87 10000 2.1 10 20:23 22.10.2019
5687 Clouds 13 1022 93 10000 1 0 19:59 22.10.2019
5688 Clouds 13 1022 93 10000 1 0 19:41 22.10.2019
5689 Clouds 13 1022 93 10000 2.1 10 19:23 22.10.2019
5690 Clouds 13 1022 93 10000 2.6 10 18:57 22.10.2019
5691 Clouds 13 1022 87 10000 2.6 20 18:39 22.10.2019
5692 Clouds 14 1022 87 10000 2.6 20 18:20 22.10.2019
5693 Clouds 14 1022 87 10000 2.6 20 17:56 22.10.2019
5694 Clouds 14 1022 87 10000 1.5 340 17:37 22.10.2019
5695 Clouds 14 1022 87 10000 1.5 340 17:19 22.10.2019
5696 Clouds 14 1022 87 10000 3.6 20 16:56 22.10.2019
5697 Clouds 14 1022 87 10000 4.1 30 16:37 22.10.2019
5698 Clouds 14 1023 87 10000 4.1 10 16:18 22.10.2019
5699 Clouds 14 1023 87 10000 3.1 10 15:43 22.10.2019
5700 Clouds 14 1023 82 10000 2.1 30 15:20 22.10.2019
5701 Clouds 14 1023 87 10000 3.1 10 14:57 22.10.2019
5702 Clouds 14 1023 87 10000 3.1 10 14:39 22.10.2019
5703 Clouds 14 1023 87 10000 3.1 360 14:18 22.10.2019
5704 Clouds 14 1024 87 10000 3.1 20 13:41 22.10.2019
5705 Clouds 14 1024 93 10000 1.5 30 13:20 22.10.2019
5706 Clouds 14 1024 87 10000 2.1 30 12:57 22.10.2019
5707 Clouds 13 1024 87 8000 2.6 50 12:38 22.10.2019
5708 Clouds 13 1024 87 10000 2.1 40 12:20 22.10.2019
5709 Clouds 13 1024 87 8000 2.6 40 11:42 22.10.2019
5710 Rain 12 1024 87 10000 2.1 30 11:23 22.10.2019
5711 Rain 12 1024 93 6000 3.1 50 10:59 22.10.2019
5712 Rain 12 1024 93 6000 3.1 50 10:59 22.10.2019
5713 Rain 12 1024 93 2300 2.6 30 10:38 22.10.2019
5714 Clouds 12 1024 93 10000 2.1 10 10:20 22.10.2019
5715 Clouds 12 1024 93 2300 2.6 30 10:00 22.10.2019
5716 Clouds 12 1024 93 2300 2.6 30 09:59 22.10.2019
5717 Clouds 12 1024 93 2300 2.6 30 09:59 22.10.2019
5718 Mist 12 1024 93 2300 2.1 10 09:41 22.10.2019
5719 Clouds 12 1023 93 10000 1 350 09:22 22.10.2019
5720 Mist 11 1023 100 2300 2.1 50 08:59 22.10.2019
5721 Mist 12 1023 93 3400 2.1 20 08:40 22.10.2019
5722 Clouds 12 1023 93 10000 1.5 10 08:19 22.10.2019
5723 Clouds 11 1023 100 10000 1 0 07:44 22.10.2019
5724 Clouds 11 1023 100 10000 1 0 07:25 22.10.2019
5725 Clouds 12 1023 93 10000 2.1 30 06:45 22.10.2019
5726 Clouds 11 1023 93 10000 2.1 30 06:27 22.10.2019
5727 Clouds 12 1023 87 10000 1.5 30 05:48 22.10.2019
5728 Clouds 12 1023 93 9000 2.1 20 04:54 22.10.2019
5729 Mist 12 1023 100 3900 1 360 02:31 22.10.2019
5730 Rain 12 1023 100 10000 1 230 01:39 22.10.2019
5731 Rain 12 1023 100 10000 1 230 01:21 22.10.2019
5732 Rain 12 1023 93 9000 1 0 00:56 22.10.2019
5733 Rain 12 1023 100 6000 0.5 0 00:38 22.10.2019
5734 Rain 13 1023 100 6000 0.5 0 00:19 22.10.2019
5735 Rain 13 1023 100 9000 0.86 133 23:39 21.10.2019
5736 Rain 13 1023 100 9000 0.86 133 23:19 21.10.2019
5737 Rain 13 1023 100 10000 1 200 22:59 21.10.2019
5738 Rain 13 1022 100 10000 1 180 22:40 21.10.2019
5739 Rain 13 1022 100 10000 1 180 22:40 21.10.2019
5740 Rain 13 1022 100 10000 1 180 22:20 21.10.2019
5741 Rain 13 1022 100 10000 1.5 200 21:58 21.10.2019
5742 Clouds 13 1022 100 10000 1.5 200 21:39 21.10.2019
5743 Rain 13 1022 100 10000 1.5 200 21:21 21.10.2019
5744 Rain 13 1022 93 8000 1.5 0 20:58 21.10.2019
5745 Rain 13 1022 93 10000 2.6 170 20:40 21.10.2019
5746 Rain 13 1022 93 10000 2.6 170 20:21 21.10.2019
5747 Rain 13 1022 93 10000 1.5 140 19:57 21.10.2019
5748 Rain 13 1022 93 10000 1.5 140 19:39 21.10.2019
5749 Rain 13 1022 100 10000 1.5 160 19:21 21.10.2019
5750 Rain 13 1022 93 10000 2.1 150 18:55 21.10.2019
5751 Rain 13 1021 93 10000 1.5 210 18:37 21.10.2019
5752 Rain 14 1021 93 10000 1 0 18:18 21.10.2019
5753 Rain 14 1021 93 10000 1 0 17:55 21.10.2019
5754 Rain 14 1020 93 10000 1 0 17:37 21.10.2019
5755 Rain 14 1021 87 10000 0.46 261 17:18 21.10.2019
5756 Rain 14 1021 87 10000 0.46 261 16:55 21.10.2019
5757 Rain 15 1020 82 10000 1 0 16:37 21.10.2019
5758 Clouds 15 1021 87 10000 1 0 16:19 21.10.2019
5759 Rain 15 1020 82 10000 1.5 220 15:42 21.10.2019
5760 Clouds 15 1020 82 10000 1.5 220 15:24 21.10.2019
5761 Clouds 15 1020 82 10000 2.6 240 14:57 21.10.2019
5762 Clouds 15 1020 82 10000 1 0 14:38 21.10.2019
5763 Clouds 15 1020 93 10000 2.6 180 14:19 21.10.2019
5764 Rain 15 1020 87 10000 2.1 230 13:55 21.10.2019
5765 Rain 14 1020 87 10000 1.5 210 13:37 21.10.2019
5766 Rain 15 1020 87 10000 1.5 210 13:18 21.10.2019
5767 Rain 15 1020 87 10000 3.1 250 12:41 21.10.2019
5768 Rain 15 1020 93 10000 2.1 160 12:22 21.10.2019
5769 Rain 15 1019 82 10000 2.6 270 11:55 21.10.2019
5770 Clear 15 1018 82 10000 2.6 290 11:37 21.10.2019
5771 Clear 14 1018 93 10000 2.6 160 11:19 21.10.2019
5772 Clear 15 1018 77 10000 1.5 240 10:56 21.10.2019
5773 Clear 14 1018 77 10000 2.6 200 10:37 21.10.2019
5774 Clear 14 1017 77 10000 2.1 170 10:18 21.10.2019
5775 Drizzle 14 1017 82 10000 2.6 180 09:44 21.10.2019
5776 Drizzle 14 1017 82 10000 2.6 180 09:25 21.10.2019
5777 Clouds 13 1017 87 10000 2.1 180 08:56 21.10.2019
5778 Rain 13 1016 93 10000 2.1 190 08:37 21.10.2019
5779 Clouds 13 1016 93 10000 2.1 200 08:18 21.10.2019
5780 Rain 13 1015 93 10000 3.1 180 07:39 21.10.2019
5781 Rain 14 1015 93 10000 3.1 180 07:20 21.10.2019
5782 Rain 14 1015 93 10000 3.1 180 06:54 21.10.2019
5783 Rain 13 1015 93 10000 3.1 170 06:36 21.10.2019
5784 Clouds 13 1014 100 10000 3.6 200 05:56 21.10.2019
5785 Clouds 13 1014 100 10000 3.6 200 05:56 21.10.2019
5786 Rain 13 1014 100 7000 1.5 190 04:45 21.10.2019
5787 Rain 14 1013 100 8000 2.39 88.753 03:37 21.10.2019
5788 Rain 14 1013 93 10000 3.1 230 02:25 21.10.2019
5789 Rain 14 1011 93 10000 2.1 250 01:59 21.10.2019
5790 Clouds 14 1011 93 10000 3.1 230 01:23 21.10.2019
5791 Clear 14 1011 87 10000 2.1 120 00:50 21.10.2019
5792 Clouds 14 1012 93 10000 1 170 00:27 21.10.2019
5793 Rain 14 1013 87 10000 5.7 280 23:43 20.10.2019
5794 Rain 14 1012 77 10000 4.1 280 23:22 20.10.2019
5795 Rain 14 1011 87 10000 4.1 270 22:57 20.10.2019
5796 Clear 13 1009 93 10000 2.1 310 22:39 20.10.2019
5797 Clear 13 1009 93 10000 2.1 310 22:19 20.10.2019
5798 Clear 13 1008 100 10000 2.1 350 21:59 20.10.2019
5799 Clear 14 1008 93 10000 1.5 0 21:39 20.10.2019
5800 Clear 14 1008 93 10000 1.5 0 21:21 20.10.2019
5801 Clear 14 1008 93 10000 2.6 20 20:54 20.10.2019
5802 Clouds 14 1008 93 10000 2.1 350 20:36 20.10.2019
5803 Clear 14 1007 87 10000 2.6 10 20:18 20.10.2019
5804 Clear 14 1007 87 10000 2.6 10 19:55 20.10.2019
5805 Clouds 14 1007 100 10000 2.1 360 19:36 20.10.2019
5806 Clear 15 1008 93 10000 1.5 330 19:18 20.10.2019
5807 Clear 16 1008 88 10000 1.5 0 18:40 20.10.2019
5808 Clear 16 1008 88 10000 1.5 0 18:20 20.10.2019
5809 Clear 17 1007 82 10000 1 0 17:56 20.10.2019
5810 Clear 17 1007 82 10000 1.5 0 17:37 20.10.2019
5811 Clear 18 1007 82 10000 1.5 0 17:19 20.10.2019
5812 Clear 18 1007 77 10000 1.5 0 16:43 20.10.2019
5813 Clear 19 1007 77 10000 1.5 0 16:24 20.10.2019
5814 Clear 19 1007 77 10000 1.5 0 16:24 20.10.2019
5815 Clear 19 1007 77 10000 1.5 0 15:59 20.10.2019
5816 Clear 19 1007 77 10000 1 0 15:39 20.10.2019
5817 Clear 18 1007 77 10000 1 0 15:20 20.10.2019
5818 Clear 18 1007 77 10000 1 0 14:58 20.10.2019
5819 Clear 17 1007 82 10000 1 0 14:38 20.10.2019
5820 Clear 17 1007 82 10000 1 0 14:38 20.10.2019
5821 Clear 17 1007 82 10000 1 0 14:19 20.10.2019
5822 Clouds 17 1007 82 10000 0.5 0 13:56 20.10.2019
5823 Clouds 16 1007 82 10000 1.5 0 13:37 20.10.2019
5824 Clouds 16 1007 87 10000 1.5 0 13:18 20.10.2019
5825 Clouds 16 1007 87 10000 1.5 0 12:57 20.10.2019
5826 Clouds 15 1008 93 10000 1.5 0 12:39 20.10.2019
5827 Clouds 15 1008 93 10000 1.5 0 12:21 20.10.2019
5828 Clouds 15 1008 87 10000 2.6 230 11:57 20.10.2019
5829 Clouds 14 1007 93 10000 0.5 0 11:39 20.10.2019
5830 Clouds 14 1008 93 10000 0.5 0 11:21 20.10.2019
5831 Clouds 14 1008 93 10000 1 0 10:57 20.10.2019
5832 Clouds 13 1008 100 9000 1 0 10:37 20.10.2019
5833 Fog 12 1008 100 1100 0.5 0 10:18 20.10.2019
5834 Fog 12 1008 100 250 1 280 09:43 20.10.2019
5835 Fog 11 1008 100 350 1 0 09:22 20.10.2019
5836 Fog 11 1008 100 600 1.34 200.336 08:56 20.10.2019
5837 Fog 11 1008 100 500 1.34 200.336 08:37 20.10.2019
5838 Fog 11 1008 100 550 1 0 08:18 20.10.2019
5839 Mist 10 1008 100 1000 1 0 07:44 20.10.2019
5840 Mist 11 1008 100 1000 1 0 07:24 20.10.2019
5841 Mist 11 1008 100 1000 1 0 07:24 20.10.2019
5842 Fog 11 1008 100 10000 1.5 160 06:28 20.10.2019
5843 Fog 11 1007 100 6000 1 0 04:28 20.10.2019
5844 Fog 12 1008 100 7000 1.5 180 03:49 20.10.2019
5845 Fog 12 1008 100 7000 1.5 0 03:22 20.10.2019
5846 Rain 12 1008 93 8000 1 0 02:46 20.10.2019
5847 Rain 12 1008 93 8000 1 0 02:22 20.10.2019
5848 Rain 12 1009 93 10000 1 140 01:47 20.10.2019
5849 Mist 12 1009 93 10000 1 140 01:20 20.10.2019
5850 Rain 12 1009 100 9000 0.5 0 00:48 20.10.2019
5851 Rain 12 1009 100 9000 0.5 0 00:20 20.10.2019
5852 -273 0 0 0 0 0 23:54 19.10.2019
5853 Rain 12 1010 100 7000 1.5 150 23:36 19.10.2019
5854 Rain 12 1009 93 10000 1.5 200 23:18 19.10.2019
5855 Rain 13 1009 100 7000 1.5 0 22:40 19.10.2019
5856 Rain 12 1009 100 7000 1.5 0 22:21 19.10.2019
5857 Rain 13 1009 100 9000 1.5 170 21:55 19.10.2019
5858 Rain 13 1009 93 10000 2.6 210 21:37 19.10.2019
5859 Rain 12 1009 93 10000 2.6 210 21:19 19.10.2019
5860 Rain 13 1009 93 7000 1.5 170 20:41 19.10.2019
5861 Rain 12 1009 100 7000 3.6 200 20:20 19.10.2019
5862 Rain 13 1009 93 7000 5.7 180 19:42 19.10.2019
5863 Rain 13 1009 93 7000 5.7 180 19:24 19.10.2019
5864 Rain 13 1009 93 7000 4.6 180 18:57 19.10.2019
5865 Rain 13 1008 93 10000 3.6 170 18:39 19.10.2019
5866 Rain 14 1008 93 10000 3.6 170 18:19 19.10.2019
5867 Rain 14 1008 87 10000 2.1 150 17:41 19.10.2019
5868 Rain 14 1008 93 10000 3.6 180 17:23 19.10.2019
5869 Rain 14 1008 93 10000 3.6 180 16:57 19.10.2019
5870 Rain 14 1008 93 10000 3.6 180 16:57 19.10.2019
5871 Rain 14 1008 87 10000 3.6 190 16:38 19.10.2019
5872 Rain 14 1008 87 10000 4.1 200 16:19 19.10.2019
5873 Rain 14 1009 87 10000 6.2 190 15:43 19.10.2019
5874 Rain 14 1009 87 10000 6.2 190 15:24 19.10.2019
5875 Rain 14 1009 82 10000 6.2 200 14:39 19.10.2019
5876 Rain 14 1009 82 10000 6.2 200 14:39 19.10.2019
5877 Rain 14 1009 82 10000 6.2 200 14:21 19.10.2019
5878 Rain 14 1009 87 10000 4.1 210 13:59 19.10.2019
5879 Rain 14 1010 93 10000 4.1 200 13:40 19.10.2019
5880 Clouds 14 1010 93 10000 4.1 200 13:20 19.10.2019
5881 Rain 14 1010 93 10000 4.1 190 12:58 19.10.2019
5882 Rain 13 1010 93 10000 2.1 160 12:38 19.10.2019
5883 Rain 13 1010 93 10000 2.1 160 12:20 19.10.2019
5884 Rain 13 1010 87 10000 4.6 180 11:41 19.10.2019
5885 Rain 13 1010 87 10000 4.6 180 11:23 19.10.2019
5886 Rain 13 1010 87 10000 4.6 180 11:23 19.10.2019
5887 Rain 12 1010 87 10000 5.7 180 10:58 19.10.2019
5888 Rain 12 1010 87 10000 6.2 180 10:40 19.10.2019
5889 Rain 12 1010 87 10000 6.2 180 10:22 19.10.2019
5890 Rain 12 1010 93 10000 4.1 210 09:56 19.10.2019
5891 Rain 12 1010 93 10000 4.1 210 09:37 19.10.2019
5892 Rain 12 1010 93 10000 2.6 230 09:19 19.10.2019
5893 Rain 12 1009 93 10000 3.1 220 08:41 19.10.2019
5894 Rain 12 1009 93 10000 4.1 200 08:21 19.10.2019
5895 Rain 12 1009 93 10000 3.6 200 07:46 19.10.2019
5896 Rain 12 1010 93 10000 5.1 190 07:26 19.10.2019
5897 Rain 12 1010 100 10000 2.1 200 06:48 19.10.2019
5898 Rain 12 1010 100 10000 2.1 210 06:30 19.10.2019
5899 Rain 12 1010 100 7000 3.1 190 05:35 19.10.2019
5900 Rain 12 1011 93 9000 3.1 170 04:26 19.10.2019
5901 Rain 12 1012 93 10000 5.7 190 02:56 19.10.2019
5902 Rain 12 1012 93 10000 4.1 180 01:56 19.10.2019
5903 Rain 12 1012 93 10000 3.1 170 01:37 19.10.2019
5904 Rain 12 1012 93 10000 4.1 180 00:51 19.10.2019
5905 Rain 12 1012 93 10000 2.1 200 00:28 19.10.2019
5906 Rain 12 1012 93 10000 1.5 0 23:57 18.10.2019
5907 Rain 12 1013 93 10000 0.5 0 23:38 18.10.2019
5908 Rain 12 1013 93 10000 0.5 0 23:20 18.10.2019
5909 Rain 13 1013 87 10000 1.5 240 22:54 18.10.2019
5910 Rain 13 1012 93 10000 3.1 190 22:36 18.10.2019
5911 Rain 13 1012 93 10000 4.6 180 22:18 18.10.2019
5912 Rain 13 1012 93 10000 4.6 180 22:18 18.10.2019
5913 Rain 13 1012 93 10000 4.6 180 21:55 18.10.2019
5914 Rain 13 1012 93 10000 4.6 190 21:36 18.10.2019
5915 Rain 13 1012 87 10000 4.6 200 21:18 18.10.2019
5916 Rain 13 1012 87 10000 4.1 170 20:43 18.10.2019
5917 Rain 14 1012 87 10000 4.1 170 20:22 18.10.2019
5918 Rain 14 1012 87 10000 4.1 170 20:22 18.10.2019
5919 Rain 13 1012 87 10000 2.1 200 19:58 18.10.2019
5920 Rain 14 1012 82 10000 4.1 180 19:40 18.10.2019
5921 Rain 14 1012 82 10000 4.1 180 19:22 18.10.2019
5922 Rain 14 1012 87 10000 1.5 230 18:59 18.10.2019
5923 Clouds 14 1012 72 10000 3.1 180 18:41 18.10.2019
5924 Clouds 15 1012 72 10000 3.1 180 18:22 18.10.2019
5925 Clouds 15 1012 72 10000 3.1 180 17:56 18.10.2019
5926 Clouds 15 1012 77 10000 4.6 180 17:37 18.10.2019
5927 Clouds 15 1012 63 10000 1.5 250 17:19 18.10.2019
5928 Clouds 16 1012 77 10000 5.7 180 16:40 18.10.2019
5929 Rain 16 1012 72 10000 3.1 150 16:21 18.10.2019
5930 Clouds 16 1012 82 10000 5.1 180 15:57 18.10.2019
5931 Clouds 15 1012 87 10000 3.1 190 15:38 18.10.2019
5932 Rain 15 1014 93 10000 3.1 260 15:20 18.10.2019
5933 Rain 15 1014 93 10000 3.1 260 14:57 18.10.2019
5934 Rain 15 1012 93 10000 1 0 14:38 18.10.2019
5935 Rain 16 1012 93 10000 1 160 14:19 18.10.2019
5936 Rain 16 1012 93 10000 1 160 13:56 18.10.2019
5937 Rain 17 1012 87 10000 4.1 270 13:37 18.10.2019
5938 Rain 17 1011 87 10000 6.7 290 13:18 18.10.2019
5939 Rain 18 1011 87 10000 6.7 290 12:55 18.10.2019
5940 Rain 18 1011 63 10000 6.2 210 12:37 18.10.2019
5941 Clear 17 1011 63 10000 4.1 190 12:18 18.10.2019
5942 Clear 17 1011 77 10000 3.1 190 11:41 18.10.2019
5943 Clouds 16 1012 87 10000 4.1 190 11:20 18.10.2019
5944 Clear 15 1012 87 10000 2.6 210 10:58 18.10.2019
5945 Clear 15 1012 87 10000 2.1 220 10:40 18.10.2019
5946 Clear 14 1012 87 10000 1.5 170 10:22 18.10.2019
5947 Clear 14 1012 87 10000 1.5 170 09:57 18.10.2019
5948 Clear 13 1012 93 10000 1 0 09:39 18.10.2019
5949 Clear 13 1012 93 10000 1 0 09:39 18.10.2019
5950 Clouds 13 1012 100 10000 1 0 09:19 18.10.2019
5951 Clear 13 1012 93 10000 3.56 197.83 08:45 18.10.2019
5952 Clear 12 1012 93 10000 3.56 197.83 08:25 18.10.2019
5953 -273 0 0 0 0 0 07:57 18.10.2019
5954 Clouds 12 1012 100 10000 3.56 197.83 07:38 18.10.2019
5955 Clear 12 1013 100 10000 1 0 06:56 18.10.2019
5956 Clear 12 1013 93 10000 1 0 06:37 18.10.2019
5957 Rain 12 1013 100 10000 2.1 0 06:19 18.10.2019
5958 Clear 12 1013 100 10000 2.1 0 05:53 18.10.2019
5959 Clouds 13 1013 100 10000 1 0 05:20 18.10.2019
5960 Clouds 13 1014 93 10000 1 0 03:41 18.10.2019
5961 Clouds 14 1014 93 10000 1 0 03:19 18.10.2019
5962 Clouds 14 1013 93 10000 4.1 200 02:32 18.10.2019
5963 Rain 14 1014 100 10000 2.1 230 01:42 18.10.2019
5964 Rain 14 1014 100 10000 2.1 230 01:23 18.10.2019
5965 Clouds 14 1014 87 10000 5.7 180 00:43 18.10.2019
5966 Clouds 14 1014 87 10000 5.7 180 00:20 18.10.2019
5967 Clouds 14 1014 87 10000 5.7 180 00:20 18.10.2019
5968 Clouds 14 1015 93 10000 1 0 23:41 17.10.2019
5969 Clouds 14 1015 93 10000 1 0 23:21 17.10.2019
5970 Clouds 14 1014 87 10000 6.2 190 22:58 17.10.2019
5971 Clouds 14 1014 87 10000 6.2 190 22:58 17.10.2019
5972 Clouds 14 1014 87 10000 6.7 190 22:39 17.10.2019
5973 Clouds 14 1014 87 10000 6.7 190 22:20 17.10.2019
5974 Clouds 14 1014 87 10000 6.2 180 21:58 17.10.2019
5975 Rain 14 1014 87 10000 4.1 170 21:39 17.10.2019
5976 Rain 14 1014 87 10000 4.1 170 21:21 17.10.2019
5977 Rain 14 1014 93 10000 5.7 180 20:58 17.10.2019
5978 Rain 14 1014 87 10000 5.1 180 20:40 17.10.2019
5979 Rain 14 1014 87 10000 5.1 180 20:20 17.10.2019
5980 Rain 14 1014 87 10000 5.1 180 20:20 17.10.2019
5981 Rain 14 1014 87 10000 5.7 180 19:59 17.10.2019
5982 Rain 14 1014 87 10000 5.7 180 19:59 17.10.2019
5983 Rain 14 1014 87 10000 5.1 180 19:40 17.10.2019
5984 Rain 14 1014 87 10000 5.1 180 19:20 17.10.2019
5985 Rain 14 1014 87 10000 5.1 180 19:20 17.10.2019
5986 Rain 14 1014 87 10000 5.1 180 19:20 17.10.2019
5987 Rain 14 1014 87 10000 4.6 180 18:58 17.10.2019
5988 Rain 15 1014 87 7000 4.1 170 18:38 17.10.2019
5989 Rain 15 1014 87 10000 2.1 200 18:20 17.10.2019
5990 Rain 16 1014 82 10000 4.6 190 17:43 17.10.2019
5991 Rain 16 1014 82 10000 2.6 220 17:24 17.10.2019
5992 Rain 17 1014 72 10000 4.1 200 16:58 17.10.2019
5993 Rain 18 1013 68 10000 3.6 200 16:39 17.10.2019
5994 Clouds 18 1013 59 10000 2.1 210 16:18 17.10.2019
5995 Clouds 18 1013 59 10000 2.1 210 15:56 17.10.2019
5996 Clouds 19 1013 55 10000 2.6 220 15:38 17.10.2019
5997 Clouds 19 1013 59 10000 1.5 0 15:20 17.10.2019
5998 Clouds 19 1014 55 10000 4.6 210 14:56 17.10.2019
5999 Clouds 19 1014 55 10000 4.6 210 14:37 17.10.2019
6000 Clouds 19 1014 52 10000 4.6 200 14:19 17.10.2019
6001 Clouds 19 1014 55 10000 5.1 210 13:39 17.10.2019
6002 Clouds 19 1014 55 10000 5.1 210 13:39 17.10.2019
6003 Clouds 19 1014 59 10000 4.1 150 13:20 17.10.2019
6004 Clouds 19 1015 55 10000 5.1 210 12:57 17.10.2019
6005 Clouds 18 1015 59 10000 5.7 210 12:37 17.10.2019
6006 Clouds 17 1015 63 10000 5.1 200 12:19 17.10.2019
6007 Clouds 16 1015 63 10000 3.6 200 11:42 17.10.2019
6008 Clouds 16 1015 63 10000 3.6 200 11:42 17.10.2019
6009 Clouds 16 1015 82 10000 2.1 240 11:22 17.10.2019
6010 Clouds 15 1015 63 10000 4.6 200 10:59 17.10.2019
6011 Drizzle 15 1015 67 10000 5.1 200 10:41 17.10.2019
6012 Clouds 14 1015 76 10000 3.1 130 10:19 17.10.2019
6013 Clouds 13 1015 63 10000 4.1 190 09:56 17.10.2019
6014 Clouds 13 1015 67 10000 4.1 190 09:37 17.10.2019
6015 Clouds 12 1015 82 10000 2.6 160 09:19 17.10.2019
6016 Clouds 12 1015 76 10000 3.1 190 08:48 17.10.2019
6017 Clouds 11 1015 76 10000 3.1 190 08:27 17.10.2019
6018 Drizzle 11 1014 76 10000 3.6 190 07:59 17.10.2019
6019 -273 0 0 0 0 0 07:41 17.10.2019
6020 Rain 11 1015 87 10000 1.5 150 07:21 17.10.2019
6021 Rain 11 1015 81 10000 2.1 140 06:51 17.10.2019
6022 Rain 12 1015 76 10000 1.5 110 06:31 17.10.2019
6023 Clouds 11 1015 76 10000 1 0 05:59 17.10.2019
6024 Rain 11 1015 81 10000 2.6 190 05:40 17.10.2019
6025 Rain 11 1015 81 10000 2.6 190 05:19 17.10.2019
6026 Clouds 11 1014 71 10000 1.5 0 04:48 17.10.2019
6027 Clouds 11 1014 71 10000 4.1 170 03:46 17.10.2019
6028 Clouds 11 1014 81 10000 2.6 220 01:57 17.10.2019
6029 Clouds 11 1014 71 10000 4.1 200 00:42 17.10.2019
6030 Clear 10 1014 71 10000 4.1 200 00:21 17.10.2019
6031 Clear 10 1014 76 10000 3.1 230 23:59 16.10.2019
6032 Clear 10 1014 81 10000 2.6 230 23:41 16.10.2019
6033 Clear 10 1014 81 10000 2.6 230 23:41 16.10.2019
6034 Clear 10 1014 81 10000 2.6 230 23:19 16.10.2019
6035 Clear 10 1014 81 10000 2.6 230 22:54 16.10.2019
6036 Clear 11 1014 81 10000 2.6 250 22:36 16.10.2019
6037 Clear 11 1014 81 10000 2.1 220 22:18 16.10.2019
6038 Clear 11 1014 81 10000 2.1 220 21:55 16.10.2019
6039 Clear 11 1014 81 10000 2.1 220 21:54 16.10.2019
6040 Clear 11 1014 81 10000 2.1 220 21:54 16.10.2019
6041 Clouds 11 1014 87 10000 2.1 230 21:36 16.10.2019
6042 Clear 12 1014 76 10000 3.1 220 21:18 16.10.2019
6043 Clear 12 1014 76 10000 3.1 220 20:55 16.10.2019
6044 Clear 12 1014 76 10000 3.6 230 20:37 16.10.2019
6045 Clear 13 1014 76 10000 3.6 230 20:19 16.10.2019
6046 Clear 13 1013 55 10000 3.6 150 19:40 16.10.2019
6047 Clear 13 1013 55 10000 3.6 150 19:40 16.10.2019
6048 Clear 14 1013 62 10000 3.1 220 19:21 16.10.2019
6049 Clear 14 1013 62 10000 3.1 220 19:21 16.10.2019
6050 Clear 14 1013 51 10000 2.6 160 18:58 16.10.2019
6051 Clear 14 1013 48 10000 3.1 160 18:38 16.10.2019
6052 Clear 16 1013 48 10000 3.1 180 18:18 16.10.2019
6053 Clear 16 1013 48 10000 3.1 180 18:18 16.10.2019
6054 Clear 16 1013 48 10000 3.1 180 17:55 16.10.2019
6055 Clear 17 1013 45 10000 3.6 190 17:37 16.10.2019
6056 -273 0 0 0 0 0 17:37 16.10.2019
6057 Clear 17 1013 45 10000 6.7 200 17:19 16.10.2019
6058 Clear 17 1014 45 10000 5.1 180 16:56 16.10.2019
6059 Clear 18 1014 45 10000 4.6 170 16:38 16.10.2019
6060 Clear 18 1013 45 10000 5.1 170 16:19 16.10.2019
6061 -273 0 0 0 0 0 15:41 16.10.2019
6062 Clear 18 1014 48 10000 5.1 190 15:41 16.10.2019
6063 Clear 17 1014 48 10000 4.6 160 15:19 16.10.2019
6064 Clear 17 1015 48 10000 6.2 190 14:59 16.10.2019
6065 Clear 18 1015 48 10000 6.2 190 14:40 16.10.2019
6066 Clouds 17 1014 52 10000 4.1 160 14:21 16.10.2019
6067 Clear 17 1015 51 10000 6.7 190 13:59 16.10.2019
6068 Clear 17 1015 52 10000 5.1 180 13:41 16.10.2019
6069 Clear 17 1015 51 10000 7.2 200 13:22 16.10.2019
6070 Clear 16 1015 59 10000 5.7 170 12:44 16.10.2019
6071 Clear 15 1016 63 10000 5.1 170 12:20 16.10.2019
6072 Clear 15 1016 55 10000 6.7 200 11:58 16.10.2019
6073 Clouds 14 1016 67 10000 6.2 170 11:40 16.10.2019
6074 Clouds 13 1016 71 10000 5.7 180 11:18 16.10.2019
6075 Clear 12 1016 67 10000 5.1 200 10:37 16.10.2019
6076 Clear 12 1016 81 10000 5.1 170 10:19 16.10.2019
6077 Clear 11 1016 81 10000 4.1 170 09:41 16.10.2019
6078 Clouds 10 1016 76 10000 4.1 180 09:22 16.10.2019
6079 Clouds 9 1016 87 10000 4.1 170 08:58 16.10.2019
6080 Clouds 9 1016 76 10000 4.1 180 08:40 16.10.2019
6081 Clouds 9 1016 87 10000 5.7 170 08:22 16.10.2019
6082 Clouds 9 1016 87 10000 4.1 170 07:45 16.10.2019
6083 Clouds 9 1016 87 10000 3.1 180 07:24 16.10.2019
6084 Clouds 9 1016 87 10000 3.6 170 06:57 16.10.2019
6085 Clouds 9 1016 87 10000 3.6 170 06:57 16.10.2019
6086 Clouds 9 1016 87 10000 3.6 170 06:35 16.10.2019
6087 Clouds 9 1016 87 10000 3.6 160 05:44 16.10.2019
6088 Clouds 10 1015 93 10000 5.1 190 02:58 16.10.2019
6089 Clouds 10 1015 93 10000 4.6 190 02:38 16.10.2019
6090 Clouds 10 1015 93 10000 4.1 190 01:19 16.10.2019
6091 Clouds 11 1015 87 10000 3.6 170 00:47 16.10.2019
6092 Rain 11 1015 87 10000 2.6 160 00:27 16.10.2019
6093 Rain 11 1015 81 10000 4.1 200 23:41 15.10.2019
6094 Rain 11 1014 81 10000 3.6 220 23:22 15.10.2019
6095 Rain 11 1014 81 10000 3.6 220 23:22 15.10.2019
6096 -273 0 0 0 0 0 22:56 15.10.2019
6097 Rain 11 1013 93 10000 1 0 22:38 15.10.2019
6098 Rain 11 1013 93 10000 1 0 22:20 15.10.2019
6099 Rain 11 1012 100 10000 1.5 190 21:56 15.10.2019
6100 Rain 11 1012 100 10000 1.5 190 21:55 15.10.2019
6101 Rain 12 1012 93 7000 3.1 220 21:37 15.10.2019
6102 Rain 12 1012 93 7000 3.1 220 21:19 15.10.2019
6103 Rain 12 1011 93 10000 4.6 180 20:55 15.10.2019
6104 Rain 12 1011 93 10000 5.7 170 20:37 15.10.2019
6105 Rain 12 1011 93 10000 5.7 170 20:19 15.10.2019
6106 Rain 12 1011 93 8000 4.1 200 19:56 15.10.2019
6107 Rain 13 1010 93 10000 3.1 180 19:37 15.10.2019
6108 Rain 12 1010 93 10000 5.1 180 19:19 15.10.2019
6109 Rain 13 1009 100 8000 3.6 180 18:44 15.10.2019
6110 -273 0 0 0 0 0 18:26 15.10.2019
6111 Rain 13 1009 93 10000 3.1 200 17:55 15.10.2019
6112 Rain 13 1009 93 10000 3.1 200 17:55 15.10.2019
6113 Drizzle 13 1009 93 10000 3.6 200 17:37 15.10.2019
6114 Rain 14 1009 93 10000 2.1 160 17:19 15.10.2019
6115 Rain 14 1009 93 10000 2.1 160 17:19 15.10.2019
6116 Rain 14 1009 93 10000 2.1 170 16:45 15.10.2019
6117 Rain 14 1009 93 10000 4.1 180 16:22 15.10.2019
6118 Rain 14 1009 87 10000 4.1 210 15:58 15.10.2019
6119 Rain 14 1009 87 10000 4.1 210 15:58 15.10.2019
6120 Rain 15 1009 93 10000 2.6 160 15:40 15.10.2019
6121 Rain 15 1009 93 10000 2.6 160 15:40 15.10.2019
6122 Rain 15 1009 87 10000 1.5 150 15:20 15.10.2019
6123 Clouds 15 1008 77 10000 2.6 180 14:57 15.10.2019
6124 Clouds 16 1008 82 10000 2.1 200 14:37 15.10.2019
6125 Rain 16 1009 72 10000 6.2 230 14:19 15.10.2019
6126 Clouds 16 1008 59 10000 5.1 210 13:44 15.10.2019
6127 Clouds 16 1008 59 10000 5.1 220 13:21 15.10.2019
6128 Clouds 17 1008 77 10000 4.1 210 12:59 15.10.2019
6129 Clouds 17 1008 77 10000 4.1 210 12:59 15.10.2019
6130 Clouds 17 1008 77 10000 3.6 200 12:39 15.10.2019
6131 Clouds 16 1008 77 10000 1 0 12:20 15.10.2019
6132 Clouds 16 1008 82 10000 1.5 170 11:44 15.10.2019
6133 Clouds 16 1008 87 10000 0.5 60 11:21 15.10.2019
6134 Clear 15 1008 82 10000 3.1 190 10:58 15.10.2019
6135 Clear 15 1008 87 10000 2.6 210 10:39 15.10.2019
6136 Clear 14 1008 87 10000 0.5 0 10:19 15.10.2019
6137 Clear 14 1007 93 10000 2.6 220 09:57 15.10.2019
6138 Clear 14 1007 87 10000 1 0 09:37 15.10.2019
6139 Clear 13 1007 87 10000 1 180 09:19 15.10.2019
6140 Clear 12 1007 100 10000 1.5 150 08:42 15.10.2019
6141 Clear 12 1006 93 10000 1.5 0 08:21 15.10.2019
6142 Clear 12 1006 93 10000 1.5 0 08:21 15.10.2019
6143 Clear 12 1006 93 10000 2.1 110 07:56 15.10.2019
6144 Clear 12 1006 87 10000 1.86 180.062 07:38 15.10.2019
6145 Clear 12 1006 87 10000 1.86 180.062 07:19 15.10.2019
6146 Clear 12 1006 93 10000 1.5 0 06:44 15.10.2019
6147 Clear 12 1007 93 10000 1 0 06:26 15.10.2019
6148 Fog 12 1007 93 10000 0.5 0 05:41 15.10.2019
6149 Fog 12 1007 93 10000 1.5 60 05:23 15.10.2019
6150 Clear 13 1008 100 10000 0.5 0 04:32 15.10.2019
6151 Clear 13 1009 93 10000 1 0 03:37 15.10.2019
6152 Clear 13 1009 93 10000 1 0 03:37 15.10.2019
6153 Clear 14 1009 93 10000 1 0 02:42 15.10.2019
6154 Clear 14 1010 87 10000 1 130 01:49 15.10.2019
6155 Clear 14 1010 87 10000 1.91 198.075 01:22 15.10.2019
6156 Clear 14 1010 82 10000 1 0 00:49 15.10.2019
6157 Clear 15 1010 82 10000 2.1 240 00:22 15.10.2019
6158 Clear 15 1010 82 10000 1 0 23:45 14.10.2019
6159 Clear 15 1010 82 10000 1 0 23:21 14.10.2019
6160 Clear 15 1011 82 10000 1 0 22:59 14.10.2019
6161 Clear 15 1010 77 10000 1.5 230 22:38 14.10.2019
6162 Clear 15 1010 77 10000 1.5 230 22:19 14.10.2019
6163 Clear 16 1011 68 10000 3.1 250 21:56 14.10.2019
6164 Clear 16 1010 68 10000 4.1 220 21:37 14.10.2019
6165 Clear 16 1010 68 10000 4.1 220 21:19 14.10.2019
6166 Clear 16 1010 68 10000 2.1 240 20:55 14.10.2019
6167 Clear 17 1010 87 10000 2.34 255.149 20:37 14.10.2019
6168 Clear 17 1010 77 10000 1 0 20:18 14.10.2019
6169 Clouds 18 1010 68 10000 3.1 270 19:42 14.10.2019
6170 Clear 18 1010 72 10000 2.1 280 19:23 14.10.2019
6171 Clear 20 1010 64 10000 2.34 255.149 18:59 14.10.2019
6172 Clear 21 1010 60 10000 2.1 310 18:39 14.10.2019
6173 Clear 22 1010 50 10000 2.6 230 18:20 14.10.2019
6174 Clear 22 1010 50 10000 2.6 230 18:20 14.10.2019
6175 Clear 22 1010 50 10000 2.6 230 18:20 14.10.2019
6176 Clear 22 1010 50 10000 2.6 230 18:20 14.10.2019
6177 Clear 22 1010 60 10000 2.1 340 17:58 14.10.2019
6178 Clear 23 1010 53 10000 1 0 17:39 14.10.2019
6179 Clear 23 1010 44 10000 4.6 180 17:21 14.10.2019
6180 Clear 24 1011 53 10000 1.5 0 16:44 14.10.2019
6181 Clear 24 1011 53 10000 2.1 200 16:21 14.10.2019
6182 Clear 24 1011 53 10000 2.1 200 15:57 14.10.2019
6183 Clear 24 1012 50 10000 3.1 230 15:38 14.10.2019
6184 Clear 24 1012 47 10000 3.6 160 15:20 14.10.2019
6185 Clear 24 1013 57 10000 2.6 240 14:43 14.10.2019
6186 Clear 23 1013 47 10000 3.1 160 14:24 14.10.2019
6187 Clear 24 1013 50 10000 2.6 170 13:56 14.10.2019
6188 Clear 23 1014 53 10000 2.6 220 13:37 14.10.2019
6189 Clear 23 1014 60 10000 2.6 230 13:18 14.10.2019
6190 Clear 21 1015 60 10000 2.1 230 12:40 14.10.2019
6191 Clear 21 1015 60 10000 2.1 230 12:40 14.10.2019
6192 Clear 20 1015 64 10000 2.6 250 12:19 14.10.2019
6193 Clear 20 1015 64 10000 2.6 250 12:19 14.10.2019
6194 Clear 19 1015 60 10000 1.5 310 11:47 14.10.2019
6195 Clear 19 1015 60 10000 1.5 310 11:27 14.10.2019
6196 Clear 18 1015 72 10000 0.5 0 10:59 14.10.2019
6197 Clear 17 1015 77 10000 0.5 0 10:40 14.10.2019
6198 Clear 16 1015 77 10000 3.1 180 10:20 14.10.2019
6199 Clear 15 1015 82 10000 0.5 0 09:56 14.10.2019
6200 Clear 14 1015 87 10000 1 0 09:38 14.10.2019
6201 Clear 13 1015 93 10000 1 10 09:19 14.10.2019
6202 Clear 12 1015 93 10000 0.5 0 08:45 14.10.2019
6203 Clear 12 1015 100 10000 2.5 214.136 08:22 14.10.2019
6204 Clear 12 1015 100 10000 1 0 07:43 14.10.2019
6205 Clear 12 1015 93 10000 1 0 07:19 14.10.2019
6206 Clear 12 1015 93 10000 1 0 06:54 14.10.2019
6207 Clear 12 1015 93 10000 1 0 06:27 14.10.2019
6208 Clear 12 1016 100 10000 1 160 05:50 14.10.2019
6209 Clear 13 1016 87 10000 1 0 04:50 14.10.2019
6210 Clear 13 1016 87 10000 1.5 0 03:48 14.10.2019
6211 Clear 14 1016 87 10000 1.5 0 03:21 14.10.2019
6212 Clear 14 1015 68 10000 2.1 150 01:46 14.10.2019
6213 Clear 14 1017 87 10000 1.5 130 01:18 14.10.2019
6214 Clear 15 1017 93 10000 1.5 220 00:36 14.10.2019
6215 Clear 16 1017 87 10000 2.1 220 00:18 14.10.2019
6216 Clear 15 1016 93 10000 2.6 230 23:40 13.10.2019
6217 Clear 16 1015 68 10000 2.1 60 23:19 13.10.2019
6218 Clear 16 1015 68 10000 2.1 60 22:54 13.10.2019
6219 Clear 16 1016 93 10000 1 230 22:36 13.10.2019
6220 Clear 16 1014 60 10000 2.6 190 22:18 13.10.2019
6221 Clear 16 1014 60 10000 2.6 190 22:18 13.10.2019
6222 Clear 16 1015 87 10000 1.5 190 21:55 13.10.2019
6223 Clear 16 1014 60 10000 2.6 200 21:36 13.10.2019
6224 Clear 17 1014 56 10000 3.6 210 21:18 13.10.2019
6225 Clear 17 1014 56 10000 3.6 210 20:55 13.10.2019
6226 Clear 18 1014 49 10000 4.1 200 20:36 13.10.2019
6227 Clear 18 1013 53 10000 4.1 190 20:18 13.10.2019
6228 Clear 19 1013 56 10000 4.1 190 19:40 13.10.2019
6229 Clear 20 1013 56 10000 4.1 190 19:22 13.10.2019
6230 Clear 20 1013 49 10000 4.1 190 18:59 13.10.2019
6231 Clear 21 1013 39 10000 6.2 190 18:39 13.10.2019
6232 Clear 23 1013 39 10000 6.2 190 18:20 13.10.2019
6233 Clear 23 1013 36 10000 5.7 200 17:59 13.10.2019
6234 Clear 23 1013 36 10000 5.1 210 17:41 13.10.2019
6235 Clear 24 1013 39 10000 4.6 200 17:22 13.10.2019
6236 Clear 24 1013 39 10000 6.7 200 16:43 13.10.2019
6237 Clear 25 1013 39 10000 6.7 200 16:19 13.10.2019
6238 Clear 25 1013 37 10000 6.2 220 15:57 13.10.2019
6239 Clear 25 1013 37 10000 6.2 220 15:57 13.10.2019
6240 Clear 25 1013 35 10000 7.7 190 15:39 13.10.2019
6241 Clear 25 1013 39 10000 7.2 180 15:20 13.10.2019
6242 Clear 25 1013 39 10000 7.2 180 14:57 13.10.2019
6243 Clear 24 1013 42 10000 5.7 170 14:39 13.10.2019
6244 Clear 24 1014 42 10000 7.2 170 14:20 13.10.2019
6245 Clear 25 1014 42 10000 7.2 170 13:55 13.10.2019
6246 Clear 24 1014 44 10000 7.2 180 13:37 13.10.2019
6247 Clear 24 1014 44 10000 7.2 180 13:37 13.10.2019
6248 Clear 24 1014 50 10000 5.1 170 13:18 13.10.2019
6249 Clear 24 1014 50 10000 5.1 170 13:18 13.10.2019
6250 Clear 23 1014 50 10000 5.1 170 12:55 13.10.2019
6251 Clear 23 1014 50 10000 5.1 170 12:55 13.10.2019
6252 Clear 23 1014 50 10000 5.1 170 12:55 13.10.2019
6253 Clear 22 1014 53 10000 4.6 160 12:36 13.10.2019
6254 Clear 21 1014 56 10000 5.7 170 12:18 13.10.2019
6255 Clear 20 1014 56 10000 5.7 170 11:55 13.10.2019
6256 Clear 20 1015 60 10000 3.1 180 11:36 13.10.2019
6257 Clear 19 1015 64 10000 1.5 0 11:18 13.10.2019
6258 Clear 19 1015 68 10000 2.6 190 10:41 13.10.2019
6259 Clear 18 1015 68 10000 2.6 190 10:22 13.10.2019
6260 Clear 18 1015 68 10000 2.6 190 10:22 13.10.2019
6261 Clear 16 1014 77 10000 3.1 190 09:41 13.10.2019
6262 Clear 14 1014 77 10000 3.1 190 09:21 13.10.2019
6263 Clear 14 1014 77 10000 2.6 160 08:58 13.10.2019
6264 Clear 14 1014 77 10000 2.6 170 08:38 13.10.2019
6265 Clear 13 1014 77 10000 3.6 170 08:19 13.10.2019
6266 Clear 14 1014 93 10000 4.71 209.445 07:46 13.10.2019
6267 Clear 14 1014 93 10000 4.71 209.445 07:21 13.10.2019
6268 Clear 14 1015 82 10000 1.5 0 06:41 13.10.2019
6269 Clear 14 1015 82 10000 1.5 0 06:41 13.10.2019
6270 Clear 14 1015 77 10000 0.5 0 05:46 13.10.2019
6271 Clear 15 1015 72 10000 5.1 180 04:46 13.10.2019
6272 Clear 15 1015 77 10000 4.1 170 03:51 13.10.2019
6273 Clear 15 1015 87 10000 1 0 02:42 13.10.2019
6274 Clear 15 1015 87 10000 1 0 01:54 13.10.2019
6275 Clear 15 1015 87 10000 3.6 190 01:30 13.10.2019
6276 Clear 15 1015 77 10000 2.1 210 00:47 13.10.2019
6277 Clear 15 1015 77 10000 2.1 130 00:21 13.10.2019
6278 Clear 15 1015 77 10000 2.1 130 23:57 12.10.2019
6279 Clear 16 1015 72 10000 1.5 150 23:39 12.10.2019
6280 Clear 16 1015 72 10000 3.1 160 23:19 12.10.2019
6281 Clear 16 1016 93 10000 1.5 0 22:57 12.10.2019
6282 Clear 16 1015 82 10000 4.1 190 22:38 12.10.2019
6283 Clear 16 1015 77 10000 2.1 210 22:20 12.10.2019
6284 Clear 16 1015 77 10000 2.1 210 21:55 12.10.2019
6285 Clear 16 1015 72 10000 2.6 150 21:37 12.10.2019
6286 Clear 17 1015 72 10000 4.6 190 21:18 12.10.2019
6287 Clear 17 1015 72 10000 4.6 190 21:18 12.10.2019
6288 Clear 18 1015 68 10000 7.2 180 20:40 12.10.2019
6289 Clear 18 1015 68 10000 7.2 180 20:22 12.10.2019
6290 Clear 18 1015 64 10000 3.1 190 19:39 12.10.2019
6291 Clear 18 1015 64 10000 3.1 190 19:39 12.10.2019
6292 Clear 18 1015 64 10000 5.1 210 19:20 12.10.2019
6293 Clear 18 1015 64 10000 5.1 210 18:59 12.10.2019
6294 Clear 18 1015 64 10000 4.1 190 18:40 12.10.2019
6295 -273 0 0 0 0 0 18:40 12.10.2019
6296 Rain 19 1015 64 10000 4.1 190 18:22 12.10.2019
6297 Rain 20 1015 56 10000 4.6 190 17:43 12.10.2019
6298 Rain 20 1015 56 10000 4.6 220 17:19 12.10.2019
6299 Rain 21 1015 56 10000 4.6 220 16:55 12.10.2019
6300 Clear 21 1016 56 10000 5.7 220 16:36 12.10.2019
6301 Clear 21 1016 56 10000 5.7 220 16:36 12.10.2019
6302 Clear 21 1015 53 10000 5.7 210 16:18 12.10.2019
6303 Clear 22 1015 53 10000 8.2 240 15:44 12.10.2019
6304 Clear 22 1015 53 10000 8.2 240 15:25 12.10.2019
6305 Clear 22 1015 64 10000 1.5 290 14:55 12.10.2019
6306 Clear 22 1015 64 10000 2.1 330 14:37 12.10.2019
6307 Clear 22 1015 56 10000 2.1 250 14:18 12.10.2019
6308 Clear 22 1015 53 10000 2.6 160 13:43 12.10.2019
6309 Clear 22 1015 53 10000 2.6 160 13:43 12.10.2019
6310 Clear 22 1015 53 10000 2.6 160 13:25 12.10.2019
6311 -273 0 0 0 0 0 12:40 12.10.2019
6312 Clear 19 1016 56 10000 3.1 180 12:22 12.10.2019
6313 Clear 19 1016 59 10000 4.1 170 11:59 12.10.2019
6314 Clear 18 1017 63 10000 3.6 180 11:40 12.10.2019
6315 Clear 17 1016 67 10000 3.1 170 11:22 12.10.2019
6316 Clear 16 1016 67 10000 3.1 170 10:56 12.10.2019
6317 Clear 16 1016 76 10000 4.1 170 10:36 12.10.2019
6318 Clear 14 1016 76 10000 1.5 160 10:18 12.10.2019
6319 Clear 14 1016 76 10000 1.5 160 09:54 12.10.2019
6320 Clear 12 1016 76 10000 2.1 170 09:36 12.10.2019
6321 Clear 10 1016 81 10000 2.1 140 09:18 12.10.2019
6322 Clear 11 1016 81 10000 2.1 140 09:18 12.10.2019
6323 Clear 9 1016 87 10000 1.5 150 08:40 12.10.2019
6324 Clear 9 1016 87 10000 1.5 150 08:20 12.10.2019
6325 Clear 9 1016 87 10000 1.5 240 07:35 12.10.2019
6326 Clear 9 1016 87 10000 1.5 240 07:35 12.10.2019
6327 Clear 9 1016 81 10000 3.1 160 06:57 12.10.2019
6328 Clear 9 1015 81 10000 5.7 170 05:48 12.10.2019
6329 Clear 9 1015 81 10000 5.7 170 05:24 12.10.2019
6330 Clear 10 1016 81 10000 4.6 190 04:24 12.10.2019
6331 Clear 10 1016 81 10000 1.5 0 03:41 12.10.2019
6332 Clear 10 1016 87 10000 1.5 0 01:56 12.10.2019
6333 Clear 11 1016 81 10000 1.5 0 01:29 12.10.2019
6334 Clear 11 1016 76 10000 1 0 00:43 12.10.2019
6335 Clear 11 1016 76 10000 1 0 00:19 12.10.2019
6336 Clear 11 1016 76 10000 2.1 130 23:40 11.10.2019
6337 Clear 11 1016 76 10000 2.1 130 23:20 11.10.2019
6338 Clear 11 1016 71 10000 2.1 120 22:56 11.10.2019
6339 Clear 11 1016 81 10000 1.5 0 22:37 11.10.2019
6340 Clear 12 1016 81 10000 1.5 190 22:18 11.10.2019
6341 Clear 12 1016 76 10000 1 170 21:40 11.10.2019
6342 Clear 12 1016 76 10000 1 170 21:21 11.10.2019
6343 Clear 13 1016 81 10000 0.5 0 20:54 11.10.2019
6344 Clear 13 1016 71 10000 1.5 0 20:36 11.10.2019
6345 Clear 14 1016 63 10000 2.6 150 20:18 11.10.2019
6346 Clear 13 1016 72 10000 1.5 230 19:54 11.10.2019
6347 Clear 14 1016 63 10000 2.6 150 19:36 11.10.2019
6348 Clear 15 1016 59 10000 3.1 160 19:18 11.10.2019
6349 Clear 15 1016 59 10000 3.1 160 19:18 11.10.2019
6350 Clear 16 1016 55 10000 3.6 170 18:39 11.10.2019
6351 Clear 17 1016 52 10000 4.1 180 18:19 11.10.2019
6352 Clear 18 1016 52 10000 4.1 180 17:59 11.10.2019
6353 Clear 18 1016 52 10000 4.1 180 17:38 11.10.2019
6354 Clear 19 1017 56 10000 4.6 180 17:19 11.10.2019
6355 Clear 19 1017 56 10000 4.6 180 16:59 11.10.2019
6356 Clear 19 1017 56 10000 4.6 190 16:39 11.10.2019
6357 Clear 19 1017 56 10000 5.7 180 16:19 11.10.2019
6358 Clear 19 1017 52 10000 5.1 170 15:57 11.10.2019
6359 Clear 20 1017 56 10000 6.2 170 15:37 11.10.2019
6360 Clear 19 1018 56 10000 6.2 210 15:18 11.10.2019
6361 Clear 19 1018 56 10000 6.2 200 14:44 11.10.2019
6362 Clear 19 1018 60 10000 5.7 170 14:25 11.10.2019
6363 Clear 19 1019 59 10000 6.7 200 13:47 11.10.2019
6364 Clear 18 1019 59 10000 6.7 200 13:27 11.10.2019
6365 Clouds 18 1019 63 10000 5.1 200 12:59 11.10.2019
6366 Clouds 17 1020 63 10000 6.2 200 12:40 11.10.2019
6367 Clouds 15 1020 77 10000 3.1 250 12:22 11.10.2019
6368 Clouds 15 1020 72 10000 5.7 180 11:59 11.10.2019
6369 Clouds 14 1020 72 10000 3.6 260 11:39 11.10.2019
6370 Clouds 13 1021 71 10000 6.2 170 11:21 11.10.2019
6371 Clouds 14 1021 76 10000 7.2 180 10:56 11.10.2019
6372 Clouds 13 1020 71 10000 3.1 200 10:38 11.10.2019
6373 Clouds 11 1021 87 10000 1.5 230 10:19 11.10.2019
6374 Clouds 10 1021 81 10000 4.1 190 09:54 11.10.2019
6375 Clouds 10 1020 87 10000 2.1 170 09:36 11.10.2019
6376 Clouds 8 1021 87 10000 1.5 160 09:18 11.10.2019
6377 Clouds 7 1021 93 10000 1 0 08:39 11.10.2019
6378 Clear 7 1020 93 10000 1 300 08:21 11.10.2019
6379 Clear 7 1020 93 10000 1 300 07:59 11.10.2019
6380 Clouds 7 1020 100 10000 1.5 0 07:40 11.10.2019
6381 Clear 7 1020 100 10000 2.1 220 07:20 11.10.2019
6382 Clear 7 1020 100 10000 2.6 190 06:44 11.10.2019
6383 Clear 7 1021 100 10000 1 0 06:21 11.10.2019
6384 Clouds 7 1021 100 10000 2.1 230 05:37 11.10.2019
6385 Clear 7 1021 100 10000 2.1 220 04:59 11.10.2019
6386 Clear 7 1021 93 10000 2.6 220 04:24 11.10.2019
6387 Clear 8 1022 100 10000 1.5 210 02:18 11.10.2019
6388 Clouds 8 1022 100 10000 1 0 00:43 11.10.2019
6389 Clouds 8 1022 100 10000 1 0 00:25 11.10.2019
6390 Clear 9 1022 93 10000 1 0 23:43 10.10.2019
6391 Clear 9 1022 93 10000 1 0 23:21 10.10.2019
6392 Clear 9 1022 100 10000 1.5 250 22:57 10.10.2019
6393 Clear 9 1021 100 10000 2.6 220 22:38 10.10.2019
6394 Clear 9 1022 100 10000 2.1 180 22:20 10.10.2019
6395 Clear 10 1022 100 10000 2.1 180 21:57 10.10.2019
6396 Clear 10 1021 93 10000 2.1 220 21:38 10.10.2019
6397 Clear 11 1021 76 10000 3.6 180 21:20 10.10.2019
6398 Clear 11 1021 76 10000 3.6 180 20:42 10.10.2019
6399 Clouds 11 1021 93 10000 3.6 190 20:22 10.10.2019
6400 Clear 12 1021 82 10000 2.6 190 20:22 10.10.2019
6401 Clear 11 1021 82 10000 2.6 190 19:59 10.10.2019
6402 Clear 12 1020 76 10000 3.6 200 19:40 10.10.2019
6403 Clear 13 1020 72 10000 4.1 200 19:20 10.10.2019
6404 Clear 12 1020 82 10000 2.6 220 18:57 10.10.2019
6405 Clear 13 1020 72 10000 5.1 200 18:39 10.10.2019
6406 Clear 14 1020 67 10000 5.7 200 18:20 10.10.2019
6407 Clear 15 1020 62 10000 4.1 220 17:55 10.10.2019
6408 Clouds 15 1020 67 10000 5.7 210 17:36 10.10.2019
6409 Clouds 15 1020 72 10000 7.2 200 17:18 10.10.2019
6410 Clouds 15 1020 72 10000 7.2 200 17:18 10.10.2019
6411 Clouds 14 1020 63 10000 6.7 210 16:44 10.10.2019
6412 Clear 15 1020 67 10000 4.1 210 16:26 10.10.2019
6413 Rain 14 1020 76 10000 5.1 220 15:54 10.10.2019
6414 Rain 14 1019 67 10000 7.7 220 15:36 10.10.2019
6415 Clouds 15 1019 67 10000 6.7 220 15:18 10.10.2019
6416 Clouds 14 1019 67 10000 6.7 220 14:54 10.10.2019
6417 Rain 14 1019 67 10000 5.1 230 14:36 10.10.2019
6418 Rain 14 1019 72 10000 5.7 210 14:18 10.10.2019
6419 Clouds 14 1019 82 10000 4.6 220 13:41 10.10.2019
6420 Clouds 14 1019 82 10000 5.1 190 13:23 10.10.2019
6421 Clouds 14 1019 82 10000 6.2 200 12:57 10.10.2019
6422 Clouds 13 1019 82 10000 5.1 210 12:39 10.10.2019
6423 Rain 12 1019 82 10000 4.1 190 12:20 10.10.2019
6424 Rain 12 1019 82 10000 4.1 190 11:56 10.10.2019
6425 Rain 12 1019 71 10000 5.7 210 11:38 10.10.2019
6426 Clouds 12 1018 93 10000 2.6 120 11:19 10.10.2019
6427 Rain 12 1018 76 10000 5.1 190 10:44 10.10.2019
6428 Rain 12 1018 81 10000 5.1 130 10:26 10.10.2019
6429 Rain 11 1017 81 10000 2.6 200 09:56 10.10.2019
6430 Rain 11 1017 93 10000 6.2 200 09:38 10.10.2019
6431 Rain 11 1017 93 10000 6.2 200 09:38 10.10.2019
6432 Rain 11 1017 93 10000 4.6 200 09:19 10.10.2019
6433 Rain 11 1017 87 10000 3.1 200 08:56 10.10.2019
6434 Rain 11 1016 87 10000 5.7 200 08:37 10.10.2019
6435 Rain 11 1015 87 10000 5.1 200 08:18 10.10.2019
6436 Rain 11 1015 87 10000 5.1 200 08:18 10.10.2019
6437 Rain 11 1015 81 10000 5.1 190 07:42 10.10.2019
6438 Clear 11 1015 81 10000 4.6 180 07:20 10.10.2019
6439 Clouds 11 1015 81 10000 3.6 170 06:46 10.10.2019
6440 Clouds 10 1015 81 10000 3.6 170 06:26 10.10.2019
6441 Clear 11 1014 93 10000 5.1 180 05:27 10.10.2019
6442 Clouds 10 1015 93 10000 4.6 180 04:39 10.10.2019
6443 Rain 11 1015 93 10000 4.6 180 04:21 10.10.2019
6444 Rain 10 1015 87 10000 5.7 180 01:43 10.10.2019
6445 Rain 10 1015 87 10000 5.7 180 01:43 10.10.2019
6446 Rain 10 1015 87 10000 5.7 180 01:24 10.10.2019
6447 Rain 10 1015 81 10000 4.1 170 00:54 10.10.2019
6448 Clouds 10 1015 87 10000 5.1 180 00:22 10.10.2019
6449 Rain 10 1015 93 10000 5.7 170 23:40 09.10.2019
6450 Rain 10 1015 93 10000 3.6 190 23:21 09.10.2019
6451 Rain 10 1015 93 10000 3.6 190 22:56 09.10.2019
6452 Rain 10 1015 87 10000 2.1 170 22:38 09.10.2019
6453 Rain 10 1015 87 10000 4.1 170 22:20 09.10.2019
6454 Rain 11 1015 87 10000 3.6 170 21:41 09.10.2019
6455 Rain 11 1015 87 10000 4.6 180 21:21 09.10.2019
6456 Rain 11 1015 87 10000 4.6 180 20:56 09.10.2019
6457 Rain 11 1014 87 10000 3.1 150 20:38 09.10.2019
6458 Rain 11 1014 87 10000 2.6 170 20:19 09.10.2019
6459 Rain 11 1014 87 10000 2.6 170 20:19 09.10.2019
6460 Rain 11 1014 87 10000 2.6 170 20:19 09.10.2019
6461 Rain 11 1014 87 10000 2.6 170 19:58 09.10.2019
6462 Rain 11 1014 87 10000 5.1 220 19:40 09.10.2019
6463 Rain 11 1013 87 10000 5.1 210 19:22 09.10.2019
6464 Rain 11 1013 87 10000 5.1 210 19:22 09.10.2019
6465 Rain 12 1013 82 10000 7.2 190 18:38 09.10.2019
6466 Clouds 13 1013 76 10000 7.7 190 18:20 09.10.2019
6467 Clouds 12 1013 76 10000 7.7 190 18:20 09.10.2019
6468 Rain 12 1013 76 10000 7.2 180 17:58 09.10.2019
6469 Rain 12 1013 76 10000 7.2 180 17:58 09.10.2019
6470 Rain 13 1013 76 10000 8.7 190 17:37 09.10.2019
6471 Rain 13 1013 76 10000 8.7 190 17:37 09.10.2019
6472 Rain 12 1013 76 10000 6.2 180 17:19 09.10.2019
6473 Rain 12 1013 82 10000 8.2 190 16:56 09.10.2019
6474 Rain 12 1013 82 10000 6.2 180 16:56 09.10.2019
6475 Rain 12 1013 82 10000 7.2 190 16:37 09.10.2019
6476 Rain 12 1013 82 10000 6.7 190 16:19 09.10.2019
6477 Rain 12 1013 82 10000 5.7 170 15:55 09.10.2019
6478 Rain 12 1013 87 10000 6.7 190 15:37 09.10.2019
6479 Rain 12 1013 87 10000 6.7 210 15:18 09.10.2019
6480 Rain 12 1012 76 10000 7.2 190 14:44 09.10.2019
6481 Rain 12 1012 76 10000 7.2 190 14:44 09.10.2019
6482 Clouds 12 1012 76 10000 8.2 180 14:19 09.10.2019
6483 Clouds 13 1013 77 10000 6.7 200 13:59 09.10.2019
6484 Clouds 13 1013 82 10000 7.7 200 13:38 09.10.2019
6485 Rain 13 1013 87 10000 6.2 190 13:18 09.10.2019
6486 Rain 12 1013 87 10000 5.1 190 12:44 09.10.2019
6487 Rain 12 1013 87 10000 3.6 180 12:23 09.10.2019
6488 Rain 12 1012 93 10000 4.1 180 11:58 09.10.2019
6489 Rain 12 1013 87 10000 2.1 210 11:40 09.10.2019
6490 Rain 12 1013 93 10000 2.6 190 11:20 09.10.2019
6491 Rain 12 1013 82 10000 2.1 180 10:59 09.10.2019
6492 Rain 12 1012 82 10000 2.6 140 10:40 09.10.2019
6493 Rain 12 1013 93 10000 2.1 170 10:19 09.10.2019
6494 Rain 12 1013 87 10000 1.5 140 09:43 09.10.2019
6495 Rain 11 1014 87 10000 2.6 200 09:20 09.10.2019
6496 Rain 11 1014 87 10000 2.6 200 08:58 09.10.2019
6497 Rain 11 1014 87 10000 1 0 08:39 09.10.2019
6498 Rain 11 1014 81 10000 2.1 210 08:19 09.10.2019
6499 Rain 11 1014 81 10000 2.1 210 08:19 09.10.2019
6500 Rain 11 1014 93 10000 1.5 250 07:47 09.10.2019
6501 Rain 11 1014 93 10000 1.5 250 07:47 09.10.2019
6502 Rain 11 1014 93 10000 1.5 250 07:25 09.10.2019
6503 Rain 11 1014 93 10000 1.5 200 06:57 09.10.2019
6504 Rain 11 1014 87 10000 2.6 190 06:35 09.10.2019
6505 Rain 12 1014 87 10000 2.6 170 05:52 09.10.2019
6506 Rain 12 1014 82 10000 1 310 04:50 09.10.2019
6507 Rain 13 1014 71 10000 2.6 280 03:47 09.10.2019
6508 Rain 14 1014 72 10000 5.1 280 02:27 09.10.2019
6509 Rain 14 1013 77 10000 3.6 270 01:39 09.10.2019
6510 Rain 15 1013 77 10000 2.1 310 01:18 09.10.2019
6511 Rain 15 1012 77 10000 4.1 310 00:41 09.10.2019
6512 Rain 15 1012 77 10000 4.1 310 00:23 09.10.2019
6513 Rain 16 1011 88 8000 2.6 230 23:58 08.10.2019
6514 Rain 16 1011 88 10000 2.6 200 23:38 08.10.2019
6515 Rain 16 1010 82 9000 3.6 210 23:18 08.10.2019
6516 Rain 16 1010 82 9000 3.6 210 23:18 08.10.2019
6517 Rain 16 1010 82 9000 3.6 210 22:55 08.10.2019
6518 Rain 16 1010 82 10000 3.6 210 22:36 08.10.2019
6519 Clouds 16 1010 77 10000 1.5 170 22:18 08.10.2019
6520 Clouds 16 1010 77 10000 1.5 170 21:55 08.10.2019
6521 Clouds 16 1010 77 10000 1.5 0 21:36 08.10.2019
6522 Clouds 16 1010 82 10000 1.5 180 21:18 08.10.2019
6523 Clouds 16 1010 82 10000 1.5 180 20:55 08.10.2019
6524 Clouds 16 1010 77 10000 4.6 210 20:55 08.10.2019
6525 Clouds 16 1010 77 10000 4.6 210 20:36 08.10.2019
6526 Clouds 16 1010 82 10000 3.6 190 20:18 08.10.2019
6527 Clouds 16 1010 82 10000 3.6 190 19:54 08.10.2019
6528 Clouds 16 1010 72 10000 4.1 190 19:36 08.10.2019
6529 Clouds 17 1010 72 10000 3.6 190 19:18 08.10.2019
6530 Clouds 17 1010 72 10000 3.6 200 18:41 08.10.2019
6531 Rain 17 1011 72 10000 6.7 240 18:23 08.10.2019
6532 Clouds 17 1011 64 10000 6.7 220 17:57 08.10.2019
6533 Clouds 17 1011 68 10000 4.6 190 17:39 08.10.2019
6534 Clouds 17 1011 72 10000 4.1 190 17:19 08.10.2019
6535 Clouds 17 1011 72 10000 4.1 190 16:56 08.10.2019
6536 Clouds 17 1011 67 10000 5.1 200 16:37 08.10.2019
6537 Clouds 17 1012 67 10000 5.1 190 16:18 08.10.2019
6538 Clouds 17 1012 67 10000 6.7 200 15:38 08.10.2019
6539 Clouds 16 1011 63 10000 6.2 180 15:20 08.10.2019
6540 Clouds 16 1011 63 10000 6.2 180 15:20 08.10.2019
6541 Clouds 16 1012 63 10000 7.2 200 14:56 08.10.2019
6542 Clouds 16 1012 67 10000 7.7 190 14:38 08.10.2019
6543 Rain 15 1012 68 10000 4.6 180 14:19 08.10.2019
6544 Rain 15 1013 67 10000 6.7 220 13:55 08.10.2019
6545 Clouds 15 1013 72 10000 7.2 190 13:37 08.10.2019
6546 Clouds 15 1014 67 10000 6.7 190 13:18 08.10.2019
6547 Clouds 15 1014 67 10000 6.7 190 13:18 08.10.2019
6548 Clouds 15 1014 67 10000 6.7 190 13:18 08.10.2019
6549 Clouds 15 1014 67 10000 6.7 190 13:18 08.10.2019
6550 Clouds 14 1014 71 10000 7.7 200 12:41 08.10.2019
6551 Clouds 14 1014 63 10000 5.1 180 12:20 08.10.2019
6552 Clouds 14 1014 67 10000 8.7 200 11:58 08.10.2019
6553 Clouds 14 1014 62 10000 8.2 190 11:39 08.10.2019
6554 Clouds 13 1015 67 10000 7.2 200 11:21 08.10.2019
6555 Clouds 13 1015 67 10000 7.7 190 10:42 08.10.2019
6556 Clear 12 1015 76 10000 5.1 170 10:23 08.10.2019
6557 Clouds 12 1015 67 10000 6.7 190 09:59 08.10.2019
6558 Clouds 12 1015 71 10000 5.1 200 09:40 08.10.2019
6559 Clouds 11 1016 71 10000 4.6 200 09:22 08.10.2019
6560 Clouds 11 1016 71 10000 4.6 200 08:45 08.10.2019
6561 Clouds 11 1016 71 10000 4.6 200 08:25 08.10.2019
6562 Clouds 10 1016 76 10000 4.6 200 07:58 08.10.2019
6563 Clouds 10 1016 87 10000 3.1 170 07:40 08.10.2019
6564 Clouds 10 1016 87 10000 2.1 200 07:19 08.10.2019
6565 Clear 10 1016 87 10000 2.1 190 06:46 08.10.2019
6566 Clear 10 1017 87 10000 3.1 190 06:21 08.10.2019
6567 Clouds 10 1017 93 10000 2.6 200 05:43 08.10.2019
6568 Clouds 9 1017 93 10000 2.6 200 05:19 08.10.2019
6569 Clear 9 1018 100 10000 2.1 210 03:32 08.10.2019
6570 Clear 9 1019 93 10000 1.5 200 02:43 08.10.2019
6571 Clear 9 1019 93 10000 1.5 200 02:25 08.10.2019
6572 Clear 10 1019 87 10000 2.1 220 01:41 08.10.2019
6573 Clouds 10 1019 87 10000 2.6 200 00:57 08.10.2019
6574 Clouds 10 1019 87 10000 1.5 0 00:25 08.10.2019
6575 Clouds 10 1019 87 10000 2.6 180 23:58 07.10.2019
6576 Clouds 10 1019 81 10000 1 0 23:38 07.10.2019
6577 Clouds 11 1019 81 10000 1 0 23:19 07.10.2019
6578 Clouds 11 1019 81 10000 1 0 23:19 07.10.2019
6579 Clouds 11 1019 81 10000 1 0 22:55 07.10.2019
6580 Clouds 11 1019 81 10000 2.1 310 22:37 07.10.2019
6581 Clouds 11 1019 76 10000 1.5 0 22:18 07.10.2019
6582 Clouds 11 1019 76 10000 1.5 0 21:54 07.10.2019
6583 Clouds 11 1019 76 10000 1.5 270 21:36 07.10.2019
6584 Clouds 12 1019 67 10000 3.6 300 21:18 07.10.2019
6585 Clear 12 1019 82 10000 2.1 270 20:56 07.10.2019
6586 Clear 12 1019 82 10000 2.1 270 20:38 07.10.2019
6587 Clouds 12 1019 82 10000 2.1 260 20:18 07.10.2019
6588 Clear 12 1019 82 10000 2.1 290 19:54 07.10.2019
6589 -273 0 0 0 0 0 19:54 07.10.2019
6590 Clouds 12 1019 82 10000 2.1 240 19:36 07.10.2019
6591 Clouds 13 1019 76 10000 3.1 230 19:18 07.10.2019
6592 Clouds 13 1019 77 10000 1.5 0 18:41 07.10.2019
6593 Clouds 14 1019 77 10000 2.1 220 18:19 07.10.2019
6594 Clouds 14 1019 77 10000 2.1 220 17:58 07.10.2019
6595 Clear 14 1018 77 10000 2.6 200 17:40 07.10.2019
6596 Clear 14 1018 77 10000 2.6 200 17:40 07.10.2019
6597 Clear 14 1018 77 10000 2.6 200 17:40 07.10.2019
6598 Clouds 14 1019 77 10000 2.6 170 17:19 07.10.2019
6599 Clear 14 1019 76 10000 2.6 210 16:46 07.10.2019
6600 Clouds 14 1019 77 10000 1 0 16:28 07.10.2019
6601 Clouds 14 1019 76 10000 2.6 210 15:58 07.10.2019
6602 Clouds 14 1019 76 10000 2.1 200 15:40 07.10.2019
6603 Clouds 15 1018 72 10000 3.1 180 15:21 07.10.2019
6604 Clouds 15 1019 67 10000 1.5 150 14:42 07.10.2019
6605 Clouds 15 1019 76 10000 1.5 10 14:23 07.10.2019
6606 Clouds 14 1019 67 10000 2.1 160 13:59 07.10.2019
6607 Clouds 14 1019 77 10000 2.6 170 13:40 07.10.2019
6608 Clouds 14 1019 76 10000 3.1 200 13:18 07.10.2019
6609 -273 0 0 0 0 0 12:54 07.10.2019
6610 Clouds 14 1019 76 10000 3.6 220 12:36 07.10.2019
6611 Clouds 13 1019 71 10000 3.6 190 12:18 07.10.2019
6612 Clouds 13 1018 87 10000 1.5 170 11:56 07.10.2019
6613 Rain 12 1018 82 10000 4.1 200 11:36 07.10.2019
6614 Rain 12 1018 82 10000 4.1 190 11:18 07.10.2019
6615 Rain 11 1018 87 10000 4.1 190 10:40 07.10.2019
6616 Rain 11 1018 87 10000 3.1 180 10:20 07.10.2019
6617 Rain 10 1018 87 10000 2.1 160 09:42 07.10.2019
6618 Rain 9 1018 93 5000 2.1 160 09:23 07.10.2019
6619 Clouds 9 1017 87 10000 2.1 150 08:55 07.10.2019
6620 Clouds 9 1017 93 10000 1.5 140 08:37 07.10.2019
6621 Clouds 9 1017 93 10000 3.1 170 08:18 07.10.2019
6622 Clear 9 1016 93 10000 1 0 07:40 07.10.2019
6623 Clear 9 1016 93 10000 1 0 07:20 07.10.2019
6624 Clouds 8 1016 87 10000 1.5 280 06:44 07.10.2019
6625 Clouds 8 1016 87 10000 1.5 280 06:23 07.10.2019
6626 Clouds 8 1015 93 10000 1.5 190 05:42 07.10.2019
6627 Clouds 8 1015 93 10000 1.5 190 05:21 07.10.2019
6628 Clear 9 1015 93 10000 0.5 0 04:23 07.10.2019
6629 Clear 9 1015 87 10000 2.6 250 03:44 07.10.2019
6630 Clear 9 1015 100 10000 1 0 03:19 07.10.2019
6631 Clear 9 1015 100 10000 1 0 03:19 07.10.2019
6632 Rain 10 1014 100 10000 1 0 02:20 07.10.2019
6633 Rain 10 1014 100 10000 1 0 02:20 07.10.2019
6634 Rain 10 1014 87 10000 1.5 0 01:50 07.10.2019
6635 Rain 10 1014 81 10000 1.5 140 01:21 07.10.2019
6636 Rain 10 1014 93 10000 1 0 00:39 07.10.2019
6637 Rain 10 1013 87 10000 2.1 160 00:20 07.10.2019
6638 Rain 11 1013 87 10000 1 0 23:42 06.10.2019
6639 Rain 11 1013 87 10000 1 0 23:42 06.10.2019
6640 Rain 11 1013 87 10000 1 0 23:42 06.10.2019
6641 Rain 11 1012 71 10000 1 0 23:21 06.10.2019
6642 Rain 11 1012 71 10000 1 0 22:59 06.10.2019
6643 Rain 11 1011 81 10000 1 0 22:41 06.10.2019
6644 Rain 12 1011 76 10000 4.1 10 22:22 06.10.2019
6645 Rain 12 1011 76 10000 4.1 10 21:58 06.10.2019
6646 Rain 12 1010 93 10000 3.1 300 21:38 06.10.2019
6647 Rain 12 1010 93 10000 3.1 300 21:38 06.10.2019
6648 Rain 12 1010 93 10000 3.1 300 21:38 06.10.2019
6649 Rain 13 1010 93 10000 3.1 300 21:19 06.10.2019
6650 Rain 12 1010 93 9000 2.6 200 20:58 06.10.2019
6651 Rain 12 1010 87 10000 3.1 180 20:40 06.10.2019
6652 Rain 13 1010 87 10000 3.1 170 20:20 06.10.2019
6653 Rain 13 1010 87 10000 3.1 170 20:20 06.10.2019
6654 Rain 13 1010 87 10000 3.1 170 19:57 06.10.2019
6655 Rain 13 1010 82 10000 4.6 170 19:37 06.10.2019
6656 Rain 13 1010 82 10000 4.1 190 19:19 06.10.2019
6657 Rain 13 1010 82 10000 4.1 190 18:57 06.10.2019
6658 Rain 13 1010 77 10000 3.1 170 18:38 06.10.2019
6659 Rain 13 1011 87 10000 3.6 200 18:19 06.10.2019
6660 Clouds 13 1011 87 10000 3.6 200 18:19 06.10.2019
6661 Rain 14 1011 87 10000 3.6 200 17:57 06.10.2019
6662 Rain 13 1011 87 10000 3.6 190 17:39 06.10.2019
6663 Rain 13 1011 87 10000 3.1 190 17:19 06.10.2019
6664 Rain 14 1012 87 10000 3.6 170 16:42 06.10.2019
6665 Rain 14 1012 87 10000 3.6 180 16:24 06.10.2019
6666 Rain 14 1012 87 10000 3.6 180 15:58 06.10.2019
6667 Rain 14 1012 82 10000 3.6 190 15:39 06.10.2019
6668 Rain 14 1013 87 10000 3.6 190 15:18 06.10.2019
6669 Clouds 13 1013 93 10000 4.1 200 14:43 06.10.2019
6670 Clouds 13 1013 82 10000 0.5 0 14:24 06.10.2019
6671 Drizzle 13 1014 87 10000 4.1 210 13:58 06.10.2019
6672 Rain 13 1014 87 10000 3.6 200 13:39 06.10.2019
6673 Rain 13 1014 93 10000 2.6 220 13:20 06.10.2019
6674 Rain 13 1014 93 10000 2.6 220 13:20 06.10.2019
6675 Rain 13 1014 87 10000 2.1 180 12:57 06.10.2019
6676 Rain 13 1014 87 10000 3.1 210 12:39 06.10.2019
6677 Rain 12 1015 93 9000 2.1 180 12:20 06.10.2019
6678 Rain 12 1015 93 9000 2.1 180 11:57 06.10.2019
6679 Rain 12 1015 93 8000 2.6 210 11:38 06.10.2019
6680 Rain 12 1015 87 10000 2.1 180 11:20 06.10.2019
6681 Clouds 12 1016 87 10000 3.6 220 10:44 06.10.2019
6682 Clouds 12 1016 87 10000 3.6 220 10:44 06.10.2019
6683 Clouds 11 1016 87 10000 1.5 200 10:26 06.10.2019
6684 Clouds 11 1016 87 10000 2.6 200 09:58 06.10.2019
6685 Clouds 11 1016 93 10000 2.1 150 09:39 06.10.2019
6686 Clouds 10 1016 93 8000 1.5 190 09:18 06.10.2019
6687 Mist 10 1016 100 10000 0.5 0 08:43 06.10.2019
6688 Clouds 10 1016 100 10000 0.5 0 08:21 06.10.2019
6689 Clouds 9 1016 87 10000 1 0 07:56 06.10.2019
6690 Clouds 9 1016 87 10000 1 0 07:56 06.10.2019
6691 Rain 9 1016 87 10000 1.89 199.334 07:33 06.10.2019
6692 Clouds 10 1016 87 10000 1 0 06:20 06.10.2019
6693 Rain 10 1017 87 10000 1.5 180 05:34 06.10.2019
6694 Rain 10 1017 93 10000 1 190 03:56 06.10.2019
6695 Clouds 9 1017 87 10000 1.5 210 02:46 06.10.2019
6696 Clouds 10 1017 87 10000 1.5 210 02:27 06.10.2019
6697 Clouds 10 1018 93 10000 1 0 01:46 06.10.2019
6698 Clouds 10 1018 87 10000 0.5 0 01:27 06.10.2019
6699 Rain 10 1018 87 10000 1 360 00:57 06.10.2019
6700 Rain 10 1018 93 10000 1.5 0 00:28 06.10.2019
6701 Rain 10 1018 87 10000 1.5 340 23:45 05.10.2019
6702 Rain 10 1018 87 10000 3.1 10 23:23 05.10.2019
6703 Rain 10 1018 87 10000 3.1 30 22:59 05.10.2019
6704 Clouds 10 1018 87 10000 2.1 360 22:40 05.10.2019
6705 Clouds 11 1018 81 10000 1 0 22:21 05.10.2019
6706 Clouds 11 1018 81 10000 1 0 21:57 05.10.2019
6707 Rain 11 1018 93 10000 2.1 320 21:39 05.10.2019
6708 Rain 11 1017 93 10000 2.1 330 21:20 05.10.2019
6709 Rain 11 1017 93 10000 2.1 330 20:56 05.10.2019
6710 Drizzle 11 1017 93 10000 2.6 350 20:38 05.10.2019
6711 Drizzle 11 1017 81 10000 2.1 40 20:19 05.10.2019
6712 Drizzle 11 1017 81 10000 3.6 20 19:38 05.10.2019
6713 Rain 12 1017 81 10000 2.6 10 19:20 05.10.2019
6714 Rain 12 1017 93 10000 1.5 360 18:57 05.10.2019
6715 Rain 12 1017 76 10000 3.1 20 18:39 05.10.2019
6716 Rain 12 1017 76 10000 3.1 20 18:39 05.10.2019
6717 Rain 12 1017 93 10000 3.1 20 18:20 05.10.2019
6718 Rain 13 1016 93 10000 3.1 20 17:55 05.10.2019
6719 Rain 13 1016 76 10000 3.6 20 17:37 05.10.2019
6720 Rain 13 1016 76 10000 4.1 10 17:18 05.10.2019
6721 Rain 13 1016 76 10000 4.1 10 16:42 05.10.2019
6722 Rain 13 1015 82 10000 5.7 30 16:21 05.10.2019
6723 Rain 13 1015 67 10000 2.6 360 15:57 05.10.2019
6724 Rain 13 1015 82 10000 4.6 10 15:39 05.10.2019
6725 Rain 13 1014 72 10000 2.6 340 15:21 05.10.2019
6726 Drizzle 13 1014 72 10000 4.1 340 14:57 05.10.2019
6727 Drizzle 13 1015 93 10000 5.1 20 14:38 05.10.2019
6728 Clouds 13 1015 93 10000 5.7 20 14:20 05.10.2019
6729 Rain 13 1015 87 10000 2.6 350 13:42 05.10.2019
6730 Rain 13 1014 93 10000 3.1 350 13:22 05.10.2019
6731 Rain 13 1014 87 6000 2.6 270 12:46 05.10.2019
6732 Rain 13 1014 87 10000 2.6 220 12:21 05.10.2019
6733 Rain 13 1014 87 10000 2.6 220 12:21 05.10.2019
6734 Rain 13 1014 87 10000 2.6 220 11:59 05.10.2019
6735 Rain 13 1014 93 9000 2.1 210 11:39 05.10.2019
6736 Rain 13 1013 87 10000 2.6 200 11:19 05.10.2019
6737 Rain 13 1013 93 10000 2.6 200 10:45 05.10.2019
6738 Rain 13 1013 93 10000 2.6 200 10:26 05.10.2019
6739 Rain 13 1012 87 10000 2.6 200 10:26 05.10.2019
6740 Rain 13 1012 87 10000 2.1 230 09:59 05.10.2019
6741 Rain 1